<?xml version="1.0" encoding="UTF-8"?>
<gpx version="1.1" creator="2bulu-scraper" xmlns="http://www.topografix.com/GPX/1/1">
  <metadata><name>:50五仙山古佛山道林沟环线</name><desc>source: 2bulu.com trackId=80985605; exported 2026-09-01T14:49:16.667Z</desc>
    <bounds minlat="29.247507" minlon="105.50964" maxlat="29.27605" maxlon="105.54393"/>
    <link href="https://www.2bulu.com/track/t-IQMHmclOtSLp%252FR2KBg5Tzw%253D%253D.htm"><text>2bulu 源页面</text></link>
  </metadata>
  <wpt lat="29.258945" lon="105.510752"><ele>549</ele><name></name></wpt>
  <wpt lat="29.258958" lon="105.5107"><ele>549</ele><name></name></wpt>
  <wpt lat="29.259188" lon="105.51062"><ele>543</ele><name></name></wpt>
  <wpt lat="29.259272" lon="105.510666"><ele>538</ele><name></name></wpt>
  <wpt lat="29.260134" lon="105.511047"><ele>527</ele><name></name></wpt>
  <wpt lat="29.260269" lon="105.510996"><ele>523</ele><name></name></wpt>
  <wpt lat="29.26057" lon="105.511004"><ele>516</ele><name></name></wpt>
  <wpt lat="29.262" lon="105.51161"><ele>504</ele><name></name></wpt>
  <wpt lat="29.262037" lon="105.511578"><ele>504</ele><name></name></wpt>
  <wpt lat="29.262087" lon="105.511559"><ele>504</ele><name></name></wpt>
  <wpt lat="29.262168" lon="105.511496"><ele>499</ele><name></name></wpt>
  <wpt lat="29.262277" lon="105.51078"><ele>476</ele><name></name></wpt>
  <wpt lat="29.266871" lon="105.510573"><ele>400</ele><name></name></wpt>
  <wpt lat="29.266925" lon="105.510593"><ele>400</ele><name></name></wpt>
  <wpt lat="29.267131" lon="105.510659"><ele>403</ele><name>川渝交界</name></wpt>
  <wpt lat="29.267541" lon="105.511095"><ele>410</ele><name></name></wpt>
  <wpt lat="29.271071" lon="105.517225"><ele>441</ele><name>古佛山</name></wpt>
  <wpt lat="29.271121" lon="105.517315"><ele>441</ele><name></name></wpt>
  <wpt lat="29.271121" lon="105.517315"><ele>441</ele><name></name></wpt>
  <wpt lat="29.27168" lon="105.518044"><ele>440</ele><name></name></wpt>
  <wpt lat="29.271748" lon="105.518123"><ele>441</ele><name>右边栈道</name></wpt>
  <wpt lat="29.276043" lon="105.524243"><ele>436</ele><name>栈道</name></wpt>
  <wpt lat="29.275962" lon="105.524308"><ele>435</ele><name></name></wpt>
  <wpt lat="29.27587" lon="105.524344"><ele>438</ele><name></name></wpt>
  <wpt lat="29.27587" lon="105.524344"><ele>438</ele><name></name></wpt>
  <wpt lat="29.275796" lon="105.524394"><ele>443</ele><name></name></wpt>
  <wpt lat="29.275796" lon="105.524394"><ele>443</ele><name>半山栈道</name></wpt>
  <wpt lat="29.275684" lon="105.524899"><ele>480</ele><name>栈道洞口</name></wpt>
  <wpt lat="29.274242" lon="105.522942"><ele>509</ele><name></name></wpt>
  <wpt lat="29.274006" lon="105.522616"><ele>502</ele><name></name></wpt>
  <wpt lat="29.271863" lon="105.519594"><ele>499</ele><name></name></wpt>
  <wpt lat="29.271863" lon="105.519594"><ele>499</ele><name></name></wpt>
  <wpt lat="29.271933" lon="105.519687"><ele>514</ele><name>开路</name></wpt>
  <wpt lat="29.272125" lon="105.520392"><ele>547</ele><name></name></wpt>
  <wpt lat="29.272018" lon="105.520212"><ele>548</ele><name>野菜</name></wpt>
  <wpt lat="29.269057" lon="105.517913"><ele>583</ele><name></name></wpt>
  <wpt lat="29.268543" lon="105.517816"><ele>609</ele><name></name></wpt>
  <wpt lat="29.26853" lon="105.518073"><ele>624</ele><name>爬山入口</name></wpt>
  <wpt lat="29.268135" lon="105.518067"><ele>642</ele><name>茶山</name></wpt>
  <wpt lat="29.267965" lon="105.51869"><ele>668</ele><name></name></wpt>
  <wpt lat="29.268109" lon="105.5192"><ele>686</ele><name>茶山</name></wpt>
  <wpt lat="29.268375" lon="105.519289"><ele>689</ele><name></name></wpt>
  <wpt lat="29.268602" lon="105.519424"><ele>690</ele><name>亭子</name></wpt>
  <wpt lat="29.269359" lon="105.520291"><ele>702</ele><name>亭子小息</name></wpt>
  <wpt lat="29.267129" lon="105.522562"><ele>670</ele><name></name></wpt>
  <wpt lat="29.267162" lon="105.522603"><ele>671</ele><name></name></wpt>
  <wpt lat="29.267162" lon="105.522603"><ele>671</ele><name>这里进入
</name></wpt>
  <wpt lat="29.265992" lon="105.523692"><ele>652</ele><name></name></wpt>
  <wpt lat="29.265382" lon="105.523828"><ele>643</ele><name></name></wpt>
  <wpt lat="29.262478" lon="105.528385"><ele>546</ele><name>乡村</name></wpt>
  <wpt lat="29.262455" lon="105.52834"><ele>546</ele><name></name></wpt>
  <wpt lat="29.262225" lon="105.528388"><ele>548</ele><name></name></wpt>
  <wpt lat="29.259659" lon="105.529291"><ele>521</ele><name>进入公路</name></wpt>
  <wpt lat="29.251483" lon="105.543273"><ele>384</ele><name></name></wpt>
  <wpt lat="29.250235" lon="105.543336"><ele>394</ele><name>爬坡</name></wpt>
  <wpt lat="29.250259" lon="105.54329"><ele>394</ele><name></name></wpt>
  <wpt lat="29.249086" lon="105.536597"><ele>407</ele><name></name></wpt>
  <wpt lat="29.249721" lon="105.53644"><ele>419</ele><name></name></wpt>
  <wpt lat="29.249847" lon="105.536332"><ele>421</ele><name></name></wpt>
  <wpt lat="29.249963" lon="105.536228"><ele>422</ele><name></name></wpt>
  <wpt lat="29.254078" lon="105.52962"><ele>469</ele><name></name></wpt>
  <wpt lat="29.263159" lon="105.519273"><ele>573</ele><name></name></wpt>
  <wpt lat="29.264994" lon="105.517674"><ele>614</ele><name>快到起终点</name></wpt>
  <wpt lat="29.264447" lon="105.515923"><ele>630</ele><name>川渝交界</name></wpt>
  <wpt lat="29.26616" lon="105.515812"><ele>625</ele><name>起终点</name></wpt>
  <wpt lat="29.26616" lon="105.515812"><ele>625</ele><name>起终点</name></wpt>
  <trk><name>:50五仙山古佛山道林沟环线</name>
      <trkseg>
        <trkpt lat="29.265268" lon="105.515892"><ele>611.1514</ele><time>2026-03-23T17:58:50.000Z</time></trkpt>
        <trkpt lat="29.265268" lon="105.515892"><ele>611.14417</ele><time>2026-03-23T17:58:51.000Z</time></trkpt>
        <trkpt lat="29.265262" lon="105.515884"><ele>613.1453</ele><time>2026-03-23T17:58:55.000Z</time></trkpt>
        <trkpt lat="29.265193" lon="105.515826"><ele>622.9217</ele><time>2026-03-23T17:59:02.000Z</time></trkpt>
        <trkpt lat="29.265125" lon="105.515788"><ele>625.8772</ele><time>2026-03-23T17:59:07.000Z</time></trkpt>
        <trkpt lat="29.265072" lon="105.515769"><ele>625.873</ele><time>2026-03-23T17:59:11.000Z</time></trkpt>
        <trkpt lat="29.265017" lon="105.515745"><ele>625.19867</ele><time>2026-03-23T17:59:16.000Z</time></trkpt>
        <trkpt lat="29.264968" lon="105.515732"><ele>624.1708</ele><time>2026-03-23T17:59:21.000Z</time></trkpt>
        <trkpt lat="29.264928" lon="105.515744"><ele>622.82574</ele><time>2026-03-23T17:59:25.000Z</time></trkpt>
        <trkpt lat="29.264877" lon="105.515748"><ele>622.95605</ele><time>2026-03-23T17:59:30.000Z</time></trkpt>
        <trkpt lat="29.264832" lon="105.515766"><ele>623.35834</ele><time>2026-03-23T17:59:35.000Z</time></trkpt>
        <trkpt lat="29.264796" lon="105.515793"><ele>623.4675</ele><time>2026-03-23T17:59:39.000Z</time></trkpt>
        <trkpt lat="29.26476" lon="105.51583"><ele>623.63855</ele><time>2026-03-23T17:59:43.000Z</time></trkpt>
        <trkpt lat="29.264724" lon="105.515866"><ele>623.9446</ele><time>2026-03-23T17:59:47.000Z</time></trkpt>
        <trkpt lat="29.264681" lon="105.515901"><ele>625.3254</ele><time>2026-03-23T17:59:52.000Z</time></trkpt>
        <trkpt lat="29.264639" lon="105.515904"><ele>626.0647</ele><time>2026-03-23T17:59:56.000Z</time></trkpt>
        <trkpt lat="29.264582" lon="105.5159"><ele>625.88446</ele><time>2026-03-23T18:00:01.000Z</time></trkpt>
        <trkpt lat="29.264531" lon="105.515894"><ele>625.7115</ele><time>2026-03-23T18:00:05.000Z</time></trkpt>
        <trkpt lat="29.264485" lon="105.515882"><ele>625.91223</ele><time>2026-03-23T18:00:09.000Z</time></trkpt>
        <trkpt lat="29.264439" lon="105.515869"><ele>624.8494</ele><time>2026-03-23T18:00:13.000Z</time></trkpt>
        <trkpt lat="29.264394" lon="105.515856"><ele>624.0973</ele><time>2026-03-23T18:00:17.000Z</time></trkpt>
        <trkpt lat="29.264347" lon="105.515845"><ele>623.38116</ele><time>2026-03-23T18:00:21.000Z</time></trkpt>
        <trkpt lat="29.264301" lon="105.515833"><ele>623.2382</ele><time>2026-03-23T18:00:25.000Z</time></trkpt>
        <trkpt lat="29.264259" lon="105.515806"><ele>623.5872</ele><time>2026-03-23T18:00:30.000Z</time></trkpt>
        <trkpt lat="29.264225" lon="105.515769"><ele>624.76556</ele><time>2026-03-23T18:00:34.000Z</time></trkpt>
        <trkpt lat="29.264197" lon="105.515724"><ele>625.754</ele><time>2026-03-23T18:00:38.000Z</time></trkpt>
        <trkpt lat="29.264173" lon="105.515665"><ele>625.7689</ele><time>2026-03-23T18:00:43.000Z</time></trkpt>
        <trkpt lat="29.264159" lon="105.515612"><ele>625.5814</ele><time>2026-03-23T18:00:47.000Z</time></trkpt>
        <trkpt lat="29.264154" lon="105.515549"><ele>624.3044</ele><time>2026-03-23T18:00:53.000Z</time></trkpt>
        <trkpt lat="29.264154" lon="105.5155"><ele>623.655</ele><time>2026-03-23T18:00:57.000Z</time></trkpt>
        <trkpt lat="29.264154" lon="105.515435"><ele>622.61676</ele><time>2026-03-23T18:01:02.000Z</time></trkpt>
        <trkpt lat="29.264159" lon="105.515372"><ele>621.9837</ele><time>2026-03-23T18:01:07.000Z</time></trkpt>
        <trkpt lat="29.264152" lon="105.515311"><ele>618.7645</ele><time>2026-03-23T18:01:13.000Z</time></trkpt>
        <trkpt lat="29.264142" lon="105.515256"><ele>615.9687</ele><time>2026-03-23T18:01:18.000Z</time></trkpt>
        <trkpt lat="29.264129" lon="105.5152"><ele>614.0762</ele><time>2026-03-23T18:01:23.000Z</time></trkpt>
        <trkpt lat="29.264115" lon="105.515143"><ele>613.42145</ele><time>2026-03-23T18:01:27.000Z</time></trkpt>
        <trkpt lat="29.264085" lon="105.515089"><ele>612.1776</ele><time>2026-03-23T18:01:32.000Z</time></trkpt>
        <trkpt lat="29.264051" lon="105.515049"><ele>610.8045</ele><time>2026-03-23T18:01:36.000Z</time></trkpt>
        <trkpt lat="29.264004" lon="105.51502"><ele>610.3593</ele><time>2026-03-23T18:01:40.000Z</time></trkpt>
        <trkpt lat="29.263948" lon="105.514999"><ele>610.12933</ele><time>2026-03-23T18:01:44.000Z</time></trkpt>
        <trkpt lat="29.26389" lon="105.514999"><ele>609.5206</ele><time>2026-03-23T18:01:49.000Z</time></trkpt>
        <trkpt lat="29.263833" lon="105.515013"><ele>608.01013</ele><time>2026-03-23T18:01:55.000Z</time></trkpt>
        <trkpt lat="29.263788" lon="105.515023"><ele>607.61145</ele><time>2026-03-23T18:01:59.000Z</time></trkpt>
        <trkpt lat="29.263746" lon="105.515036"><ele>607.97076</ele><time>2026-03-23T18:02:02.000Z</time></trkpt>
        <trkpt lat="29.263686" lon="105.515044"><ele>607.5603</ele><time>2026-03-23T18:02:07.000Z</time></trkpt>
        <trkpt lat="29.263633" lon="105.515046"><ele>607.28217</ele><time>2026-03-23T18:02:12.000Z</time></trkpt>
        <trkpt lat="29.263594" lon="105.515046"><ele>607.3562</ele><time>2026-03-23T18:02:15.000Z</time></trkpt>
        <trkpt lat="29.263545" lon="105.515049"><ele>607.3595</ele><time>2026-03-23T18:02:19.000Z</time></trkpt>
        <trkpt lat="29.263495" lon="105.515033"><ele>607.9676</ele><time>2026-03-23T18:02:23.000Z</time></trkpt>
        <trkpt lat="29.263452" lon="105.514998"><ele>607.96747</ele><time>2026-03-23T18:02:27.000Z</time></trkpt>
        <trkpt lat="29.26341" lon="105.514962"><ele>607.1541</ele><time>2026-03-23T18:02:31.000Z</time></trkpt>
        <trkpt lat="29.263372" lon="105.514924"><ele>605.4713</ele><time>2026-03-23T18:02:35.000Z</time></trkpt>
        <trkpt lat="29.26333" lon="105.514904"><ele>604.031</ele><time>2026-03-23T18:02:39.000Z</time></trkpt>
        <trkpt lat="29.263287" lon="105.514887"><ele>603.192</ele><time>2026-03-23T18:02:43.000Z</time></trkpt>
        <trkpt lat="29.263243" lon="105.514859"><ele>601.4171</ele><time>2026-03-23T18:02:49.000Z</time></trkpt>
        <trkpt lat="29.263198" lon="105.514847"><ele>600.5947</ele><time>2026-03-23T18:02:53.000Z</time></trkpt>
        <trkpt lat="29.263149" lon="105.514835"><ele>599.9389</ele><time>2026-03-23T18:02:57.000Z</time></trkpt>
        <trkpt lat="29.263102" lon="105.514821"><ele>599.58673</ele><time>2026-03-23T18:03:01.000Z</time></trkpt>
        <trkpt lat="29.263055" lon="105.514814"><ele>598.8978</ele><time>2026-03-23T18:03:05.000Z</time></trkpt>
        <trkpt lat="29.263008" lon="105.514814"><ele>598.55927</ele><time>2026-03-23T18:03:09.000Z</time></trkpt>
        <trkpt lat="29.262969" lon="105.51483"><ele>598.4135</ele><time>2026-03-23T18:03:12.000Z</time></trkpt>
        <trkpt lat="29.262928" lon="105.514853"><ele>598.49536</ele><time>2026-03-23T18:03:15.000Z</time></trkpt>
        <trkpt lat="29.262874" lon="105.514879"><ele>599.0338</ele><time>2026-03-23T18:03:19.000Z</time></trkpt>
        <trkpt lat="29.262816" lon="105.514898"><ele>600.2733</ele><time>2026-03-23T18:03:23.000Z</time></trkpt>
        <trkpt lat="29.26276" lon="105.51491"><ele>601.4015</ele><time>2026-03-23T18:03:27.000Z</time></trkpt>
        <trkpt lat="29.262706" lon="105.514917"><ele>601.79865</ele><time>2026-03-23T18:03:31.000Z</time></trkpt>
        <trkpt lat="29.262652" lon="105.514921"><ele>601.73315</ele><time>2026-03-23T18:03:35.000Z</time></trkpt>
        <trkpt lat="29.262597" lon="105.514923"><ele>601.876</ele><time>2026-03-23T18:03:39.000Z</time></trkpt>
        <trkpt lat="29.262546" lon="105.514922"><ele>601.8368</ele><time>2026-03-23T18:03:43.000Z</time></trkpt>
        <trkpt lat="29.262496" lon="105.514901"><ele>600.6655</ele><time>2026-03-23T18:03:48.000Z</time></trkpt>
        <trkpt lat="29.262464" lon="105.514874"><ele>600.1345</ele><time>2026-03-23T18:03:51.000Z</time></trkpt>
        <trkpt lat="29.262434" lon="105.514823"><ele>599.40826</ele><time>2026-03-23T18:03:55.000Z</time></trkpt>
        <trkpt lat="29.262416" lon="105.514764"><ele>597.5175</ele><time>2026-03-23T18:03:59.000Z</time></trkpt>
        <trkpt lat="29.262402" lon="105.514707"><ele>595.22156</ele><time>2026-03-23T18:04:03.000Z</time></trkpt>
        <trkpt lat="29.262383" lon="105.514656"><ele>593.0497</ele><time>2026-03-23T18:04:07.000Z</time></trkpt>
        <trkpt lat="29.262346" lon="105.514619"><ele>591.6602</ele><time>2026-03-23T18:04:11.000Z</time></trkpt>
        <trkpt lat="29.262312" lon="105.514576"><ele>590.66095</ele><time>2026-03-23T18:04:15.000Z</time></trkpt>
        <trkpt lat="29.26227" lon="105.514556"><ele>590.13654</ele><time>2026-03-23T18:04:19.000Z</time></trkpt>
        <trkpt lat="29.262212" lon="105.514551"><ele>589.4972</ele><time>2026-03-23T18:04:24.000Z</time></trkpt>
        <trkpt lat="29.262164" lon="105.514553"><ele>589.7981</ele><time>2026-03-23T18:04:28.000Z</time></trkpt>
        <trkpt lat="29.262122" lon="105.514553"><ele>590.7378</ele><time>2026-03-23T18:04:31.000Z</time></trkpt>
        <trkpt lat="29.262068" lon="105.514544"><ele>592.3512</ele><time>2026-03-23T18:04:35.000Z</time></trkpt>
        <trkpt lat="29.262017" lon="105.514536"><ele>593.46576</ele><time>2026-03-23T18:04:39.000Z</time></trkpt>
        <trkpt lat="29.261969" lon="105.51452"><ele>594.5877</ele><time>2026-03-23T18:04:43.000Z</time></trkpt>
        <trkpt lat="29.261921" lon="105.514493"><ele>595.00885</ele><time>2026-03-23T18:04:47.000Z</time></trkpt>
        <trkpt lat="29.261876" lon="105.514446"><ele>595.37445</ele><time>2026-03-23T18:04:52.000Z</time></trkpt>
        <trkpt lat="29.261874" lon="105.51439"><ele>594.1971</ele><time>2026-03-23T18:04:58.000Z</time></trkpt>
        <trkpt lat="29.261869" lon="105.51434"><ele>592.99115</ele><time>2026-03-23T18:05:02.000Z</time></trkpt>
        <trkpt lat="29.261836" lon="105.514297"><ele>591.6443</ele><time>2026-03-23T18:05:07.000Z</time></trkpt>
        <trkpt lat="29.261797" lon="105.51427"><ele>591.39734</ele><time>2026-03-23T18:05:11.000Z</time></trkpt>
        <trkpt lat="29.261737" lon="105.514257"><ele>592.2088</ele><time>2026-03-23T18:05:16.000Z</time></trkpt>
        <trkpt lat="29.261696" lon="105.514241"><ele>593.584</ele><time>2026-03-23T18:05:19.000Z</time></trkpt>
        <trkpt lat="29.261654" lon="105.514219"><ele>594.6613</ele><time>2026-03-23T18:05:22.000Z</time></trkpt>
        <trkpt lat="29.261609" lon="105.514172"><ele>596.52026</ele><time>2026-03-23T18:05:27.000Z</time></trkpt>
        <trkpt lat="29.261578" lon="105.514124"><ele>596.97003</ele><time>2026-03-23T18:05:31.000Z</time></trkpt>
        <trkpt lat="29.261561" lon="105.514067"><ele>597.2807</ele><time>2026-03-23T18:05:36.000Z</time></trkpt>
        <trkpt lat="29.261556" lon="105.514009"><ele>596.61835</ele><time>2026-03-23T18:05:42.000Z</time></trkpt>
        <trkpt lat="29.261549" lon="105.513959"><ele>595.8346</ele><time>2026-03-23T18:05:47.000Z</time></trkpt>
        <trkpt lat="29.261531" lon="105.513904"><ele>594.66327</ele><time>2026-03-23T18:05:52.000Z</time></trkpt>
        <trkpt lat="29.261498" lon="105.513871"><ele>593.7761</ele><time>2026-03-23T18:05:56.000Z</time></trkpt>
        <trkpt lat="29.261467" lon="105.513829"><ele>593.3766</ele><time>2026-03-23T18:06:00.000Z</time></trkpt>
        <trkpt lat="29.261435" lon="105.513773"><ele>593.5543</ele><time>2026-03-23T18:06:04.000Z</time></trkpt>
        <trkpt lat="29.261414" lon="105.513708"><ele>593.02136</ele><time>2026-03-23T18:06:09.000Z</time></trkpt>
        <trkpt lat="29.261415" lon="105.513647"><ele>591.7295</ele><time>2026-03-23T18:06:14.000Z</time></trkpt>
        <trkpt lat="29.261404" lon="105.513579"><ele>589.74976</ele><time>2026-03-23T18:06:20.000Z</time></trkpt>
        <trkpt lat="29.261377" lon="105.513541"><ele>588.3703</ele><time>2026-03-23T18:06:24.000Z</time></trkpt>
        <trkpt lat="29.261346" lon="105.513504"><ele>586.8561</ele><time>2026-03-23T18:06:28.000Z</time></trkpt>
        <trkpt lat="29.261295" lon="105.51351"><ele>586.1166</ele><time>2026-03-23T18:06:33.000Z</time></trkpt>
        <trkpt lat="29.261248" lon="105.513524"><ele>586.9332</ele><time>2026-03-23T18:06:37.000Z</time></trkpt>
        <trkpt lat="29.261191" lon="105.513551"><ele>589.007</ele><time>2026-03-23T18:06:42.000Z</time></trkpt>
        <trkpt lat="29.261136" lon="105.513581"><ele>590.96857</ele><time>2026-03-23T18:06:47.000Z</time></trkpt>
        <trkpt lat="29.261084" lon="105.513599"><ele>593.1717</ele><time>2026-03-23T18:06:52.000Z</time></trkpt>
        <trkpt lat="29.261035" lon="105.513606"><ele>594.96045</ele><time>2026-03-23T18:06:56.000Z</time></trkpt>
        <trkpt lat="29.260982" lon="105.513605"><ele>596.71735</ele><time>2026-03-23T18:07:01.000Z</time></trkpt>
        <trkpt lat="29.260937" lon="105.51361"><ele>597.53546</ele><time>2026-03-23T18:07:06.000Z</time></trkpt>
        <trkpt lat="29.260887" lon="105.513622"><ele>597.70374</ele><time>2026-03-23T18:07:16.000Z</time></trkpt>
        <trkpt lat="29.260846" lon="105.513596"><ele>597.29785</ele><time>2026-03-23T18:07:22.000Z</time></trkpt>
        <trkpt lat="29.260823" lon="105.513533"><ele>596.5176</ele><time>2026-03-23T18:07:29.000Z</time></trkpt>
        <trkpt lat="29.260813" lon="105.513476"><ele>595.9787</ele><time>2026-03-23T18:07:35.000Z</time></trkpt>
        <trkpt lat="29.260803" lon="105.513422"><ele>594.2202</ele><time>2026-03-23T18:07:41.000Z</time></trkpt>
        <trkpt lat="29.260798" lon="105.513365"><ele>591.9505</ele><time>2026-03-23T18:07:46.000Z</time></trkpt>
        <trkpt lat="29.260795" lon="105.513305"><ele>590.066</ele><time>2026-03-23T18:07:51.000Z</time></trkpt>
        <trkpt lat="29.260796" lon="105.513248"><ele>588.7268</ele><time>2026-03-23T18:07:55.000Z</time></trkpt>
        <trkpt lat="29.260778" lon="105.51319"><ele>586.6401</ele><time>2026-03-23T18:08:00.000Z</time></trkpt>
        <trkpt lat="29.260743" lon="105.513137"><ele>584.72656</ele><time>2026-03-23T18:08:05.000Z</time></trkpt>
        <trkpt lat="29.260701" lon="105.513098"><ele>583.45135</ele><time>2026-03-23T18:08:10.000Z</time></trkpt>
        <trkpt lat="29.260648" lon="105.513087"><ele>582.13354</ele><time>2026-03-23T18:08:15.000Z</time></trkpt>
        <trkpt lat="29.260596" lon="105.513087"><ele>581.592</ele><time>2026-03-23T18:08:20.000Z</time></trkpt>
        <trkpt lat="29.260553" lon="105.513081"><ele>581.9745</ele><time>2026-03-23T18:08:24.000Z</time></trkpt>
        <trkpt lat="29.260496" lon="105.513074"><ele>582.8015</ele><time>2026-03-23T18:08:29.000Z</time></trkpt>
        <trkpt lat="29.260443" lon="105.513051"><ele>583.73883</ele><time>2026-03-23T18:08:34.000Z</time></trkpt>
        <trkpt lat="29.260401" lon="105.513027"><ele>584.40814</ele><time>2026-03-23T18:08:38.000Z</time></trkpt>
        <trkpt lat="29.260356" lon="105.513004"><ele>584.83</ele><time>2026-03-23T18:08:42.000Z</time></trkpt>
        <trkpt lat="29.260305" lon="105.512968"><ele>584.6259</ele><time>2026-03-23T18:08:47.000Z</time></trkpt>
        <trkpt lat="29.260262" lon="105.512941"><ele>584.73456</ele><time>2026-03-23T18:08:51.000Z</time></trkpt>
        <trkpt lat="29.260213" lon="105.51293"><ele>585.1175</ele><time>2026-03-23T18:08:56.000Z</time></trkpt>
        <trkpt lat="29.260176" lon="105.512935"><ele>585.5781</ele><time>2026-03-23T18:08:59.000Z</time></trkpt>
        <trkpt lat="29.260122" lon="105.512937"><ele>586.90533</ele><time>2026-03-23T18:09:04.000Z</time></trkpt>
        <trkpt lat="29.260081" lon="105.512956"><ele>587.8574</ele><time>2026-03-23T18:09:08.000Z</time></trkpt>
        <trkpt lat="29.260047" lon="105.513001"><ele>588.3105</ele><time>2026-03-23T18:09:13.000Z</time></trkpt>
        <trkpt lat="29.260018" lon="105.513052"><ele>589.1633</ele><time>2026-03-23T18:09:18.000Z</time></trkpt>
        <trkpt lat="29.259978" lon="105.51309"><ele>590.81696</ele><time>2026-03-23T18:09:23.000Z</time></trkpt>
        <trkpt lat="29.259936" lon="105.513103"><ele>592.67377</ele><time>2026-03-23T18:09:27.000Z</time></trkpt>
        <trkpt lat="29.25989" lon="105.513092"><ele>594.4506</ele><time>2026-03-23T18:09:31.000Z</time></trkpt>
        <trkpt lat="29.259847" lon="105.513056"><ele>595.54517</ele><time>2026-03-23T18:09:35.000Z</time></trkpt>
        <trkpt lat="29.259818" lon="105.512999"><ele>595.82764</ele><time>2026-03-23T18:09:39.000Z</time></trkpt>
        <trkpt lat="29.259797" lon="105.512936"><ele>594.6097</ele><time>2026-03-23T18:09:43.000Z</time></trkpt>
        <trkpt lat="29.259789" lon="105.512877"><ele>592.69727</ele><time>2026-03-23T18:09:47.000Z</time></trkpt>
        <trkpt lat="29.25978" lon="105.512817"><ele>590.59814</ele><time>2026-03-23T18:09:51.000Z</time></trkpt>
        <trkpt lat="29.259766" lon="105.512753"><ele>588.56793</ele><time>2026-03-23T18:09:56.000Z</time></trkpt>
        <trkpt lat="29.259738" lon="105.512697"><ele>587.0604</ele><time>2026-03-23T18:10:12.000Z</time></trkpt>
        <trkpt lat="29.259728" lon="105.51266"><ele>586.8632</ele><time>2026-03-23T18:10:17.000Z</time></trkpt>
        <trkpt lat="29.259717" lon="105.512603"><ele>585.54504</ele><time>2026-03-23T18:10:22.000Z</time></trkpt>
        <trkpt lat="29.259698" lon="105.51255"><ele>584.1583</ele><time>2026-03-23T18:10:27.000Z</time></trkpt>
        <trkpt lat="29.259671" lon="105.512503"><ele>582.90704</ele><time>2026-03-23T18:10:31.000Z</time></trkpt>
        <trkpt lat="29.25963" lon="105.512468"><ele>582.5002</ele><time>2026-03-23T18:10:35.000Z</time></trkpt>
        <trkpt lat="29.259582" lon="105.512447"><ele>583.45435</ele><time>2026-03-23T18:10:39.000Z</time></trkpt>
        <trkpt lat="29.259533" lon="105.512447"><ele>584.0548</ele><time>2026-03-23T18:10:43.000Z</time></trkpt>
        <trkpt lat="29.259486" lon="105.512471"><ele>584.3431</ele><time>2026-03-23T18:10:48.000Z</time></trkpt>
        <trkpt lat="29.259453" lon="105.512516"><ele>584.62854</ele><time>2026-03-23T18:10:53.000Z</time></trkpt>
        <trkpt lat="29.25943" lon="105.512575"><ele>585.6458</ele><time>2026-03-23T18:10:58.000Z</time></trkpt>
        <trkpt lat="29.259406" lon="105.512635"><ele>587.1375</ele><time>2026-03-23T18:11:03.000Z</time></trkpt>
        <trkpt lat="29.259377" lon="105.512686"><ele>589.6259</ele><time>2026-03-23T18:11:08.000Z</time></trkpt>
        <trkpt lat="29.259351" lon="105.512742"><ele>592.29333</ele><time>2026-03-23T18:11:13.000Z</time></trkpt>
        <trkpt lat="29.259313" lon="105.512782"><ele>595.00275</ele><time>2026-03-23T18:11:18.000Z</time></trkpt>
        <trkpt lat="29.259273" lon="105.512806"><ele>596.462</ele><time>2026-03-23T18:11:22.000Z</time></trkpt>
        <trkpt lat="29.259232" lon="105.512815"><ele>596.6515</ele><time>2026-03-23T18:11:25.000Z</time></trkpt>
        <trkpt lat="29.259176" lon="105.512808"><ele>596.84216</ele><time>2026-03-23T18:11:30.000Z</time></trkpt>
        <trkpt lat="29.259127" lon="105.512792"><ele>596.83685</ele><time>2026-03-23T18:11:33.000Z</time></trkpt>
        <trkpt lat="29.259075" lon="105.51278"><ele>597.11163</ele><time>2026-03-23T18:11:37.000Z</time></trkpt>
        <trkpt lat="29.259024" lon="105.512783"><ele>597.3333</ele><time>2026-03-23T18:11:41.000Z</time></trkpt>
        <trkpt lat="29.258977" lon="105.512807"><ele>597.4931</ele><time>2026-03-23T18:11:45.000Z</time></trkpt>
        <trkpt lat="29.25894" lon="105.512852"><ele>598.1939</ele><time>2026-03-23T18:11:49.000Z</time></trkpt>
        <trkpt lat="29.258897" lon="105.512892"><ele>600.10455</ele><time>2026-03-23T18:11:53.000Z</time></trkpt>
        <trkpt lat="29.258852" lon="105.512927"><ele>602.33594</ele><time>2026-03-23T18:11:58.000Z</time></trkpt>
        <trkpt lat="29.2588" lon="105.512948"><ele>604.51483</ele><time>2026-03-23T18:12:03.000Z</time></trkpt>
        <trkpt lat="29.258744" lon="105.512938"><ele>604.7428</ele><time>2026-03-23T18:12:08.000Z</time></trkpt>
        <trkpt lat="29.258696" lon="105.512922"><ele>604.3896</ele><time>2026-03-23T18:12:12.000Z</time></trkpt>
        <trkpt lat="29.258661" lon="105.512878"><ele>603.7463</ele><time>2026-03-23T18:12:16.000Z</time></trkpt>
        <trkpt lat="29.258619" lon="105.512842"><ele>602.41003</ele><time>2026-03-23T18:12:20.000Z</time></trkpt>
        <trkpt lat="29.258577" lon="105.512808"><ele>600.6154</ele><time>2026-03-23T18:12:24.000Z</time></trkpt>
        <trkpt lat="29.258533" lon="105.512778"><ele>599.2015</ele><time>2026-03-23T18:12:28.000Z</time></trkpt>
        <trkpt lat="29.258491" lon="105.512745"><ele>597.4943</ele><time>2026-03-23T18:12:32.000Z</time></trkpt>
        <trkpt lat="29.258455" lon="105.512707"><ele>596.26587</ele><time>2026-03-23T18:12:36.000Z</time></trkpt>
        <trkpt lat="29.258415" lon="105.512657"><ele>593.73175</ele><time>2026-03-23T18:12:42.000Z</time></trkpt>
        <trkpt lat="29.258377" lon="105.512619"><ele>592.481</ele><time>2026-03-23T18:12:47.000Z</time></trkpt>
        <trkpt lat="29.258344" lon="105.512585"><ele>592.0801</ele><time>2026-03-23T18:12:51.000Z</time></trkpt>
        <trkpt lat="29.258293" lon="105.512568"><ele>592.139</ele><time>2026-03-23T18:12:56.000Z</time></trkpt>
        <trkpt lat="29.258245" lon="105.512573"><ele>591.6573</ele><time>2026-03-23T18:13:00.000Z</time></trkpt>
        <trkpt lat="29.258194" lon="105.512581"><ele>591.88165</ele><time>2026-03-23T18:13:04.000Z</time></trkpt>
        <trkpt lat="29.258146" lon="105.512598"><ele>592.67865</ele><time>2026-03-23T18:13:08.000Z</time></trkpt>
        <trkpt lat="29.258099" lon="105.512617"><ele>593.54333</ele><time>2026-03-23T18:13:12.000Z</time></trkpt>
        <trkpt lat="29.258054" lon="105.512633"><ele>594.92267</ele><time>2026-03-23T18:13:16.000Z</time></trkpt>
        <trkpt lat="29.258001" lon="105.512645"><ele>596.2454</ele><time>2026-03-23T18:13:20.000Z</time></trkpt>
        <trkpt lat="29.257944" lon="105.512653"><ele>596.383</ele><time>2026-03-23T18:13:25.000Z</time></trkpt>
        <trkpt lat="29.257889" lon="105.512653"><ele>596.76874</ele><time>2026-03-23T18:13:30.000Z</time></trkpt>
        <trkpt lat="29.257842" lon="105.512657"><ele>596.8067</ele><time>2026-03-23T18:13:34.000Z</time></trkpt>
        <trkpt lat="29.25779" lon="105.512652"><ele>597.3657</ele><time>2026-03-23T18:13:37.000Z</time></trkpt>
        <trkpt lat="29.257741" lon="105.512641"><ele>597.93414</ele><time>2026-03-23T18:13:41.000Z</time></trkpt>
        <trkpt lat="29.257691" lon="105.512638"><ele>597.86383</ele><time>2026-03-23T18:13:45.000Z</time></trkpt>
        <trkpt lat="29.25764" lon="105.512646"><ele>597.99786</ele><time>2026-03-23T18:13:49.000Z</time></trkpt>
        <trkpt lat="29.257592" lon="105.512681"><ele>598.3916</ele><time>2026-03-23T18:13:54.000Z</time></trkpt>
        <trkpt lat="29.257554" lon="105.512713"><ele>598.9445</ele><time>2026-03-23T18:13:58.000Z</time></trkpt>
        <trkpt lat="29.2575" lon="105.512744"><ele>600.0277</ele><time>2026-03-23T18:14:04.000Z</time></trkpt>
        <trkpt lat="29.25746" lon="105.51277"><ele>601.33514</ele><time>2026-03-23T18:14:08.000Z</time></trkpt>
        <trkpt lat="29.257407" lon="105.512784"><ele>602.5886</ele><time>2026-03-23T18:14:13.000Z</time></trkpt>
        <trkpt lat="29.257351" lon="105.512794"><ele>602.3974</ele><time>2026-03-23T18:14:18.000Z</time></trkpt>
        <trkpt lat="29.257298" lon="105.512795"><ele>602.76654</ele><time>2026-03-23T18:14:22.000Z</time></trkpt>
        <trkpt lat="29.257239" lon="105.512796"><ele>603.2959</ele><time>2026-03-23T18:14:26.000Z</time></trkpt>
        <trkpt lat="29.257181" lon="105.51279"><ele>603.3917</ele><time>2026-03-23T18:14:30.000Z</time></trkpt>
        <trkpt lat="29.257126" lon="105.512791"><ele>603.0129</ele><time>2026-03-23T18:14:34.000Z</time></trkpt>
        <trkpt lat="29.257083" lon="105.512816"><ele>602.8411</ele><time>2026-03-23T18:14:38.000Z</time></trkpt>
        <trkpt lat="29.25704" lon="105.512836"><ele>602.92834</ele><time>2026-03-23T18:14:42.000Z</time></trkpt>
        <trkpt lat="29.256996" lon="105.512861"><ele>603.6659</ele><time>2026-03-23T18:14:46.000Z</time></trkpt>
        <trkpt lat="29.256951" lon="105.512891"><ele>605.3963</ele><time>2026-03-23T18:14:50.000Z</time></trkpt>
        <trkpt lat="29.256901" lon="105.512919"><ele>607.4791</ele><time>2026-03-23T18:14:54.000Z</time></trkpt>
        <trkpt lat="29.256854" lon="105.512943"><ele>609.27325</ele><time>2026-03-23T18:14:58.000Z</time></trkpt>
        <trkpt lat="29.256796" lon="105.512965"><ele>611.6179</ele><time>2026-03-23T18:15:03.000Z</time></trkpt>
        <trkpt lat="29.256742" lon="105.512969"><ele>613.027</ele><time>2026-03-23T18:15:08.000Z</time></trkpt>
        <trkpt lat="29.256704" lon="105.512957"><ele>613.7051</ele><time>2026-03-23T18:15:11.000Z</time></trkpt>
        <trkpt lat="29.256664" lon="105.512934"><ele>614.7774</ele><time>2026-03-23T18:15:14.000Z</time></trkpt>
        <trkpt lat="29.256627" lon="105.5129"><ele>615.33466</ele><time>2026-03-23T18:15:17.000Z</time></trkpt>
        <trkpt lat="29.256572" lon="105.512853"><ele>614.7243</ele><time>2026-03-23T18:15:23.000Z</time></trkpt>
        <trkpt lat="29.256534" lon="105.512813"><ele>613.9455</ele><time>2026-03-23T18:15:27.000Z</time></trkpt>
        <trkpt lat="29.256503" lon="105.512775"><ele>613.0592</ele><time>2026-03-23T18:15:30.000Z</time></trkpt>
        <trkpt lat="29.256492" lon="105.512708"><ele>610.21625</ele><time>2026-03-23T18:15:38.000Z</time></trkpt>
        <trkpt lat="29.256514" lon="105.512663"><ele>608.624</ele><time>2026-03-23T18:15:42.000Z</time></trkpt>
        <trkpt lat="29.256534" lon="105.512609"><ele>607.90393</ele><time>2026-03-23T18:15:45.000Z</time></trkpt>
        <trkpt lat="29.256566" lon="105.512566"><ele>606.9972</ele><time>2026-03-23T18:15:48.000Z</time></trkpt>
        <trkpt lat="29.256603" lon="105.512505"><ele>603.7597</ele><time>2026-03-23T18:15:54.000Z</time></trkpt>
        <trkpt lat="29.256634" lon="105.512467"><ele>601.1725</ele><time>2026-03-23T18:15:59.000Z</time></trkpt>
        <trkpt lat="29.25666" lon="105.512429"><ele>599.6583</ele><time>2026-03-23T18:16:03.000Z</time></trkpt>
        <trkpt lat="29.25669" lon="105.512381"><ele>597.74286</ele><time>2026-03-23T18:16:09.000Z</time></trkpt>
        <trkpt lat="29.25671" lon="105.512323"><ele>595.8021</ele><time>2026-03-23T18:16:14.000Z</time></trkpt>
        <trkpt lat="29.256731" lon="105.512272"><ele>594.27795</ele><time>2026-03-23T18:16:18.000Z</time></trkpt>
        <trkpt lat="29.256755" lon="105.512223"><ele>592.80945</ele><time>2026-03-23T18:16:22.000Z</time></trkpt>
        <trkpt lat="29.256783" lon="105.512177"><ele>591.6566</ele><time>2026-03-23T18:16:26.000Z</time></trkpt>
        <trkpt lat="29.256819" lon="105.512122"><ele>590.0247</ele><time>2026-03-23T18:16:31.000Z</time></trkpt>
        <trkpt lat="29.256856" lon="105.512083"><ele>588.5176</ele><time>2026-03-23T18:16:35.000Z</time></trkpt>
        <trkpt lat="29.256887" lon="105.512037"><ele>587.39575</ele><time>2026-03-23T18:16:39.000Z</time></trkpt>
        <trkpt lat="29.256915" lon="105.511993"><ele>586.4239</ele><time>2026-03-23T18:16:43.000Z</time></trkpt>
        <trkpt lat="29.256953" lon="105.511959"><ele>584.442</ele><time>2026-03-23T18:16:47.000Z</time></trkpt>
        <trkpt lat="29.25697" lon="105.511905"><ele>583.7296</ele><time>2026-03-23T18:16:51.000Z</time></trkpt>
        <trkpt lat="29.256989" lon="105.51185"><ele>583.75116</ele><time>2026-03-23T18:16:55.000Z</time></trkpt>
        <trkpt lat="29.257012" lon="105.511797"><ele>582.8549</ele><time>2026-03-23T18:17:00.000Z</time></trkpt>
        <trkpt lat="29.257034" lon="105.511751"><ele>582.11346</ele><time>2026-03-23T18:17:04.000Z</time></trkpt>
        <trkpt lat="29.257066" lon="105.511706"><ele>581.6568</ele><time>2026-03-23T18:17:08.000Z</time></trkpt>
        <trkpt lat="29.257108" lon="105.511673"><ele>581.7416</ele><time>2026-03-23T18:17:12.000Z</time></trkpt>
        <trkpt lat="29.257153" lon="105.511653"><ele>582.21155</ele><time>2026-03-23T18:17:16.000Z</time></trkpt>
        <trkpt lat="29.257201" lon="105.511637"><ele>581.04535</ele><time>2026-03-23T18:17:21.000Z</time></trkpt>
        <trkpt lat="29.257238" lon="105.511613"><ele>579.6126</ele><time>2026-03-23T18:17:25.000Z</time></trkpt>
        <trkpt lat="29.257283" lon="105.511592"><ele>578.81067</ele><time>2026-03-23T18:17:29.000Z</time></trkpt>
        <trkpt lat="29.257338" lon="105.511572"><ele>577.83215</ele><time>2026-03-23T18:17:34.000Z</time></trkpt>
        <trkpt lat="29.257388" lon="105.511559"><ele>577.04877</ele><time>2026-03-23T18:17:39.000Z</time></trkpt>
        <trkpt lat="29.257433" lon="105.511549"><ele>576.2091</ele><time>2026-03-23T18:17:43.000Z</time></trkpt>
        <trkpt lat="29.257483" lon="105.511521"><ele>575.75775</ele><time>2026-03-23T18:17:48.000Z</time></trkpt>
        <trkpt lat="29.257523" lon="105.511481"><ele>574.9178</ele><time>2026-03-23T18:17:52.000Z</time></trkpt>
        <trkpt lat="29.25755" lon="105.511434"><ele>574.14954</ele><time>2026-03-23T18:17:57.000Z</time></trkpt>
        <trkpt lat="29.257579" lon="105.511394"><ele>573.47144</ele><time>2026-03-23T18:18:01.000Z</time></trkpt>
        <trkpt lat="29.257617" lon="105.511351"><ele>573.1972</ele><time>2026-03-23T18:18:07.000Z</time></trkpt>
        <trkpt lat="29.257655" lon="105.511313"><ele>573.2317</ele><time>2026-03-23T18:18:13.000Z</time></trkpt>
        <trkpt lat="29.257696" lon="105.511286"><ele>573.5905</ele><time>2026-03-23T18:18:18.000Z</time></trkpt>
        <trkpt lat="29.257742" lon="105.511275"><ele>572.789</ele><time>2026-03-23T18:18:22.000Z</time></trkpt>
        <trkpt lat="29.257796" lon="105.511268"><ele>571.8856</ele><time>2026-03-23T18:18:26.000Z</time></trkpt>
        <trkpt lat="29.257842" lon="105.511257"><ele>571.8626</ele><time>2026-03-23T18:18:29.000Z</time></trkpt>
        <trkpt lat="29.257895" lon="105.511226"><ele>571.02356</ele><time>2026-03-23T18:18:34.000Z</time></trkpt>
        <trkpt lat="29.257932" lon="105.511207"><ele>570.73175</ele><time>2026-03-23T18:18:37.000Z</time></trkpt>
        <trkpt lat="29.257984" lon="105.511181"><ele>569.8161</ele><time>2026-03-23T18:18:41.000Z</time></trkpt>
        <trkpt lat="29.258032" lon="105.511153"><ele>569.0178</ele><time>2026-03-23T18:18:45.000Z</time></trkpt>
        <trkpt lat="29.25808" lon="105.511123"><ele>568.39954</ele><time>2026-03-23T18:18:50.000Z</time></trkpt>
        <trkpt lat="29.258124" lon="105.5111"><ele>567.7112</ele><time>2026-03-23T18:18:54.000Z</time></trkpt>
        <trkpt lat="29.25817" lon="105.511069"><ele>566.82477</ele><time>2026-03-23T18:18:58.000Z</time></trkpt>
        <trkpt lat="29.258218" lon="105.511039"><ele>566.19403</ele><time>2026-03-23T18:19:02.000Z</time></trkpt>
        <trkpt lat="29.25826" lon="105.511008"><ele>565.411</ele><time>2026-03-23T18:19:06.000Z</time></trkpt>
        <trkpt lat="29.258302" lon="105.51097"><ele>565.14874</ele><time>2026-03-23T18:19:10.000Z</time></trkpt>
        <trkpt lat="29.258345" lon="105.510943"><ele>564.6607</ele><time>2026-03-23T18:19:14.000Z</time></trkpt>
        <trkpt lat="29.258395" lon="105.51092"><ele>564.5266</ele><time>2026-03-23T18:19:19.000Z</time></trkpt>
        <trkpt lat="29.258445" lon="105.510902"><ele>563.8176</ele><time>2026-03-23T18:19:24.000Z</time></trkpt>
        <trkpt lat="29.258491" lon="105.510896"><ele>562.87897</ele><time>2026-03-23T18:19:29.000Z</time></trkpt>
        <trkpt lat="29.258541" lon="105.510895"><ele>561.39087</ele><time>2026-03-23T18:19:34.000Z</time></trkpt>
        <trkpt lat="29.258589" lon="105.510902"><ele>560.40216</ele><time>2026-03-23T18:19:38.000Z</time></trkpt>
        <trkpt lat="29.258646" lon="105.510904"><ele>559.33954</ele><time>2026-03-23T18:19:42.000Z</time></trkpt>
        <trkpt lat="29.258698" lon="105.51091"><ele>558.6915</ele><time>2026-03-23T18:19:46.000Z</time></trkpt>
        <trkpt lat="29.25875" lon="105.510918"><ele>557.794</ele><time>2026-03-23T18:19:50.000Z</time></trkpt>
        <trkpt lat="29.258805" lon="105.510915"><ele>556.1075</ele><time>2026-03-23T18:19:54.000Z</time></trkpt>
        <trkpt lat="29.258856" lon="105.510898"><ele>554.5728</ele><time>2026-03-23T18:19:57.000Z</time></trkpt>
        <trkpt lat="29.258888" lon="105.510856"><ele>552.166</ele><time>2026-03-23T18:20:01.000Z</time></trkpt>
        <trkpt lat="29.258918" lon="105.510809"><ele>550.72943</ele><time>2026-03-23T18:20:05.000Z</time></trkpt>
        <trkpt lat="29.258945" lon="105.510761"><ele>549.41406</ele><time>2026-03-23T18:20:10.000Z</time></trkpt>
        <trkpt lat="29.258962" lon="105.510708"><ele>548.68396</ele><time>2026-03-23T18:20:14.000Z</time></trkpt>
        <trkpt lat="29.258981" lon="105.510657"><ele>548.5336</ele><time>2026-03-23T18:20:18.000Z</time></trkpt>
        <trkpt lat="29.259017" lon="105.510631"><ele>547.81195</ele><time>2026-03-23T18:20:22.000Z</time></trkpt>
        <trkpt lat="29.259063" lon="105.510613"><ele>546.2638</ele><time>2026-03-23T18:20:26.000Z</time></trkpt>
        <trkpt lat="29.25912" lon="105.510605"><ele>544.97943</ele><time>2026-03-23T18:20:30.000Z</time></trkpt>
        <trkpt lat="29.259185" lon="105.510613"><ele>543.2539</ele><time>2026-03-23T18:20:36.000Z</time></trkpt>
        <trkpt lat="29.259233" lon="105.510642"><ele>540.86865</ele><time>2026-03-23T18:20:45.000Z</time></trkpt>
        <trkpt lat="29.25927" lon="105.510666"><ele>538.20184</ele><time>2026-03-23T18:20:53.000Z</time></trkpt>
        <trkpt lat="29.259294" lon="105.510704"><ele>536.43713</ele><time>2026-03-23T18:20:57.000Z</time></trkpt>
        <trkpt lat="29.259326" lon="105.510753"><ele>534.6803</ele><time>2026-03-23T18:21:01.000Z</time></trkpt>
        <trkpt lat="29.259356" lon="105.510803"><ele>533.26904</ele><time>2026-03-23T18:21:05.000Z</time></trkpt>
        <trkpt lat="29.259397" lon="105.510852"><ele>531.88446</ele><time>2026-03-23T18:21:10.000Z</time></trkpt>
        <trkpt lat="29.259423" lon="105.510888"><ele>531.3024</ele><time>2026-03-23T18:21:13.000Z</time></trkpt>
        <trkpt lat="29.259466" lon="105.510926"><ele>531.22845</ele><time>2026-03-23T18:21:17.000Z</time></trkpt>
        <trkpt lat="29.259518" lon="105.510952"><ele>531.62036</ele><time>2026-03-23T18:21:21.000Z</time></trkpt>
        <trkpt lat="29.259581" lon="105.510964"><ele>531.17957</ele><time>2026-03-23T18:21:26.000Z</time></trkpt>
        <trkpt lat="29.259635" lon="105.510968"><ele>530.29846</ele><time>2026-03-23T18:21:31.000Z</time></trkpt>
        <trkpt lat="29.259683" lon="105.51097"><ele>529.3755</ele><time>2026-03-23T18:21:35.000Z</time></trkpt>
        <trkpt lat="29.259733" lon="105.51097"><ele>528.7537</ele><time>2026-03-23T18:21:39.000Z</time></trkpt>
        <trkpt lat="29.259791" lon="105.510978"><ele>528.1446</ele><time>2026-03-23T18:21:44.000Z</time></trkpt>
        <trkpt lat="29.259843" lon="105.510977"><ele>527.9765</ele><time>2026-03-23T18:21:49.000Z</time></trkpt>
        <trkpt lat="29.259893" lon="105.510972"><ele>527.8262</ele><time>2026-03-23T18:21:55.000Z</time></trkpt>
        <trkpt lat="29.259933" lon="105.510997"><ele>528.22363</ele><time>2026-03-23T18:22:02.000Z</time></trkpt>
        <trkpt lat="29.259981" lon="105.511014"><ele>528.8504</ele><time>2026-03-23T18:22:13.000Z</time></trkpt>
        <trkpt lat="29.260021" lon="105.511029"><ele>528.5089</ele><time>2026-03-23T18:22:17.000Z</time></trkpt>
        <trkpt lat="29.260071" lon="105.511041"><ele>528.0153</ele><time>2026-03-23T18:22:21.000Z</time></trkpt>
        <trkpt lat="29.260124" lon="105.511048"><ele>527.2413</ele><time>2026-03-23T18:22:25.000Z</time></trkpt>
        <trkpt lat="29.260175" lon="105.511044"><ele>526.26855</ele><time>2026-03-23T18:22:29.000Z</time></trkpt>
        <trkpt lat="29.260221" lon="105.511026"><ele>525.24896</ele><time>2026-03-23T18:22:33.000Z</time></trkpt>
        <trkpt lat="29.260266" lon="105.511004"><ele>523.6069</ele><time>2026-03-23T18:22:37.000Z</time></trkpt>
        <trkpt lat="29.260311" lon="105.510985"><ele>521.70166</ele><time>2026-03-23T18:22:41.000Z</time></trkpt>
        <trkpt lat="29.260359" lon="105.510976"><ele>519.8387</ele><time>2026-03-23T18:22:45.000Z</time></trkpt>
        <trkpt lat="29.260415" lon="105.510978"><ele>518.6476</ele><time>2026-03-23T18:22:50.000Z</time></trkpt>
        <trkpt lat="29.260468" lon="105.510978"><ele>517.97003</ele><time>2026-03-23T18:22:55.000Z</time></trkpt>
        <trkpt lat="29.260518" lon="105.510988"><ele>517.07733</ele><time>2026-03-23T18:23:00.000Z</time></trkpt>
        <trkpt lat="29.260563" lon="105.511"><ele>516.4815</ele><time>2026-03-23T18:23:04.000Z</time></trkpt>
        <trkpt lat="29.260613" lon="105.511008"><ele>516.0409</ele><time>2026-03-23T18:23:09.000Z</time></trkpt>
        <trkpt lat="29.260668" lon="105.511002"><ele>515.131</ele><time>2026-03-23T18:23:15.000Z</time></trkpt>
        <trkpt lat="29.260714" lon="105.510998"><ele>514.7488</ele><time>2026-03-23T18:23:19.000Z</time></trkpt>
        <trkpt lat="29.260763" lon="105.510991"><ele>514.90436</ele><time>2026-03-23T18:23:23.000Z</time></trkpt>
        <trkpt lat="29.260822" lon="105.510982"><ele>514.4657</ele><time>2026-03-23T18:23:28.000Z</time></trkpt>
        <trkpt lat="29.260872" lon="105.510981"><ele>513.62335</ele><time>2026-03-23T18:23:32.000Z</time></trkpt>
        <trkpt lat="29.26093" lon="105.510983"><ele>512.2743</ele><time>2026-03-23T18:23:37.000Z</time></trkpt>
        <trkpt lat="29.26098" lon="105.510996"><ele>511.21472</ele><time>2026-03-23T18:23:42.000Z</time></trkpt>
        <trkpt lat="29.261027" lon="105.511009"><ele>510.6811</ele><time>2026-03-23T18:23:46.000Z</time></trkpt>
        <trkpt lat="29.261082" lon="105.511028"><ele>510.27872</ele><time>2026-03-23T18:23:51.000Z</time></trkpt>
        <trkpt lat="29.26113" lon="105.511061"><ele>509.14938</ele><time>2026-03-23T18:23:56.000Z</time></trkpt>
        <trkpt lat="29.261172" lon="105.511085"><ele>508.23593</ele><time>2026-03-23T18:24:00.000Z</time></trkpt>
        <trkpt lat="29.261218" lon="105.511118"><ele>507.24887</ele><time>2026-03-23T18:24:04.000Z</time></trkpt>
        <trkpt lat="29.261262" lon="105.511154"><ele>506.4432</ele><time>2026-03-23T18:24:08.000Z</time></trkpt>
        <trkpt lat="29.261297" lon="105.511194"><ele>506.08026</ele><time>2026-03-23T18:24:12.000Z</time></trkpt>
        <trkpt lat="29.261333" lon="105.511246"><ele>505.9363</ele><time>2026-03-23T18:24:17.000Z</time></trkpt>
        <trkpt lat="29.261359" lon="105.511297"><ele>505.8548</ele><time>2026-03-23T18:24:22.000Z</time></trkpt>
        <trkpt lat="29.261377" lon="105.51135"><ele>506.81256</ele><time>2026-03-23T18:24:26.000Z</time></trkpt>
        <trkpt lat="29.2614" lon="105.511408"><ele>508.1272</ele><time>2026-03-23T18:24:30.000Z</time></trkpt>
        <trkpt lat="29.261435" lon="105.511454"><ele>509.3349</ele><time>2026-03-23T18:24:34.000Z</time></trkpt>
        <trkpt lat="29.261479" lon="105.511487"><ele>510.018</ele><time>2026-03-23T18:24:38.000Z</time></trkpt>
        <trkpt lat="29.261534" lon="105.511507"><ele>509.99777</ele><time>2026-03-23T18:24:43.000Z</time></trkpt>
        <trkpt lat="29.261583" lon="105.511495"><ele>509.53796</ele><time>2026-03-23T18:24:47.000Z</time></trkpt>
        <trkpt lat="29.261632" lon="105.511482"><ele>508.36365</ele><time>2026-03-23T18:24:51.000Z</time></trkpt>
        <trkpt lat="29.261682" lon="105.511457"><ele>507.18945</ele><time>2026-03-23T18:24:55.000Z</time></trkpt>
        <trkpt lat="29.26173" lon="105.511432"><ele>506.10223</ele><time>2026-03-23T18:24:59.000Z</time></trkpt>
        <trkpt lat="29.261784" lon="105.511394"><ele>505.0594</ele><time>2026-03-23T18:25:04.000Z</time></trkpt>
        <trkpt lat="29.261822" lon="105.511352"><ele>503.61038</ele><time>2026-03-23T18:25:09.000Z</time></trkpt>
        <trkpt lat="29.261858" lon="105.511308"><ele>502.40204</ele><time>2026-03-23T18:25:14.000Z</time></trkpt>
        <trkpt lat="29.261887" lon="105.511265"><ele>501.4728</ele><time>2026-03-23T18:25:18.000Z</time></trkpt>
        <trkpt lat="29.261915" lon="105.511217"><ele>500.38263</ele><time>2026-03-23T18:25:22.000Z</time></trkpt>
        <trkpt lat="29.261937" lon="105.511165"><ele>498.7805</ele><time>2026-03-23T18:25:26.000Z</time></trkpt>
        <trkpt lat="29.261956" lon="105.511112"><ele>497.2409</ele><time>2026-03-23T18:25:30.000Z</time></trkpt>
        <trkpt lat="29.261971" lon="105.511054"><ele>495.94043</ele><time>2026-03-23T18:25:34.000Z</time></trkpt>
        <trkpt lat="29.261978" lon="105.510994"><ele>495.3515</ele><time>2026-03-23T18:25:38.000Z</time></trkpt>
        <trkpt lat="29.261985" lon="105.511039"><ele>493.61087</ele><time>2026-03-23T18:26:11.000Z</time></trkpt>
        <trkpt lat="29.261979" lon="105.511097"><ele>493.66046</ele><time>2026-03-23T18:26:16.000Z</time></trkpt>
        <trkpt lat="29.261973" lon="105.511155"><ele>494.11194</ele><time>2026-03-23T18:26:21.000Z</time></trkpt>
        <trkpt lat="29.261959" lon="105.511211"><ele>494.92896</ele><time>2026-03-23T18:26:26.000Z</time></trkpt>
        <trkpt lat="29.261938" lon="105.511267"><ele>496.12296</ele><time>2026-03-23T18:26:33.000Z</time></trkpt>
        <trkpt lat="29.261914" lon="105.511309"><ele>497.64642</ele><time>2026-03-23T18:26:38.000Z</time></trkpt>
        <trkpt lat="29.261883" lon="105.511344"><ele>499.09714</ele><time>2026-03-23T18:26:42.000Z</time></trkpt>
        <trkpt lat="29.261846" lon="105.511378"><ele>500.64374</ele><time>2026-03-23T18:26:46.000Z</time></trkpt>
        <trkpt lat="29.261805" lon="105.511424"><ele>502.19217</ele><time>2026-03-23T18:26:52.000Z</time></trkpt>
        <trkpt lat="29.261826" lon="105.511458"><ele>502.75464</ele><time>2026-03-23T18:26:58.000Z</time></trkpt>
        <trkpt lat="29.261829" lon="105.511512"><ele>503.4409</ele><time>2026-03-23T18:27:35.000Z</time></trkpt>
        <trkpt lat="29.261833" lon="105.511563"><ele>505.2309</ele><time>2026-03-23T18:27:55.000Z</time></trkpt>
        <trkpt lat="29.261827" lon="105.511623"><ele>505.63318</ele><time>2026-03-23T18:28:18.000Z</time></trkpt>
        <trkpt lat="29.261832" lon="105.511663"><ele>506.3865</ele><time>2026-03-23T18:28:23.000Z</time></trkpt>
        <trkpt lat="29.261886" lon="105.511674"><ele>509.1508</ele><time>2026-03-23T18:28:45.000Z</time></trkpt>
        <trkpt lat="29.261918" lon="105.511642"><ele>509.2574</ele><time>2026-03-23T18:28:50.000Z</time></trkpt>
        <trkpt lat="29.261949" lon="105.511596"><ele>509.1586</ele><time>2026-03-23T18:28:55.000Z</time></trkpt>
        <trkpt lat="29.261999" lon="105.511604"><ele>504.15866</ele><time>2026-03-23T18:29:06.000Z</time></trkpt>
        <trkpt lat="29.262037" lon="105.511579"><ele>503.98346</ele><time>2026-03-23T18:29:54.000Z</time></trkpt>
        <trkpt lat="29.26208" lon="105.511558"><ele>504.38156</ele><time>2026-03-23T18:30:03.000Z</time></trkpt>
        <trkpt lat="29.26213" lon="105.511529"><ele>500.7681</ele><time>2026-03-23T18:30:21.000Z</time></trkpt>
        <trkpt lat="29.262163" lon="105.5115"><ele>499.32306</ele><time>2026-03-23T18:30:28.000Z</time></trkpt>
        <trkpt lat="29.262174" lon="105.511444"><ele>498.30038</ele><time>2026-03-23T18:30:51.000Z</time></trkpt>
        <trkpt lat="29.262191" lon="105.511393"><ele>494.44278</ele><time>2026-03-23T18:31:32.000Z</time></trkpt>
        <trkpt lat="29.262216" lon="105.511349"><ele>494.80292</ele><time>2026-03-23T18:31:59.000Z</time></trkpt>
        <trkpt lat="29.262219" lon="105.511302"><ele>494.59772</ele><time>2026-03-23T18:32:07.000Z</time></trkpt>
        <trkpt lat="29.262264" lon="105.511268"><ele>489.37286</ele><time>2026-03-23T18:32:35.000Z</time></trkpt>
        <trkpt lat="29.262258" lon="105.511217"><ele>487.82336</ele><time>2026-03-23T18:32:43.000Z</time></trkpt>
        <trkpt lat="29.262273" lon="105.511154"><ele>487.52365</ele><time>2026-03-23T18:33:08.000Z</time></trkpt>
        <trkpt lat="29.262295" lon="105.511104"><ele>485.32468</ele><time>2026-03-23T18:33:25.000Z</time></trkpt>
        <trkpt lat="29.262314" lon="105.511059"><ele>483.0686</ele><time>2026-03-23T18:33:33.000Z</time></trkpt>
        <trkpt lat="29.262321" lon="105.511006"><ele>481.75684</ele><time>2026-03-23T18:33:39.000Z</time></trkpt>
        <trkpt lat="29.262311" lon="105.510954"><ele>480.37094</ele><time>2026-03-23T18:33:44.000Z</time></trkpt>
        <trkpt lat="29.262297" lon="105.510903"><ele>479.3158</ele><time>2026-03-23T18:33:48.000Z</time></trkpt>
        <trkpt lat="29.262282" lon="105.510839"><ele>477.39618</ele><time>2026-03-23T18:33:54.000Z</time></trkpt>
        <trkpt lat="29.262276" lon="105.510788"><ele>476.20575</ele><time>2026-03-23T18:33:58.000Z</time></trkpt>
        <trkpt lat="29.262275" lon="105.510728"><ele>474.2189</ele><time>2026-03-23T18:34:03.000Z</time></trkpt>
        <trkpt lat="29.262283" lon="105.51067"><ele>472.82797</ele><time>2026-03-23T18:34:08.000Z</time></trkpt>
        <trkpt lat="29.262287" lon="105.510613"><ele>472.14648</ele><time>2026-03-23T18:34:13.000Z</time></trkpt>
        <trkpt lat="29.262287" lon="105.510561"><ele>471.32962</ele><time>2026-03-23T18:34:17.000Z</time></trkpt>
        <trkpt lat="29.262275" lon="105.510491"><ele>469.8038</ele><time>2026-03-23T18:34:24.000Z</time></trkpt>
        <trkpt lat="29.262264" lon="105.51044"><ele>467.82318</ele><time>2026-03-23T18:34:30.000Z</time></trkpt>
        <trkpt lat="29.262256" lon="105.510392"><ele>467.32477</ele><time>2026-03-23T18:34:35.000Z</time></trkpt>
        <trkpt lat="29.262248" lon="105.510333"><ele>465.95148</ele><time>2026-03-23T18:34:41.000Z</time></trkpt>
        <trkpt lat="29.262246" lon="105.510281"><ele>464.8789</ele><time>2026-03-23T18:34:46.000Z</time></trkpt>
        <trkpt lat="29.262231" lon="105.510241"><ele>464.5052</ele><time>2026-03-23T18:34:49.000Z</time></trkpt>
        <trkpt lat="29.262209" lon="105.510191"><ele>463.14902</ele><time>2026-03-23T18:34:53.000Z</time></trkpt>
        <trkpt lat="29.262203" lon="105.510128"><ele>460.94415</ele><time>2026-03-23T18:34:59.000Z</time></trkpt>
        <trkpt lat="29.262191" lon="105.510082"><ele>459.93753</ele><time>2026-03-23T18:35:03.000Z</time></trkpt>
        <trkpt lat="29.262218" lon="105.510058"><ele>459.86105</ele><time>2026-03-23T18:35:06.000Z</time></trkpt>
        <trkpt lat="29.262267" lon="105.510048"><ele>460.12143</ele><time>2026-03-23T18:35:10.000Z</time></trkpt>
        <trkpt lat="29.262323" lon="105.510035"><ele>460.37054</ele><time>2026-03-23T18:35:14.000Z</time></trkpt>
        <trkpt lat="29.262383" lon="105.510033"><ele>460.68405</ele><time>2026-03-23T18:35:18.000Z</time></trkpt>
        <trkpt lat="29.262435" lon="105.51001"><ele>460.97357</ele><time>2026-03-23T18:35:22.000Z</time></trkpt>
        <trkpt lat="29.262485" lon="105.509987"><ele>460.2163</ele><time>2026-03-23T18:35:27.000Z</time></trkpt>
        <trkpt lat="29.262527" lon="105.509971"><ele>459.03802</ele><time>2026-03-23T18:35:31.000Z</time></trkpt>
        <trkpt lat="29.262578" lon="105.509951"><ele>457.63266</ele><time>2026-03-23T18:35:36.000Z</time></trkpt>
        <trkpt lat="29.262624" lon="105.509924"><ele>457.40097</ele><time>2026-03-23T18:35:40.000Z</time></trkpt>
        <trkpt lat="29.262677" lon="105.509899"><ele>456.7787</ele><time>2026-03-23T18:35:44.000Z</time></trkpt>
        <trkpt lat="29.262728" lon="105.509879"><ele>455.4402</ele><time>2026-03-23T18:35:48.000Z</time></trkpt>
        <trkpt lat="29.26278" lon="105.509861"><ele>454.8975</ele><time>2026-03-23T18:35:52.000Z</time></trkpt>
        <trkpt lat="29.262823" lon="105.509864"><ele>455.05408</ele><time>2026-03-23T18:35:55.000Z</time></trkpt>
        <trkpt lat="29.262877" lon="105.509879"><ele>454.19046</ele><time>2026-03-23T18:36:00.000Z</time></trkpt>
        <trkpt lat="29.262859" lon="105.509848"><ele>455.6997</ele><time>2026-03-23T18:36:12.000Z</time></trkpt>
        <trkpt lat="29.262888" lon="105.509817"><ele>455.3432</ele><time>2026-03-23T18:36:28.000Z</time></trkpt>
        <trkpt lat="29.262934" lon="105.509805"><ele>454.94864</ele><time>2026-03-23T18:36:34.000Z</time></trkpt>
        <trkpt lat="29.262989" lon="105.509795"><ele>453.50522</ele><time>2026-03-23T18:36:40.000Z</time></trkpt>
        <trkpt lat="29.263037" lon="105.509782"><ele>453.57544</ele><time>2026-03-23T18:36:45.000Z</time></trkpt>
        <trkpt lat="29.263086" lon="105.509762"><ele>453.3476</ele><time>2026-03-23T18:36:51.000Z</time></trkpt>
        <trkpt lat="29.263131" lon="105.509748"><ele>453.02014</ele><time>2026-03-23T18:36:55.000Z</time></trkpt>
        <trkpt lat="29.263182" lon="105.509749"><ele>452.4027</ele><time>2026-03-23T18:37:00.000Z</time></trkpt>
        <trkpt lat="29.263229" lon="105.509759"><ele>452.42334</ele><time>2026-03-23T18:37:04.000Z</time></trkpt>
        <trkpt lat="29.263278" lon="105.509761"><ele>453.13925</ele><time>2026-03-23T18:37:08.000Z</time></trkpt>
        <trkpt lat="29.263334" lon="105.50976"><ele>453.25043</ele><time>2026-03-23T18:37:13.000Z</time></trkpt>
        <trkpt lat="29.263375" lon="105.509739"><ele>453.3686</ele><time>2026-03-23T18:37:16.000Z</time></trkpt>
        <trkpt lat="29.263428" lon="105.509725"><ele>452.61612</ele><time>2026-03-23T18:37:21.000Z</time></trkpt>
        <trkpt lat="29.263477" lon="105.509702"><ele>452.27695</ele><time>2026-03-23T18:37:26.000Z</time></trkpt>
        <trkpt lat="29.263538" lon="105.509701"><ele>449.84348</ele><time>2026-03-23T18:37:33.000Z</time></trkpt>
        <trkpt lat="29.263588" lon="105.509682"><ele>448.94385</ele><time>2026-03-23T18:37:38.000Z</time></trkpt>
        <trkpt lat="29.263646" lon="105.509666"><ele>447.67474</ele><time>2026-03-23T18:37:44.000Z</time></trkpt>
        <trkpt lat="29.263688" lon="105.509663"><ele>447.1775</ele><time>2026-03-23T18:37:47.000Z</time></trkpt>
        <trkpt lat="29.263749" lon="105.509652"><ele>445.702</ele><time>2026-03-23T18:37:53.000Z</time></trkpt>
        <trkpt lat="29.263792" lon="105.50964"><ele>444.92197</ele><time>2026-03-23T18:37:57.000Z</time></trkpt>
        <trkpt lat="29.263834" lon="105.509644"><ele>444.0589</ele><time>2026-03-23T18:38:00.000Z</time></trkpt>
        <trkpt lat="29.263888" lon="105.509658"><ele>443.29614</ele><time>2026-03-23T18:38:04.000Z</time></trkpt>
        <trkpt lat="29.263942" lon="105.509674"><ele>442.1062</ele><time>2026-03-23T18:38:08.000Z</time></trkpt>
        <trkpt lat="29.263999" lon="105.509686"><ele>439.94574</ele><time>2026-03-23T18:38:13.000Z</time></trkpt>
        <trkpt lat="29.264048" lon="105.509689"><ele>439.21634</ele><time>2026-03-23T18:38:17.000Z</time></trkpt>
        <trkpt lat="29.264094" lon="105.509686"><ele>438.83524</ele><time>2026-03-23T18:38:21.000Z</time></trkpt>
        <trkpt lat="29.264144" lon="105.509678"><ele>438.97467</ele><time>2026-03-23T18:38:25.000Z</time></trkpt>
        <trkpt lat="29.264193" lon="105.509678"><ele>438.33533</ele><time>2026-03-23T18:38:29.000Z</time></trkpt>
        <trkpt lat="29.264244" lon="105.509694"><ele>437.01782</ele><time>2026-03-23T18:38:34.000Z</time></trkpt>
        <trkpt lat="29.264287" lon="105.509708"><ele>436.76743</ele><time>2026-03-23T18:38:38.000Z</time></trkpt>
        <trkpt lat="29.26433" lon="105.509722"><ele>436.75064</ele><time>2026-03-23T18:38:42.000Z</time></trkpt>
        <trkpt lat="29.264383" lon="105.50974"><ele>436.13113</ele><time>2026-03-23T18:38:47.000Z</time></trkpt>
        <trkpt lat="29.264434" lon="105.509754"><ele>435.95956</ele><time>2026-03-23T18:38:53.000Z</time></trkpt>
        <trkpt lat="29.264479" lon="105.509763"><ele>434.67554</ele><time>2026-03-23T18:38:58.000Z</time></trkpt>
        <trkpt lat="29.264525" lon="105.509778"><ele>433.33618</ele><time>2026-03-23T18:39:02.000Z</time></trkpt>
        <trkpt lat="29.264575" lon="105.509789"><ele>432.29022</ele><time>2026-03-23T18:39:06.000Z</time></trkpt>
        <trkpt lat="29.264628" lon="105.509799"><ele>431.79294</ele><time>2026-03-23T18:39:10.000Z</time></trkpt>
        <trkpt lat="29.26468" lon="105.509808"><ele>431.26956</ele><time>2026-03-23T18:39:14.000Z</time></trkpt>
        <trkpt lat="29.264738" lon="105.509818"><ele>430.87457</ele><time>2026-03-23T18:39:19.000Z</time></trkpt>
        <trkpt lat="29.264785" lon="105.509823"><ele>431.22696</ele><time>2026-03-23T18:39:23.000Z</time></trkpt>
        <trkpt lat="29.264837" lon="105.509831"><ele>431.35046</ele><time>2026-03-23T18:39:28.000Z</time></trkpt>
        <trkpt lat="29.26488" lon="105.509844"><ele>430.87772</ele><time>2026-03-23T18:39:32.000Z</time></trkpt>
        <trkpt lat="29.264933" lon="105.509864"><ele>430.20557</ele><time>2026-03-23T18:39:37.000Z</time></trkpt>
        <trkpt lat="29.264989" lon="105.509874"><ele>429.9462</ele><time>2026-03-23T18:39:42.000Z</time></trkpt>
        <trkpt lat="29.265034" lon="105.509879"><ele>429.52927</ele><time>2026-03-23T18:39:46.000Z</time></trkpt>
        <trkpt lat="29.265086" lon="105.509889"><ele>427.69394</ele><time>2026-03-23T18:39:51.000Z</time></trkpt>
        <trkpt lat="29.265133" lon="105.509897"><ele>426.39508</ele><time>2026-03-23T18:39:55.000Z</time></trkpt>
        <trkpt lat="29.265181" lon="105.509911"><ele>425.30286</ele><time>2026-03-23T18:39:59.000Z</time></trkpt>
        <trkpt lat="29.265234" lon="105.50992"><ele>424.1644</ele><time>2026-03-23T18:40:04.000Z</time></trkpt>
        <trkpt lat="29.265279" lon="105.509932"><ele>422.9912</ele><time>2026-03-23T18:40:08.000Z</time></trkpt>
        <trkpt lat="29.265326" lon="105.509951"><ele>422.09933</ele><time>2026-03-23T18:40:12.000Z</time></trkpt>
        <trkpt lat="29.265372" lon="105.509965"><ele>421.13745</ele><time>2026-03-23T18:40:16.000Z</time></trkpt>
        <trkpt lat="29.265417" lon="105.509989"><ele>419.99957</ele><time>2026-03-23T18:40:20.000Z</time></trkpt>
        <trkpt lat="29.265463" lon="105.510018"><ele>419.24103</ele><time>2026-03-23T18:40:25.000Z</time></trkpt>
        <trkpt lat="29.265511" lon="105.510041"><ele>418.24118</ele><time>2026-03-23T18:40:30.000Z</time></trkpt>
        <trkpt lat="29.265561" lon="105.510071"><ele>416.75516</ele><time>2026-03-23T18:40:35.000Z</time></trkpt>
        <trkpt lat="29.265605" lon="105.510103"><ele>415.70172</ele><time>2026-03-23T18:40:40.000Z</time></trkpt>
        <trkpt lat="29.265645" lon="105.510129"><ele>415.30334</ele><time>2026-03-23T18:40:44.000Z</time></trkpt>
        <trkpt lat="29.265691" lon="105.510156"><ele>414.875</ele><time>2026-03-23T18:40:48.000Z</time></trkpt>
        <trkpt lat="29.265737" lon="105.510195"><ele>415.24948</ele><time>2026-03-23T18:40:52.000Z</time></trkpt>
        <trkpt lat="29.265777" lon="105.510224"><ele>414.93762</ele><time>2026-03-23T18:40:55.000Z</time></trkpt>
        <trkpt lat="29.265817" lon="105.510253"><ele>414.91263</ele><time>2026-03-23T18:40:58.000Z</time></trkpt>
        <trkpt lat="29.265869" lon="105.51028"><ele>415.09073</ele><time>2026-03-23T18:41:02.000Z</time></trkpt>
        <trkpt lat="29.265931" lon="105.510292"><ele>411.5297</ele><time>2026-03-23T18:41:09.000Z</time></trkpt>
        <trkpt lat="29.265973" lon="105.510306"><ele>410.17657</ele><time>2026-03-23T18:41:14.000Z</time></trkpt>
        <trkpt lat="29.266017" lon="105.510326"><ele>408.9209</ele><time>2026-03-23T18:41:18.000Z</time></trkpt>
        <trkpt lat="29.266062" lon="105.510354"><ele>408.29144</ele><time>2026-03-23T18:41:22.000Z</time></trkpt>
        <trkpt lat="29.266102" lon="105.510387"><ele>408.0436</ele><time>2026-03-23T18:41:25.000Z</time></trkpt>
        <trkpt lat="29.266163" lon="105.510416"><ele>407.25983</ele><time>2026-03-23T18:41:30.000Z</time></trkpt>
        <trkpt lat="29.266215" lon="105.510443"><ele>406.86533</ele><time>2026-03-23T18:41:35.000Z</time></trkpt>
        <trkpt lat="29.266259" lon="105.510463"><ele>406.4296</ele><time>2026-03-23T18:41:39.000Z</time></trkpt>
        <trkpt lat="29.266305" lon="105.510484"><ele>405.94577</ele><time>2026-03-23T18:41:43.000Z</time></trkpt>
        <trkpt lat="29.266351" lon="105.51051"><ele>405.2357</ele><time>2026-03-23T18:41:47.000Z</time></trkpt>
        <trkpt lat="29.266394" lon="105.510535"><ele>404.9063</ele><time>2026-03-23T18:41:51.000Z</time></trkpt>
        <trkpt lat="29.266437" lon="105.510557"><ele>404.84918</ele><time>2026-03-23T18:41:55.000Z</time></trkpt>
        <trkpt lat="29.266488" lon="105.510582"><ele>403.82227</ele><time>2026-03-23T18:42:00.000Z</time></trkpt>
        <trkpt lat="29.266531" lon="105.510608"><ele>402.73044</ele><time>2026-03-23T18:42:04.000Z</time></trkpt>
        <trkpt lat="29.266578" lon="105.510633"><ele>402.0958</ele><time>2026-03-23T18:42:08.000Z</time></trkpt>
        <trkpt lat="29.266634" lon="105.510657"><ele>401.11484</ele><time>2026-03-23T18:42:13.000Z</time></trkpt>
        <trkpt lat="29.266688" lon="105.510661"><ele>400.88812</ele><time>2026-03-23T18:42:18.000Z</time></trkpt>
        <trkpt lat="29.266733" lon="105.510648"><ele>400.70056</ele><time>2026-03-23T18:42:22.000Z</time></trkpt>
        <trkpt lat="29.266778" lon="105.510628"><ele>400.32312</ele><time>2026-03-23T18:42:26.000Z</time></trkpt>
        <trkpt lat="29.266823" lon="105.510606"><ele>399.63184</ele><time>2026-03-23T18:42:30.000Z</time></trkpt>
        <trkpt lat="29.26687" lon="105.510577"><ele>399.77612</ele><time>2026-03-23T18:42:35.000Z</time></trkpt>
        <trkpt lat="29.266927" lon="105.510589"><ele>400.37457</ele><time>2026-03-23T18:42:49.000Z</time></trkpt>
        <trkpt lat="29.26697" lon="105.51061"><ele>400.88873</ele><time>2026-03-23T18:42:54.000Z</time></trkpt>
        <trkpt lat="29.267019" lon="105.510634"><ele>401.85233</ele><time>2026-03-23T18:42:58.000Z</time></trkpt>
        <trkpt lat="29.267077" lon="105.510647"><ele>402.31766</ele><time>2026-03-23T18:43:05.000Z</time></trkpt>
        <trkpt lat="29.267125" lon="105.510658"><ele>402.81894</ele><time>2026-03-23T18:43:10.000Z</time></trkpt>
        <trkpt lat="29.267178" lon="105.510674"><ele>403.1631</ele><time>2026-03-23T18:43:15.000Z</time></trkpt>
        <trkpt lat="29.267227" lon="105.5107"><ele>403.86404</ele><time>2026-03-23T18:43:20.000Z</time></trkpt>
        <trkpt lat="29.267265" lon="105.510744"><ele>404.1761</ele><time>2026-03-23T18:43:25.000Z</time></trkpt>
        <trkpt lat="29.267295" lon="105.510784"><ele>404.85992</ele><time>2026-03-23T18:43:29.000Z</time></trkpt>
        <trkpt lat="29.267334" lon="105.510822"><ele>406.415</ele><time>2026-03-23T18:43:33.000Z</time></trkpt>
        <trkpt lat="29.267379" lon="105.510865"><ele>407.3277</ele><time>2026-03-23T18:43:38.000Z</time></trkpt>
        <trkpt lat="29.267423" lon="105.510897"><ele>407.51376</ele><time>2026-03-23T18:43:43.000Z</time></trkpt>
        <trkpt lat="29.267455" lon="105.510935"><ele>408.03958</ele><time>2026-03-23T18:43:48.000Z</time></trkpt>
        <trkpt lat="29.267487" lon="105.510988"><ele>408.38</ele><time>2026-03-23T18:43:54.000Z</time></trkpt>
        <trkpt lat="29.267522" lon="105.511029"><ele>409.22427</ele><time>2026-03-23T18:43:59.000Z</time></trkpt>
        <trkpt lat="29.267543" lon="105.511093"><ele>409.7379</ele><time>2026-03-23T18:44:08.000Z</time></trkpt>
        <trkpt lat="29.267562" lon="105.511136"><ele>409.94397</ele><time>2026-03-23T18:44:13.000Z</time></trkpt>
        <trkpt lat="29.267577" lon="105.511182"><ele>410.66232</ele><time>2026-03-23T18:44:17.000Z</time></trkpt>
        <trkpt lat="29.267594" lon="105.511232"><ele>411.09113</ele><time>2026-03-23T18:44:21.000Z</time></trkpt>
        <trkpt lat="29.267611" lon="105.511294"><ele>411.85333</ele><time>2026-03-23T18:44:32.000Z</time></trkpt>
        <trkpt lat="29.267615" lon="105.511341"><ele>411.93744</ele><time>2026-03-23T18:44:38.000Z</time></trkpt>
        <trkpt lat="29.267628" lon="105.511392"><ele>412.2424</ele><time>2026-03-23T18:44:43.000Z</time></trkpt>
        <trkpt lat="29.267642" lon="105.511441"><ele>412.9009</ele><time>2026-03-23T18:44:47.000Z</time></trkpt>
        <trkpt lat="29.267652" lon="105.5115"><ele>412.84296</ele><time>2026-03-23T18:44:52.000Z</time></trkpt>
        <trkpt lat="29.267675" lon="105.511542"><ele>413.05923</ele><time>2026-03-23T18:44:56.000Z</time></trkpt>
        <trkpt lat="29.2677" lon="105.511587"><ele>413.27383</ele><time>2026-03-23T18:45:00.000Z</time></trkpt>
        <trkpt lat="29.267734" lon="105.511641"><ele>413.92273</ele><time>2026-03-23T18:45:04.000Z</time></trkpt>
        <trkpt lat="29.267774" lon="105.511692"><ele>414.40192</ele><time>2026-03-23T18:45:09.000Z</time></trkpt>
        <trkpt lat="29.267806" lon="105.511722"><ele>414.82355</ele><time>2026-03-23T18:45:12.000Z</time></trkpt>
        <trkpt lat="29.267843" lon="105.511765"><ele>416.13086</ele><time>2026-03-23T18:45:16.000Z</time></trkpt>
        <trkpt lat="29.267878" lon="105.511812"><ele>416.43347</ele><time>2026-03-23T18:45:22.000Z</time></trkpt>
        <trkpt lat="29.267915" lon="105.511848"><ele>415.9024</ele><time>2026-03-23T18:45:58.000Z</time></trkpt>
        <trkpt lat="29.267929" lon="105.511876"><ele>415.91458</ele><time>2026-03-23T18:46:03.000Z</time></trkpt>
        <trkpt lat="29.267971" lon="105.511927"><ele>416.4604</ele><time>2026-03-23T18:46:10.000Z</time></trkpt>
        <trkpt lat="29.268001" lon="105.511974"><ele>416.82532</ele><time>2026-03-23T18:46:15.000Z</time></trkpt>
        <trkpt lat="29.26803" lon="105.512017"><ele>416.95483</ele><time>2026-03-23T18:46:20.000Z</time></trkpt>
        <trkpt lat="29.268064" lon="105.512064"><ele>417.11066</ele><time>2026-03-23T18:46:26.000Z</time></trkpt>
        <trkpt lat="29.268097" lon="105.512096"><ele>417.4389</ele><time>2026-03-23T18:46:30.000Z</time></trkpt>
        <trkpt lat="29.268132" lon="105.512141"><ele>417.75778</ele><time>2026-03-23T18:46:35.000Z</time></trkpt>
        <trkpt lat="29.268167" lon="105.512183"><ele>418.5034</ele><time>2026-03-23T18:46:40.000Z</time></trkpt>
        <trkpt lat="29.268198" lon="105.512233"><ele>419.34903</ele><time>2026-03-23T18:46:46.000Z</time></trkpt>
        <trkpt lat="29.268223" lon="105.512274"><ele>419.5676</ele><time>2026-03-23T18:46:51.000Z</time></trkpt>
        <trkpt lat="29.268249" lon="105.512319"><ele>419.67834</ele><time>2026-03-23T18:46:56.000Z</time></trkpt>
        <trkpt lat="29.268278" lon="105.512362"><ele>420.17487</ele><time>2026-03-23T18:47:01.000Z</time></trkpt>
        <trkpt lat="29.268307" lon="105.512398"><ele>420.30124</ele><time>2026-03-23T18:47:05.000Z</time></trkpt>
        <trkpt lat="29.268336" lon="105.512446"><ele>420.3258</ele><time>2026-03-23T18:47:09.000Z</time></trkpt>
        <trkpt lat="29.268371" lon="105.512496"><ele>420.63107</ele><time>2026-03-23T18:47:15.000Z</time></trkpt>
        <trkpt lat="29.268393" lon="105.512548"><ele>420.629</ele><time>2026-03-23T18:47:21.000Z</time></trkpt>
        <trkpt lat="29.268417" lon="105.512593"><ele>420.68414</ele><time>2026-03-23T18:47:26.000Z</time></trkpt>
        <trkpt lat="29.268446" lon="105.512646"><ele>421.4728</ele><time>2026-03-23T18:47:32.000Z</time></trkpt>
        <trkpt lat="29.268465" lon="105.512692"><ele>422.30823</ele><time>2026-03-23T18:47:37.000Z</time></trkpt>
        <trkpt lat="29.268497" lon="105.512746"><ele>422.9944</ele><time>2026-03-23T18:47:42.000Z</time></trkpt>
        <trkpt lat="29.26853" lon="105.512794"><ele>423.2812</ele><time>2026-03-23T18:47:47.000Z</time></trkpt>
        <trkpt lat="29.268561" lon="105.512839"><ele>423.6869</ele><time>2026-03-23T18:47:52.000Z</time></trkpt>
        <trkpt lat="29.268588" lon="105.512886"><ele>424.00552</ele><time>2026-03-23T18:47:57.000Z</time></trkpt>
        <trkpt lat="29.268615" lon="105.512929"><ele>424.1592</ele><time>2026-03-23T18:48:02.000Z</time></trkpt>
        <trkpt lat="29.268642" lon="105.512977"><ele>424.483</ele><time>2026-03-23T18:48:07.000Z</time></trkpt>
        <trkpt lat="29.268657" lon="105.513026"><ele>425.20575</ele><time>2026-03-23T18:48:11.000Z</time></trkpt>
        <trkpt lat="29.268676" lon="105.513079"><ele>425.72092</ele><time>2026-03-23T18:48:16.000Z</time></trkpt>
        <trkpt lat="29.268691" lon="105.513131"><ele>426.12476</ele><time>2026-03-23T18:48:21.000Z</time></trkpt>
        <trkpt lat="29.268718" lon="105.513179"><ele>426.6838</ele><time>2026-03-23T18:48:26.000Z</time></trkpt>
        <trkpt lat="29.268744" lon="105.513224"><ele>427.28912</ele><time>2026-03-23T18:48:31.000Z</time></trkpt>
        <trkpt lat="29.268765" lon="105.513273"><ele>427.4737</ele><time>2026-03-23T18:48:36.000Z</time></trkpt>
        <trkpt lat="29.268786" lon="105.513317"><ele>427.92227</ele><time>2026-03-23T18:48:40.000Z</time></trkpt>
        <trkpt lat="29.268805" lon="105.513378"><ele>428.7714</ele><time>2026-03-23T18:48:45.000Z</time></trkpt>
        <trkpt lat="29.268826" lon="105.513434"><ele>429.62238</ele><time>2026-03-23T18:48:50.000Z</time></trkpt>
        <trkpt lat="29.268855" lon="105.513486"><ele>429.61456</ele><time>2026-03-23T18:48:56.000Z</time></trkpt>
        <trkpt lat="29.268891" lon="105.513532"><ele>429.39087</ele><time>2026-03-23T18:49:02.000Z</time></trkpt>
        <trkpt lat="29.268917" lon="105.513584"><ele>429.5238</ele><time>2026-03-23T18:49:07.000Z</time></trkpt>
        <trkpt lat="29.268944" lon="105.513638"><ele>430.50934</ele><time>2026-03-23T18:49:12.000Z</time></trkpt>
        <trkpt lat="29.26897" lon="105.513685"><ele>430.88867</ele><time>2026-03-23T18:49:16.000Z</time></trkpt>
        <trkpt lat="29.269002" lon="105.513729"><ele>431.7629</ele><time>2026-03-23T18:49:21.000Z</time></trkpt>
        <trkpt lat="29.269024" lon="105.513778"><ele>431.40646</ele><time>2026-03-23T18:49:26.000Z</time></trkpt>
        <trkpt lat="29.269043" lon="105.513822"><ele>431.86722</ele><time>2026-03-23T18:49:30.000Z</time></trkpt>
        <trkpt lat="29.269072" lon="105.513873"><ele>432.08762</ele><time>2026-03-23T18:49:36.000Z</time></trkpt>
        <trkpt lat="29.269098" lon="105.513931"><ele>432.93088</ele><time>2026-03-23T18:49:42.000Z</time></trkpt>
        <trkpt lat="29.269125" lon="105.513988"><ele>433.77</ele><time>2026-03-23T18:49:49.000Z</time></trkpt>
        <trkpt lat="29.269149" lon="105.514036"><ele>434.01288</ele><time>2026-03-23T18:49:54.000Z</time></trkpt>
        <trkpt lat="29.269172" lon="105.514089"><ele>434.79898</ele><time>2026-03-23T18:49:59.000Z</time></trkpt>
        <trkpt lat="29.269194" lon="105.51414"><ele>435.63977</ele><time>2026-03-23T18:50:04.000Z</time></trkpt>
        <trkpt lat="29.269208" lon="105.514188"><ele>436.17294</ele><time>2026-03-23T18:50:08.000Z</time></trkpt>
        <trkpt lat="29.269235" lon="105.514242"><ele>436.26715</ele><time>2026-03-23T18:50:13.000Z</time></trkpt>
        <trkpt lat="29.26926" lon="105.514294"><ele>437.27197</ele><time>2026-03-23T18:50:18.000Z</time></trkpt>
        <trkpt lat="29.269289" lon="105.514349"><ele>437.75696</ele><time>2026-03-23T18:50:23.000Z</time></trkpt>
        <trkpt lat="29.269315" lon="105.514398"><ele>438.0295</ele><time>2026-03-23T18:50:28.000Z</time></trkpt>
        <trkpt lat="29.269344" lon="105.514453"><ele>438.65463</ele><time>2026-03-23T18:50:34.000Z</time></trkpt>
        <trkpt lat="29.269368" lon="105.514493"><ele>438.96936</ele><time>2026-03-23T18:50:38.000Z</time></trkpt>
        <trkpt lat="29.269393" lon="105.514536"><ele>439.91446</ele><time>2026-03-23T18:50:42.000Z</time></trkpt>
        <trkpt lat="29.269427" lon="105.51458"><ele>440.16028</ele><time>2026-03-23T18:50:47.000Z</time></trkpt>
        <trkpt lat="29.269449" lon="105.514625"><ele>440.10434</ele><time>2026-03-23T18:50:51.000Z</time></trkpt>
        <trkpt lat="29.269481" lon="105.514671"><ele>440.3005</ele><time>2026-03-23T18:50:56.000Z</time></trkpt>
        <trkpt lat="29.269506" lon="105.514721"><ele>439.7875</ele><time>2026-03-23T18:51:01.000Z</time></trkpt>
        <trkpt lat="29.26953" lon="105.514764"><ele>440.1789</ele><time>2026-03-23T18:51:05.000Z</time></trkpt>
        <trkpt lat="29.269564" lon="105.514808"><ele>440.6261</ele><time>2026-03-23T18:51:10.000Z</time></trkpt>
        <trkpt lat="29.269599" lon="105.514857"><ele>441.10046</ele><time>2026-03-23T18:51:15.000Z</time></trkpt>
        <trkpt lat="29.269628" lon="105.514914"><ele>441.80698</ele><time>2026-03-23T18:51:23.000Z</time></trkpt>
        <trkpt lat="29.269655" lon="105.514952"><ele>440.99097</ele><time>2026-03-23T18:51:28.000Z</time></trkpt>
        <trkpt lat="29.269687" lon="105.514998"><ele>441.01245</ele><time>2026-03-23T18:51:33.000Z</time></trkpt>
        <trkpt lat="29.269707" lon="105.515044"><ele>441.6547</ele><time>2026-03-23T18:51:37.000Z</time></trkpt>
        <trkpt lat="29.269734" lon="105.515089"><ele>442.536</ele><time>2026-03-23T18:51:41.000Z</time></trkpt>
        <trkpt lat="29.269759" lon="105.515142"><ele>442.4588</ele><time>2026-03-23T18:51:46.000Z</time></trkpt>
        <trkpt lat="29.269789" lon="105.515187"><ele>442.82916</ele><time>2026-03-23T18:51:51.000Z</time></trkpt>
        <trkpt lat="29.269815" lon="105.515227"><ele>443.0612</ele><time>2026-03-23T18:51:55.000Z</time></trkpt>
        <trkpt lat="29.269853" lon="105.515272"><ele>444.07132</ele><time>2026-03-23T18:52:00.000Z</time></trkpt>
        <trkpt lat="29.269883" lon="105.515326"><ele>444.6028</ele><time>2026-03-23T18:52:05.000Z</time></trkpt>
        <trkpt lat="29.269907" lon="105.51537"><ele>445.2238</ele><time>2026-03-23T18:52:09.000Z</time></trkpt>
        <trkpt lat="29.269935" lon="105.515416"><ele>445.50943</ele><time>2026-03-23T18:52:14.000Z</time></trkpt>
        <trkpt lat="29.269962" lon="105.515471"><ele>445.86865</ele><time>2026-03-23T18:52:19.000Z</time></trkpt>
        <trkpt lat="29.269995" lon="105.515523"><ele>446.28516</ele><time>2026-03-23T18:52:24.000Z</time></trkpt>
        <trkpt lat="29.270021" lon="105.515566"><ele>446.73672</ele><time>2026-03-23T18:52:28.000Z</time></trkpt>
        <trkpt lat="29.270052" lon="105.51561"><ele>446.49344</ele><time>2026-03-23T18:52:33.000Z</time></trkpt>
        <trkpt lat="29.270094" lon="105.515639"><ele>446.63</ele><time>2026-03-23T18:52:38.000Z</time></trkpt>
        <trkpt lat="29.270111" lon="105.515686"><ele>446.94095</ele><time>2026-03-23T18:52:42.000Z</time></trkpt>
        <trkpt lat="29.270134" lon="105.515736"><ele>446.79727</ele><time>2026-03-23T18:52:46.000Z</time></trkpt>
        <trkpt lat="29.270164" lon="105.515781"><ele>446.83722</ele><time>2026-03-23T18:52:50.000Z</time></trkpt>
        <trkpt lat="29.27019" lon="105.515826"><ele>446.40298</ele><time>2026-03-23T18:52:54.000Z</time></trkpt>
        <trkpt lat="29.270217" lon="105.515876"><ele>446.38928</ele><time>2026-03-23T18:52:58.000Z</time></trkpt>
        <trkpt lat="29.270251" lon="105.515924"><ele>446.21793</ele><time>2026-03-23T18:53:03.000Z</time></trkpt>
        <trkpt lat="29.270268" lon="105.51597"><ele>446.36172</ele><time>2026-03-23T18:53:07.000Z</time></trkpt>
        <trkpt lat="29.270297" lon="105.516019"><ele>446.3847</ele><time>2026-03-23T18:53:11.000Z</time></trkpt>
        <trkpt lat="29.27032" lon="105.516071"><ele>446.11264</ele><time>2026-03-23T18:53:15.000Z</time></trkpt>
        <trkpt lat="29.270351" lon="105.516117"><ele>445.71655</ele><time>2026-03-23T18:53:19.000Z</time></trkpt>
        <trkpt lat="29.270385" lon="105.516168"><ele>444.76825</ele><time>2026-03-23T18:53:24.000Z</time></trkpt>
        <trkpt lat="29.270419" lon="105.516218"><ele>443.7401</ele><time>2026-03-23T18:53:29.000Z</time></trkpt>
        <trkpt lat="29.270446" lon="105.516263"><ele>443.6322</ele><time>2026-03-23T18:53:33.000Z</time></trkpt>
        <trkpt lat="29.270472" lon="105.516308"><ele>443.78586</ele><time>2026-03-23T18:53:37.000Z</time></trkpt>
        <trkpt lat="29.270503" lon="105.516353"><ele>443.62573</ele><time>2026-03-23T18:53:41.000Z</time></trkpt>
        <trkpt lat="29.270531" lon="105.516401"><ele>443.5967</ele><time>2026-03-23T18:53:45.000Z</time></trkpt>
        <trkpt lat="29.270558" lon="105.516448"><ele>443.73474</ele><time>2026-03-23T18:53:49.000Z</time></trkpt>
        <trkpt lat="29.270587" lon="105.516496"><ele>443.25436</ele><time>2026-03-23T18:53:54.000Z</time></trkpt>
        <trkpt lat="29.270615" lon="105.516532"><ele>442.94687</ele><time>2026-03-23T18:53:58.000Z</time></trkpt>
        <trkpt lat="29.270644" lon="105.516577"><ele>442.9201</ele><time>2026-03-23T18:54:02.000Z</time></trkpt>
        <trkpt lat="29.270674" lon="105.516634"><ele>442.25458</ele><time>2026-03-23T18:54:07.000Z</time></trkpt>
        <trkpt lat="29.270703" lon="105.516677"><ele>442.3397</ele><time>2026-03-23T18:54:11.000Z</time></trkpt>
        <trkpt lat="29.270731" lon="105.516722"><ele>442.20642</ele><time>2026-03-23T18:54:15.000Z</time></trkpt>
        <trkpt lat="29.270762" lon="105.516763"><ele>442.1458</ele><time>2026-03-23T18:54:19.000Z</time></trkpt>
        <trkpt lat="29.270791" lon="105.516806"><ele>442.15915</ele><time>2026-03-23T18:54:23.000Z</time></trkpt>
        <trkpt lat="29.270822" lon="105.51685"><ele>442.02176</ele><time>2026-03-23T18:54:27.000Z</time></trkpt>
        <trkpt lat="29.270857" lon="105.516897"><ele>441.33997</ele><time>2026-03-23T18:54:32.000Z</time></trkpt>
        <trkpt lat="29.270883" lon="105.516944"><ele>441.51703</ele><time>2026-03-23T18:54:36.000Z</time></trkpt>
        <trkpt lat="29.270914" lon="105.516985"><ele>441.87622</ele><time>2026-03-23T18:54:40.000Z</time></trkpt>
        <trkpt lat="29.270949" lon="105.517044"><ele>441.1014</ele><time>2026-03-23T18:54:46.000Z</time></trkpt>
        <trkpt lat="29.270974" lon="105.517084"><ele>440.6678</ele><time>2026-03-23T18:54:50.000Z</time></trkpt>
        <trkpt lat="29.271006" lon="105.517131"><ele>440.29758</ele><time>2026-03-23T18:54:55.000Z</time></trkpt>
        <trkpt lat="29.271035" lon="105.51717"><ele>440.47858</ele><time>2026-03-23T18:54:59.000Z</time></trkpt>
        <trkpt lat="29.271068" lon="105.51722"><ele>440.68765</ele><time>2026-03-23T18:55:04.000Z</time></trkpt>
        <trkpt lat="29.271096" lon="105.517263"><ele>440.66663</ele><time>2026-03-23T18:55:08.000Z</time></trkpt>
        <trkpt lat="29.27112" lon="105.517309"><ele>441.0267</ele><time>2026-03-23T18:55:12.000Z</time></trkpt>
        <trkpt lat="29.271155" lon="105.517363"><ele>441.42517</ele><time>2026-03-23T18:55:19.000Z</time></trkpt>
        <trkpt lat="29.27118" lon="105.517406"><ele>440.93927</ele><time>2026-03-23T18:55:24.000Z</time></trkpt>
        <trkpt lat="29.271207" lon="105.517451"><ele>440.7689</ele><time>2026-03-23T18:55:28.000Z</time></trkpt>
        <trkpt lat="29.27124" lon="105.517492"><ele>440.5022</ele><time>2026-03-23T18:55:32.000Z</time></trkpt>
        <trkpt lat="29.271273" lon="105.517532"><ele>440.74637</ele><time>2026-03-23T18:55:36.000Z</time></trkpt>
        <trkpt lat="29.271312" lon="105.517582"><ele>440.96988</ele><time>2026-03-23T18:55:41.000Z</time></trkpt>
        <trkpt lat="29.271349" lon="105.517631"><ele>440.99295</ele><time>2026-03-23T18:55:46.000Z</time></trkpt>
        <trkpt lat="29.271378" lon="105.517672"><ele>441.22742</ele><time>2026-03-23T18:55:50.000Z</time></trkpt>
        <trkpt lat="29.271408" lon="105.517713"><ele>441.39542</ele><time>2026-03-23T18:55:54.000Z</time></trkpt>
        <trkpt lat="29.271443" lon="105.517751"><ele>441.24197</ele><time>2026-03-23T18:55:58.000Z</time></trkpt>
        <trkpt lat="29.271475" lon="105.517791"><ele>441.35153</ele><time>2026-03-23T18:56:02.000Z</time></trkpt>
        <trkpt lat="29.271508" lon="105.517831"><ele>441.41028</ele><time>2026-03-23T18:56:06.000Z</time></trkpt>
        <trkpt lat="29.27154" lon="105.517874"><ele>441.53738</ele><time>2026-03-23T18:56:10.000Z</time></trkpt>
        <trkpt lat="29.271576" lon="105.517912"><ele>441.19705</ele><time>2026-03-23T18:56:14.000Z</time></trkpt>
        <trkpt lat="29.27161" lon="105.517953"><ele>440.7465</ele><time>2026-03-23T18:56:18.000Z</time></trkpt>
        <trkpt lat="29.271638" lon="105.517998"><ele>440.53357</ele><time>2026-03-23T18:56:22.000Z</time></trkpt>
        <trkpt lat="29.271677" lon="105.518043"><ele>440.27853</ele><time>2026-03-23T18:56:27.000Z</time></trkpt>
        <trkpt lat="29.271711" lon="105.518077"><ele>440.13785</ele><time>2026-03-23T18:56:31.000Z</time></trkpt>
        <trkpt lat="29.271747" lon="105.51812"><ele>440.35925</ele><time>2026-03-23T18:56:36.000Z</time></trkpt>
        <trkpt lat="29.271783" lon="105.518161"><ele>439.78595</ele><time>2026-03-23T18:56:42.000Z</time></trkpt>
        <trkpt lat="29.271802" lon="105.51821"><ele>439.78052</ele><time>2026-03-23T18:57:04.000Z</time></trkpt>
        <trkpt lat="29.271812" lon="105.518255"><ele>440.4541</ele><time>2026-03-23T18:57:11.000Z</time></trkpt>
        <trkpt lat="29.271848" lon="105.518303"><ele>441.71945</ele><time>2026-03-23T18:57:24.000Z</time></trkpt>
        <trkpt lat="29.271885" lon="105.518334"><ele>442.80386</ele><time>2026-03-23T18:57:32.000Z</time></trkpt>
        <trkpt lat="29.27191" lon="105.518387"><ele>442.9321</ele><time>2026-03-23T18:57:39.000Z</time></trkpt>
        <trkpt lat="29.271924" lon="105.518449"><ele>444.03812</ele><time>2026-03-23T18:57:45.000Z</time></trkpt>
        <trkpt lat="29.271952" lon="105.518507"><ele>445.16507</ele><time>2026-03-23T18:57:51.000Z</time></trkpt>
        <trkpt lat="29.271975" lon="105.518551"><ele>445.6671</ele><time>2026-03-23T18:57:55.000Z</time></trkpt>
        <trkpt lat="29.272006" lon="105.518604"><ele>446.49295</ele><time>2026-03-23T18:58:00.000Z</time></trkpt>
        <trkpt lat="29.272035" lon="105.518648"><ele>445.8977</ele><time>2026-03-23T18:58:04.000Z</time></trkpt>
        <trkpt lat="29.272057" lon="105.518695"><ele>445.4478</ele><time>2026-03-23T18:58:08.000Z</time></trkpt>
        <trkpt lat="29.272086" lon="105.518746"><ele>444.85773</ele><time>2026-03-23T18:58:14.000Z</time></trkpt>
        <trkpt lat="29.272117" lon="105.518775"><ele>445.35257</ele><time>2026-03-23T18:58:17.000Z</time></trkpt>
        <trkpt lat="29.272161" lon="105.518818"><ele>445.57123</ele><time>2026-03-23T18:58:21.000Z</time></trkpt>
        <trkpt lat="29.272204" lon="105.518857"><ele>445.64172</ele><time>2026-03-23T18:58:25.000Z</time></trkpt>
        <trkpt lat="29.272245" lon="105.518901"><ele>445.62552</ele><time>2026-03-23T18:58:29.000Z</time></trkpt>
        <trkpt lat="29.27227" lon="105.518953"><ele>445.40762</ele><time>2026-03-23T18:58:33.000Z</time></trkpt>
        <trkpt lat="29.272295" lon="105.519008"><ele>445.5196</ele><time>2026-03-23T18:58:37.000Z</time></trkpt>
        <trkpt lat="29.272329" lon="105.519064"><ele>446.05353</ele><time>2026-03-23T18:58:42.000Z</time></trkpt>
        <trkpt lat="29.27236" lon="105.519094"><ele>446.6823</ele><time>2026-03-23T18:58:45.000Z</time></trkpt>
        <trkpt lat="29.272403" lon="105.519132"><ele>446.44232</ele><time>2026-03-23T18:58:49.000Z</time></trkpt>
        <trkpt lat="29.272438" lon="105.519173"><ele>446.23773</ele><time>2026-03-23T18:58:53.000Z</time></trkpt>
        <trkpt lat="29.272474" lon="105.519207"><ele>445.92868</ele><time>2026-03-23T18:58:57.000Z</time></trkpt>
        <trkpt lat="29.272515" lon="105.519235"><ele>445.86557</ele><time>2026-03-23T18:59:01.000Z</time></trkpt>
        <trkpt lat="29.272567" lon="105.519267"><ele>445.21207</ele><time>2026-03-23T18:59:07.000Z</time></trkpt>
        <trkpt lat="29.272605" lon="105.519293"><ele>445.11694</ele><time>2026-03-23T18:59:11.000Z</time></trkpt>
        <trkpt lat="29.27265" lon="105.51931"><ele>444.82596</ele><time>2026-03-23T18:59:15.000Z</time></trkpt>
        <trkpt lat="29.272699" lon="105.519337"><ele>444.08023</ele><time>2026-03-23T18:59:21.000Z</time></trkpt>
        <trkpt lat="29.272727" lon="105.519365"><ele>444.05655</ele><time>2026-03-23T18:59:24.000Z</time></trkpt>
        <trkpt lat="29.272766" lon="105.519397"><ele>444.71732</ele><time>2026-03-23T18:59:28.000Z</time></trkpt>
        <trkpt lat="29.272814" lon="105.519435"><ele>441.22366</ele><time>2026-03-23T19:01:22.000Z</time></trkpt>
        <trkpt lat="29.272834" lon="105.519452"><ele>441.50397</ele><time>2026-03-23T19:01:27.000Z</time></trkpt>
        <trkpt lat="29.272878" lon="105.519494"><ele>442.0435</ele><time>2026-03-23T19:01:32.000Z</time></trkpt>
        <trkpt lat="29.272923" lon="105.519531"><ele>442.74554</ele><time>2026-03-23T19:01:36.000Z</time></trkpt>
        <trkpt lat="29.272973" lon="105.519568"><ele>442.4376</ele><time>2026-03-23T19:01:41.000Z</time></trkpt>
        <trkpt lat="29.272957" lon="105.519544"><ele>443.26624</ele><time>2026-03-23T19:01:46.000Z</time></trkpt>
        <trkpt lat="29.272928" lon="105.519501"><ele>444.14722</ele><time>2026-03-23T19:01:49.000Z</time></trkpt>
        <trkpt lat="29.272873" lon="105.519454"><ele>444.82556</ele><time>2026-03-23T19:01:55.000Z</time></trkpt>
        <trkpt lat="29.272827" lon="105.519408"><ele>443.67303</ele><time>2026-03-23T19:02:21.000Z</time></trkpt>
        <trkpt lat="29.272813" lon="105.51938"><ele>443.52795</ele><time>2026-03-23T19:02:25.000Z</time></trkpt>
        <trkpt lat="29.272812" lon="105.519418"><ele>442.00638</ele><time>2026-03-23T19:02:48.000Z</time></trkpt>
        <trkpt lat="29.272841" lon="105.519454"><ele>442.96362</ele><time>2026-03-23T19:02:54.000Z</time></trkpt>
        <trkpt lat="29.272898" lon="105.51948"><ele>444.03403</ele><time>2026-03-23T19:03:03.000Z</time></trkpt>
        <trkpt lat="29.272931" lon="105.519508"><ele>444.93466</ele><time>2026-03-23T19:03:08.000Z</time></trkpt>
        <trkpt lat="29.272968" lon="105.519546"><ele>444.22467</ele><time>2026-03-23T19:03:13.000Z</time></trkpt>
        <trkpt lat="29.273006" lon="105.519589"><ele>444.06525</ele><time>2026-03-23T19:03:20.000Z</time></trkpt>
        <trkpt lat="29.273038" lon="105.519617"><ele>443.9106</ele><time>2026-03-23T19:03:24.000Z</time></trkpt>
        <trkpt lat="29.273066" lon="105.519678"><ele>444.4364</ele><time>2026-03-23T19:03:37.000Z</time></trkpt>
        <trkpt lat="29.273092" lon="105.51972"><ele>445.80496</ele><time>2026-03-23T19:03:42.000Z</time></trkpt>
        <trkpt lat="29.273132" lon="105.519765"><ele>446.17157</ele><time>2026-03-23T19:03:47.000Z</time></trkpt>
        <trkpt lat="29.273185" lon="105.519797"><ele>445.38507</ele><time>2026-03-23T19:03:52.000Z</time></trkpt>
        <trkpt lat="29.273228" lon="105.519829"><ele>445.1741</ele><time>2026-03-23T19:03:56.000Z</time></trkpt>
        <trkpt lat="29.273271" lon="105.51986"><ele>444.7083</ele><time>2026-03-23T19:04:00.000Z</time></trkpt>
        <trkpt lat="29.273312" lon="105.519895"><ele>444.09647</ele><time>2026-03-23T19:04:04.000Z</time></trkpt>
        <trkpt lat="29.273349" lon="105.519948"><ele>443.5275</ele><time>2026-03-23T19:04:11.000Z</time></trkpt>
        <trkpt lat="29.273377" lon="105.519987"><ele>443.36026</ele><time>2026-03-23T19:04:16.000Z</time></trkpt>
        <trkpt lat="29.273408" lon="105.520034"><ele>442.24658</ele><time>2026-03-23T19:04:21.000Z</time></trkpt>
        <trkpt lat="29.273446" lon="105.520075"><ele>442.61725</ele><time>2026-03-23T19:04:25.000Z</time></trkpt>
        <trkpt lat="29.273482" lon="105.52011"><ele>442.48834</ele><time>2026-03-23T19:04:28.000Z</time></trkpt>
        <trkpt lat="29.273528" lon="105.520151"><ele>441.91245</ele><time>2026-03-23T19:04:32.000Z</time></trkpt>
        <trkpt lat="29.273561" lon="105.520195"><ele>441.72818</ele><time>2026-03-23T19:04:36.000Z</time></trkpt>
        <trkpt lat="29.273605" lon="105.520228"><ele>442.06454</ele><time>2026-03-23T19:04:40.000Z</time></trkpt>
        <trkpt lat="29.27364" lon="105.520269"><ele>441.42172</ele><time>2026-03-23T19:04:45.000Z</time></trkpt>
        <trkpt lat="29.273661" lon="105.520317"><ele>441.94965</ele><time>2026-03-23T19:04:49.000Z</time></trkpt>
        <trkpt lat="29.273679" lon="105.52036"><ele>442.6123</ele><time>2026-03-23T19:04:52.000Z</time></trkpt>
        <trkpt lat="29.27369" lon="105.520418"><ele>444.00677</ele><time>2026-03-23T19:04:56.000Z</time></trkpt>
        <trkpt lat="29.273706" lon="105.52047"><ele>444.64926</ele><time>2026-03-23T19:05:00.000Z</time></trkpt>
        <trkpt lat="29.273723" lon="105.520533"><ele>445.35718</ele><time>2026-03-23T19:05:05.000Z</time></trkpt>
        <trkpt lat="29.273744" lon="105.520578"><ele>446.05988</ele><time>2026-03-23T19:05:09.000Z</time></trkpt>
        <trkpt lat="29.273767" lon="105.520625"><ele>445.44098</ele><time>2026-03-23T19:05:13.000Z</time></trkpt>
        <trkpt lat="29.273792" lon="105.520678"><ele>444.8913</ele><time>2026-03-23T19:05:18.000Z</time></trkpt>
        <trkpt lat="29.273812" lon="105.520727"><ele>444.20132</ele><time>2026-03-23T19:05:22.000Z</time></trkpt>
        <trkpt lat="29.273835" lon="105.520776"><ele>443.8075</ele><time>2026-03-23T19:05:26.000Z</time></trkpt>
        <trkpt lat="29.273857" lon="105.520828"><ele>444.1897</ele><time>2026-03-23T19:05:30.000Z</time></trkpt>
        <trkpt lat="29.27387" lon="105.520887"><ele>445.30405</ele><time>2026-03-23T19:05:34.000Z</time></trkpt>
        <trkpt lat="29.273878" lon="105.520954"><ele>447.013</ele><time>2026-03-23T19:05:41.000Z</time></trkpt>
        <trkpt lat="29.273858" lon="105.521002"><ele>449.02167</ele><time>2026-03-23T19:05:55.000Z</time></trkpt>
        <trkpt lat="29.273857" lon="105.521044"><ele>449.24957</ele><time>2026-03-23T19:06:01.000Z</time></trkpt>
        <trkpt lat="29.27387" lon="105.521093"><ele>449.71103</ele><time>2026-03-23T19:06:05.000Z</time></trkpt>
        <trkpt lat="29.273892" lon="105.521154"><ele>449.78662</ele><time>2026-03-23T19:06:10.000Z</time></trkpt>
        <trkpt lat="29.273912" lon="105.521204"><ele>449.9079</ele><time>2026-03-23T19:06:14.000Z</time></trkpt>
        <trkpt lat="29.273935" lon="105.521253"><ele>449.4477</ele><time>2026-03-23T19:06:18.000Z</time></trkpt>
        <trkpt lat="29.27396" lon="105.521304"><ele>449.70514</ele><time>2026-03-23T19:06:22.000Z</time></trkpt>
        <trkpt lat="29.274004" lon="105.521332"><ele>449.0471</ele><time>2026-03-23T19:06:27.000Z</time></trkpt>
        <trkpt lat="29.274052" lon="105.521341"><ele>448.26065</ele><time>2026-03-23T19:06:32.000Z</time></trkpt>
        <trkpt lat="29.274101" lon="105.521361"><ele>447.2871</ele><time>2026-03-23T19:06:38.000Z</time></trkpt>
        <trkpt lat="29.274135" lon="105.521391"><ele>445.9881</ele><time>2026-03-23T19:06:42.000Z</time></trkpt>
        <trkpt lat="29.274175" lon="105.521436"><ele>445.29382</ele><time>2026-03-23T19:06:46.000Z</time></trkpt>
        <trkpt lat="29.274224" lon="105.521455"><ele>444.53558</ele><time>2026-03-23T19:06:51.000Z</time></trkpt>
        <trkpt lat="29.274262" lon="105.521444"><ele>443.44373</ele><time>2026-03-23T19:06:54.000Z</time></trkpt>
        <trkpt lat="29.274308" lon="105.521426"><ele>441.97986</ele><time>2026-03-23T19:06:58.000Z</time></trkpt>
        <trkpt lat="29.274355" lon="105.521407"><ele>440.4609</ele><time>2026-03-23T19:07:02.000Z</time></trkpt>
        <trkpt lat="29.274399" lon="105.521436"><ele>437.30505</ele><time>2026-03-23T19:07:20.000Z</time></trkpt>
        <trkpt lat="29.274437" lon="105.521479"><ele>437.08997</ele><time>2026-03-23T19:07:28.000Z</time></trkpt>
        <trkpt lat="29.274477" lon="105.521453"><ele>436.3801</ele><time>2026-03-23T19:07:33.000Z</time></trkpt>
        <trkpt lat="29.274499" lon="105.521401"><ele>435.2969</ele><time>2026-03-23T19:07:37.000Z</time></trkpt>
        <trkpt lat="29.274532" lon="105.521341"><ele>434.47443</ele><time>2026-03-23T19:07:46.000Z</time></trkpt>
        <trkpt lat="29.274548" lon="105.52129"><ele>433.466</ele><time>2026-03-23T19:07:53.000Z</time></trkpt>
        <trkpt lat="29.27454" lon="105.521241"><ele>433.08908</ele><time>2026-03-23T19:07:58.000Z</time></trkpt>
        <trkpt lat="29.274517" lon="105.521191"><ele>433.76093</ele><time>2026-03-23T19:08:03.000Z</time></trkpt>
        <trkpt lat="29.274528" lon="105.521139"><ele>434.38312</ele><time>2026-03-23T19:08:09.000Z</time></trkpt>
        <trkpt lat="29.274584" lon="105.521205"><ele>435.9006</ele><time>2026-03-23T19:08:39.000Z</time></trkpt>
        <trkpt lat="29.274625" lon="105.521243"><ele>435.20093</ele><time>2026-03-23T19:08:54.000Z</time></trkpt>
        <trkpt lat="29.274627" lon="105.521272"><ele>435.035</ele><time>2026-03-23T19:08:56.000Z</time></trkpt>
        <trkpt lat="29.274643" lon="105.521295"><ele>434.88455</ele><time>2026-03-23T19:08:57.000Z</time></trkpt>
        <trkpt lat="29.274626" lon="105.521289"><ele>434.43015</ele><time>2026-03-23T19:08:59.000Z</time></trkpt>
        <trkpt lat="29.274574" lon="105.521235"><ele>434.73367</ele><time>2026-03-23T19:09:07.000Z</time></trkpt>
        <trkpt lat="29.274549" lon="105.521185"><ele>434.8462</ele><time>2026-03-23T19:09:10.000Z</time></trkpt>
        <trkpt lat="29.274538" lon="105.521204"><ele>434.73993</ele><time>2026-03-23T19:09:15.000Z</time></trkpt>
        <trkpt lat="29.274551" lon="105.521256"><ele>434.85025</ele><time>2026-03-23T19:09:19.000Z</time></trkpt>
        <trkpt lat="29.27455" lon="105.521329"><ele>435.61697</ele><time>2026-03-23T19:09:25.000Z</time></trkpt>
        <trkpt lat="29.274525" lon="105.521385"><ele>435.72046</ele><time>2026-03-23T19:09:33.000Z</time></trkpt>
        <trkpt lat="29.2745" lon="105.521428"><ele>435.50018</ele><time>2026-03-23T19:09:40.000Z</time></trkpt>
        <trkpt lat="29.274492" lon="105.521485"><ele>435.8618</ele><time>2026-03-23T19:09:47.000Z</time></trkpt>
        <trkpt lat="29.27449" lon="105.521528"><ele>436.14215</ele><time>2026-03-23T19:09:50.000Z</time></trkpt>
        <trkpt lat="29.274505" lon="105.521599"><ele>436.6152</ele><time>2026-03-23T19:10:17.000Z</time></trkpt>
        <trkpt lat="29.274532" lon="105.521641"><ele>435.65204</ele><time>2026-03-23T19:10:36.000Z</time></trkpt>
        <trkpt lat="29.274545" lon="105.521688"><ele>434.98624</ele><time>2026-03-23T19:10:41.000Z</time></trkpt>
        <trkpt lat="29.274561" lon="105.521754"><ele>435.641</ele><time>2026-03-23T19:10:47.000Z</time></trkpt>
        <trkpt lat="29.274575" lon="105.521816"><ele>435.30164</ele><time>2026-03-23T19:11:10.000Z</time></trkpt>
        <trkpt lat="29.274584" lon="105.521866"><ele>433.74405</ele><time>2026-03-23T19:11:49.000Z</time></trkpt>
        <trkpt lat="29.2746" lon="105.521915"><ele>432.59586</ele><time>2026-03-23T19:12:08.000Z</time></trkpt>
        <trkpt lat="29.274613" lon="105.521952"><ele>432.1082</ele><time>2026-03-23T19:12:13.000Z</time></trkpt>
        <trkpt lat="29.274646" lon="105.522007"><ele>431.66312</ele><time>2026-03-23T19:12:20.000Z</time></trkpt>
        <trkpt lat="29.274656" lon="105.522068"><ele>432.92218</ele><time>2026-03-23T19:12:32.000Z</time></trkpt>
        <trkpt lat="29.274682" lon="105.522112"><ele>434.5179</ele><time>2026-03-23T19:12:45.000Z</time></trkpt>
        <trkpt lat="29.274698" lon="105.522152"><ele>433.9104</ele><time>2026-03-23T19:12:49.000Z</time></trkpt>
        <trkpt lat="29.274722" lon="105.522206"><ele>433.86136</ele><time>2026-03-23T19:12:54.000Z</time></trkpt>
        <trkpt lat="29.274751" lon="105.522257"><ele>433.70114</ele><time>2026-03-23T19:12:59.000Z</time></trkpt>
        <trkpt lat="29.274778" lon="105.522304"><ele>434.0525</ele><time>2026-03-23T19:13:04.000Z</time></trkpt>
        <trkpt lat="29.274812" lon="105.522344"><ele>434.5997</ele><time>2026-03-23T19:13:09.000Z</time></trkpt>
        <trkpt lat="29.274844" lon="105.522386"><ele>435.00217</ele><time>2026-03-23T19:13:14.000Z</time></trkpt>
        <trkpt lat="29.274865" lon="105.522448"><ele>436.1929</ele><time>2026-03-23T19:13:28.000Z</time></trkpt>
        <trkpt lat="29.274899" lon="105.522473"><ele>435.9603</ele><time>2026-03-23T19:13:36.000Z</time></trkpt>
        <trkpt lat="29.274939" lon="105.522504"><ele>434.59454</ele><time>2026-03-23T19:13:42.000Z</time></trkpt>
        <trkpt lat="29.274983" lon="105.522546"><ele>432.56708</ele><time>2026-03-23T19:13:50.000Z</time></trkpt>
        <trkpt lat="29.275029" lon="105.522544"><ele>434.05066</ele><time>2026-03-23T19:13:56.000Z</time></trkpt>
        <trkpt lat="29.27508" lon="105.52255"><ele>434.1397</ele><time>2026-03-23T19:14:01.000Z</time></trkpt>
        <trkpt lat="29.275136" lon="105.522574"><ele>433.31662</ele><time>2026-03-23T19:14:07.000Z</time></trkpt>
        <trkpt lat="29.275176" lon="105.522602"><ele>432.71927</ele><time>2026-03-23T19:14:11.000Z</time></trkpt>
        <trkpt lat="29.275205" lon="105.522646"><ele>432.05063</ele><time>2026-03-23T19:14:15.000Z</time></trkpt>
        <trkpt lat="29.275231" lon="105.522699"><ele>431.6272</ele><time>2026-03-23T19:14:19.000Z</time></trkpt>
        <trkpt lat="29.275257" lon="105.522746"><ele>430.83618</ele><time>2026-03-23T19:14:23.000Z</time></trkpt>
        <trkpt lat="29.275284" lon="105.522792"><ele>430.3051</ele><time>2026-03-23T19:14:27.000Z</time></trkpt>
        <trkpt lat="29.275316" lon="105.52284"><ele>430.04382</ele><time>2026-03-23T19:14:33.000Z</time></trkpt>
        <trkpt lat="29.275345" lon="105.522885"><ele>430.18307</ele><time>2026-03-23T19:14:38.000Z</time></trkpt>
        <trkpt lat="29.27537" lon="105.522938"><ele>430.00565</ele><time>2026-03-23T19:14:44.000Z</time></trkpt>
        <trkpt lat="29.275375" lon="105.522987"><ele>430.17035</ele><time>2026-03-23T19:14:48.000Z</time></trkpt>
        <trkpt lat="29.275384" lon="105.523045"><ele>430.6258</ele><time>2026-03-23T19:14:53.000Z</time></trkpt>
        <trkpt lat="29.275401" lon="105.523095"><ele>431.23447</ele><time>2026-03-23T19:14:57.000Z</time></trkpt>
        <trkpt lat="29.275413" lon="105.523159"><ele>432.49567</ele><time>2026-03-23T19:15:03.000Z</time></trkpt>
        <trkpt lat="29.275428" lon="105.523216"><ele>433.7617</ele><time>2026-03-23T19:15:08.000Z</time></trkpt>
        <trkpt lat="29.275462" lon="105.523264"><ele>434.26007</ele><time>2026-03-23T19:15:13.000Z</time></trkpt>
        <trkpt lat="29.2755" lon="105.5233"><ele>433.82138</ele><time>2026-03-23T19:15:18.000Z</time></trkpt>
        <trkpt lat="29.275515" lon="105.52336"><ele>433.97357</ele><time>2026-03-23T19:15:24.000Z</time></trkpt>
        <trkpt lat="29.275516" lon="105.523425"><ele>434.65698</ele><time>2026-03-23T19:15:30.000Z</time></trkpt>
        <trkpt lat="29.275528" lon="105.523471"><ele>434.122</ele><time>2026-03-23T19:15:34.000Z</time></trkpt>
        <trkpt lat="29.275557" lon="105.523518"><ele>433.55972</ele><time>2026-03-23T19:15:38.000Z</time></trkpt>
        <trkpt lat="29.275593" lon="105.523569"><ele>434.0684</ele><time>2026-03-23T19:15:42.000Z</time></trkpt>
        <trkpt lat="29.275623" lon="105.523618"><ele>434.42252</ele><time>2026-03-23T19:15:46.000Z</time></trkpt>
        <trkpt lat="29.275651" lon="105.523665"><ele>434.745</ele><time>2026-03-23T19:15:50.000Z</time></trkpt>
        <trkpt lat="29.275688" lon="105.523715"><ele>434.6144</ele><time>2026-03-23T19:15:55.000Z</time></trkpt>
        <trkpt lat="29.275725" lon="105.52376"><ele>434.59457</ele><time>2026-03-23T19:16:00.000Z</time></trkpt>
        <trkpt lat="29.275743" lon="105.523813"><ele>434.26248</ele><time>2026-03-23T19:16:06.000Z</time></trkpt>
        <trkpt lat="29.275773" lon="105.523842"><ele>434.3602</ele><time>2026-03-23T19:16:10.000Z</time></trkpt>
        <trkpt lat="29.275816" lon="105.523874"><ele>433.88467</ele><time>2026-03-23T19:16:16.000Z</time></trkpt>
        <trkpt lat="29.275844" lon="105.523915"><ele>433.26468</ele><time>2026-03-23T19:16:21.000Z</time></trkpt>
        <trkpt lat="29.275868" lon="105.523966"><ele>433.78146</ele><time>2026-03-23T19:16:26.000Z</time></trkpt>
        <trkpt lat="29.27589" lon="105.524016"><ele>434.1225</ele><time>2026-03-23T19:16:31.000Z</time></trkpt>
        <trkpt lat="29.275913" lon="105.524065"><ele>434.44623</ele><time>2026-03-23T19:16:35.000Z</time></trkpt>
        <trkpt lat="29.275948" lon="105.524116"><ele>435.12817</ele><time>2026-03-23T19:16:39.000Z</time></trkpt>
        <trkpt lat="29.275987" lon="105.524155"><ele>436.08395</ele><time>2026-03-23T19:16:43.000Z</time></trkpt>
        <trkpt lat="29.276041" lon="105.524192"><ele>436.52374</ele><time>2026-03-23T19:16:49.000Z</time></trkpt>
        <trkpt lat="29.27605" lon="105.524242"><ele>436.13095</ele><time>2026-03-23T19:16:58.000Z</time></trkpt>
        <trkpt lat="29.275997" lon="105.524268"><ele>434.66757</ele><time>2026-03-23T19:17:25.000Z</time></trkpt>
        <trkpt lat="29.275966" lon="105.524298"><ele>434.53894</ele><time>2026-03-23T19:17:31.000Z</time></trkpt>
        <trkpt lat="29.275915" lon="105.524329"><ele>435.12994</ele><time>2026-03-23T19:17:43.000Z</time></trkpt>
        <trkpt lat="29.275872" lon="105.524344"><ele>437.75146</ele><time>2026-03-23T19:17:52.000Z</time></trkpt>
        <trkpt lat="29.275843" lon="105.524388"><ele>441.79877</ele><time>2026-03-23T19:18:11.000Z</time></trkpt>
        <trkpt lat="29.275804" lon="105.524396"><ele>442.7073</ele><time>2026-03-23T19:18:18.000Z</time></trkpt>
        <trkpt lat="29.275824" lon="105.524441"><ele>446.75235</ele><time>2026-03-23T19:18:58.000Z</time></trkpt>
        <trkpt lat="29.275863" lon="105.524474"><ele>449.56503</ele><time>2026-03-23T19:19:09.000Z</time></trkpt>
        <trkpt lat="29.275875" lon="105.524529"><ele>452.04703</ele><time>2026-03-23T19:19:20.000Z</time></trkpt>
        <trkpt lat="29.275882" lon="105.52458"><ele>452.69293</ele><time>2026-03-23T19:19:27.000Z</time></trkpt>
        <trkpt lat="29.275891" lon="105.524631"><ele>453.9232</ele><time>2026-03-23T19:19:33.000Z</time></trkpt>
        <trkpt lat="29.275898" lon="105.524684"><ele>456.31052</ele><time>2026-03-23T19:19:39.000Z</time></trkpt>
        <trkpt lat="29.275896" lon="105.52475"><ele>457.81638</ele><time>2026-03-23T19:19:48.000Z</time></trkpt>
        <trkpt lat="29.275892" lon="105.524809"><ele>459.1942</ele><time>2026-03-23T19:19:56.000Z</time></trkpt>
        <trkpt lat="29.275918" lon="105.524858"><ele>460.1997</ele><time>2026-03-23T19:20:02.000Z</time></trkpt>
        <trkpt lat="29.2759" lon="105.52491"><ele>462.52744</ele><time>2026-03-23T19:20:10.000Z</time></trkpt>
        <trkpt lat="29.275878" lon="105.524964"><ele>462.0325</ele><time>2026-03-23T19:20:16.000Z</time></trkpt>
        <trkpt lat="29.275857" lon="105.525019"><ele>463.57382</ele><time>2026-03-23T19:20:24.000Z</time></trkpt>
        <trkpt lat="29.27588" lon="105.525063"><ele>468.3831</ele><time>2026-03-23T19:20:34.000Z</time></trkpt>
        <trkpt lat="29.275852" lon="105.525095"><ele>469.25015</ele><time>2026-03-23T19:20:44.000Z</time></trkpt>
        <trkpt lat="29.27581" lon="105.525069"><ele>467.37592</ele><time>2026-03-23T19:20:55.000Z</time></trkpt>
        <trkpt lat="29.275823" lon="105.525117"><ele>472.059</ele><time>2026-03-23T19:21:17.000Z</time></trkpt>
        <trkpt lat="29.275802" lon="105.525159"><ele>471.53674</ele><time>2026-03-23T19:21:24.000Z</time></trkpt>
        <trkpt lat="29.275749" lon="105.525156"><ele>471.74384</ele><time>2026-03-23T19:21:37.000Z</time></trkpt>
        <trkpt lat="29.275756" lon="105.525117"><ele>472.83728</ele><time>2026-03-23T19:21:41.000Z</time></trkpt>
        <trkpt lat="29.275757" lon="105.525064"><ele>476.53387</ele><time>2026-03-23T19:21:45.000Z</time></trkpt>
        <trkpt lat="29.275721" lon="105.525007"><ele>479.45197</ele><time>2026-03-23T19:21:58.000Z</time></trkpt>
        <trkpt lat="29.275696" lon="105.524957"><ele>479.52658</ele><time>2026-03-23T19:22:09.000Z</time></trkpt>
        <trkpt lat="29.275685" lon="105.524905"><ele>479.57242</ele><time>2026-03-23T19:22:15.000Z</time></trkpt>
        <trkpt lat="29.275643" lon="105.524926"><ele>474.4371</ele><time>2026-03-23T19:22:58.000Z</time></trkpt>
        <trkpt lat="29.275608" lon="105.524947"><ele>474.40955</ele><time>2026-03-23T19:23:02.000Z</time></trkpt>
        <trkpt lat="29.275557" lon="105.524963"><ele>474.8934</ele><time>2026-03-23T19:23:06.000Z</time></trkpt>
        <trkpt lat="29.275601" lon="105.524927"><ele>477.15805</ele><time>2026-03-23T19:23:07.000Z</time></trkpt>
        <trkpt lat="29.275596" lon="105.524893"><ele>492.31085</ele><time>2026-03-23T19:23:21.000Z</time></trkpt>
        <trkpt lat="29.275571" lon="105.524862"><ele>482.65912</ele><time>2026-03-23T19:23:26.000Z</time></trkpt>
        <trkpt lat="29.275494" lon="105.524839"><ele>479.29776</ele><time>2026-03-23T19:23:28.000Z</time></trkpt>
        <trkpt lat="29.275455" lon="105.524853"><ele>477.73065</ele><time>2026-03-23T19:23:30.000Z</time></trkpt>
        <trkpt lat="29.275429" lon="105.524864"><ele>477.44693</ele><time>2026-03-23T19:23:31.000Z</time></trkpt>
        <trkpt lat="29.275432" lon="105.524862"><ele>477.4272</ele><time>2026-03-23T19:23:32.000Z</time></trkpt>
        <trkpt lat="29.275446" lon="105.524849"><ele>477.78137</ele><time>2026-03-23T19:23:33.000Z</time></trkpt>
        <trkpt lat="29.275492" lon="105.524789"><ele>481.02402</ele><time>2026-03-23T19:23:38.000Z</time></trkpt>
        <trkpt lat="29.275545" lon="105.524699"><ele>484.14832</ele><time>2026-03-23T19:23:48.000Z</time></trkpt>
        <trkpt lat="29.275558" lon="105.52464"><ele>485.51</ele><time>2026-03-23T19:23:55.000Z</time></trkpt>
        <trkpt lat="29.275525" lon="105.524598"><ele>486.88257</ele><time>2026-03-23T19:24:07.000Z</time></trkpt>
        <trkpt lat="29.275481" lon="105.524554"><ele>488.79904</ele><time>2026-03-23T19:24:21.000Z</time></trkpt>
        <trkpt lat="29.275463" lon="105.524509"><ele>489.7936</ele><time>2026-03-23T19:24:27.000Z</time></trkpt>
        <trkpt lat="29.275434" lon="105.524464"><ele>489.03418</ele><time>2026-03-23T19:24:35.000Z</time></trkpt>
        <trkpt lat="29.275406" lon="105.524421"><ele>488.43967</ele><time>2026-03-23T19:24:42.000Z</time></trkpt>
        <trkpt lat="29.275373" lon="105.52438"><ele>490.54465</ele><time>2026-03-23T19:24:55.000Z</time></trkpt>
        <trkpt lat="29.275361" lon="105.524341"><ele>491.64163</ele><time>2026-03-23T19:24:58.000Z</time></trkpt>
        <trkpt lat="29.275332" lon="105.524283"><ele>491.3159</ele><time>2026-03-23T19:25:04.000Z</time></trkpt>
        <trkpt lat="29.2753" lon="105.524241"><ele>491.33334</ele><time>2026-03-23T19:25:09.000Z</time></trkpt>
        <trkpt lat="29.275283" lon="105.524193"><ele>492.05295</ele><time>2026-03-23T19:25:14.000Z</time></trkpt>
        <trkpt lat="29.275263" lon="105.524144"><ele>491.62097</ele><time>2026-03-23T19:25:20.000Z</time></trkpt>
        <trkpt lat="29.27524" lon="105.524093"><ele>491.54343</ele><time>2026-03-23T19:25:31.000Z</time></trkpt>
        <trkpt lat="29.275212" lon="105.524054"><ele>491.00665</ele><time>2026-03-23T19:25:39.000Z</time></trkpt>
        <trkpt lat="29.275177" lon="105.524013"><ele>491.02866</ele><time>2026-03-23T19:25:45.000Z</time></trkpt>
        <trkpt lat="29.275144" lon="105.523966"><ele>491.5805</ele><time>2026-03-23T19:25:52.000Z</time></trkpt>
        <trkpt lat="29.275105" lon="105.523926"><ele>491.47968</ele><time>2026-03-23T19:25:59.000Z</time></trkpt>
        <trkpt lat="29.275065" lon="105.523892"><ele>492.40598</ele><time>2026-03-23T19:26:05.000Z</time></trkpt>
        <trkpt lat="29.275026" lon="105.52385"><ele>493.64902</ele><time>2026-03-23T19:26:11.000Z</time></trkpt>
        <trkpt lat="29.275013" lon="105.523798"><ele>494.779</ele><time>2026-03-23T19:26:16.000Z</time></trkpt>
        <trkpt lat="29.274996" lon="105.523752"><ele>494.95667</ele><time>2026-03-23T19:26:20.000Z</time></trkpt>
        <trkpt lat="29.274954" lon="105.523703"><ele>494.6743</ele><time>2026-03-23T19:26:28.000Z</time></trkpt>
        <trkpt lat="29.274903" lon="105.523704"><ele>493.97784</ele><time>2026-03-23T19:26:35.000Z</time></trkpt>
        <trkpt lat="29.274849" lon="105.523691"><ele>496.80917</ele><time>2026-03-23T19:26:50.000Z</time></trkpt>
        <trkpt lat="29.274828" lon="105.523656"><ele>499.1623</ele><time>2026-03-23T19:26:54.000Z</time></trkpt>
        <trkpt lat="29.274807" lon="105.5236"><ele>501.53705</ele><time>2026-03-23T19:26:58.000Z</time></trkpt>
        <trkpt lat="29.274768" lon="105.523544"><ele>502.19232</ele><time>2026-03-23T19:27:05.000Z</time></trkpt>
        <trkpt lat="29.274727" lon="105.523581"><ele>500.9479</ele><time>2026-03-23T19:27:18.000Z</time></trkpt>
        <trkpt lat="29.2747" lon="105.523621"><ele>500.9402</ele><time>2026-03-23T19:27:23.000Z</time></trkpt>
        <trkpt lat="29.27473" lon="105.523586"><ele>496.70978</ele><time>2026-03-23T19:27:29.000Z</time></trkpt>
        <trkpt lat="29.274561" lon="105.523491"><ele>504.60205</ele><time>2026-03-23T19:27:42.000Z</time></trkpt>
        <trkpt lat="29.274517" lon="105.523423"><ele>506.05347</ele><time>2026-03-23T19:27:48.000Z</time></trkpt>
        <trkpt lat="29.274517" lon="105.523359"><ele>505.65002</ele><time>2026-03-23T19:27:53.000Z</time></trkpt>
        <trkpt lat="29.274447" lon="105.523383"><ele>502.81052</ele><time>2026-03-23T19:27:55.000Z</time></trkpt>
        <trkpt lat="29.274471" lon="105.523322"><ele>502.48178</ele><time>2026-03-23T19:27:56.000Z</time></trkpt>
        <trkpt lat="29.274494" lon="105.523234"><ele>502.55426</ele><time>2026-03-23T19:27:59.000Z</time></trkpt>
        <trkpt lat="29.27449" lon="105.523199"><ele>503.13916</ele><time>2026-03-23T19:28:01.000Z</time></trkpt>
        <trkpt lat="29.274453" lon="105.523173"><ele>503.9909</ele><time>2026-03-23T19:28:06.000Z</time></trkpt>
        <trkpt lat="29.274403" lon="105.523163"><ele>504.62643</ele><time>2026-03-23T19:28:11.000Z</time></trkpt>
        <trkpt lat="29.274359" lon="105.523126"><ele>505.4516</ele><time>2026-03-23T19:28:18.000Z</time></trkpt>
        <trkpt lat="29.274338" lon="105.523084"><ele>505.99554</ele><time>2026-03-23T19:28:22.000Z</time></trkpt>
        <trkpt lat="29.274301" lon="105.523036"><ele>506.00195</ele><time>2026-03-23T19:28:28.000Z</time></trkpt>
        <trkpt lat="29.274267" lon="105.522995"><ele>507.27945</ele><time>2026-03-23T19:28:33.000Z</time></trkpt>
        <trkpt lat="29.27424" lon="105.522944"><ele>508.59592</ele><time>2026-03-23T19:28:40.000Z</time></trkpt>
        <trkpt lat="29.274196" lon="105.522935"><ele>505.6891</ele><time>2026-03-23T19:29:11.000Z</time></trkpt>
        <trkpt lat="29.274166" lon="105.522918"><ele>503.41556</ele><time>2026-03-23T19:29:17.000Z</time></trkpt>
        <trkpt lat="29.274128" lon="105.522876"><ele>503.24655</ele><time>2026-03-23T19:29:23.000Z</time></trkpt>
        <trkpt lat="29.274107" lon="105.52282"><ele>502.8735</ele><time>2026-03-23T19:29:28.000Z</time></trkpt>
        <trkpt lat="29.274096" lon="105.522761"><ele>503.13882</ele><time>2026-03-23T19:29:33.000Z</time></trkpt>
        <trkpt lat="29.274077" lon="105.522709"><ele>503.01553</ele><time>2026-03-23T19:29:38.000Z</time></trkpt>
        <trkpt lat="29.274052" lon="105.52266"><ele>502.6601</ele><time>2026-03-23T19:29:43.000Z</time></trkpt>
        <trkpt lat="29.274011" lon="105.522616"><ele>501.98044</ele><time>2026-03-23T19:29:49.000Z</time></trkpt>
        <trkpt lat="29.273989" lon="105.522569"><ele>502.92062</ele><time>2026-03-23T19:29:54.000Z</time></trkpt>
        <trkpt lat="29.273959" lon="105.522524"><ele>503.2293</ele><time>2026-03-23T19:29:59.000Z</time></trkpt>
        <trkpt lat="29.273927" lon="105.522484"><ele>502.47104</ele><time>2026-03-23T19:30:04.000Z</time></trkpt>
        <trkpt lat="29.273895" lon="105.522437"><ele>502.85855</ele><time>2026-03-23T19:30:09.000Z</time></trkpt>
        <trkpt lat="29.273882" lon="105.522393"><ele>503.33136</ele><time>2026-03-23T19:30:12.000Z</time></trkpt>
        <trkpt lat="29.273862" lon="105.52233"><ele>504.07095</ele><time>2026-03-23T19:30:17.000Z</time></trkpt>
        <trkpt lat="29.273844" lon="105.522278"><ele>504.98154</ele><time>2026-03-23T19:30:21.000Z</time></trkpt>
        <trkpt lat="29.273812" lon="105.522238"><ele>505.14252</ele><time>2026-03-23T19:30:26.000Z</time></trkpt>
        <trkpt lat="29.273783" lon="105.52219"><ele>503.5121</ele><time>2026-03-23T19:30:35.000Z</time></trkpt>
        <trkpt lat="29.273751" lon="105.522155"><ele>503.6791</ele><time>2026-03-23T19:30:46.000Z</time></trkpt>
        <trkpt lat="29.273735" lon="105.522111"><ele>506.56833</ele><time>2026-03-23T19:30:51.000Z</time></trkpt>
        <trkpt lat="29.273706" lon="105.522076"><ele>506.9363</ele><time>2026-03-23T19:30:55.000Z</time></trkpt>
        <trkpt lat="29.273662" lon="105.522037"><ele>505.64194</ele><time>2026-03-23T19:31:00.000Z</time></trkpt>
        <trkpt lat="29.273633" lon="105.521991"><ele>504.25705</ele><time>2026-03-23T19:31:05.000Z</time></trkpt>
        <trkpt lat="29.273595" lon="105.52195"><ele>504.39713</ele><time>2026-03-23T19:32:06.000Z</time></trkpt>
        <trkpt lat="29.273571" lon="105.521916"><ele>506.4741</ele><time>2026-03-23T19:32:14.000Z</time></trkpt>
        <trkpt lat="29.273557" lon="105.52185"><ele>505.4986</ele><time>2026-03-23T19:32:25.000Z</time></trkpt>
        <trkpt lat="29.273536" lon="105.521802"><ele>504.08896</ele><time>2026-03-23T19:32:33.000Z</time></trkpt>
        <trkpt lat="29.273501" lon="105.521769"><ele>503.61032</ele><time>2026-03-23T19:32:38.000Z</time></trkpt>
        <trkpt lat="29.273473" lon="105.521731"><ele>503.7808</ele><time>2026-03-23T19:32:42.000Z</time></trkpt>
        <trkpt lat="29.273443" lon="105.521681"><ele>504.15366</ele><time>2026-03-23T19:32:47.000Z</time></trkpt>
        <trkpt lat="29.273419" lon="105.521633"><ele>503.57608</ele><time>2026-03-23T19:32:52.000Z</time></trkpt>
        <trkpt lat="29.273397" lon="105.521587"><ele>503.63605</ele><time>2026-03-23T19:32:56.000Z</time></trkpt>
        <trkpt lat="29.273364" lon="105.521534"><ele>503.69235</ele><time>2026-03-23T19:33:01.000Z</time></trkpt>
        <trkpt lat="29.273328" lon="105.521483"><ele>503.2079</ele><time>2026-03-23T19:33:08.000Z</time></trkpt>
        <trkpt lat="29.273294" lon="105.521449"><ele>503.5523</ele><time>2026-03-23T19:33:12.000Z</time></trkpt>
        <trkpt lat="29.273257" lon="105.521398"><ele>503.96417</ele><time>2026-03-23T19:33:18.000Z</time></trkpt>
        <trkpt lat="29.273242" lon="105.521351"><ele>503.72375</ele><time>2026-03-23T19:33:22.000Z</time></trkpt>
        <trkpt lat="29.273214" lon="105.521302"><ele>503.69125</ele><time>2026-03-23T19:33:26.000Z</time></trkpt>
        <trkpt lat="29.273183" lon="105.521255"><ele>503.77893</ele><time>2026-03-23T19:33:30.000Z</time></trkpt>
        <trkpt lat="29.273158" lon="105.521208"><ele>504.6546</ele><time>2026-03-23T19:33:34.000Z</time></trkpt>
        <trkpt lat="29.273126" lon="105.52116"><ele>504.6955</ele><time>2026-03-23T19:33:39.000Z</time></trkpt>
        <trkpt lat="29.273094" lon="105.521125"><ele>503.93768</ele><time>2026-03-23T19:33:43.000Z</time></trkpt>
        <trkpt lat="29.273074" lon="105.521072"><ele>504.57742</ele><time>2026-03-23T19:33:49.000Z</time></trkpt>
        <trkpt lat="29.273054" lon="105.52103"><ele>504.42996</ele><time>2026-03-23T19:33:53.000Z</time></trkpt>
        <trkpt lat="29.273022" lon="105.520988"><ele>503.95346</ele><time>2026-03-23T19:33:58.000Z</time></trkpt>
        <trkpt lat="29.272992" lon="105.520952"><ele>503.92245</ele><time>2026-03-23T19:34:02.000Z</time></trkpt>
        <trkpt lat="29.272972" lon="105.520903"><ele>504.5411</ele><time>2026-03-23T19:34:06.000Z</time></trkpt>
        <trkpt lat="29.272934" lon="105.52086"><ele>505.06067</ele><time>2026-03-23T19:34:11.000Z</time></trkpt>
        <trkpt lat="29.272898" lon="105.520812"><ele>504.93457</ele><time>2026-03-23T19:34:17.000Z</time></trkpt>
        <trkpt lat="29.272865" lon="105.520775"><ele>504.85</ele><time>2026-03-23T19:34:22.000Z</time></trkpt>
        <trkpt lat="29.272836" lon="105.520739"><ele>505.31802</ele><time>2026-03-23T19:34:26.000Z</time></trkpt>
        <trkpt lat="29.272812" lon="105.52069"><ele>505.94638</ele><time>2026-03-23T19:34:31.000Z</time></trkpt>
        <trkpt lat="29.272779" lon="105.520641"><ele>505.96695</ele><time>2026-03-23T19:34:37.000Z</time></trkpt>
        <trkpt lat="29.272737" lon="105.520602"><ele>505.6122</ele><time>2026-03-23T19:34:42.000Z</time></trkpt>
        <trkpt lat="29.27272" lon="105.520541"><ele>506.22275</ele><time>2026-03-23T19:34:47.000Z</time></trkpt>
        <trkpt lat="29.272716" lon="105.520472"><ele>502.72443</ele><time>2026-03-23T19:34:59.000Z</time></trkpt>
        <trkpt lat="29.272761" lon="105.520449"><ele>498.16336</ele><time>2026-03-23T19:35:20.000Z</time></trkpt>
        <trkpt lat="29.272754" lon="105.5204"><ele>497.53574</ele><time>2026-03-23T19:35:28.000Z</time></trkpt>
        <trkpt lat="29.272725" lon="105.520353"><ele>495.6934</ele><time>2026-03-23T19:35:34.000Z</time></trkpt>
        <trkpt lat="29.272684" lon="105.520312"><ele>495.06586</ele><time>2026-03-23T19:35:39.000Z</time></trkpt>
        <trkpt lat="29.272654" lon="105.52027"><ele>494.845</ele><time>2026-03-23T19:35:43.000Z</time></trkpt>
        <trkpt lat="29.272623" lon="105.520226"><ele>495.11087</ele><time>2026-03-23T19:35:47.000Z</time></trkpt>
        <trkpt lat="29.272588" lon="105.520173"><ele>495.08856</ele><time>2026-03-23T19:35:52.000Z</time></trkpt>
        <trkpt lat="29.272544" lon="105.520147"><ele>495.37427</ele><time>2026-03-23T19:35:58.000Z</time></trkpt>
        <trkpt lat="29.272509" lon="105.520122"><ele>495.14993</ele><time>2026-03-23T19:36:02.000Z</time></trkpt>
        <trkpt lat="29.272478" lon="105.520086"><ele>495.23633</ele><time>2026-03-23T19:36:06.000Z</time></trkpt>
        <trkpt lat="29.272438" lon="105.520043"><ele>495.00082</ele><time>2026-03-23T19:36:11.000Z</time></trkpt>
        <trkpt lat="29.272403" lon="105.520003"><ele>494.98944</ele><time>2026-03-23T19:36:15.000Z</time></trkpt>
        <trkpt lat="29.272368" lon="105.519956"><ele>495.3298</ele><time>2026-03-23T19:36:19.000Z</time></trkpt>
        <trkpt lat="29.27234" lon="105.519915"><ele>495.38095</ele><time>2026-03-23T19:36:22.000Z</time></trkpt>
        <trkpt lat="29.272305" lon="105.519865"><ele>496.03607</ele><time>2026-03-23T19:36:26.000Z</time></trkpt>
        <trkpt lat="29.272271" lon="105.51982"><ele>496.2859</ele><time>2026-03-23T19:36:30.000Z</time></trkpt>
        <trkpt lat="29.27222" lon="105.51978"><ele>496.12018</ele><time>2026-03-23T19:36:36.000Z</time></trkpt>
        <trkpt lat="29.272186" lon="105.519749"><ele>495.43918</ele><time>2026-03-23T19:36:40.000Z</time></trkpt>
        <trkpt lat="29.272149" lon="105.519722"><ele>495.5163</ele><time>2026-03-23T19:36:44.000Z</time></trkpt>
        <trkpt lat="29.272098" lon="105.519695"><ele>496.4262</ele><time>2026-03-23T19:36:49.000Z</time></trkpt>
        <trkpt lat="29.272055" lon="105.519659"><ele>497.85983</ele><time>2026-03-23T19:36:54.000Z</time></trkpt>
        <trkpt lat="29.272005" lon="105.519628"><ele>498.44025</ele><time>2026-03-23T19:36:59.000Z</time></trkpt>
        <trkpt lat="29.271968" lon="105.519595"><ele>498.86743</ele><time>2026-03-23T19:37:03.000Z</time></trkpt>
        <trkpt lat="29.271928" lon="105.519556"><ele>499.34555</ele><time>2026-03-23T19:37:08.000Z</time></trkpt>
        <trkpt lat="29.271892" lon="105.519517"><ele>500.53317</ele><time>2026-03-23T19:37:13.000Z</time></trkpt>
        <trkpt lat="29.2719" lon="105.519564"><ele>499.93826</ele><time>2026-03-23T19:37:44.000Z</time></trkpt>
        <trkpt lat="29.271863" lon="105.519595"><ele>498.891</ele><time>2026-03-23T19:40:33.000Z</time></trkpt>
        <trkpt lat="29.271892" lon="105.519634"><ele>508.43042</ele><time>2026-03-23T19:42:17.000Z</time></trkpt>
        <trkpt lat="29.271884" lon="105.519685"><ele>512.1266</ele><time>2026-03-23T19:43:02.000Z</time></trkpt>
        <trkpt lat="29.271931" lon="105.519686"><ele>513.59467</ele><time>2026-03-23T19:43:21.000Z</time></trkpt>
        <trkpt lat="29.271963" lon="105.519726"><ele>515.1126</ele><time>2026-03-23T19:44:42.000Z</time></trkpt>
        <trkpt lat="29.271974" lon="105.519775"><ele>514.8545</ele><time>2026-03-23T19:45:00.000Z</time></trkpt>
        <trkpt lat="29.271995" lon="105.519825"><ele>514.902</ele><time>2026-03-23T19:45:08.000Z</time></trkpt>
        <trkpt lat="29.27203" lon="105.519852"><ele>518.0533</ele><time>2026-03-23T19:45:16.000Z</time></trkpt>
        <trkpt lat="29.272065" lon="105.519894"><ele>519.9657</ele><time>2026-03-23T19:45:24.000Z</time></trkpt>
        <trkpt lat="29.272103" lon="105.51993"><ele>520.06964</ele><time>2026-03-23T19:45:36.000Z</time></trkpt>
        <trkpt lat="29.272055" lon="105.519923"><ele>524.1678</ele><time>2026-03-23T19:46:42.000Z</time></trkpt>
        <trkpt lat="29.272054" lon="105.519973"><ele>525.0398</ele><time>2026-03-23T19:46:55.000Z</time></trkpt>
        <trkpt lat="29.272097" lon="105.520012"><ele>525.54535</ele><time>2026-03-23T19:47:06.000Z</time></trkpt>
        <trkpt lat="29.272083" lon="105.520059"><ele>525.86017</ele><time>2026-03-23T19:47:26.000Z</time></trkpt>
        <trkpt lat="29.272092" lon="105.520112"><ele>527.3108</ele><time>2026-03-23T19:47:47.000Z</time></trkpt>
        <trkpt lat="29.272116" lon="105.520173"><ele>527.3422</ele><time>2026-03-23T19:47:59.000Z</time></trkpt>
        <trkpt lat="29.272152" lon="105.520213"><ele>530.83</ele><time>2026-03-23T19:48:17.000Z</time></trkpt>
        <trkpt lat="29.272192" lon="105.520239"><ele>532.3768</ele><time>2026-03-23T19:48:37.000Z</time></trkpt>
        <trkpt lat="29.272246" lon="105.520245"><ele>532.3444</ele><time>2026-03-23T19:48:46.000Z</time></trkpt>
        <trkpt lat="29.272218" lon="105.52027"><ele>529.9291</ele><time>2026-03-23T19:48:56.000Z</time></trkpt>
        <trkpt lat="29.272225" lon="105.520323"><ele>533.4408</ele><time>2026-03-23T19:49:44.000Z</time></trkpt>
        <trkpt lat="29.272275" lon="105.520349"><ele>534.9769</ele><time>2026-03-23T19:49:57.000Z</time></trkpt>
        <trkpt lat="29.272267" lon="105.520407"><ele>536.91187</ele><time>2026-03-23T19:50:18.000Z</time></trkpt>
        <trkpt lat="29.27222" lon="105.520412"><ele>541.58777</ele><time>2026-03-23T19:50:35.000Z</time></trkpt>
        <trkpt lat="29.272171" lon="105.520408"><ele>546.8067</ele><time>2026-03-23T19:50:54.000Z</time></trkpt>
        <trkpt lat="29.272129" lon="105.520394"><ele>547.3877</ele><time>2026-03-23T19:51:02.000Z</time></trkpt>
        <trkpt lat="29.272095" lon="105.520351"><ele>546.15454</ele><time>2026-03-23T19:51:41.000Z</time></trkpt>
        <trkpt lat="29.272072" lon="105.52031"><ele>546.7189</ele><time>2026-03-23T19:51:52.000Z</time></trkpt>
        <trkpt lat="29.272042" lon="105.52026"><ele>546.82196</ele><time>2026-03-23T19:52:07.000Z</time></trkpt>
        <trkpt lat="29.272018" lon="105.520212"><ele>547.65576</ele><time>2026-03-23T19:52:26.000Z</time></trkpt>
        <trkpt lat="29.27199" lon="105.520165"><ele>544.30804</ele><time>2026-03-23T19:52:52.000Z</time></trkpt>
        <trkpt lat="29.271968" lon="105.520123"><ele>543.2996</ele><time>2026-03-23T19:53:02.000Z</time></trkpt>
        <trkpt lat="29.27196" lon="105.520065"><ele>542.27203</ele><time>2026-03-23T19:53:15.000Z</time></trkpt>
        <trkpt lat="29.271952" lon="105.520016"><ele>541.75</ele><time>2026-03-23T19:53:24.000Z</time></trkpt>
        <trkpt lat="29.271927" lon="105.519975"><ele>542.2905</ele><time>2026-03-23T19:53:31.000Z</time></trkpt>
        <trkpt lat="29.271895" lon="105.519931"><ele>542.66223</ele><time>2026-03-23T19:53:38.000Z</time></trkpt>
        <trkpt lat="29.271848" lon="105.519914"><ele>542.9046</ele><time>2026-03-23T19:53:45.000Z</time></trkpt>
        <trkpt lat="29.271789" lon="105.519908"><ele>546.724</ele><time>2026-03-23T19:53:57.000Z</time></trkpt>
        <trkpt lat="29.271742" lon="105.51989"><ele>547.8614</ele><time>2026-03-23T19:54:06.000Z</time></trkpt>
        <trkpt lat="29.271701" lon="105.519857"><ele>548.8806</ele><time>2026-03-23T19:54:13.000Z</time></trkpt>
        <trkpt lat="29.271652" lon="105.519861"><ele>547.1231</ele><time>2026-03-23T19:54:25.000Z</time></trkpt>
        <trkpt lat="29.271613" lon="105.519841"><ele>548.6975</ele><time>2026-03-23T19:54:34.000Z</time></trkpt>
        <trkpt lat="29.271579" lon="105.519795"><ele>548.3797</ele><time>2026-03-23T19:54:45.000Z</time></trkpt>
        <trkpt lat="29.271536" lon="105.51977"><ele>549.88104</ele><time>2026-03-23T19:54:53.000Z</time></trkpt>
        <trkpt lat="29.2715" lon="105.519729"><ele>549.8716</ele><time>2026-03-23T19:55:06.000Z</time></trkpt>
        <trkpt lat="29.271465" lon="105.519688"><ele>548.9982</ele><time>2026-03-23T19:55:18.000Z</time></trkpt>
        <trkpt lat="29.271455" lon="105.519636"><ele>548.51556</ele><time>2026-03-23T19:55:26.000Z</time></trkpt>
        <trkpt lat="29.271414" lon="105.519612"><ele>547.204</ele><time>2026-03-23T19:55:33.000Z</time></trkpt>
        <trkpt lat="29.271371" lon="105.519571"><ele>547.9449</ele><time>2026-03-23T19:55:45.000Z</time></trkpt>
        <trkpt lat="29.271333" lon="105.519601"><ele>548.05273</ele><time>2026-03-23T19:56:02.000Z</time></trkpt>
        <trkpt lat="29.271311" lon="105.519564"><ele>549.081</ele><time>2026-03-23T19:56:12.000Z</time></trkpt>
        <trkpt lat="29.271264" lon="105.519541"><ele>548.5589</ele><time>2026-03-23T19:56:22.000Z</time></trkpt>
        <trkpt lat="29.271237" lon="105.519498"><ele>548.7798</ele><time>2026-03-23T19:56:30.000Z</time></trkpt>
        <trkpt lat="29.271194" lon="105.519476"><ele>548.9786</ele><time>2026-03-23T19:56:39.000Z</time></trkpt>
        <trkpt lat="29.271184" lon="105.519434"><ele>548.93304</ele><time>2026-03-23T19:56:44.000Z</time></trkpt>
        <trkpt lat="29.271193" lon="105.519374"><ele>547.8765</ele><time>2026-03-23T19:56:52.000Z</time></trkpt>
        <trkpt lat="29.271201" lon="105.519319"><ele>545.9568</ele><time>2026-03-23T19:56:58.000Z</time></trkpt>
        <trkpt lat="29.271178" lon="105.519271"><ele>543.61975</ele><time>2026-03-23T19:57:06.000Z</time></trkpt>
        <trkpt lat="29.271136" lon="105.519244"><ele>543.2434</ele><time>2026-03-23T19:57:12.000Z</time></trkpt>
        <trkpt lat="29.271089" lon="105.519218"><ele>543.1957</ele><time>2026-03-23T19:57:18.000Z</time></trkpt>
        <trkpt lat="29.271052" lon="105.519181"><ele>544.1515</ele><time>2026-03-23T19:57:23.000Z</time></trkpt>
        <trkpt lat="29.271011" lon="105.519139"><ele>544.6785</ele><time>2026-03-23T19:57:29.000Z</time></trkpt>
        <trkpt lat="29.270968" lon="105.519113"><ele>545.3558</ele><time>2026-03-23T19:57:35.000Z</time></trkpt>
        <trkpt lat="29.270925" lon="105.51908"><ele>544.76154</ele><time>2026-03-23T19:57:42.000Z</time></trkpt>
        <trkpt lat="29.270903" lon="105.51903"><ele>545.11554</ele><time>2026-03-23T19:57:49.000Z</time></trkpt>
        <trkpt lat="29.270866" lon="105.518997"><ele>545.62915</ele><time>2026-03-23T19:57:56.000Z</time></trkpt>
        <trkpt lat="29.270829" lon="105.518955"><ele>544.20844</ele><time>2026-03-23T20:00:03.000Z</time></trkpt>
        <trkpt lat="29.270809" lon="105.518921"><ele>544.05505</ele><time>2026-03-23T20:00:11.000Z</time></trkpt>
        <trkpt lat="29.270761" lon="105.51888"><ele>544.2933</ele><time>2026-03-23T20:00:24.000Z</time></trkpt>
        <trkpt lat="29.270725" lon="105.51885"><ele>545.7035</ele><time>2026-03-23T20:00:32.000Z</time></trkpt>
        <trkpt lat="29.270694" lon="105.518815"><ele>545.6457</ele><time>2026-03-23T20:00:36.000Z</time></trkpt>
        <trkpt lat="29.270652" lon="105.518773"><ele>545.97296</ele><time>2026-03-23T20:00:48.000Z</time></trkpt>
        <trkpt lat="29.270609" lon="105.518762"><ele>547.6474</ele><time>2026-03-23T20:01:02.000Z</time></trkpt>
        <trkpt lat="29.270568" lon="105.518739"><ele>547.6353</ele><time>2026-03-23T20:01:14.000Z</time></trkpt>
        <trkpt lat="29.270532" lon="105.518706"><ele>546.6922</ele><time>2026-03-23T20:01:23.000Z</time></trkpt>
        <trkpt lat="29.270481" lon="105.518709"><ele>548.50977</ele><time>2026-03-23T20:01:35.000Z</time></trkpt>
        <trkpt lat="29.270433" lon="105.518712"><ele>550.9237</ele><time>2026-03-23T20:01:46.000Z</time></trkpt>
        <trkpt lat="29.2704" lon="105.51876"><ele>551.5868</ele><time>2026-03-23T20:02:01.000Z</time></trkpt>
        <trkpt lat="29.270355" lon="105.518769"><ele>556.1205</ele><time>2026-03-23T20:02:16.000Z</time></trkpt>
        <trkpt lat="29.270311" lon="105.518753"><ele>559.94006</ele><time>2026-03-23T20:02:27.000Z</time></trkpt>
        <trkpt lat="29.270269" lon="105.518779"><ele>562.1255</ele><time>2026-03-23T20:02:41.000Z</time></trkpt>
        <trkpt lat="29.270238" lon="105.518829"><ele>562.18054</ele><time>2026-03-23T20:03:01.000Z</time></trkpt>
        <trkpt lat="29.270203" lon="105.518864"><ele>566.72614</ele><time>2026-03-23T20:03:18.000Z</time></trkpt>
        <trkpt lat="29.270166" lon="105.518839"><ele>569.0403</ele><time>2026-03-23T20:03:26.000Z</time></trkpt>
        <trkpt lat="29.270126" lon="105.518799"><ele>572.2361</ele><time>2026-03-23T20:03:34.000Z</time></trkpt>
        <trkpt lat="29.270077" lon="105.518775"><ele>573.53723</ele><time>2026-03-23T20:03:40.000Z</time></trkpt>
        <trkpt lat="29.270022" lon="105.518767"><ele>573.78784</ele><time>2026-03-23T20:03:46.000Z</time></trkpt>
        <trkpt lat="29.269971" lon="105.518788"><ele>573.9194</ele><time>2026-03-23T20:04:12.000Z</time></trkpt>
        <trkpt lat="29.26993" lon="105.51878"><ele>575.02686</ele><time>2026-03-23T20:04:20.000Z</time></trkpt>
        <trkpt lat="29.269882" lon="105.518765"><ele>575.98083</ele><time>2026-03-23T20:04:26.000Z</time></trkpt>
        <trkpt lat="29.269835" lon="105.518747"><ele>576.94226</ele><time>2026-03-23T20:04:32.000Z</time></trkpt>
        <trkpt lat="29.269798" lon="105.518705"><ele>577.98883</ele><time>2026-03-23T20:04:39.000Z</time></trkpt>
        <trkpt lat="29.269779" lon="105.518648"><ele>578.53375</ele><time>2026-03-23T20:04:46.000Z</time></trkpt>
        <trkpt lat="29.269778" lon="105.518594"><ele>577.0826</ele><time>2026-03-23T20:04:51.000Z</time></trkpt>
        <trkpt lat="29.269757" lon="105.518547"><ele>576.76685</ele><time>2026-03-23T20:04:58.000Z</time></trkpt>
        <trkpt lat="29.269715" lon="105.518524"><ele>577.57513</ele><time>2026-03-23T20:05:06.000Z</time></trkpt>
        <trkpt lat="29.269673" lon="105.518503"><ele>577.3688</ele><time>2026-03-23T20:05:12.000Z</time></trkpt>
        <trkpt lat="29.26963" lon="105.518488"><ele>577.2209</ele><time>2026-03-23T20:05:16.000Z</time></trkpt>
        <trkpt lat="29.269575" lon="105.518461"><ele>578.28</ele><time>2026-03-23T20:05:22.000Z</time></trkpt>
        <trkpt lat="29.269527" lon="105.518439"><ele>579.798</ele><time>2026-03-23T20:05:27.000Z</time></trkpt>
        <trkpt lat="29.269491" lon="105.518401"><ele>580.5976</ele><time>2026-03-23T20:05:32.000Z</time></trkpt>
        <trkpt lat="29.269471" lon="105.518346"><ele>580.9025</ele><time>2026-03-23T20:05:37.000Z</time></trkpt>
        <trkpt lat="29.269455" lon="105.518286"><ele>579.84784</ele><time>2026-03-23T20:05:42.000Z</time></trkpt>
        <trkpt lat="29.269433" lon="105.518236"><ele>579.7457</ele><time>2026-03-23T20:05:47.000Z</time></trkpt>
        <trkpt lat="29.269406" lon="105.51819"><ele>580.16724</ele><time>2026-03-23T20:05:53.000Z</time></trkpt>
        <trkpt lat="29.269374" lon="105.518142"><ele>579.2719</ele><time>2026-03-23T20:05:59.000Z</time></trkpt>
        <trkpt lat="29.269346" lon="105.518107"><ele>579.3689</ele><time>2026-03-23T20:06:03.000Z</time></trkpt>
        <trkpt lat="29.26932" lon="105.518055"><ele>579.5743</ele><time>2026-03-23T20:06:08.000Z</time></trkpt>
        <trkpt lat="29.269292" lon="105.518006"><ele>578.60986</ele><time>2026-03-23T20:06:15.000Z</time></trkpt>
        <trkpt lat="29.269259" lon="105.51797"><ele>578.1929</ele><time>2026-03-23T20:06:21.000Z</time></trkpt>
        <trkpt lat="29.269208" lon="105.517962"><ele>580.812</ele><time>2026-03-23T20:06:40.000Z</time></trkpt>
        <trkpt lat="29.269165" lon="105.517957"><ele>581.3021</ele><time>2026-03-23T20:06:48.000Z</time></trkpt>
        <trkpt lat="29.269109" lon="105.517938"><ele>581.1482</ele><time>2026-03-23T20:06:58.000Z</time></trkpt>
        <trkpt lat="29.269063" lon="105.517916"><ele>582.9561</ele><time>2026-03-23T20:07:04.000Z</time></trkpt>
        <trkpt lat="29.269009" lon="105.517901"><ele>585.695</ele><time>2026-03-23T20:13:11.000Z</time></trkpt>
        <trkpt lat="29.268972" lon="105.517893"><ele>588.307</ele><time>2026-03-23T20:13:21.000Z</time></trkpt>
        <trkpt lat="29.268912" lon="105.517892"><ele>588.5318</ele><time>2026-03-23T20:13:31.000Z</time></trkpt>
        <trkpt lat="29.268862" lon="105.517877"><ele>590.8099</ele><time>2026-03-23T20:13:39.000Z</time></trkpt>
        <trkpt lat="29.268834" lon="105.517919"><ele>595.7646</ele><time>2026-03-23T20:14:03.000Z</time></trkpt>
        <trkpt lat="29.268849" lon="105.517972"><ele>598.19775</ele><time>2026-03-23T20:14:22.000Z</time></trkpt>
        <trkpt lat="29.268886" lon="105.517998"><ele>598.7773</ele><time>2026-03-23T20:14:34.000Z</time></trkpt>
        <trkpt lat="29.268902" lon="105.518047"><ele>600.0788</ele><time>2026-03-23T20:14:48.000Z</time></trkpt>
        <trkpt lat="29.268857" lon="105.518053"><ele>605.0032</ele><time>2026-03-23T20:15:06.000Z</time></trkpt>
        <trkpt lat="29.268828" lon="105.518019"><ele>606.4382</ele><time>2026-03-23T20:15:12.000Z</time></trkpt>
        <trkpt lat="29.268789" lon="105.517973"><ele>608.4767</ele><time>2026-03-23T20:15:26.000Z</time></trkpt>
        <trkpt lat="29.26876" lon="105.51794"><ele>607.8527</ele><time>2026-03-23T20:15:32.000Z</time></trkpt>
        <trkpt lat="29.268723" lon="105.517902"><ele>606.5553</ele><time>2026-03-23T20:15:38.000Z</time></trkpt>
        <trkpt lat="29.268679" lon="105.517871"><ele>606.8415</ele><time>2026-03-23T20:15:46.000Z</time></trkpt>
        <trkpt lat="29.268629" lon="105.517863"><ele>608.7946</ele><time>2026-03-23T20:15:59.000Z</time></trkpt>
        <trkpt lat="29.268587" lon="105.517859"><ele>609.4731</ele><time>2026-03-23T20:16:07.000Z</time></trkpt>
        <trkpt lat="29.268547" lon="105.517824"><ele>609.56226</ele><time>2026-03-23T20:16:13.000Z</time></trkpt>
        <trkpt lat="29.268508" lon="105.517788"><ele>609.9171</ele><time>2026-03-23T20:16:18.000Z</time></trkpt>
        <trkpt lat="29.268489" lon="105.517733"><ele>611.3398</ele><time>2026-03-23T20:16:25.000Z</time></trkpt>
        <trkpt lat="29.268453" lon="105.517693"><ele>611.4793</ele><time>2026-03-23T20:16:37.000Z</time></trkpt>
        <trkpt lat="29.268426" lon="105.517662"><ele>612.02783</ele><time>2026-03-23T20:16:42.000Z</time></trkpt>
        <trkpt lat="29.268394" lon="105.51762"><ele>612.3925</ele><time>2026-03-23T20:16:47.000Z</time></trkpt>
        <trkpt lat="29.268361" lon="105.517576"><ele>613.0182</ele><time>2026-03-23T20:16:53.000Z</time></trkpt>
        <trkpt lat="29.268336" lon="105.517534"><ele>613.5828</ele><time>2026-03-23T20:16:58.000Z</time></trkpt>
        <trkpt lat="29.268304" lon="105.517492"><ele>613.7791</ele><time>2026-03-23T20:17:05.000Z</time></trkpt>
        <trkpt lat="29.268274" lon="105.51745"><ele>614.4578</ele><time>2026-03-23T20:17:13.000Z</time></trkpt>
        <trkpt lat="29.268245" lon="105.51741"><ele>615.73694</ele><time>2026-03-23T20:17:22.000Z</time></trkpt>
        <trkpt lat="29.268238" lon="105.517361"><ele>615.1789</ele><time>2026-03-23T20:17:27.000Z</time></trkpt>
        <trkpt lat="29.26824" lon="105.517302"><ele>614.7781</ele><time>2026-03-23T20:17:32.000Z</time></trkpt>
        <trkpt lat="29.268249" lon="105.517244"><ele>613.3616</ele><time>2026-03-23T20:17:38.000Z</time></trkpt>
        <trkpt lat="29.268219" lon="105.517208"><ele>613.6782</ele><time>2026-03-23T20:17:44.000Z</time></trkpt>
        <trkpt lat="29.268161" lon="105.517212"><ele>619.7786</ele><time>2026-03-23T20:17:59.000Z</time></trkpt>
        <trkpt lat="29.268131" lon="105.517245"><ele>620.0475</ele><time>2026-03-23T20:18:04.000Z</time></trkpt>
        <trkpt lat="29.268158" lon="105.517209"><ele>619.574</ele><time>2026-03-23T20:18:25.000Z</time></trkpt>
        <trkpt lat="29.268145" lon="105.517159"><ele>620.0353</ele><time>2026-03-23T20:18:34.000Z</time></trkpt>
        <trkpt lat="29.268102" lon="105.517144"><ele>619.48975</ele><time>2026-03-23T20:18:40.000Z</time></trkpt>
        <trkpt lat="29.268112" lon="105.517197"><ele>620.54803</ele><time>2026-03-23T20:20:40.000Z</time></trkpt>
        <trkpt lat="29.268153" lon="105.517212"><ele>620.9142</ele><time>2026-03-23T20:20:47.000Z</time></trkpt>
        <trkpt lat="29.268109" lon="105.517193"><ele>620.53406</ele><time>2026-03-23T20:21:23.000Z</time></trkpt>
        <trkpt lat="29.268073" lon="105.517156"><ele>620.71967</ele><time>2026-03-23T20:21:31.000Z</time></trkpt>
        <trkpt lat="29.268125" lon="105.517155"><ele>623.8763</ele><time>2026-03-23T20:32:31.000Z</time></trkpt>
        <trkpt lat="29.26808" lon="105.517147"><ele>621.0254</ele><time>2026-03-23T20:32:54.000Z</time></trkpt>
        <trkpt lat="29.26813" lon="105.517152"><ele>621.87604</ele><time>2026-03-23T20:34:41.000Z</time></trkpt>
        <trkpt lat="29.268098" lon="105.517189"><ele>622.16736</ele><time>2026-03-23T20:34:55.000Z</time></trkpt>
        <trkpt lat="29.268093" lon="105.517227"><ele>621.59753</ele><time>2026-03-23T20:34:59.000Z</time></trkpt>
        <trkpt lat="29.268089" lon="105.517186"><ele>621.7943</ele><time>2026-03-23T20:35:14.000Z</time></trkpt>
        <trkpt lat="29.26807" lon="105.517135"><ele>621.3445</ele><time>2026-03-23T20:35:39.000Z</time></trkpt>
        <trkpt lat="29.268106" lon="105.517103"><ele>624.3642</ele><time>2026-03-23T20:39:49.000Z</time></trkpt>
        <trkpt lat="29.268156" lon="105.517169"><ele>633.65045</ele><time>2026-03-23T20:41:23.000Z</time></trkpt>
        <trkpt lat="29.268124" lon="105.517169"><ele>632.02094</ele><time>2026-03-23T20:41:24.000Z</time></trkpt>
        <trkpt lat="29.268123" lon="105.517147"><ele>627.17316</ele><time>2026-03-23T20:41:25.000Z</time></trkpt>
        <trkpt lat="29.268088" lon="105.517129"><ele>620.421</ele><time>2026-03-23T20:41:37.000Z</time></trkpt>
        <trkpt lat="29.268084" lon="105.517125"><ele>619.61835</ele><time>2026-03-23T20:41:39.000Z</time></trkpt>
        <trkpt lat="29.26808" lon="105.517178"><ele>625.24</ele><time>2026-03-23T20:42:09.000Z</time></trkpt>
        <trkpt lat="29.268096" lon="105.51723"><ele>621.7747</ele><time>2026-03-23T20:42:39.000Z</time></trkpt>
        <trkpt lat="29.268098" lon="105.517169"><ele>621.8524</ele><time>2026-03-23T20:43:17.000Z</time></trkpt>
        <trkpt lat="29.268059" lon="105.517141"><ele>623.19476</ele><time>2026-03-23T20:44:57.000Z</time></trkpt>
        <trkpt lat="29.268098" lon="105.517186"><ele>621.8926</ele><time>2026-03-23T20:48:04.000Z</time></trkpt>
        <trkpt lat="29.268142" lon="105.517205"><ele>623.773</ele><time>2026-03-23T20:48:23.000Z</time></trkpt>
        <trkpt lat="29.26813" lon="105.51715"><ele>621.2089</ele><time>2026-03-23T20:48:51.000Z</time></trkpt>
        <trkpt lat="29.268084" lon="105.517148"><ele>622.6113</ele><time>2026-03-23T20:49:22.000Z</time></trkpt>
        <trkpt lat="29.2681" lon="105.5172"><ele>622.07684</ele><time>2026-03-23T20:51:02.000Z</time></trkpt>
        <trkpt lat="29.268118" lon="105.517255"><ele>621.2414</ele><time>2026-03-23T20:51:22.000Z</time></trkpt>
        <trkpt lat="29.268133" lon="105.517295"><ele>620.3337</ele><time>2026-03-23T20:51:26.000Z</time></trkpt>
        <trkpt lat="29.268126" lon="105.517355"><ele>619.98206</ele><time>2026-03-23T20:51:32.000Z</time></trkpt>
        <trkpt lat="29.268133" lon="105.51741"><ele>620.4854</ele><time>2026-03-23T20:51:37.000Z</time></trkpt>
        <trkpt lat="29.268155" lon="105.517462"><ele>620.55963</ele><time>2026-03-23T20:51:42.000Z</time></trkpt>
        <trkpt lat="29.268177" lon="105.51752"><ele>620.4648</ele><time>2026-03-23T20:51:58.000Z</time></trkpt>
        <trkpt lat="29.268206" lon="105.517554"><ele>620.9243</ele><time>2026-03-23T20:52:04.000Z</time></trkpt>
        <trkpt lat="29.26823" lon="105.51761"><ele>621.38367</ele><time>2026-03-23T20:52:10.000Z</time></trkpt>
        <trkpt lat="29.268257" lon="105.517661"><ele>621.4938</ele><time>2026-03-23T20:52:15.000Z</time></trkpt>
        <trkpt lat="29.268284" lon="105.517705"><ele>622.4287</ele><time>2026-03-23T20:52:19.000Z</time></trkpt>
        <trkpt lat="29.268315" lon="105.517752"><ele>623.2822</ele><time>2026-03-23T20:52:24.000Z</time></trkpt>
        <trkpt lat="29.268345" lon="105.517795"><ele>624.4285</ele><time>2026-03-23T20:52:29.000Z</time></trkpt>
        <trkpt lat="29.268367" lon="105.517843"><ele>624.4618</ele><time>2026-03-23T20:52:34.000Z</time></trkpt>
        <trkpt lat="29.268394" lon="105.517894"><ele>625.1206</ele><time>2026-03-23T20:52:39.000Z</time></trkpt>
        <trkpt lat="29.268428" lon="105.517945"><ele>625.14514</ele><time>2026-03-23T20:52:45.000Z</time></trkpt>
        <trkpt lat="29.268466" lon="105.517992"><ele>624.7707</ele><time>2026-03-23T20:52:51.000Z</time></trkpt>
        <trkpt lat="29.268496" lon="105.518026"><ele>624.867</ele><time>2026-03-23T20:52:55.000Z</time></trkpt>
        <trkpt lat="29.268531" lon="105.518074"><ele>624.2834</ele><time>2026-03-23T20:53:04.000Z</time></trkpt>
        <trkpt lat="29.268509" lon="105.518119"><ele>624.2043</ele><time>2026-03-23T20:53:44.000Z</time></trkpt>
        <trkpt lat="29.268479" lon="105.518143"><ele>624.3229</ele><time>2026-03-23T20:53:49.000Z</time></trkpt>
        <trkpt lat="29.268435" lon="105.518188"><ele>623.72894</ele><time>2026-03-23T20:54:00.000Z</time></trkpt>
        <trkpt lat="29.268412" lon="105.51814"><ele>629.3518</ele><time>2026-03-23T20:54:17.000Z</time></trkpt>
        <trkpt lat="29.268367" lon="105.518114"><ele>634.457</ele><time>2026-03-23T20:54:46.000Z</time></trkpt>
        <trkpt lat="29.268327" lon="105.518087"><ele>636.0745</ele><time>2026-03-23T20:55:06.000Z</time></trkpt>
        <trkpt lat="29.268287" lon="105.518054"><ele>637.0073</ele><time>2026-03-23T20:55:16.000Z</time></trkpt>
        <trkpt lat="29.268248" lon="105.518018"><ele>637.2769</ele><time>2026-03-23T20:55:31.000Z</time></trkpt>
        <trkpt lat="29.268203" lon="105.518013"><ele>638.8423</ele><time>2026-03-23T20:55:48.000Z</time></trkpt>
        <trkpt lat="29.268181" lon="105.518064"><ele>641.1125</ele><time>2026-03-23T20:56:09.000Z</time></trkpt>
        <trkpt lat="29.268138" lon="105.518068"><ele>642.41724</ele><time>2026-03-23T20:56:22.000Z</time></trkpt>
        <trkpt lat="29.268103" lon="105.518105"><ele>647.4824</ele><time>2026-03-23T20:56:39.000Z</time></trkpt>
        <trkpt lat="29.26807" lon="105.518139"><ele>649.1143</ele><time>2026-03-23T20:56:55.000Z</time></trkpt>
        <trkpt lat="29.268032" lon="105.518168"><ele>650.95593</ele><time>2026-03-23T20:57:10.000Z</time></trkpt>
        <trkpt lat="29.268047" lon="105.518216"><ele>653.35077</ele><time>2026-03-23T20:57:24.000Z</time></trkpt>
        <trkpt lat="29.268065" lon="105.518267"><ele>656.86035</ele><time>2026-03-23T20:57:43.000Z</time></trkpt>
        <trkpt lat="29.268091" lon="105.518306"><ele>658.1758</ele><time>2026-03-23T20:57:51.000Z</time></trkpt>
        <trkpt lat="29.268096" lon="105.51836"><ele>658.94794</ele><time>2026-03-23T20:57:59.000Z</time></trkpt>
        <trkpt lat="29.268098" lon="105.518415"><ele>660.26886</ele><time>2026-03-23T20:58:06.000Z</time></trkpt>
        <trkpt lat="29.268067" lon="105.518452"><ele>661.551</ele><time>2026-03-23T20:58:14.000Z</time></trkpt>
        <trkpt lat="29.268038" lon="105.518497"><ele>663.13446</ele><time>2026-03-23T20:58:21.000Z</time></trkpt>
        <trkpt lat="29.268007" lon="105.51855"><ele>665.67255</ele><time>2026-03-23T20:58:32.000Z</time></trkpt>
        <trkpt lat="29.267974" lon="105.51859"><ele>666.7166</ele><time>2026-03-23T20:58:43.000Z</time></trkpt>
        <trkpt lat="29.267955" lon="105.518634"><ele>666.9497</ele><time>2026-03-23T20:58:50.000Z</time></trkpt>
        <trkpt lat="29.267963" lon="105.518689"><ele>668.1719</ele><time>2026-03-23T20:59:00.000Z</time></trkpt>
        <trkpt lat="29.267961" lon="105.518743"><ele>670.4565</ele><time>2026-03-23T20:59:12.000Z</time></trkpt>
        <trkpt lat="29.267933" lon="105.518785"><ele>671.40906</ele><time>2026-03-23T20:59:22.000Z</time></trkpt>
        <trkpt lat="29.267897" lon="105.518812"><ele>672.36743</ele><time>2026-03-23T20:59:28.000Z</time></trkpt>
        <trkpt lat="29.267855" lon="105.51884"><ele>673.7757</ele><time>2026-03-23T20:59:35.000Z</time></trkpt>
        <trkpt lat="29.267883" lon="105.518869"><ele>674.8448</ele><time>2026-03-23T20:59:43.000Z</time></trkpt>
        <trkpt lat="29.26791" lon="105.518917"><ele>677.4127</ele><time>2026-03-23T20:59:54.000Z</time></trkpt>
        <trkpt lat="29.267914" lon="105.518971"><ele>679.0406</ele><time>2026-03-23T21:00:05.000Z</time></trkpt>
        <trkpt lat="29.267922" lon="105.519027"><ele>680.3868</ele><time>2026-03-23T21:00:20.000Z</time></trkpt>
        <trkpt lat="29.267949" lon="105.51907"><ele>682.51636</ele><time>2026-03-23T21:00:35.000Z</time></trkpt>
        <trkpt lat="29.267986" lon="105.519097"><ele>683.8776</ele><time>2026-03-23T21:00:44.000Z</time></trkpt>
        <trkpt lat="29.268023" lon="105.519139"><ele>685.1831</ele><time>2026-03-23T21:01:01.000Z</time></trkpt>
        <trkpt lat="29.268059" lon="105.519171"><ele>686.13306</ele><time>2026-03-23T21:01:12.000Z</time></trkpt>
        <trkpt lat="29.268104" lon="105.519198"><ele>686.18243</ele><time>2026-03-23T21:01:20.000Z</time></trkpt>
        <trkpt lat="29.268146" lon="105.519227"><ele>686.26965</ele><time>2026-03-23T21:01:27.000Z</time></trkpt>
        <trkpt lat="29.268191" lon="105.519255"><ele>686.9467</ele><time>2026-03-23T21:01:34.000Z</time></trkpt>
        <trkpt lat="29.268235" lon="105.519277"><ele>687.3867</ele><time>2026-03-23T21:01:41.000Z</time></trkpt>
        <trkpt lat="29.268281" lon="105.519291"><ele>687.62866</ele><time>2026-03-23T21:01:49.000Z</time></trkpt>
        <trkpt lat="29.268328" lon="105.519298"><ele>688.81134</ele><time>2026-03-23T21:02:02.000Z</time></trkpt>
        <trkpt lat="29.268373" lon="105.519289"><ele>689.36395</ele><time>2026-03-23T21:02:12.000Z</time></trkpt>
        <trkpt lat="29.268412" lon="105.51926"><ele>689.22473</ele><time>2026-03-23T21:02:22.000Z</time></trkpt>
        <trkpt lat="29.268455" lon="105.519275"><ele>689.4893</ele><time>2026-03-23T21:02:30.000Z</time></trkpt>
        <trkpt lat="29.268489" lon="105.51932"><ele>688.6221</ele><time>2026-03-23T21:02:39.000Z</time></trkpt>
        <trkpt lat="29.268522" lon="105.519351"><ele>688.3147</ele><time>2026-03-23T21:02:45.000Z</time></trkpt>
        <trkpt lat="29.268564" lon="105.519384"><ele>688.9462</ele><time>2026-03-23T21:02:53.000Z</time></trkpt>
        <trkpt lat="29.268601" lon="105.519421"><ele>689.8821</ele><time>2026-03-23T21:03:00.000Z</time></trkpt>
        <trkpt lat="29.268634" lon="105.519462"><ele>691.1098</ele><time>2026-03-23T21:03:07.000Z</time></trkpt>
        <trkpt lat="29.26866" lon="105.519505"><ele>691.7832</ele><time>2026-03-23T21:03:14.000Z</time></trkpt>
        <trkpt lat="29.268692" lon="105.519553"><ele>692.16833</ele><time>2026-03-23T21:03:22.000Z</time></trkpt>
        <trkpt lat="29.268722" lon="105.519592"><ele>692.95776</ele><time>2026-03-23T21:03:30.000Z</time></trkpt>
        <trkpt lat="29.26876" lon="105.519629"><ele>692.71875</ele><time>2026-03-23T21:03:39.000Z</time></trkpt>
        <trkpt lat="29.268793" lon="105.519664"><ele>693.3874</ele><time>2026-03-23T21:03:45.000Z</time></trkpt>
        <trkpt lat="29.268811" lon="105.519712"><ele>694.44257</ele><time>2026-03-23T21:03:50.000Z</time></trkpt>
        <trkpt lat="29.268839" lon="105.519754"><ele>696.0086</ele><time>2026-03-23T21:03:55.000Z</time></trkpt>
        <trkpt lat="29.26887" lon="105.5198"><ele>696.2126</ele><time>2026-03-23T21:04:01.000Z</time></trkpt>
        <trkpt lat="29.268906" lon="105.519838"><ele>697.1148</ele><time>2026-03-23T21:04:07.000Z</time></trkpt>
        <trkpt lat="29.26894" lon="105.51988"><ele>697.2949</ele><time>2026-03-23T21:04:13.000Z</time></trkpt>
        <trkpt lat="29.268983" lon="105.51991"><ele>697.79755</ele><time>2026-03-23T21:04:19.000Z</time></trkpt>
        <trkpt lat="29.269023" lon="105.51995"><ele>698.14636</ele><time>2026-03-23T21:04:27.000Z</time></trkpt>
        <trkpt lat="29.269048" lon="105.520002"><ele>698.6051</ele><time>2026-03-23T21:04:37.000Z</time></trkpt>
        <trkpt lat="29.269079" lon="105.520043"><ele>700.11615</ele><time>2026-03-23T21:04:44.000Z</time></trkpt>
        <trkpt lat="29.269107" lon="105.52009"><ele>700.83813</ele><time>2026-03-23T21:04:50.000Z</time></trkpt>
        <trkpt lat="29.269148" lon="105.520127"><ele>703.37146</ele><time>2026-03-23T21:05:21.000Z</time></trkpt>
        <trkpt lat="29.269175" lon="105.520148"><ele>703.6073</ele><time>2026-03-23T21:05:27.000Z</time></trkpt>
        <trkpt lat="29.269212" lon="105.520193"><ele>703.825</ele><time>2026-03-23T21:05:33.000Z</time></trkpt>
        <trkpt lat="29.269241" lon="105.520244"><ele>704.94196</ele><time>2026-03-23T21:05:39.000Z</time></trkpt>
        <trkpt lat="29.269274" lon="105.520285"><ele>704.65607</ele><time>2026-03-23T21:05:46.000Z</time></trkpt>
        <trkpt lat="29.269308" lon="105.520314"><ele>704.5114</ele><time>2026-03-23T21:05:51.000Z</time></trkpt>
        <trkpt lat="29.269357" lon="105.520299"><ele>702.32214</ele><time>2026-03-23T21:05:59.000Z</time></trkpt>
        <trkpt lat="29.269414" lon="105.520278"><ele>698.90045</ele><time>2026-03-23T21:09:39.000Z</time></trkpt>
        <trkpt lat="29.269419" lon="105.520317"><ele>701.99817</ele><time>2026-03-23T21:09:43.000Z</time></trkpt>
        <trkpt lat="29.269437" lon="105.520378"><ele>706.51337</ele><time>2026-03-23T21:09:48.000Z</time></trkpt>
        <trkpt lat="29.269452" lon="105.520441"><ele>710.1043</ele><time>2026-03-23T21:10:02.000Z</time></trkpt>
        <trkpt lat="29.269461" lon="105.520436"><ele>708.34796</ele><time>2026-03-23T21:10:25.000Z</time></trkpt>
        <trkpt lat="29.269447" lon="105.520379"><ele>705.43225</ele><time>2026-03-23T21:10:42.000Z</time></trkpt>
        <trkpt lat="29.269421" lon="105.520341"><ele>705.9746</ele><time>2026-03-23T21:10:47.000Z</time></trkpt>
        <trkpt lat="29.26938" lon="105.520295"><ele>702.79266</ele><time>2026-03-23T21:10:54.000Z</time></trkpt>
        <trkpt lat="29.269396" lon="105.520334"><ele>701.9439</ele><time>2026-03-23T21:11:07.000Z</time></trkpt>
        <trkpt lat="29.26943" lon="105.520379"><ele>703.6282</ele><time>2026-03-23T21:11:13.000Z</time></trkpt>
        <trkpt lat="29.269476" lon="105.520406"><ele>703.38763</ele><time>2026-03-23T21:11:25.000Z</time></trkpt>
        <trkpt lat="29.269459" lon="105.520449"><ele>702.8147</ele><time>2026-03-23T21:11:38.000Z</time></trkpt>
        <trkpt lat="29.269427" lon="105.520504"><ele>703.62787</ele><time>2026-03-23T21:11:49.000Z</time></trkpt>
        <trkpt lat="29.2694" lon="105.520548"><ele>703.33374</ele><time>2026-03-23T21:11:56.000Z</time></trkpt>
        <trkpt lat="29.269364" lon="105.52059"><ele>702.2586</ele><time>2026-03-23T21:12:04.000Z</time></trkpt>
        <trkpt lat="29.26933" lon="105.520631"><ele>700.9341</ele><time>2026-03-23T21:12:12.000Z</time></trkpt>
        <trkpt lat="29.26929" lon="105.520655"><ele>700.9946</ele><time>2026-03-23T21:12:19.000Z</time></trkpt>
        <trkpt lat="29.269249" lon="105.520639"><ele>701.8001</ele><time>2026-03-23T21:12:24.000Z</time></trkpt>
        <trkpt lat="29.269205" lon="105.520617"><ele>702.48004</ele><time>2026-03-23T21:12:30.000Z</time></trkpt>
        <trkpt lat="29.269155" lon="105.520594"><ele>702.80817</ele><time>2026-03-23T21:12:35.000Z</time></trkpt>
        <trkpt lat="29.269109" lon="105.520574"><ele>702.77924</ele><time>2026-03-23T21:12:40.000Z</time></trkpt>
        <trkpt lat="29.269077" lon="105.520604"><ele>702.2467</ele><time>2026-03-23T21:12:45.000Z</time></trkpt>
        <trkpt lat="29.269052" lon="105.520657"><ele>702.59174</ele><time>2026-03-23T21:12:51.000Z</time></trkpt>
        <trkpt lat="29.269041" lon="105.520711"><ele>702.531</ele><time>2026-03-23T21:12:55.000Z</time></trkpt>
        <trkpt lat="29.269042" lon="105.520774"><ele>703.3793</ele><time>2026-03-23T21:12:59.000Z</time></trkpt>
        <trkpt lat="29.269044" lon="105.520826"><ele>703.49036</ele><time>2026-03-23T21:13:03.000Z</time></trkpt>
        <trkpt lat="29.26905" lon="105.52089"><ele>703.50854</ele><time>2026-03-23T21:13:10.000Z</time></trkpt>
        <trkpt lat="29.269046" lon="105.520935"><ele>702.82587</ele><time>2026-03-23T21:13:14.000Z</time></trkpt>
        <trkpt lat="29.269026" lon="105.520993"><ele>702.37384</ele><time>2026-03-23T21:13:20.000Z</time></trkpt>
        <trkpt lat="29.268998" lon="105.521036"><ele>702.5157</ele><time>2026-03-23T21:13:25.000Z</time></trkpt>
        <trkpt lat="29.268965" lon="105.521069"><ele>702.36115</ele><time>2026-03-23T21:13:29.000Z</time></trkpt>
        <trkpt lat="29.268925" lon="105.521105"><ele>702.0766</ele><time>2026-03-23T21:13:34.000Z</time></trkpt>
        <trkpt lat="29.268891" lon="105.521137"><ele>701.79956</ele><time>2026-03-23T21:13:38.000Z</time></trkpt>
        <trkpt lat="29.268848" lon="105.521179"><ele>701.2809</ele><time>2026-03-23T21:13:43.000Z</time></trkpt>
        <trkpt lat="29.268799" lon="105.521221"><ele>700.04474</ele><time>2026-03-23T21:13:49.000Z</time></trkpt>
        <trkpt lat="29.26876" lon="105.521266"><ele>699.6052</ele><time>2026-03-23T21:13:54.000Z</time></trkpt>
        <trkpt lat="29.268724" lon="105.521303"><ele>699.12115</ele><time>2026-03-23T21:13:59.000Z</time></trkpt>
        <trkpt lat="29.268688" lon="105.521336"><ele>698.8623</ele><time>2026-03-23T21:14:05.000Z</time></trkpt>
        <trkpt lat="29.268651" lon="105.521375"><ele>698.03864</ele><time>2026-03-23T21:14:12.000Z</time></trkpt>
        <trkpt lat="29.26862" lon="105.521412"><ele>697.2086</ele><time>2026-03-23T21:14:19.000Z</time></trkpt>
        <trkpt lat="29.268587" lon="105.521444"><ele>696.373</ele><time>2026-03-23T21:14:24.000Z</time></trkpt>
        <trkpt lat="29.268548" lon="105.521485"><ele>695.423</ele><time>2026-03-23T21:14:29.000Z</time></trkpt>
        <trkpt lat="29.268511" lon="105.521525"><ele>694.9009</ele><time>2026-03-23T21:14:34.000Z</time></trkpt>
        <trkpt lat="29.268472" lon="105.521568"><ele>694.68353</ele><time>2026-03-23T21:14:42.000Z</time></trkpt>
        <trkpt lat="29.268441" lon="105.521592"><ele>694.75183</ele><time>2026-03-23T21:14:46.000Z</time></trkpt>
        <trkpt lat="29.268399" lon="105.521616"><ele>695.08105</ele><time>2026-03-23T21:14:50.000Z</time></trkpt>
        <trkpt lat="29.268342" lon="105.521638"><ele>695.4765</ele><time>2026-03-23T21:14:56.000Z</time></trkpt>
        <trkpt lat="29.268294" lon="105.521623"><ele>695.81696</ele><time>2026-03-23T21:15:02.000Z</time></trkpt>
        <trkpt lat="29.268258" lon="105.521631"><ele>695.36926</ele><time>2026-03-23T21:15:05.000Z</time></trkpt>
        <trkpt lat="29.26821" lon="105.521643"><ele>694.3864</ele><time>2026-03-23T21:15:10.000Z</time></trkpt>
        <trkpt lat="29.268163" lon="105.521663"><ele>694.0228</ele><time>2026-03-23T21:15:15.000Z</time></trkpt>
        <trkpt lat="29.268114" lon="105.521685"><ele>693.75256</ele><time>2026-03-23T21:15:20.000Z</time></trkpt>
        <trkpt lat="29.268067" lon="105.521699"><ele>693.51276</ele><time>2026-03-23T21:15:25.000Z</time></trkpt>
        <trkpt lat="29.26802" lon="105.521708"><ele>693.07104</ele><time>2026-03-23T21:15:30.000Z</time></trkpt>
        <trkpt lat="29.267973" lon="105.521709"><ele>691.78033</ele><time>2026-03-23T21:15:35.000Z</time></trkpt>
        <trkpt lat="29.26792" lon="105.521721"><ele>690.52496</ele><time>2026-03-23T21:15:42.000Z</time></trkpt>
        <trkpt lat="29.267872" lon="105.521735"><ele>688.98114</ele><time>2026-03-23T21:15:48.000Z</time></trkpt>
        <trkpt lat="29.267829" lon="105.521743"><ele>688.3308</ele><time>2026-03-23T21:15:53.000Z</time></trkpt>
        <trkpt lat="29.267784" lon="105.521763"><ele>686.8275</ele><time>2026-03-23T21:15:59.000Z</time></trkpt>
        <trkpt lat="29.267739" lon="105.521791"><ele>685.3838</ele><time>2026-03-23T21:16:06.000Z</time></trkpt>
        <trkpt lat="29.267696" lon="105.521823"><ele>683.532</ele><time>2026-03-23T21:16:13.000Z</time></trkpt>
        <trkpt lat="29.267665" lon="105.521872"><ele>682.0392</ele><time>2026-03-23T21:16:21.000Z</time></trkpt>
        <trkpt lat="29.267644" lon="105.521918"><ele>681.15765</ele><time>2026-03-23T21:16:28.000Z</time></trkpt>
        <trkpt lat="29.267631" lon="105.521971"><ele>680.51</ele><time>2026-03-23T21:16:34.000Z</time></trkpt>
        <trkpt lat="29.267617" lon="105.522026"><ele>679.73334</ele><time>2026-03-23T21:16:41.000Z</time></trkpt>
        <trkpt lat="29.26761" lon="105.522076"><ele>679.8167</ele><time>2026-03-23T21:16:46.000Z</time></trkpt>
        <trkpt lat="29.267604" lon="105.522139"><ele>679.27997</ele><time>2026-03-23T21:16:53.000Z</time></trkpt>
        <trkpt lat="29.267606" lon="105.52219"><ele>679.0185</ele><time>2026-03-23T21:16:58.000Z</time></trkpt>
        <trkpt lat="29.267595" lon="105.522242"><ele>678.90155</ele><time>2026-03-23T21:17:04.000Z</time></trkpt>
        <trkpt lat="29.267586" lon="105.522298"><ele>677.85455</ele><time>2026-03-23T21:17:10.000Z</time></trkpt>
        <trkpt lat="29.267577" lon="105.52235"><ele>676.4373</ele><time>2026-03-23T21:17:15.000Z</time></trkpt>
        <trkpt lat="29.26755" lon="105.522396"><ele>675.4379</ele><time>2026-03-23T21:17:20.000Z</time></trkpt>
        <trkpt lat="29.267523" lon="105.522446"><ele>674.5016</ele><time>2026-03-23T21:17:25.000Z</time></trkpt>
        <trkpt lat="29.267493" lon="105.522492"><ele>673.59796</ele><time>2026-03-23T21:17:30.000Z</time></trkpt>
        <trkpt lat="29.267459" lon="105.522527"><ele>672.8146</ele><time>2026-03-23T21:17:35.000Z</time></trkpt>
        <trkpt lat="29.267417" lon="105.522557"><ele>672.47595</ele><time>2026-03-23T21:17:40.000Z</time></trkpt>
        <trkpt lat="29.267372" lon="105.52258"><ele>672.0605</ele><time>2026-03-23T21:17:45.000Z</time></trkpt>
        <trkpt lat="29.267323" lon="105.522601"><ele>671.4361</ele><time>2026-03-23T21:17:50.000Z</time></trkpt>
        <trkpt lat="29.267273" lon="105.522616"><ele>671.2074</ele><time>2026-03-23T21:17:55.000Z</time></trkpt>
        <trkpt lat="29.26722" lon="105.522617"><ele>670.9591</ele><time>2026-03-23T21:18:00.000Z</time></trkpt>
        <trkpt lat="29.267169" lon="105.522603"><ele>671.2187</ele><time>2026-03-23T21:18:05.000Z</time></trkpt>
        <trkpt lat="29.267123" lon="105.522576"><ele>671.25653</ele><time>2026-03-23T21:18:10.000Z</time></trkpt>
        <trkpt lat="29.267085" lon="105.522542"><ele>671.28503</ele><time>2026-03-23T21:18:15.000Z</time></trkpt>
        <trkpt lat="29.267128" lon="105.522562"><ele>670.43744</ele><time>2026-03-23T21:18:56.000Z</time></trkpt>
        <trkpt lat="29.267164" lon="105.522601"><ele>670.4813</ele><time>2026-03-23T21:19:02.000Z</time></trkpt>
        <trkpt lat="29.267183" lon="105.52265"><ele>668.134</ele><time>2026-03-23T21:20:28.000Z</time></trkpt>
        <trkpt lat="29.267163" lon="105.522696"><ele>668.2136</ele><time>2026-03-23T21:20:45.000Z</time></trkpt>
        <trkpt lat="29.267156" lon="105.522753"><ele>667.1084</ele><time>2026-03-23T21:21:33.000Z</time></trkpt>
        <trkpt lat="29.267125" lon="105.522767"><ele>666.155</ele><time>2026-03-23T21:21:38.000Z</time></trkpt>
        <trkpt lat="29.267083" lon="105.522755"><ele>666.1853</ele><time>2026-03-23T21:21:42.000Z</time></trkpt>
        <trkpt lat="29.26704" lon="105.52273"><ele>666.00446</ele><time>2026-03-23T21:21:46.000Z</time></trkpt>
        <trkpt lat="29.266999" lon="105.522741"><ele>665.74976</ele><time>2026-03-23T21:21:50.000Z</time></trkpt>
        <trkpt lat="29.266959" lon="105.52278"><ele>663.7099</ele><time>2026-03-23T21:21:55.000Z</time></trkpt>
        <trkpt lat="29.266917" lon="105.52283"><ele>662.50977</ele><time>2026-03-23T21:22:01.000Z</time></trkpt>
        <trkpt lat="29.266882" lon="105.522872"><ele>662.2323</ele><time>2026-03-23T21:22:06.000Z</time></trkpt>
        <trkpt lat="29.266848" lon="105.522905"><ele>663.0117</ele><time>2026-03-23T21:22:10.000Z</time></trkpt>
        <trkpt lat="29.266805" lon="105.522949"><ele>664.3056</ele><time>2026-03-23T21:22:15.000Z</time></trkpt>
        <trkpt lat="29.26676" lon="105.522986"><ele>665.3751</ele><time>2026-03-23T21:22:20.000Z</time></trkpt>
        <trkpt lat="29.266721" lon="105.523032"><ele>665.2578</ele><time>2026-03-23T21:22:25.000Z</time></trkpt>
        <trkpt lat="29.266687" lon="105.523088"><ele>663.83136</ele><time>2026-03-23T21:22:31.000Z</time></trkpt>
        <trkpt lat="29.266667" lon="105.523132"><ele>663.9122</ele><time>2026-03-23T21:22:35.000Z</time></trkpt>
        <trkpt lat="29.26664" lon="105.523176"><ele>664.0064</ele><time>2026-03-23T21:22:39.000Z</time></trkpt>
        <trkpt lat="29.266605" lon="105.523219"><ele>663.96326</ele><time>2026-03-23T21:22:43.000Z</time></trkpt>
        <trkpt lat="29.266574" lon="105.523272"><ele>663.0744</ele><time>2026-03-23T21:22:48.000Z</time></trkpt>
        <trkpt lat="29.266542" lon="105.523318"><ele>662.44415</ele><time>2026-03-23T21:22:53.000Z</time></trkpt>
        <trkpt lat="29.266512" lon="105.523362"><ele>660.1627</ele><time>2026-03-23T21:22:58.000Z</time></trkpt>
        <trkpt lat="29.266467" lon="105.523399"><ele>659.24426</ele><time>2026-03-23T21:23:07.000Z</time></trkpt>
        <trkpt lat="29.266424" lon="105.523412"><ele>659.4026</ele><time>2026-03-23T21:23:15.000Z</time></trkpt>
        <trkpt lat="29.266383" lon="105.523431"><ele>658.1619</ele><time>2026-03-23T21:23:20.000Z</time></trkpt>
        <trkpt lat="29.266337" lon="105.523457"><ele>657.2305</ele><time>2026-03-23T21:23:26.000Z</time></trkpt>
        <trkpt lat="29.266296" lon="105.523489"><ele>656.0653</ele><time>2026-03-23T21:23:31.000Z</time></trkpt>
        <trkpt lat="29.266255" lon="105.523511"><ele>654.94366</ele><time>2026-03-23T21:23:35.000Z</time></trkpt>
        <trkpt lat="29.266206" lon="105.523531"><ele>653.6061</ele><time>2026-03-23T21:23:40.000Z</time></trkpt>
        <trkpt lat="29.266165" lon="105.523555"><ele>652.8089</ele><time>2026-03-23T21:23:44.000Z</time></trkpt>
        <trkpt lat="29.266117" lon="105.523594"><ele>653.9547</ele><time>2026-03-23T21:23:49.000Z</time></trkpt>
        <trkpt lat="29.26608" lon="105.523628"><ele>655.5913</ele><time>2026-03-23T21:23:53.000Z</time></trkpt>
        <trkpt lat="29.266039" lon="105.523675"><ele>654.5232</ele><time>2026-03-23T21:24:03.000Z</time></trkpt>
        <trkpt lat="29.265998" lon="105.523692"><ele>652.69305</ele><time>2026-03-23T21:24:09.000Z</time></trkpt>
        <trkpt lat="29.265954" lon="105.523706"><ele>652.3554</ele><time>2026-03-23T21:24:14.000Z</time></trkpt>
        <trkpt lat="29.265907" lon="105.52371"><ele>651.8883</ele><time>2026-03-23T21:24:19.000Z</time></trkpt>
        <trkpt lat="29.265861" lon="105.523691"><ele>651.02203</ele><time>2026-03-23T21:24:24.000Z</time></trkpt>
        <trkpt lat="29.265807" lon="105.523678"><ele>651.2</ele><time>2026-03-23T21:24:30.000Z</time></trkpt>
        <trkpt lat="29.265762" lon="105.523682"><ele>651.45197</ele><time>2026-03-23T21:24:34.000Z</time></trkpt>
        <trkpt lat="29.265708" lon="105.5237"><ele>650.6573</ele><time>2026-03-23T21:24:40.000Z</time></trkpt>
        <trkpt lat="29.265661" lon="105.523714"><ele>649.7017</ele><time>2026-03-23T21:24:45.000Z</time></trkpt>
        <trkpt lat="29.265607" lon="105.523724"><ele>648.63806</ele><time>2026-03-23T21:24:53.000Z</time></trkpt>
        <trkpt lat="29.265565" lon="105.523741"><ele>648.0747</ele><time>2026-03-23T21:25:00.000Z</time></trkpt>
        <trkpt lat="29.265522" lon="105.523761"><ele>646.1991</ele><time>2026-03-23T21:25:09.000Z</time></trkpt>
        <trkpt lat="29.265476" lon="105.523775"><ele>644.67615</ele><time>2026-03-23T21:25:49.000Z</time></trkpt>
        <trkpt lat="29.265437" lon="105.523789"><ele>644.16766</ele><time>2026-03-23T21:25:54.000Z</time></trkpt>
        <trkpt lat="29.265385" lon="105.523824"><ele>643.0686</ele><time>2026-03-23T21:26:02.000Z</time></trkpt>
        <trkpt lat="29.265352" lon="105.523862"><ele>643.9306</ele><time>2026-03-23T21:26:08.000Z</time></trkpt>
        <trkpt lat="29.265331" lon="105.523907"><ele>644.0861</ele><time>2026-03-23T21:26:13.000Z</time></trkpt>
        <trkpt lat="29.265308" lon="105.523953"><ele>643.42883</ele><time>2026-03-23T21:26:18.000Z</time></trkpt>
        <trkpt lat="29.265286" lon="105.524"><ele>642.4253</ele><time>2026-03-23T21:26:23.000Z</time></trkpt>
        <trkpt lat="29.265264" lon="105.524043"><ele>641.97327</ele><time>2026-03-23T21:26:27.000Z</time></trkpt>
        <trkpt lat="29.265242" lon="105.524093"><ele>641.8202</ele><time>2026-03-23T21:26:32.000Z</time></trkpt>
        <trkpt lat="29.265219" lon="105.524141"><ele>641.7778</ele><time>2026-03-23T21:26:37.000Z</time></trkpt>
        <trkpt lat="29.265178" lon="105.524186"><ele>641.8681</ele><time>2026-03-23T21:26:50.000Z</time></trkpt>
        <trkpt lat="29.265134" lon="105.524185"><ele>639.87427</ele><time>2026-03-23T21:27:00.000Z</time></trkpt>
        <trkpt lat="29.265099" lon="105.524217"><ele>638.8751</ele><time>2026-03-23T21:27:07.000Z</time></trkpt>
        <trkpt lat="29.265056" lon="105.52423"><ele>638.0214</ele><time>2026-03-23T21:27:14.000Z</time></trkpt>
        <trkpt lat="29.265007" lon="105.524224"><ele>637.471</ele><time>2026-03-23T21:27:27.000Z</time></trkpt>
        <trkpt lat="29.264962" lon="105.52423"><ele>635.9742</ele><time>2026-03-23T21:27:42.000Z</time></trkpt>
        <trkpt lat="29.264921" lon="105.524256"><ele>635.20953</ele><time>2026-03-23T21:27:52.000Z</time></trkpt>
        <trkpt lat="29.264881" lon="105.524239"><ele>634.8066</ele><time>2026-03-23T21:27:58.000Z</time></trkpt>
        <trkpt lat="29.264835" lon="105.524201"><ele>633.2887</ele><time>2026-03-23T21:28:09.000Z</time></trkpt>
        <trkpt lat="29.264793" lon="105.524188"><ele>632.8633</ele><time>2026-03-23T21:28:16.000Z</time></trkpt>
        <trkpt lat="29.264745" lon="105.524194"><ele>632.1461</ele><time>2026-03-23T21:28:25.000Z</time></trkpt>
        <trkpt lat="29.264707" lon="105.524217"><ele>631.949</ele><time>2026-03-23T21:28:30.000Z</time></trkpt>
        <trkpt lat="29.264668" lon="105.524243"><ele>631.52264</ele><time>2026-03-23T21:28:34.000Z</time></trkpt>
        <trkpt lat="29.264622" lon="105.524283"><ele>630.64966</ele><time>2026-03-23T21:28:41.000Z</time></trkpt>
        <trkpt lat="29.264577" lon="105.524298"><ele>629.13806</ele><time>2026-03-23T21:28:48.000Z</time></trkpt>
        <trkpt lat="29.264554" lon="105.524336"><ele>627.8083</ele><time>2026-03-23T21:28:54.000Z</time></trkpt>
        <trkpt lat="29.26453" lon="105.524389"><ele>625.75995</ele><time>2026-03-23T21:29:02.000Z</time></trkpt>
        <trkpt lat="29.264503" lon="105.524432"><ele>624.8354</ele><time>2026-03-23T21:29:08.000Z</time></trkpt>
        <trkpt lat="29.264484" lon="105.524481"><ele>624.16156</ele><time>2026-03-23T21:29:14.000Z</time></trkpt>
        <trkpt lat="29.264457" lon="105.524532"><ele>622.4107</ele><time>2026-03-23T21:29:21.000Z</time></trkpt>
        <trkpt lat="29.264468" lon="105.524581"><ele>620.2307</ele><time>2026-03-23T21:29:29.000Z</time></trkpt>
        <trkpt lat="29.26444" lon="105.524607"><ele>619.0985</ele><time>2026-03-23T21:29:33.000Z</time></trkpt>
        <trkpt lat="29.264407" lon="105.524647"><ele>618.6184</ele><time>2026-03-23T21:29:37.000Z</time></trkpt>
        <trkpt lat="29.264381" lon="105.524703"><ele>618.24585</ele><time>2026-03-23T21:29:42.000Z</time></trkpt>
        <trkpt lat="29.264369" lon="105.52476"><ele>616.93774</ele><time>2026-03-23T21:29:48.000Z</time></trkpt>
        <trkpt lat="29.264362" lon="105.524819"><ele>615.71765</ele><time>2026-03-23T21:29:54.000Z</time></trkpt>
        <trkpt lat="29.264352" lon="105.524872"><ele>614.6343</ele><time>2026-03-23T21:29:59.000Z</time></trkpt>
        <trkpt lat="29.264339" lon="105.524923"><ele>613.6407</ele><time>2026-03-23T21:30:03.000Z</time></trkpt>
        <trkpt lat="29.264327" lon="105.524976"><ele>613.0679</ele><time>2026-03-23T21:30:07.000Z</time></trkpt>
        <trkpt lat="29.264318" lon="105.52503"><ele>612.442</ele><time>2026-03-23T21:30:11.000Z</time></trkpt>
        <trkpt lat="29.264297" lon="105.525089"><ele>612.0296</ele><time>2026-03-23T21:30:16.000Z</time></trkpt>
        <trkpt lat="29.26427" lon="105.525137"><ele>611.8349</ele><time>2026-03-23T21:30:21.000Z</time></trkpt>
        <trkpt lat="29.264281" lon="105.525186"><ele>612.48145</ele><time>2026-03-23T21:30:27.000Z</time></trkpt>
        <trkpt lat="29.26431" lon="105.525235"><ele>612.62573</ele><time>2026-03-23T21:30:33.000Z</time></trkpt>
        <trkpt lat="29.264327" lon="105.525284"><ele>612.2765</ele><time>2026-03-23T21:30:38.000Z</time></trkpt>
        <trkpt lat="29.264322" lon="105.525337"><ele>611.4696</ele><time>2026-03-23T21:30:43.000Z</time></trkpt>
        <trkpt lat="29.264309" lon="105.525389"><ele>610.90393</ele><time>2026-03-23T21:30:47.000Z</time></trkpt>
        <trkpt lat="29.264297" lon="105.525456"><ele>609.57086</ele><time>2026-03-23T21:30:53.000Z</time></trkpt>
        <trkpt lat="29.264281" lon="105.525508"><ele>609.0829</ele><time>2026-03-23T21:30:59.000Z</time></trkpt>
        <trkpt lat="29.264261" lon="105.525556"><ele>608.32904</ele><time>2026-03-23T21:31:04.000Z</time></trkpt>
        <trkpt lat="29.264249" lon="105.525613"><ele>607.163</ele><time>2026-03-23T21:31:10.000Z</time></trkpt>
        <trkpt lat="29.264249" lon="105.525673"><ele>606.3441</ele><time>2026-03-23T21:31:16.000Z</time></trkpt>
        <trkpt lat="29.264265" lon="105.525729"><ele>604.52734</ele><time>2026-03-23T21:31:25.000Z</time></trkpt>
        <trkpt lat="29.264282" lon="105.525774"><ele>602.7636</ele><time>2026-03-23T21:31:31.000Z</time></trkpt>
        <trkpt lat="29.264309" lon="105.525819"><ele>602.2821</ele><time>2026-03-23T21:31:37.000Z</time></trkpt>
        <trkpt lat="29.264325" lon="105.52587"><ele>601.33527</ele><time>2026-03-23T21:31:44.000Z</time></trkpt>
        <trkpt lat="29.264331" lon="105.52593"><ele>599.6841</ele><time>2026-03-23T21:31:53.000Z</time></trkpt>
        <trkpt lat="29.264338" lon="105.525983"><ele>598.5466</ele><time>2026-03-23T21:31:59.000Z</time></trkpt>
        <trkpt lat="29.26437" lon="105.526029"><ele>598.4119</ele><time>2026-03-23T21:33:00.000Z</time></trkpt>
        <trkpt lat="29.264395" lon="105.526064"><ele>596.7325</ele><time>2026-03-23T21:33:09.000Z</time></trkpt>
        <trkpt lat="29.264408" lon="105.526128"><ele>595.55975</ele><time>2026-03-23T21:33:16.000Z</time></trkpt>
        <trkpt lat="29.26442" lon="105.526186"><ele>595.26526</ele><time>2026-03-23T21:33:24.000Z</time></trkpt>
        <trkpt lat="29.264434" lon="105.526243"><ele>594.4469</ele><time>2026-03-23T21:33:32.000Z</time></trkpt>
        <trkpt lat="29.264446" lon="105.526299"><ele>594.18555</ele><time>2026-03-23T21:33:38.000Z</time></trkpt>
        <trkpt lat="29.264454" lon="105.526354"><ele>593.5725</ele><time>2026-03-23T21:33:44.000Z</time></trkpt>
        <trkpt lat="29.264435" lon="105.5264"><ele>591.4924</ele><time>2026-03-23T21:33:50.000Z</time></trkpt>
        <trkpt lat="29.264411" lon="105.526446"><ele>589.702</ele><time>2026-03-23T21:33:55.000Z</time></trkpt>
        <trkpt lat="29.264394" lon="105.526495"><ele>588.2457</ele><time>2026-03-23T21:33:58.000Z</time></trkpt>
        <trkpt lat="29.264376" lon="105.526554"><ele>585.9226</ele><time>2026-03-23T21:34:04.000Z</time></trkpt>
        <trkpt lat="29.264339" lon="105.52659"><ele>583.5206</ele><time>2026-03-23T21:34:11.000Z</time></trkpt>
        <trkpt lat="29.264324" lon="105.52664"><ele>581.857</ele><time>2026-03-23T21:34:18.000Z</time></trkpt>
        <trkpt lat="29.264292" lon="105.526689"><ele>579.5743</ele><time>2026-03-23T21:34:24.000Z</time></trkpt>
        <trkpt lat="29.264282" lon="105.526749"><ele>576.05194</ele><time>2026-03-23T21:34:31.000Z</time></trkpt>
        <trkpt lat="29.2643" lon="105.526796"><ele>573.43695</ele><time>2026-03-23T21:34:37.000Z</time></trkpt>
        <trkpt lat="29.264335" lon="105.526832"><ele>572.0482</ele><time>2026-03-23T21:34:41.000Z</time></trkpt>
        <trkpt lat="29.264354" lon="105.526896"><ele>569.6252</ele><time>2026-03-23T21:34:47.000Z</time></trkpt>
        <trkpt lat="29.264359" lon="105.526958"><ele>568.48865</ele><time>2026-03-23T21:34:51.000Z</time></trkpt>
        <trkpt lat="29.264342" lon="105.527019"><ele>568.6159</ele><time>2026-03-23T21:34:55.000Z</time></trkpt>
        <trkpt lat="29.264317" lon="105.527071"><ele>567.61115</ele><time>2026-03-23T21:34:59.000Z</time></trkpt>
        <trkpt lat="29.264265" lon="105.527085"><ele>566.736</ele><time>2026-03-23T21:35:04.000Z</time></trkpt>
        <trkpt lat="29.264221" lon="105.52708"><ele>566.36414</ele><time>2026-03-23T21:35:07.000Z</time></trkpt>
        <trkpt lat="29.264159" lon="105.527075"><ele>566.1529</ele><time>2026-03-23T21:35:12.000Z</time></trkpt>
        <trkpt lat="29.264115" lon="105.527096"><ele>566.7128</ele><time>2026-03-23T21:35:17.000Z</time></trkpt>
        <trkpt lat="29.264103" lon="105.527145"><ele>567.2972</ele><time>2026-03-23T21:35:21.000Z</time></trkpt>
        <trkpt lat="29.264107" lon="105.527214"><ele>567.4408</ele><time>2026-03-23T21:35:26.000Z</time></trkpt>
        <trkpt lat="29.264095" lon="105.527265"><ele>567.6583</ele><time>2026-03-23T21:35:30.000Z</time></trkpt>
        <trkpt lat="29.264065" lon="105.527309"><ele>567.18774</ele><time>2026-03-23T21:35:34.000Z</time></trkpt>
        <trkpt lat="29.264033" lon="105.527351"><ele>566.63586</ele><time>2026-03-23T21:35:38.000Z</time></trkpt>
        <trkpt lat="29.263997" lon="105.5274"><ele>566.4816</ele><time>2026-03-23T21:35:43.000Z</time></trkpt>
        <trkpt lat="29.263953" lon="105.527435"><ele>566.795</ele><time>2026-03-23T21:35:49.000Z</time></trkpt>
        <trkpt lat="29.263905" lon="105.527453"><ele>567.1744</ele><time>2026-03-23T21:35:54.000Z</time></trkpt>
        <trkpt lat="29.263858" lon="105.527469"><ele>567.349</ele><time>2026-03-23T21:35:59.000Z</time></trkpt>
        <trkpt lat="29.263814" lon="105.527501"><ele>566.43243</ele><time>2026-03-23T21:36:12.000Z</time></trkpt>
        <trkpt lat="29.26378" lon="105.527521"><ele>565.5956</ele><time>2026-03-23T21:36:18.000Z</time></trkpt>
        <trkpt lat="29.263744" lon="105.527566"><ele>565.6466</ele><time>2026-03-23T21:36:26.000Z</time></trkpt>
        <trkpt lat="29.263719" lon="105.527615"><ele>564.15765</ele><time>2026-03-23T21:36:36.000Z</time></trkpt>
        <trkpt lat="29.26373" lon="105.527678"><ele>559.72375</ele><time>2026-03-23T21:37:12.000Z</time></trkpt>
        <trkpt lat="29.263744" lon="105.527723"><ele>558.3533</ele><time>2026-03-23T21:37:21.000Z</time></trkpt>
        <trkpt lat="29.263704" lon="105.527733"><ele>556.864</ele><time>2026-03-23T21:37:29.000Z</time></trkpt>
        <trkpt lat="29.263654" lon="105.527728"><ele>556.6452</ele><time>2026-03-23T21:37:34.000Z</time></trkpt>
        <trkpt lat="29.263609" lon="105.527705"><ele>556.7736</ele><time>2026-03-23T21:37:39.000Z</time></trkpt>
        <trkpt lat="29.263561" lon="105.527692"><ele>556.91156</ele><time>2026-03-23T21:37:43.000Z</time></trkpt>
        <trkpt lat="29.263508" lon="105.527674"><ele>556.95966</ele><time>2026-03-23T21:37:49.000Z</time></trkpt>
        <trkpt lat="29.263462" lon="105.527691"><ele>555.4042</ele><time>2026-03-23T21:37:57.000Z</time></trkpt>
        <trkpt lat="29.263423" lon="105.527725"><ele>554.38873</ele><time>2026-03-23T21:38:02.000Z</time></trkpt>
        <trkpt lat="29.263374" lon="105.527737"><ele>553.5119</ele><time>2026-03-23T21:38:09.000Z</time></trkpt>
        <trkpt lat="29.263327" lon="105.527733"><ele>553.16943</ele><time>2026-03-23T21:38:14.000Z</time></trkpt>
        <trkpt lat="29.263282" lon="105.527744"><ele>552.8126</ele><time>2026-03-23T21:38:19.000Z</time></trkpt>
        <trkpt lat="29.263244" lon="105.527781"><ele>552.2676</ele><time>2026-03-23T21:38:24.000Z</time></trkpt>
        <trkpt lat="29.263201" lon="105.527829"><ele>551.0991</ele><time>2026-03-23T21:38:42.000Z</time></trkpt>
        <trkpt lat="29.263198" lon="105.52788"><ele>549.79694</ele><time>2026-03-23T21:38:50.000Z</time></trkpt>
        <trkpt lat="29.263162" lon="105.527918"><ele>549.0208</ele><time>2026-03-23T21:38:58.000Z</time></trkpt>
        <trkpt lat="29.263114" lon="105.527907"><ele>549.2429</ele><time>2026-03-23T21:39:13.000Z</time></trkpt>
        <trkpt lat="29.263076" lon="105.527897"><ele>549.0498</ele><time>2026-03-23T21:39:19.000Z</time></trkpt>
        <trkpt lat="29.263028" lon="105.527899"><ele>549.11285</ele><time>2026-03-23T21:39:25.000Z</time></trkpt>
        <trkpt lat="29.262974" lon="105.527896"><ele>549.5556</ele><time>2026-03-23T21:39:31.000Z</time></trkpt>
        <trkpt lat="29.262921" lon="105.527888"><ele>550.8659</ele><time>2026-03-23T21:39:37.000Z</time></trkpt>
        <trkpt lat="29.262878" lon="105.527896"><ele>550.8014</ele><time>2026-03-23T21:39:42.000Z</time></trkpt>
        <trkpt lat="29.262842" lon="105.527921"><ele>550.9261</ele><time>2026-03-23T21:39:46.000Z</time></trkpt>
        <trkpt lat="29.262801" lon="105.527968"><ele>550.48376</ele><time>2026-03-23T21:39:53.000Z</time></trkpt>
        <trkpt lat="29.262783" lon="105.528015"><ele>550.211</ele><time>2026-03-23T21:39:58.000Z</time></trkpt>
        <trkpt lat="29.262766" lon="105.528083"><ele>550.61365</ele><time>2026-03-23T21:40:06.000Z</time></trkpt>
        <trkpt lat="29.262745" lon="105.52813"><ele>550.63745</ele><time>2026-03-23T21:40:11.000Z</time></trkpt>
        <trkpt lat="29.262702" lon="105.528162"><ele>550.04224</ele><time>2026-03-23T21:40:18.000Z</time></trkpt>
        <trkpt lat="29.262665" lon="105.5282"><ele>549.7358</ele><time>2026-03-23T21:40:28.000Z</time></trkpt>
        <trkpt lat="29.262652" lon="105.52825"><ele>546.98315</ele><time>2026-03-23T21:40:47.000Z</time></trkpt>
        <trkpt lat="29.262681" lon="105.5283"><ele>545.6258</ele><time>2026-03-23T21:41:02.000Z</time></trkpt>
        <trkpt lat="29.262655" lon="105.528341"><ele>545.1029</ele><time>2026-03-23T21:41:13.000Z</time></trkpt>
        <trkpt lat="29.262613" lon="105.52837"><ele>545.1047</ele><time>2026-03-23T21:41:19.000Z</time></trkpt>
        <trkpt lat="29.262568" lon="105.528406"><ele>544.54645</ele><time>2026-03-23T21:41:27.000Z</time></trkpt>
        <trkpt lat="29.262523" lon="105.528407"><ele>545.08966</ele><time>2026-03-23T21:41:35.000Z</time></trkpt>
        <trkpt lat="29.262482" lon="105.528389"><ele>545.66284</ele><time>2026-03-23T21:41:41.000Z</time></trkpt>
        <trkpt lat="29.262454" lon="105.528346"><ele>546.1283</ele><time>2026-03-23T21:41:48.000Z</time></trkpt>
        <trkpt lat="29.262428" lon="105.528293"><ele>544.97614</ele><time>2026-03-23T21:42:10.000Z</time></trkpt>
        <trkpt lat="29.26241" lon="105.528257"><ele>545.21356</ele><time>2026-03-23T21:42:15.000Z</time></trkpt>
        <trkpt lat="29.262361" lon="105.528216"><ele>546.0483</ele><time>2026-03-23T21:42:23.000Z</time></trkpt>
        <trkpt lat="29.262309" lon="105.528216"><ele>546.3453</ele><time>2026-03-23T21:42:28.000Z</time></trkpt>
        <trkpt lat="29.262259" lon="105.528245"><ele>547.53436</ele><time>2026-03-23T21:42:36.000Z</time></trkpt>
        <trkpt lat="29.26222" lon="105.528277"><ele>548.0999</ele><time>2026-03-23T21:42:41.000Z</time></trkpt>
        <trkpt lat="29.262216" lon="105.528327"><ele>548.4377</ele><time>2026-03-23T21:42:47.000Z</time></trkpt>
        <trkpt lat="29.262223" lon="105.528388"><ele>548.0011</ele><time>2026-03-23T21:42:57.000Z</time></trkpt>
        <trkpt lat="29.26221" lon="105.528437"><ele>547.7257</ele><time>2026-03-23T21:43:14.000Z</time></trkpt>
        <trkpt lat="29.262206" lon="105.52849"><ele>548.1977</ele><time>2026-03-23T21:43:23.000Z</time></trkpt>
        <trkpt lat="29.262239" lon="105.528528"><ele>548.01733</ele><time>2026-03-23T21:43:28.000Z</time></trkpt>
        <trkpt lat="29.262258" lon="105.528581"><ele>547.36523</ele><time>2026-03-23T21:43:36.000Z</time></trkpt>
        <trkpt lat="29.262262" lon="105.528635"><ele>547.3236</ele><time>2026-03-23T21:43:56.000Z</time></trkpt>
        <trkpt lat="29.262249" lon="105.528679"><ele>547.4065</ele><time>2026-03-23T21:44:01.000Z</time></trkpt>
        <trkpt lat="29.262221" lon="105.528722"><ele>547.278</ele><time>2026-03-23T21:44:05.000Z</time></trkpt>
        <trkpt lat="29.262187" lon="105.528763"><ele>547.3482</ele><time>2026-03-23T21:44:09.000Z</time></trkpt>
        <trkpt lat="29.26215" lon="105.528799"><ele>547.5403</ele><time>2026-03-23T21:44:13.000Z</time></trkpt>
        <trkpt lat="29.262109" lon="105.52883"><ele>548.1494</ele><time>2026-03-23T21:44:17.000Z</time></trkpt>
        <trkpt lat="29.262052" lon="105.528847"><ele>548.0909</ele><time>2026-03-23T21:44:22.000Z</time></trkpt>
        <trkpt lat="29.261996" lon="105.528842"><ele>547.9547</ele><time>2026-03-23T21:44:27.000Z</time></trkpt>
        <trkpt lat="29.261941" lon="105.528818"><ele>547.5898</ele><time>2026-03-23T21:44:33.000Z</time></trkpt>
        <trkpt lat="29.261898" lon="105.528772"><ele>547.8611</ele><time>2026-03-23T21:44:59.000Z</time></trkpt>
        <trkpt lat="29.261888" lon="105.528721"><ele>547.5592</ele><time>2026-03-23T21:45:47.000Z</time></trkpt>
        <trkpt lat="29.261881" lon="105.528665"><ele>547.628</ele><time>2026-03-23T21:46:00.000Z</time></trkpt>
        <trkpt lat="29.261882" lon="105.528615"><ele>547.66284</ele><time>2026-03-23T21:46:06.000Z</time></trkpt>
        <trkpt lat="29.261893" lon="105.528555"><ele>548.1675</ele><time>2026-03-23T21:46:20.000Z</time></trkpt>
        <trkpt lat="29.261932" lon="105.528537"><ele>548.57227</ele><time>2026-03-23T21:46:28.000Z</time></trkpt>
        <trkpt lat="29.261979" lon="105.528519"><ele>548.518</ele><time>2026-03-23T21:46:38.000Z</time></trkpt>
        <trkpt lat="29.262017" lon="105.52848"><ele>549.6676</ele><time>2026-03-23T21:46:55.000Z</time></trkpt>
        <trkpt lat="29.262004" lon="105.52843"><ele>550.1629</ele><time>2026-03-23T21:47:05.000Z</time></trkpt>
        <trkpt lat="29.262025" lon="105.528382"><ele>550.8706</ele><time>2026-03-23T21:47:30.000Z</time></trkpt>
        <trkpt lat="29.262014" lon="105.528331"><ele>551.3058</ele><time>2026-03-23T21:47:47.000Z</time></trkpt>
        <trkpt lat="29.261984" lon="105.528281"><ele>552.39935</ele><time>2026-03-23T21:48:00.000Z</time></trkpt>
        <trkpt lat="29.261963" lon="105.528231"><ele>552.2531</ele><time>2026-03-23T21:48:13.000Z</time></trkpt>
        <trkpt lat="29.261936" lon="105.528186"><ele>553.16986</ele><time>2026-03-23T21:48:46.000Z</time></trkpt>
        <trkpt lat="29.261944" lon="105.528136"><ele>554.80615</ele><time>2026-03-23T21:49:00.000Z</time></trkpt>
        <trkpt lat="29.261918" lon="105.528089"><ele>554.14606</ele><time>2026-03-23T21:49:15.000Z</time></trkpt>
        <trkpt lat="29.261903" lon="105.52804"><ele>555.28143</ele><time>2026-03-23T21:49:37.000Z</time></trkpt>
        <trkpt lat="29.261891" lon="105.527988"><ele>555.64886</ele><time>2026-03-23T21:49:49.000Z</time></trkpt>
        <trkpt lat="29.261881" lon="105.527932"><ele>555.6054</ele><time>2026-03-23T21:49:56.000Z</time></trkpt>
        <trkpt lat="29.261863" lon="105.527881"><ele>555.7433</ele><time>2026-03-23T21:50:03.000Z</time></trkpt>
        <trkpt lat="29.261838" lon="105.527835"><ele>555.718</ele><time>2026-03-23T21:50:10.000Z</time></trkpt>
        <trkpt lat="29.261822" lon="105.527783"><ele>556.2433</ele><time>2026-03-23T21:50:19.000Z</time></trkpt>
        <trkpt lat="29.261803" lon="105.527735"><ele>555.76624</ele><time>2026-03-23T21:50:28.000Z</time></trkpt>
        <trkpt lat="29.261767" lon="105.527698"><ele>555.2254</ele><time>2026-03-23T21:50:36.000Z</time></trkpt>
        <trkpt lat="29.261725" lon="105.527662"><ele>553.5545</ele><time>2026-03-23T21:50:47.000Z</time></trkpt>
        <trkpt lat="29.261704" lon="105.527617"><ele>550.59644</ele><time>2026-03-23T21:51:00.000Z</time></trkpt>
        <trkpt lat="29.261676" lon="105.527576"><ele>552.51733</ele><time>2026-03-23T21:51:14.000Z</time></trkpt>
        <trkpt lat="29.261629" lon="105.527554"><ele>552.26135</ele><time>2026-03-23T21:51:25.000Z</time></trkpt>
        <trkpt lat="29.261581" lon="105.527571"><ele>552.9679</ele><time>2026-03-23T21:51:38.000Z</time></trkpt>
        <trkpt lat="29.261557" lon="105.527616"><ele>553.33374</ele><time>2026-03-23T21:51:44.000Z</time></trkpt>
        <trkpt lat="29.261535" lon="105.527671"><ele>552.70276</ele><time>2026-03-23T21:51:51.000Z</time></trkpt>
        <trkpt lat="29.261504" lon="105.527722"><ele>551.5742</ele><time>2026-03-23T21:52:01.000Z</time></trkpt>
        <trkpt lat="29.261483" lon="105.527766"><ele>551.6929</ele><time>2026-03-23T21:52:08.000Z</time></trkpt>
        <trkpt lat="29.261458" lon="105.527816"><ele>551.8393</ele><time>2026-03-23T21:52:18.000Z</time></trkpt>
        <trkpt lat="29.26144" lon="105.527853"><ele>552.5676</ele><time>2026-03-23T21:52:22.000Z</time></trkpt>
        <trkpt lat="29.261395" lon="105.527889"><ele>552.28534</ele><time>2026-03-23T21:52:34.000Z</time></trkpt>
        <trkpt lat="29.261345" lon="105.527874"><ele>555.4287</ele><time>2026-03-23T21:53:09.000Z</time></trkpt>
        <trkpt lat="29.261298" lon="105.527881"><ele>555.30347</ele><time>2026-03-23T21:53:32.000Z</time></trkpt>
        <trkpt lat="29.261271" lon="105.52792"><ele>555.26447</ele><time>2026-03-23T21:53:38.000Z</time></trkpt>
        <trkpt lat="29.261227" lon="105.52795"><ele>555.2947</ele><time>2026-03-23T21:53:51.000Z</time></trkpt>
        <trkpt lat="29.261221" lon="105.528001"><ele>553.75525</ele><time>2026-03-23T21:54:00.000Z</time></trkpt>
        <trkpt lat="29.261189" lon="105.528053"><ele>553.7206</ele><time>2026-03-23T21:54:14.000Z</time></trkpt>
        <trkpt lat="29.261149" lon="105.528021"><ele>553.7308</ele><time>2026-03-23T21:54:32.000Z</time></trkpt>
        <trkpt lat="29.26112" lon="105.527976"><ele>555.0908</ele><time>2026-03-23T21:54:42.000Z</time></trkpt>
        <trkpt lat="29.261091" lon="105.527937"><ele>554.99603</ele><time>2026-03-23T21:54:49.000Z</time></trkpt>
        <trkpt lat="29.261065" lon="105.527896"><ele>555.3303</ele><time>2026-03-23T21:54:54.000Z</time></trkpt>
        <trkpt lat="29.26103" lon="105.527845"><ele>555.9273</ele><time>2026-03-23T21:55:01.000Z</time></trkpt>
        <trkpt lat="29.260997" lon="105.527812"><ele>556.23126</ele><time>2026-03-23T21:55:06.000Z</time></trkpt>
        <trkpt lat="29.260953" lon="105.527771"><ele>556.31104</ele><time>2026-03-23T21:55:13.000Z</time></trkpt>
        <trkpt lat="29.260908" lon="105.52774"><ele>554.9002</ele><time>2026-03-23T21:55:23.000Z</time></trkpt>
        <trkpt lat="29.260876" lon="105.527702"><ele>553.92847</ele><time>2026-03-23T21:55:30.000Z</time></trkpt>
        <trkpt lat="29.260839" lon="105.527678"><ele>554.4724</ele><time>2026-03-23T21:55:35.000Z</time></trkpt>
        <trkpt lat="29.260808" lon="105.527629"><ele>554.14264</ele><time>2026-03-23T21:55:42.000Z</time></trkpt>
        <trkpt lat="29.260802" lon="105.527578"><ele>554.443</ele><time>2026-03-23T21:55:48.000Z</time></trkpt>
        <trkpt lat="29.260769" lon="105.527557"><ele>554.3573</ele><time>2026-03-23T21:55:54.000Z</time></trkpt>
        <trkpt lat="29.260722" lon="105.527567"><ele>553.34015</ele><time>2026-03-23T21:56:00.000Z</time></trkpt>
        <trkpt lat="29.260673" lon="105.527586"><ele>552.35034</ele><time>2026-03-23T21:56:06.000Z</time></trkpt>
        <trkpt lat="29.260626" lon="105.527598"><ele>550.88995</ele><time>2026-03-23T21:56:11.000Z</time></trkpt>
        <trkpt lat="29.260583" lon="105.527605"><ele>549.6604</ele><time>2026-03-23T21:56:15.000Z</time></trkpt>
        <trkpt lat="29.260543" lon="105.527636"><ele>548.0508</ele><time>2026-03-23T21:56:20.000Z</time></trkpt>
        <trkpt lat="29.260514" lon="105.527689"><ele>546.5655</ele><time>2026-03-23T21:56:26.000Z</time></trkpt>
        <trkpt lat="29.260502" lon="105.52774"><ele>545.43207</ele><time>2026-03-23T21:56:31.000Z</time></trkpt>
        <trkpt lat="29.260478" lon="105.527789"><ele>544.1833</ele><time>2026-03-23T21:56:37.000Z</time></trkpt>
        <trkpt lat="29.260452" lon="105.527836"><ele>542.6589</ele><time>2026-03-23T21:56:42.000Z</time></trkpt>
        <trkpt lat="29.260426" lon="105.527877"><ele>540.9143</ele><time>2026-03-23T21:56:46.000Z</time></trkpt>
        <trkpt lat="29.260392" lon="105.527926"><ele>539.61096</ele><time>2026-03-23T21:56:50.000Z</time></trkpt>
        <trkpt lat="29.260349" lon="105.527957"><ele>538.6403</ele><time>2026-03-23T21:56:54.000Z</time></trkpt>
        <trkpt lat="29.260305" lon="105.527989"><ele>537.4995</ele><time>2026-03-23T21:56:58.000Z</time></trkpt>
        <trkpt lat="29.260261" lon="105.528011"><ele>536.0807</ele><time>2026-03-23T21:57:01.000Z</time></trkpt>
        <trkpt lat="29.260207" lon="105.528034"><ele>534.3752</ele><time>2026-03-23T21:57:06.000Z</time></trkpt>
        <trkpt lat="29.260167" lon="105.52806"><ele>533.2276</ele><time>2026-03-23T21:57:10.000Z</time></trkpt>
        <trkpt lat="29.260125" lon="105.528084"><ele>532.19653</ele><time>2026-03-23T21:57:14.000Z</time></trkpt>
        <trkpt lat="29.260075" lon="105.528106"><ele>530.5672</ele><time>2026-03-23T21:57:19.000Z</time></trkpt>
        <trkpt lat="29.26004" lon="105.528146"><ele>529.3593</ele><time>2026-03-23T21:57:24.000Z</time></trkpt>
        <trkpt lat="29.260015" lon="105.528203"><ele>528.22235</ele><time>2026-03-23T21:57:31.000Z</time></trkpt>
        <trkpt lat="29.260002" lon="105.52825"><ele>527.30444</ele><time>2026-03-23T21:57:35.000Z</time></trkpt>
        <trkpt lat="29.259993" lon="105.528303"><ele>526.1568</ele><time>2026-03-23T21:57:39.000Z</time></trkpt>
        <trkpt lat="29.259986" lon="105.528359"><ele>525.34906</ele><time>2026-03-23T21:57:43.000Z</time></trkpt>
        <trkpt lat="29.259979" lon="105.528423"><ele>524.5751</ele><time>2026-03-23T21:57:48.000Z</time></trkpt>
        <trkpt lat="29.259978" lon="105.52848"><ele>523.6932</ele><time>2026-03-23T21:57:53.000Z</time></trkpt>
        <trkpt lat="29.259989" lon="105.528537"><ele>522.4137</ele><time>2026-03-23T21:57:58.000Z</time></trkpt>
        <trkpt lat="29.259998" lon="105.528601"><ele>521.4265</ele><time>2026-03-23T21:58:03.000Z</time></trkpt>
        <trkpt lat="29.259993" lon="105.528653"><ele>521.2775</ele><time>2026-03-23T21:58:07.000Z</time></trkpt>
        <trkpt lat="29.259975" lon="105.528705"><ele>520.8646</ele><time>2026-03-23T21:58:11.000Z</time></trkpt>
        <trkpt lat="29.259948" lon="105.528759"><ele>520.3616</ele><time>2026-03-23T21:58:15.000Z</time></trkpt>
        <trkpt lat="29.259921" lon="105.528813"><ele>520.4202</ele><time>2026-03-23T21:58:19.000Z</time></trkpt>
        <trkpt lat="29.259897" lon="105.528881"><ele>520.2415</ele><time>2026-03-23T21:58:25.000Z</time></trkpt>
        <trkpt lat="29.259878" lon="105.528938"><ele>520.31433</ele><time>2026-03-23T21:58:30.000Z</time></trkpt>
        <trkpt lat="29.259869" lon="105.528999"><ele>519.96844</ele><time>2026-03-23T21:58:47.000Z</time></trkpt>
        <trkpt lat="29.259867" lon="105.529036"><ele>519.6868</ele><time>2026-03-23T21:58:52.000Z</time></trkpt>
        <trkpt lat="29.259853" lon="105.529097"><ele>519.6523</ele><time>2026-03-23T21:58:57.000Z</time></trkpt>
        <trkpt lat="29.259836" lon="105.529162"><ele>519.86176</ele><time>2026-03-23T21:59:02.000Z</time></trkpt>
        <trkpt lat="29.259809" lon="105.529213"><ele>520.0431</ele><time>2026-03-23T21:59:06.000Z</time></trkpt>
        <trkpt lat="29.25977" lon="105.529254"><ele>520.3099</ele><time>2026-03-23T21:59:09.000Z</time></trkpt>
        <trkpt lat="29.259714" lon="105.529285"><ele>520.39496</ele><time>2026-03-23T21:59:14.000Z</time></trkpt>
        <trkpt lat="29.259666" lon="105.529296"><ele>521.0842</ele><time>2026-03-23T21:59:18.000Z</time></trkpt>
        <trkpt lat="29.259612" lon="105.529283"><ele>522.3812</ele><time>2026-03-23T21:59:23.000Z</time></trkpt>
        <trkpt lat="29.259573" lon="105.529239"><ele>522.65326</ele><time>2026-03-23T21:59:29.000Z</time></trkpt>
        <trkpt lat="29.259541" lon="105.529199"><ele>523.2677</ele><time>2026-03-23T21:59:34.000Z</time></trkpt>
        <trkpt lat="29.259505" lon="105.52916"><ele>523.8643</ele><time>2026-03-23T21:59:38.000Z</time></trkpt>
        <trkpt lat="29.259465" lon="105.529115"><ele>524.12054</ele><time>2026-03-23T21:59:43.000Z</time></trkpt>
        <trkpt lat="29.259425" lon="105.529071"><ele>524.1062</ele><time>2026-03-23T21:59:48.000Z</time></trkpt>
        <trkpt lat="29.259395" lon="105.529032"><ele>523.8095</ele><time>2026-03-23T21:59:52.000Z</time></trkpt>
        <trkpt lat="29.259368" lon="105.528987"><ele>523.9728</ele><time>2026-03-23T21:59:56.000Z</time></trkpt>
        <trkpt lat="29.259337" lon="105.528945"><ele>523.7508</ele><time>2026-03-23T22:00:00.000Z</time></trkpt>
        <trkpt lat="29.259303" lon="105.528904"><ele>523.53754</ele><time>2026-03-23T22:00:04.000Z</time></trkpt>
        <trkpt lat="29.259266" lon="105.528854"><ele>523.22284</ele><time>2026-03-23T22:00:09.000Z</time></trkpt>
        <trkpt lat="29.259225" lon="105.528811"><ele>522.77905</ele><time>2026-03-23T22:00:14.000Z</time></trkpt>
        <trkpt lat="29.259182" lon="105.528787"><ele>522.2627</ele><time>2026-03-23T22:00:19.000Z</time></trkpt>
        <trkpt lat="29.259131" lon="105.528786"><ele>522.4188</ele><time>2026-03-23T22:00:28.000Z</time></trkpt>
        <trkpt lat="29.259086" lon="105.528792"><ele>522.1138</ele><time>2026-03-23T22:00:45.000Z</time></trkpt>
        <trkpt lat="29.259054" lon="105.52883"><ele>523.4191</ele><time>2026-03-23T22:01:07.000Z</time></trkpt>
        <trkpt lat="29.259025" lon="105.52886"><ele>523.2295</ele><time>2026-03-23T22:01:12.000Z</time></trkpt>
        <trkpt lat="29.258992" lon="105.528906"><ele>522.86005</ele><time>2026-03-23T22:01:16.000Z</time></trkpt>
        <trkpt lat="29.258974" lon="105.528964"><ele>522.8834</ele><time>2026-03-23T22:01:21.000Z</time></trkpt>
        <trkpt lat="29.258968" lon="105.529017"><ele>522.81525</ele><time>2026-03-23T22:01:25.000Z</time></trkpt>
        <trkpt lat="29.258971" lon="105.529084"><ele>523.2758</ele><time>2026-03-23T22:01:30.000Z</time></trkpt>
        <trkpt lat="29.258974" lon="105.529137"><ele>523.8659</ele><time>2026-03-23T22:01:34.000Z</time></trkpt>
        <trkpt lat="29.25897" lon="105.52919"><ele>524.2253</ele><time>2026-03-23T22:01:39.000Z</time></trkpt>
        <trkpt lat="29.258965" lon="105.529243"><ele>524.34314</ele><time>2026-03-23T22:01:43.000Z</time></trkpt>
        <trkpt lat="29.258962" lon="105.529298"><ele>524.47394</ele><time>2026-03-23T22:01:47.000Z</time></trkpt>
        <trkpt lat="29.258962" lon="105.529352"><ele>524.6371</ele><time>2026-03-23T22:01:51.000Z</time></trkpt>
        <trkpt lat="29.258955" lon="105.529415"><ele>524.82367</ele><time>2026-03-23T22:01:56.000Z</time></trkpt>
        <trkpt lat="29.258949" lon="105.529474"><ele>524.8</ele><time>2026-03-23T22:02:01.000Z</time></trkpt>
        <trkpt lat="29.25894" lon="105.529531"><ele>525.0169</ele><time>2026-03-23T22:02:06.000Z</time></trkpt>
        <trkpt lat="29.258932" lon="105.529581"><ele>525.51154</ele><time>2026-03-23T22:02:10.000Z</time></trkpt>
        <trkpt lat="29.258925" lon="105.529634"><ele>525.7158</ele><time>2026-03-23T22:02:14.000Z</time></trkpt>
        <trkpt lat="29.258913" lon="105.529696"><ele>526.18115</ele><time>2026-03-23T22:02:19.000Z</time></trkpt>
        <trkpt lat="29.258898" lon="105.529752"><ele>526.8389</ele><time>2026-03-23T22:02:24.000Z</time></trkpt>
        <trkpt lat="29.25888" lon="105.529811"><ele>528.10706</ele><time>2026-03-23T22:02:29.000Z</time></trkpt>
        <trkpt lat="29.258858" lon="105.529867"><ele>528.70886</ele><time>2026-03-23T22:02:34.000Z</time></trkpt>
        <trkpt lat="29.258834" lon="105.529922"><ele>528.768</ele><time>2026-03-23T22:02:39.000Z</time></trkpt>
        <trkpt lat="29.258807" lon="105.529975"><ele>529.1585</ele><time>2026-03-23T22:02:44.000Z</time></trkpt>
        <trkpt lat="29.258786" lon="105.530021"><ele>529.38293</ele><time>2026-03-23T22:02:48.000Z</time></trkpt>
        <trkpt lat="29.258764" lon="105.530071"><ele>529.30145</ele><time>2026-03-23T22:02:53.000Z</time></trkpt>
        <trkpt lat="29.258742" lon="105.530126"><ele>528.8237</ele><time>2026-03-23T22:02:59.000Z</time></trkpt>
        <trkpt lat="29.258717" lon="105.530174"><ele>528.51587</ele><time>2026-03-23T22:03:04.000Z</time></trkpt>
        <trkpt lat="29.25869" lon="105.530221"><ele>528.1608</ele><time>2026-03-23T22:03:09.000Z</time></trkpt>
        <trkpt lat="29.258661" lon="105.530266"><ele>528.2797</ele><time>2026-03-23T22:03:14.000Z</time></trkpt>
        <trkpt lat="29.258634" lon="105.530307"><ele>528.3404</ele><time>2026-03-23T22:03:18.000Z</time></trkpt>
        <trkpt lat="29.258597" lon="105.530354"><ele>528.5276</ele><time>2026-03-23T22:03:22.000Z</time></trkpt>
        <trkpt lat="29.258556" lon="105.53038"><ele>528.73126</ele><time>2026-03-23T22:03:26.000Z</time></trkpt>
        <trkpt lat="29.258511" lon="105.530398"><ele>528.9175</ele><time>2026-03-23T22:03:30.000Z</time></trkpt>
        <trkpt lat="29.258465" lon="105.5304"><ele>529.04254</ele><time>2026-03-23T22:03:34.000Z</time></trkpt>
        <trkpt lat="29.258408" lon="105.530393"><ele>529.6239</ele><time>2026-03-23T22:03:39.000Z</time></trkpt>
        <trkpt lat="29.258351" lon="105.530366"><ele>529.9321</ele><time>2026-03-23T22:03:45.000Z</time></trkpt>
        <trkpt lat="29.258309" lon="105.530354"><ele>529.94556</ele><time>2026-03-23T22:03:50.000Z</time></trkpt>
        <trkpt lat="29.258255" lon="105.53034"><ele>529.9275</ele><time>2026-03-23T22:03:55.000Z</time></trkpt>
        <trkpt lat="29.258202" lon="105.530325"><ele>529.9172</ele><time>2026-03-23T22:04:00.000Z</time></trkpt>
        <trkpt lat="29.258157" lon="105.530323"><ele>529.8722</ele><time>2026-03-23T22:04:04.000Z</time></trkpt>
        <trkpt lat="29.258101" lon="105.530331"><ele>529.6294</ele><time>2026-03-23T22:04:09.000Z</time></trkpt>
        <trkpt lat="29.258051" lon="105.530356"><ele>529.7793</ele><time>2026-03-23T22:04:14.000Z</time></trkpt>
        <trkpt lat="29.258015" lon="105.530394"><ele>530.32385</ele><time>2026-03-23T22:04:18.000Z</time></trkpt>
        <trkpt lat="29.257979" lon="105.530445"><ele>530.15735</ele><time>2026-03-23T22:04:23.000Z</time></trkpt>
        <trkpt lat="29.257949" lon="105.530497"><ele>530.08984</ele><time>2026-03-23T22:04:28.000Z</time></trkpt>
        <trkpt lat="29.257924" lon="105.530552"><ele>529.9907</ele><time>2026-03-23T22:04:33.000Z</time></trkpt>
        <trkpt lat="29.257905" lon="105.530614"><ele>529.1071</ele><time>2026-03-23T22:04:39.000Z</time></trkpt>
        <trkpt lat="29.257921" lon="105.530674"><ele>529.0571</ele><time>2026-03-23T22:04:49.000Z</time></trkpt>
        <trkpt lat="29.257917" lon="105.530715"><ele>529.4476</ele><time>2026-03-23T22:04:53.000Z</time></trkpt>
        <trkpt lat="29.257902" lon="105.530765"><ele>529.55743</ele><time>2026-03-23T22:04:57.000Z</time></trkpt>
        <trkpt lat="29.257879" lon="105.53082"><ele>529.4621</ele><time>2026-03-23T22:05:02.000Z</time></trkpt>
        <trkpt lat="29.257869" lon="105.530877"><ele>528.93024</ele><time>2026-03-23T22:05:07.000Z</time></trkpt>
        <trkpt lat="29.257857" lon="105.530926"><ele>528.02985</ele><time>2026-03-23T22:05:11.000Z</time></trkpt>
        <trkpt lat="29.257844" lon="105.530986"><ele>527.5517</ele><time>2026-03-23T22:05:16.000Z</time></trkpt>
        <trkpt lat="29.257858" lon="105.531032"><ele>527.8272</ele><time>2026-03-23T22:05:20.000Z</time></trkpt>
        <trkpt lat="29.257871" lon="105.531085"><ele>528.5581</ele><time>2026-03-23T22:05:25.000Z</time></trkpt>
        <trkpt lat="29.257873" lon="105.531139"><ele>529.2509</ele><time>2026-03-23T22:05:30.000Z</time></trkpt>
        <trkpt lat="29.257864" lon="105.531198"><ele>529.5837</ele><time>2026-03-23T22:05:35.000Z</time></trkpt>
        <trkpt lat="29.257867" lon="105.531259"><ele>529.9813</ele><time>2026-03-23T22:05:40.000Z</time></trkpt>
        <trkpt lat="29.25787" lon="105.531322"><ele>531.10693</ele><time>2026-03-23T22:05:47.000Z</time></trkpt>
        <trkpt lat="29.257875" lon="105.531373"><ele>531.52075</ele><time>2026-03-23T22:05:53.000Z</time></trkpt>
        <trkpt lat="29.257903" lon="105.53142"><ele>531.8815</ele><time>2026-03-23T22:05:59.000Z</time></trkpt>
        <trkpt lat="29.257939" lon="105.531455"><ele>532.3249</ele><time>2026-03-23T22:06:04.000Z</time></trkpt>
        <trkpt lat="29.257985" lon="105.531486"><ele>533.21277</ele><time>2026-03-23T22:06:10.000Z</time></trkpt>
        <trkpt lat="29.258033" lon="105.531497"><ele>533.73773</ele><time>2026-03-23T22:06:15.000Z</time></trkpt>
        <trkpt lat="29.258086" lon="105.531508"><ele>533.83716</ele><time>2026-03-23T22:06:20.000Z</time></trkpt>
        <trkpt lat="29.258133" lon="105.531528"><ele>533.91113</ele><time>2026-03-23T22:06:25.000Z</time></trkpt>
        <trkpt lat="29.25817" lon="105.531561"><ele>534.751</ele><time>2026-03-23T22:06:30.000Z</time></trkpt>
        <trkpt lat="29.258214" lon="105.5316"><ele>535.1837</ele><time>2026-03-23T22:06:35.000Z</time></trkpt>
        <trkpt lat="29.258254" lon="105.531633"><ele>535.97864</ele><time>2026-03-23T22:06:39.000Z</time></trkpt>
        <trkpt lat="29.258288" lon="105.531683"><ele>536.47437</ele><time>2026-03-23T22:06:44.000Z</time></trkpt>
        <trkpt lat="29.258318" lon="105.53173"><ele>537.63214</ele><time>2026-03-23T22:06:49.000Z</time></trkpt>
        <trkpt lat="29.258342" lon="105.531784"><ele>537.997</ele><time>2026-03-23T22:06:54.000Z</time></trkpt>
        <trkpt lat="29.258363" lon="105.531832"><ele>538.21875</ele><time>2026-03-23T22:06:59.000Z</time></trkpt>
        <trkpt lat="29.258386" lon="105.531879"><ele>538.40704</ele><time>2026-03-23T22:07:04.000Z</time></trkpt>
        <trkpt lat="29.258406" lon="105.531929"><ele>538.58295</ele><time>2026-03-23T22:07:09.000Z</time></trkpt>
        <trkpt lat="29.258427" lon="105.531979"><ele>539.2872</ele><time>2026-03-23T22:07:14.000Z</time></trkpt>
        <trkpt lat="29.25845" lon="105.53203"><ele>540.00867</ele><time>2026-03-23T22:07:19.000Z</time></trkpt>
        <trkpt lat="29.258471" lon="105.532082"><ele>540.2485</ele><time>2026-03-23T22:07:24.000Z</time></trkpt>
        <trkpt lat="29.258492" lon="105.532137"><ele>540.6147</ele><time>2026-03-23T22:07:29.000Z</time></trkpt>
        <trkpt lat="29.258515" lon="105.532188"><ele>540.8098</ele><time>2026-03-23T22:07:34.000Z</time></trkpt>
        <trkpt lat="29.258543" lon="105.532238"><ele>540.89716</ele><time>2026-03-23T22:07:39.000Z</time></trkpt>
        <trkpt lat="29.258578" lon="105.532286"><ele>540.76385</ele><time>2026-03-23T22:07:45.000Z</time></trkpt>
        <trkpt lat="29.258612" lon="105.532326"><ele>540.78516</ele><time>2026-03-23T22:07:50.000Z</time></trkpt>
        <trkpt lat="29.258647" lon="105.532369"><ele>541.01996</ele><time>2026-03-23T22:07:55.000Z</time></trkpt>
        <trkpt lat="29.258684" lon="105.532413"><ele>540.8196</ele><time>2026-03-23T22:08:00.000Z</time></trkpt>
        <trkpt lat="29.25872" lon="105.53246"><ele>540.3706</ele><time>2026-03-23T22:08:05.000Z</time></trkpt>
        <trkpt lat="29.258752" lon="105.532497"><ele>539.9642</ele><time>2026-03-23T22:08:09.000Z</time></trkpt>
        <trkpt lat="29.258782" lon="105.532551"><ele>539.7386</ele><time>2026-03-23T22:08:14.000Z</time></trkpt>
        <trkpt lat="29.258799" lon="105.532598"><ele>539.98694</ele><time>2026-03-23T22:08:18.000Z</time></trkpt>
        <trkpt lat="29.258806" lon="105.532661"><ele>540.5997</ele><time>2026-03-23T22:08:23.000Z</time></trkpt>
        <trkpt lat="29.258796" lon="105.532714"><ele>541.04034</ele><time>2026-03-23T22:08:27.000Z</time></trkpt>
        <trkpt lat="29.258775" lon="105.532774"><ele>540.30176</ele><time>2026-03-23T22:08:32.000Z</time></trkpt>
        <trkpt lat="29.258759" lon="105.532824"><ele>540.10187</ele><time>2026-03-23T22:08:36.000Z</time></trkpt>
        <trkpt lat="29.258747" lon="105.532886"><ele>539.89496</ele><time>2026-03-23T22:08:41.000Z</time></trkpt>
        <trkpt lat="29.258739" lon="105.532949"><ele>539.2337</ele><time>2026-03-23T22:08:46.000Z</time></trkpt>
        <trkpt lat="29.258735" lon="105.533"><ele>538.9589</ele><time>2026-03-23T22:08:50.000Z</time></trkpt>
        <trkpt lat="29.258734" lon="105.533057"><ele>538.6616</ele><time>2026-03-23T22:08:55.000Z</time></trkpt>
        <trkpt lat="29.25874" lon="105.533112"><ele>538.4989</ele><time>2026-03-23T22:09:00.000Z</time></trkpt>
        <trkpt lat="29.25875" lon="105.533165"><ele>538.66833</ele><time>2026-03-23T22:09:05.000Z</time></trkpt>
        <trkpt lat="29.258766" lon="105.53322"><ele>538.79913</ele><time>2026-03-23T22:09:10.000Z</time></trkpt>
        <trkpt lat="29.258782" lon="105.53328"><ele>538.5412</ele><time>2026-03-23T22:09:16.000Z</time></trkpt>
        <trkpt lat="29.258806" lon="105.533325"><ele>538.575</ele><time>2026-03-23T22:09:21.000Z</time></trkpt>
        <trkpt lat="29.25884" lon="105.533362"><ele>538.6517</ele><time>2026-03-23T22:09:26.000Z</time></trkpt>
        <trkpt lat="29.258851" lon="105.533409"><ele>538.7872</ele><time>2026-03-23T22:09:31.000Z</time></trkpt>
        <trkpt lat="29.258837" lon="105.533464"><ele>538.2167</ele><time>2026-03-23T22:09:36.000Z</time></trkpt>
        <trkpt lat="29.258801" lon="105.533516"><ele>537.91534</ele><time>2026-03-23T22:09:42.000Z</time></trkpt>
        <trkpt lat="29.258753" lon="105.533543"><ele>537.9476</ele><time>2026-03-23T22:09:47.000Z</time></trkpt>
        <trkpt lat="29.258705" lon="105.533572"><ele>538.00134</ele><time>2026-03-23T22:09:52.000Z</time></trkpt>
        <trkpt lat="29.258663" lon="105.533595"><ele>538.4225</ele><time>2026-03-23T22:09:56.000Z</time></trkpt>
        <trkpt lat="29.258621" lon="105.533632"><ele>538.91394</ele><time>2026-03-23T22:10:01.000Z</time></trkpt>
        <trkpt lat="29.258584" lon="105.533671"><ele>539.6718</ele><time>2026-03-23T22:10:06.000Z</time></trkpt>
        <trkpt lat="29.258563" lon="105.533724"><ele>540.19824</ele><time>2026-03-23T22:10:11.000Z</time></trkpt>
        <trkpt lat="29.25854" lon="105.533778"><ele>540.78815</ele><time>2026-03-23T22:10:16.000Z</time></trkpt>
        <trkpt lat="29.258534" lon="105.533844"><ele>541.3576</ele><time>2026-03-23T22:10:23.000Z</time></trkpt>
        <trkpt lat="29.258512" lon="105.533898"><ele>542.0612</ele><time>2026-03-23T22:10:29.000Z</time></trkpt>
        <trkpt lat="29.258492" lon="105.533952"><ele>542.4242</ele><time>2026-03-23T22:10:33.000Z</time></trkpt>
        <trkpt lat="29.258466" lon="105.534006"><ele>542.6873</ele><time>2026-03-23T22:10:38.000Z</time></trkpt>
        <trkpt lat="29.258442" lon="105.534064"><ele>542.4793</ele><time>2026-03-23T22:10:43.000Z</time></trkpt>
        <trkpt lat="29.258417" lon="105.534119"><ele>542.5788</ele><time>2026-03-23T22:10:48.000Z</time></trkpt>
        <trkpt lat="29.258387" lon="105.53416"><ele>542.62445</ele><time>2026-03-23T22:10:52.000Z</time></trkpt>
        <trkpt lat="29.258346" lon="105.5342"><ele>542.3837</ele><time>2026-03-23T22:10:57.000Z</time></trkpt>
        <trkpt lat="29.258301" lon="105.534226"><ele>542.5213</ele><time>2026-03-23T22:11:02.000Z</time></trkpt>
        <trkpt lat="29.258257" lon="105.534254"><ele>542.86945</ele><time>2026-03-23T22:11:07.000Z</time></trkpt>
        <trkpt lat="29.258235" lon="105.534297"><ele>543.6798</ele><time>2026-03-23T22:11:11.000Z</time></trkpt>
        <trkpt lat="29.25822" lon="105.534347"><ele>544.49475</ele><time>2026-03-23T22:11:15.000Z</time></trkpt>
        <trkpt lat="29.25821" lon="105.5344"><ele>544.3293</ele><time>2026-03-23T22:11:19.000Z</time></trkpt>
        <trkpt lat="29.258196" lon="105.53446"><ele>543.9226</ele><time>2026-03-23T22:11:24.000Z</time></trkpt>
        <trkpt lat="29.258183" lon="105.534509"><ele>543.85254</ele><time>2026-03-23T22:11:28.000Z</time></trkpt>
        <trkpt lat="29.258165" lon="105.534568"><ele>544.1884</ele><time>2026-03-23T22:11:33.000Z</time></trkpt>
        <trkpt lat="29.258141" lon="105.534623"><ele>544.62494</ele><time>2026-03-23T22:11:38.000Z</time></trkpt>
        <trkpt lat="29.258119" lon="105.534669"><ele>544.91296</ele><time>2026-03-23T22:11:42.000Z</time></trkpt>
        <trkpt lat="29.258091" lon="105.534725"><ele>545.3568</ele><time>2026-03-23T22:11:47.000Z</time></trkpt>
        <trkpt lat="29.258066" lon="105.534778"><ele>545.70776</ele><time>2026-03-23T22:11:52.000Z</time></trkpt>
        <trkpt lat="29.258045" lon="105.534822"><ele>545.8467</ele><time>2026-03-23T22:11:56.000Z</time></trkpt>
        <trkpt lat="29.258029" lon="105.534877"><ele>546.3404</ele><time>2026-03-23T22:12:01.000Z</time></trkpt>
        <trkpt lat="29.258019" lon="105.534937"><ele>548.3303</ele><time>2026-03-23T22:12:07.000Z</time></trkpt>
        <trkpt lat="29.25802" lon="105.534996"><ele>550.32306</ele><time>2026-03-23T22:12:13.000Z</time></trkpt>
        <trkpt lat="29.258019" lon="105.535052"><ele>552.29565</ele><time>2026-03-23T22:12:20.000Z</time></trkpt>
        <trkpt lat="29.258005" lon="105.535112"><ele>552.61224</ele><time>2026-03-23T22:12:28.000Z</time></trkpt>
        <trkpt lat="29.257991" lon="105.535158"><ele>552.9838</ele><time>2026-03-23T22:12:33.000Z</time></trkpt>
        <trkpt lat="29.257996" lon="105.535212"><ele>553.9918</ele><time>2026-03-23T22:12:38.000Z</time></trkpt>
        <trkpt lat="29.257994" lon="105.535275"><ele>555.24945</ele><time>2026-03-23T22:12:44.000Z</time></trkpt>
        <trkpt lat="29.257981" lon="105.535326"><ele>556.12695</ele><time>2026-03-23T22:12:49.000Z</time></trkpt>
        <trkpt lat="29.257959" lon="105.535383"><ele>556.3124</ele><time>2026-03-23T22:12:54.000Z</time></trkpt>
        <trkpt lat="29.257925" lon="105.535437"><ele>556.3171</ele><time>2026-03-23T22:12:59.000Z</time></trkpt>
        <trkpt lat="29.257892" lon="105.535476"><ele>556.5761</ele><time>2026-03-23T22:13:03.000Z</time></trkpt>
        <trkpt lat="29.257855" lon="105.535508"><ele>557.3013</ele><time>2026-03-23T22:13:07.000Z</time></trkpt>
        <trkpt lat="29.257806" lon="105.535537"><ele>558.0587</ele><time>2026-03-23T22:13:12.000Z</time></trkpt>
        <trkpt lat="29.257763" lon="105.535555"><ele>557.73016</ele><time>2026-03-23T22:13:16.000Z</time></trkpt>
        <trkpt lat="29.257713" lon="105.535579"><ele>557.60004</ele><time>2026-03-23T22:13:21.000Z</time></trkpt>
        <trkpt lat="29.257666" lon="105.5356"><ele>557.5173</ele><time>2026-03-23T22:13:26.000Z</time></trkpt>
        <trkpt lat="29.257616" lon="105.535622"><ele>557.2684</ele><time>2026-03-23T22:13:34.000Z</time></trkpt>
        <trkpt lat="29.257574" lon="105.535638"><ele>557.31946</ele><time>2026-03-23T22:13:39.000Z</time></trkpt>
        <trkpt lat="29.257526" lon="105.535658"><ele>556.80896</ele><time>2026-03-23T22:13:44.000Z</time></trkpt>
        <trkpt lat="29.257474" lon="105.535676"><ele>555.998</ele><time>2026-03-23T22:13:49.000Z</time></trkpt>
        <trkpt lat="29.257463" lon="105.535726"><ele>556.1618</ele><time>2026-03-23T22:13:58.000Z</time></trkpt>
        <trkpt lat="29.257495" lon="105.535763"><ele>556.6744</ele><time>2026-03-23T22:14:04.000Z</time></trkpt>
        <trkpt lat="29.257537" lon="105.5358"><ele>557.55817</ele><time>2026-03-23T22:14:10.000Z</time></trkpt>
        <trkpt lat="29.257575" lon="105.535833"><ele>558.27716</ele><time>2026-03-23T22:14:15.000Z</time></trkpt>
        <trkpt lat="29.257611" lon="105.535869"><ele>558.7005</ele><time>2026-03-23T22:14:20.000Z</time></trkpt>
        <trkpt lat="29.25765" lon="105.535902"><ele>559.1808</ele><time>2026-03-23T22:14:25.000Z</time></trkpt>
        <trkpt lat="29.257686" lon="105.535941"><ele>559.65283</ele><time>2026-03-23T22:14:30.000Z</time></trkpt>
        <trkpt lat="29.257685" lon="105.535987"><ele>559.53156</ele><time>2026-03-23T22:14:34.000Z</time></trkpt>
        <trkpt lat="29.257667" lon="105.536045"><ele>560.0602</ele><time>2026-03-23T22:14:40.000Z</time></trkpt>
        <trkpt lat="29.257696" lon="105.536075"><ele>560.07214</ele><time>2026-03-23T22:14:50.000Z</time></trkpt>
        <trkpt lat="29.257746" lon="105.536043"><ele>559.9437</ele><time>2026-03-23T22:15:12.000Z</time></trkpt>
        <trkpt lat="29.257774" lon="105.536005"><ele>560.62714</ele><time>2026-03-23T22:15:17.000Z</time></trkpt>
        <trkpt lat="29.257805" lon="105.535954"><ele>561.3483</ele><time>2026-03-23T22:15:22.000Z</time></trkpt>
        <trkpt lat="29.25782" lon="105.535894"><ele>561.1313</ele><time>2026-03-23T22:20:14.000Z</time></trkpt>
        <trkpt lat="29.257778" lon="105.535867"><ele>558.69006</ele><time>2026-03-23T22:20:28.000Z</time></trkpt>
        <trkpt lat="29.257817" lon="105.535846"><ele>558.2959</ele><time>2026-03-23T22:20:35.000Z</time></trkpt>
        <trkpt lat="29.257831" lon="105.535901"><ele>557.8423</ele><time>2026-03-23T22:22:06.000Z</time></trkpt>
        <trkpt lat="29.257821" lon="105.535952"><ele>557.92566</ele><time>2026-03-23T22:27:26.000Z</time></trkpt>
        <trkpt lat="29.257819" lon="105.535899"><ele>557.6323</ele><time>2026-03-23T22:30:20.000Z</time></trkpt>
        <trkpt lat="29.257769" lon="105.535898"><ele>555.9949</ele><time>2026-03-23T22:32:45.000Z</time></trkpt>
        <trkpt lat="29.257749" lon="105.535911"><ele>556.14545</ele><time>2026-03-23T22:32:48.000Z</time></trkpt>
        <trkpt lat="29.257683" lon="105.53593"><ele>557.4891</ele><time>2026-03-23T22:33:09.000Z</time></trkpt>
        <trkpt lat="29.257652" lon="105.535902"><ele>557.5232</ele><time>2026-03-23T22:33:15.000Z</time></trkpt>
        <trkpt lat="29.257614" lon="105.535867"><ele>557.68945</ele><time>2026-03-23T22:33:23.000Z</time></trkpt>
        <trkpt lat="29.257573" lon="105.535836"><ele>557.3857</ele><time>2026-03-23T22:33:32.000Z</time></trkpt>
        <trkpt lat="29.257536" lon="105.535799"><ele>556.7156</ele><time>2026-03-23T22:33:46.000Z</time></trkpt>
        <trkpt lat="29.257506" lon="105.535761"><ele>555.71295</ele><time>2026-03-23T22:33:52.000Z</time></trkpt>
        <trkpt lat="29.257468" lon="105.535722"><ele>555.13556</ele><time>2026-03-23T22:33:58.000Z</time></trkpt>
        <trkpt lat="29.257446" lon="105.535668"><ele>554.6059</ele><time>2026-03-23T22:34:05.000Z</time></trkpt>
        <trkpt lat="29.257402" lon="105.535682"><ele>554.8926</ele><time>2026-03-23T22:34:42.000Z</time></trkpt>
        <trkpt lat="29.257377" lon="105.535717"><ele>554.74615</ele><time>2026-03-23T22:34:47.000Z</time></trkpt>
        <trkpt lat="29.257351" lon="105.535771"><ele>553.80634</ele><time>2026-03-23T22:34:52.000Z</time></trkpt>
        <trkpt lat="29.257345" lon="105.53583"><ele>552.36395</ele><time>2026-03-23T22:34:58.000Z</time></trkpt>
        <trkpt lat="29.257352" lon="105.53589"><ele>551.79443</ele><time>2026-03-23T22:35:04.000Z</time></trkpt>
        <trkpt lat="29.25736" lon="105.535941"><ele>550.99585</ele><time>2026-03-23T22:35:09.000Z</time></trkpt>
        <trkpt lat="29.257367" lon="105.535996"><ele>550.3036</ele><time>2026-03-23T22:35:14.000Z</time></trkpt>
        <trkpt lat="29.257372" lon="105.536056"><ele>549.5362</ele><time>2026-03-23T22:35:19.000Z</time></trkpt>
        <trkpt lat="29.25737" lon="105.536119"><ele>548.9197</ele><time>2026-03-23T22:35:24.000Z</time></trkpt>
        <trkpt lat="29.257362" lon="105.536184"><ele>548.4495</ele><time>2026-03-23T22:35:30.000Z</time></trkpt>
        <trkpt lat="29.257355" lon="105.536236"><ele>548.07007</ele><time>2026-03-23T22:35:34.000Z</time></trkpt>
        <trkpt lat="29.257345" lon="105.536299"><ele>547.51227</ele><time>2026-03-23T22:35:39.000Z</time></trkpt>
        <trkpt lat="29.257342" lon="105.536362"><ele>546.8872</ele><time>2026-03-23T22:35:47.000Z</time></trkpt>
        <trkpt lat="29.257377" lon="105.536392"><ele>547.8823</ele><time>2026-03-23T22:35:53.000Z</time></trkpt>
        <trkpt lat="29.257414" lon="105.53643"><ele>548.65106</ele><time>2026-03-23T22:35:59.000Z</time></trkpt>
        <trkpt lat="29.257451" lon="105.536474"><ele>548.63586</ele><time>2026-03-23T22:36:06.000Z</time></trkpt>
        <trkpt lat="29.257497" lon="105.536498"><ele>548.8792</ele><time>2026-03-23T22:36:13.000Z</time></trkpt>
        <trkpt lat="29.257538" lon="105.536523"><ele>548.5134</ele><time>2026-03-23T22:36:19.000Z</time></trkpt>
        <trkpt lat="29.257577" lon="105.536557"><ele>548.2916</ele><time>2026-03-23T22:36:30.000Z</time></trkpt>
        <trkpt lat="29.257621" lon="105.536575"><ele>547.35254</ele><time>2026-03-23T22:36:40.000Z</time></trkpt>
        <trkpt lat="29.25765" lon="105.536619"><ele>545.2494</ele><time>2026-03-23T22:36:55.000Z</time></trkpt>
        <trkpt lat="29.257688" lon="105.536655"><ele>543.17834</ele><time>2026-03-23T22:37:20.000Z</time></trkpt>
        <trkpt lat="29.257689" lon="105.536706"><ele>541.2074</ele><time>2026-03-23T22:37:45.000Z</time></trkpt>
        <trkpt lat="29.257694" lon="105.536762"><ele>539.264</ele><time>2026-03-23T22:38:06.000Z</time></trkpt>
        <trkpt lat="29.257729" lon="105.536808"><ele>535.94305</ele><time>2026-03-23T22:38:26.000Z</time></trkpt>
        <trkpt lat="29.257757" lon="105.53685"><ele>534.22565</ele><time>2026-03-23T22:38:39.000Z</time></trkpt>
        <trkpt lat="29.257802" lon="105.536839"><ele>532.0763</ele><time>2026-03-23T22:39:07.000Z</time></trkpt>
        <trkpt lat="29.257783" lon="105.536883"><ele>529.9167</ele><time>2026-03-23T22:39:25.000Z</time></trkpt>
        <trkpt lat="29.257753" lon="105.536926"><ele>528.48145</ele><time>2026-03-23T22:39:33.000Z</time></trkpt>
        <trkpt lat="29.25774" lon="105.536979"><ele>528.95416</ele><time>2026-03-23T22:40:08.000Z</time></trkpt>
        <trkpt lat="29.257734" lon="105.537027"><ele>527.79706</ele><time>2026-03-23T22:40:19.000Z</time></trkpt>
        <trkpt lat="29.257738" lon="105.537086"><ele>526.4826</ele><time>2026-03-23T22:40:35.000Z</time></trkpt>
        <trkpt lat="29.257734" lon="105.537134"><ele>525.8138</ele><time>2026-03-23T22:40:44.000Z</time></trkpt>
        <trkpt lat="29.257728" lon="105.537187"><ele>524.55383</ele><time>2026-03-23T22:40:51.000Z</time></trkpt>
        <trkpt lat="29.257715" lon="105.537242"><ele>524.42377</ele><time>2026-03-23T22:41:02.000Z</time></trkpt>
        <trkpt lat="29.257703" lon="105.537294"><ele>523.3594</ele><time>2026-03-23T22:41:14.000Z</time></trkpt>
        <trkpt lat="29.257698" lon="105.537347"><ele>521.77094</ele><time>2026-03-23T22:41:21.000Z</time></trkpt>
        <trkpt lat="29.257684" lon="105.537401"><ele>520.3291</ele><time>2026-03-23T22:41:28.000Z</time></trkpt>
        <trkpt lat="29.257675" lon="105.537459"><ele>519.14594</ele><time>2026-03-23T22:41:39.000Z</time></trkpt>
        <trkpt lat="29.257655" lon="105.537505"><ele>518.9821</ele><time>2026-03-23T22:41:50.000Z</time></trkpt>
        <trkpt lat="29.257615" lon="105.537532"><ele>519.17596</ele><time>2026-03-23T22:42:06.000Z</time></trkpt>
        <trkpt lat="29.257611" lon="105.537584"><ele>517.5654</ele><time>2026-03-23T22:42:17.000Z</time></trkpt>
        <trkpt lat="29.257599" lon="105.537637"><ele>517.0309</ele><time>2026-03-23T22:42:27.000Z</time></trkpt>
        <trkpt lat="29.257586" lon="105.537691"><ele>516.42163</ele><time>2026-03-23T22:42:38.000Z</time></trkpt>
        <trkpt lat="29.257575" lon="105.537743"><ele>515.31104</ele><time>2026-03-23T22:42:49.000Z</time></trkpt>
        <trkpt lat="29.257547" lon="105.537787"><ele>514.1362</ele><time>2026-03-23T22:43:08.000Z</time></trkpt>
        <trkpt lat="29.25757" lon="105.537836"><ele>510.41797</ele><time>2026-03-23T22:43:33.000Z</time></trkpt>
        <trkpt lat="29.257583" lon="105.53789"><ele>509.03366</ele><time>2026-03-23T22:43:41.000Z</time></trkpt>
        <trkpt lat="29.257607" lon="105.537943"><ele>506.18658</ele><time>2026-03-23T22:43:57.000Z</time></trkpt>
        <trkpt lat="29.257636" lon="105.537983"><ele>503.34622</ele><time>2026-03-23T22:44:12.000Z</time></trkpt>
        <trkpt lat="29.257605" lon="105.538023"><ele>501.96527</ele><time>2026-03-23T22:44:21.000Z</time></trkpt>
        <trkpt lat="29.25761" lon="105.538072"><ele>501.09177</ele><time>2026-03-23T22:44:27.000Z</time></trkpt>
        <trkpt lat="29.257648" lon="105.538144"><ele>498.00787</ele><time>2026-03-23T22:44:36.000Z</time></trkpt>
        <trkpt lat="29.257646" lon="105.538085"><ele>497.9364</ele><time>2026-03-23T22:45:22.000Z</time></trkpt>
        <trkpt lat="29.25766" lon="105.538041"><ele>497.53345</ele><time>2026-03-23T22:45:26.000Z</time></trkpt>
        <trkpt lat="29.257693" lon="105.537989"><ele>496.70847</ele><time>2026-03-23T22:45:31.000Z</time></trkpt>
        <trkpt lat="29.257744" lon="105.537966"><ele>496.4709</ele><time>2026-03-23T22:45:36.000Z</time></trkpt>
        <trkpt lat="29.257793" lon="105.537959"><ele>496.49783</ele><time>2026-03-23T22:45:40.000Z</time></trkpt>
        <trkpt lat="29.257849" lon="105.537968"><ele>496.0464</ele><time>2026-03-23T22:45:45.000Z</time></trkpt>
        <trkpt lat="29.257899" lon="105.537999"><ele>495.1157</ele><time>2026-03-23T22:45:50.000Z</time></trkpt>
        <trkpt lat="29.257935" lon="105.538037"><ele>494.94534</ele><time>2026-03-23T22:45:54.000Z</time></trkpt>
        <trkpt lat="29.257958" lon="105.538084"><ele>494.9647</ele><time>2026-03-23T22:45:58.000Z</time></trkpt>
        <trkpt lat="29.25796" lon="105.538143"><ele>494.66763</ele><time>2026-03-23T22:46:03.000Z</time></trkpt>
        <trkpt lat="29.257919" lon="105.538194"><ele>491.98663</ele><time>2026-03-23T22:46:27.000Z</time></trkpt>
        <trkpt lat="29.257889" lon="105.538219"><ele>490.6853</ele><time>2026-03-23T22:46:33.000Z</time></trkpt>
        <trkpt lat="29.257892" lon="105.538271"><ele>491.18958</ele><time>2026-03-23T22:46:38.000Z</time></trkpt>
        <trkpt lat="29.257908" lon="105.538334"><ele>491.6399</ele><time>2026-03-23T22:46:45.000Z</time></trkpt>
        <trkpt lat="29.257934" lon="105.53839"><ele>490.80096</ele><time>2026-03-23T22:47:10.000Z</time></trkpt>
        <trkpt lat="29.257953" lon="105.53843"><ele>490.7569</ele><time>2026-03-23T22:47:15.000Z</time></trkpt>
        <trkpt lat="29.257978" lon="105.538483"><ele>490.7057</ele><time>2026-03-23T22:47:20.000Z</time></trkpt>
        <trkpt lat="29.258003" lon="105.538541"><ele>490.68884</ele><time>2026-03-23T22:47:25.000Z</time></trkpt>
        <trkpt lat="29.258035" lon="105.538584"><ele>490.7723</ele><time>2026-03-23T22:47:30.000Z</time></trkpt>
        <trkpt lat="29.258078" lon="105.538609"><ele>491.0153</ele><time>2026-03-23T22:47:36.000Z</time></trkpt>
        <trkpt lat="29.2581" lon="105.538553"><ele>492.5867</ele><time>2026-03-23T22:47:47.000Z</time></trkpt>
        <trkpt lat="29.258141" lon="105.53852"><ele>491.74915</ele><time>2026-03-23T22:47:54.000Z</time></trkpt>
        <trkpt lat="29.258184" lon="105.5385"><ele>491.75226</ele><time>2026-03-23T22:47:59.000Z</time></trkpt>
        <trkpt lat="29.258222" lon="105.538463"><ele>491.00156</ele><time>2026-03-23T22:48:04.000Z</time></trkpt>
        <trkpt lat="29.258253" lon="105.538418"><ele>490.13852</ele><time>2026-03-23T22:48:09.000Z</time></trkpt>
        <trkpt lat="29.258283" lon="105.538372"><ele>489.68176</ele><time>2026-03-23T22:48:14.000Z</time></trkpt>
        <trkpt lat="29.258306" lon="105.538316"><ele>489.1194</ele><time>2026-03-23T22:48:20.000Z</time></trkpt>
        <trkpt lat="29.258331" lon="105.538268"><ele>489.17072</ele><time>2026-03-23T22:48:25.000Z</time></trkpt>
        <trkpt lat="29.258367" lon="105.538225"><ele>489.1839</ele><time>2026-03-23T22:48:29.000Z</time></trkpt>
        <trkpt lat="29.258421" lon="105.538193"><ele>488.62878</ele><time>2026-03-23T22:48:34.000Z</time></trkpt>
        <trkpt lat="29.258473" lon="105.53818"><ele>488.39014</ele><time>2026-03-23T22:48:38.000Z</time></trkpt>
        <trkpt lat="29.258535" lon="105.538188"><ele>487.9366</ele><time>2026-03-23T22:48:43.000Z</time></trkpt>
        <trkpt lat="29.25858" lon="105.538211"><ele>487.59164</ele><time>2026-03-23T22:48:47.000Z</time></trkpt>
        <trkpt lat="29.258623" lon="105.538239"><ele>487.20236</ele><time>2026-03-23T22:48:51.000Z</time></trkpt>
        <trkpt lat="29.25867" lon="105.538271"><ele>486.14844</ele><time>2026-03-23T22:48:56.000Z</time></trkpt>
        <trkpt lat="29.25871" lon="105.538304"><ele>485.12723</ele><time>2026-03-23T22:49:00.000Z</time></trkpt>
        <trkpt lat="29.258758" lon="105.538334"><ele>484.28888</ele><time>2026-03-23T22:49:05.000Z</time></trkpt>
        <trkpt lat="29.25881" lon="105.538347"><ele>483.65958</ele><time>2026-03-23T22:49:10.000Z</time></trkpt>
        <trkpt lat="29.258863" lon="105.538359"><ele>482.7739</ele><time>2026-03-23T22:49:15.000Z</time></trkpt>
        <trkpt lat="29.258916" lon="105.538367"><ele>481.85223</ele><time>2026-03-23T22:49:20.000Z</time></trkpt>
        <trkpt lat="29.258964" lon="105.538378"><ele>480.8892</ele><time>2026-03-23T22:49:25.000Z</time></trkpt>
        <trkpt lat="29.259003" lon="105.538419"><ele>480.11038</ele><time>2026-03-23T22:49:31.000Z</time></trkpt>
        <trkpt lat="29.259002" lon="105.538473"><ele>479.60522</ele><time>2026-03-23T22:49:36.000Z</time></trkpt>
        <trkpt lat="29.258983" lon="105.53853"><ele>478.43924</ele><time>2026-03-23T22:49:41.000Z</time></trkpt>
        <trkpt lat="29.258949" lon="105.538584"><ele>476.60516</ele><time>2026-03-23T22:49:46.000Z</time></trkpt>
        <trkpt lat="29.25892" lon="105.538631"><ele>476.44513</ele><time>2026-03-23T22:49:51.000Z</time></trkpt>
        <trkpt lat="29.258885" lon="105.538671"><ele>476.51678</ele><time>2026-03-23T22:49:56.000Z</time></trkpt>
        <trkpt lat="29.258838" lon="105.538703"><ele>475.89722</ele><time>2026-03-23T22:50:03.000Z</time></trkpt>
        <trkpt lat="29.258797" lon="105.538727"><ele>475.69537</ele><time>2026-03-23T22:50:08.000Z</time></trkpt>
        <trkpt lat="29.258744" lon="105.538741"><ele>474.93002</ele><time>2026-03-23T22:50:14.000Z</time></trkpt>
        <trkpt lat="29.258781" lon="105.538704"><ele>473.17258</ele><time>2026-03-23T22:50:29.000Z</time></trkpt>
        <trkpt lat="29.258833" lon="105.53868"><ele>474.55716</ele><time>2026-03-23T22:50:34.000Z</time></trkpt>
        <trkpt lat="29.258843" lon="105.538714"><ele>474.55017</ele><time>2026-03-23T22:50:39.000Z</time></trkpt>
        <trkpt lat="29.258811" lon="105.53876"><ele>473.75662</ele><time>2026-03-23T22:50:45.000Z</time></trkpt>
        <trkpt lat="29.258759" lon="105.538784"><ele>473.00494</ele><time>2026-03-23T22:50:51.000Z</time></trkpt>
        <trkpt lat="29.25871" lon="105.538789"><ele>472.75308</ele><time>2026-03-23T22:50:56.000Z</time></trkpt>
        <trkpt lat="29.258659" lon="105.538779"><ele>472.36993</ele><time>2026-03-23T22:51:01.000Z</time></trkpt>
        <trkpt lat="29.258604" lon="105.538775"><ele>471.79956</ele><time>2026-03-23T22:51:06.000Z</time></trkpt>
        <trkpt lat="29.258557" lon="105.538782"><ele>471.55515</ele><time>2026-03-23T22:51:10.000Z</time></trkpt>
        <trkpt lat="29.258505" lon="105.538785"><ele>471.31888</ele><time>2026-03-23T22:51:15.000Z</time></trkpt>
        <trkpt lat="29.258454" lon="105.538786"><ele>471.3975</ele><time>2026-03-23T22:51:20.000Z</time></trkpt>
        <trkpt lat="29.258402" lon="105.538779"><ele>471.94318</ele><time>2026-03-23T22:51:25.000Z</time></trkpt>
        <trkpt lat="29.258348" lon="105.538785"><ele>472.70038</ele><time>2026-03-23T22:51:30.000Z</time></trkpt>
        <trkpt lat="29.258298" lon="105.538814"><ele>473.28122</ele><time>2026-03-23T22:51:40.000Z</time></trkpt>
        <trkpt lat="29.258259" lon="105.538837"><ele>473.36246</ele><time>2026-03-23T22:51:45.000Z</time></trkpt>
        <trkpt lat="29.258206" lon="105.538853"><ele>472.6984</ele><time>2026-03-23T22:51:51.000Z</time></trkpt>
        <trkpt lat="29.258157" lon="105.538862"><ele>472.52618</ele><time>2026-03-23T22:51:56.000Z</time></trkpt>
        <trkpt lat="29.258113" lon="105.538871"><ele>472.13208</ele><time>2026-03-23T22:52:00.000Z</time></trkpt>
        <trkpt lat="29.258062" lon="105.538872"><ele>472.14185</ele><time>2026-03-23T22:52:05.000Z</time></trkpt>
        <trkpt lat="29.258018" lon="105.538894"><ele>472.497</ele><time>2026-03-23T22:52:11.000Z</time></trkpt>
        <trkpt lat="29.257976" lon="105.538921"><ele>472.52866</ele><time>2026-03-23T22:52:17.000Z</time></trkpt>
        <trkpt lat="29.257941" lon="105.538965"><ele>471.80496</ele><time>2026-03-23T22:52:24.000Z</time></trkpt>
        <trkpt lat="29.257909" lon="105.539005"><ele>470.33908</ele><time>2026-03-23T22:52:29.000Z</time></trkpt>
        <trkpt lat="29.257868" lon="105.539042"><ele>468.83148</ele><time>2026-03-23T22:52:34.000Z</time></trkpt>
        <trkpt lat="29.257821" lon="105.539074"><ele>467.61606</ele><time>2026-03-23T22:52:39.000Z</time></trkpt>
        <trkpt lat="29.257786" lon="105.539117"><ele>467.21274</ele><time>2026-03-23T22:52:45.000Z</time></trkpt>
        <trkpt lat="29.257762" lon="105.539165"><ele>466.6685</ele><time>2026-03-23T22:52:51.000Z</time></trkpt>
        <trkpt lat="29.257755" lon="105.539219"><ele>466.55664</ele><time>2026-03-23T22:52:57.000Z</time></trkpt>
        <trkpt lat="29.257751" lon="105.539279"><ele>466.46973</ele><time>2026-03-23T22:53:06.000Z</time></trkpt>
        <trkpt lat="29.257741" lon="105.539327"><ele>465.9436</ele><time>2026-03-23T22:53:13.000Z</time></trkpt>
        <trkpt lat="29.257737" lon="105.539377"><ele>464.9719</ele><time>2026-03-23T22:53:19.000Z</time></trkpt>
        <trkpt lat="29.257728" lon="105.53943"><ele>464.4045</ele><time>2026-03-23T22:53:24.000Z</time></trkpt>
        <trkpt lat="29.25773" lon="105.539485"><ele>464.12857</ele><time>2026-03-23T22:53:29.000Z</time></trkpt>
        <trkpt lat="29.257736" lon="105.539551"><ele>463.8822</ele><time>2026-03-23T22:53:36.000Z</time></trkpt>
        <trkpt lat="29.257743" lon="105.539601"><ele>463.45474</ele><time>2026-03-23T22:53:41.000Z</time></trkpt>
        <trkpt lat="29.257745" lon="105.539654"><ele>462.93005</ele><time>2026-03-23T22:53:46.000Z</time></trkpt>
        <trkpt lat="29.257747" lon="105.539711"><ele>462.9167</ele><time>2026-03-23T22:53:52.000Z</time></trkpt>
        <trkpt lat="29.257745" lon="105.539768"><ele>462.6684</ele><time>2026-03-23T22:53:58.000Z</time></trkpt>
        <trkpt lat="29.257743" lon="105.539825"><ele>462.18878</ele><time>2026-03-23T22:54:04.000Z</time></trkpt>
        <trkpt lat="29.257742" lon="105.539884"><ele>462.18207</ele><time>2026-03-23T22:54:09.000Z</time></trkpt>
        <trkpt lat="29.257741" lon="105.53995"><ele>462.0849</ele><time>2026-03-23T22:54:15.000Z</time></trkpt>
        <trkpt lat="29.257744" lon="105.540003"><ele>462.2269</ele><time>2026-03-23T22:54:20.000Z</time></trkpt>
        <trkpt lat="29.257748" lon="105.540058"><ele>462.70215</ele><time>2026-03-23T22:54:26.000Z</time></trkpt>
        <trkpt lat="29.257758" lon="105.54011"><ele>462.91916</ele><time>2026-03-23T22:54:32.000Z</time></trkpt>
        <trkpt lat="29.25776" lon="105.54017"><ele>462.29535</ele><time>2026-03-23T22:54:39.000Z</time></trkpt>
        <trkpt lat="29.257768" lon="105.540222"><ele>462.57654</ele><time>2026-03-23T22:54:44.000Z</time></trkpt>
        <trkpt lat="29.257774" lon="105.540277"><ele>462.88776</ele><time>2026-03-23T22:54:49.000Z</time></trkpt>
        <trkpt lat="29.257779" lon="105.540338"><ele>463.15036</ele><time>2026-03-23T22:54:54.000Z</time></trkpt>
        <trkpt lat="29.257785" lon="105.5404"><ele>463.52777</ele><time>2026-03-23T22:54:59.000Z</time></trkpt>
        <trkpt lat="29.257792" lon="105.540462"><ele>463.64035</ele><time>2026-03-23T22:55:04.000Z</time></trkpt>
        <trkpt lat="29.257794" lon="105.540521"><ele>463.69965</ele><time>2026-03-23T22:55:09.000Z</time></trkpt>
        <trkpt lat="29.257788" lon="105.540572"><ele>463.7618</ele><time>2026-03-23T22:55:13.000Z</time></trkpt>
        <trkpt lat="29.257767" lon="105.54063"><ele>463.63333</ele><time>2026-03-23T22:55:18.000Z</time></trkpt>
        <trkpt lat="29.257749" lon="105.540685"><ele>463.90616</ele><time>2026-03-23T22:55:23.000Z</time></trkpt>
        <trkpt lat="29.257735" lon="105.540737"><ele>463.66003</ele><time>2026-03-23T22:55:28.000Z</time></trkpt>
        <trkpt lat="29.257731" lon="105.540793"><ele>463.64334</ele><time>2026-03-23T22:55:33.000Z</time></trkpt>
        <trkpt lat="29.257732" lon="105.540851"><ele>463.26813</ele><time>2026-03-23T22:55:38.000Z</time></trkpt>
        <trkpt lat="29.257738" lon="105.540908"><ele>463.16986</ele><time>2026-03-23T22:55:43.000Z</time></trkpt>
        <trkpt lat="29.257726" lon="105.540958"><ele>463.7425</ele><time>2026-03-23T22:55:48.000Z</time></trkpt>
        <trkpt lat="29.257686" lon="105.540991"><ele>464.8799</ele><time>2026-03-23T22:55:54.000Z</time></trkpt>
        <trkpt lat="29.257644" lon="105.541028"><ele>466.01517</ele><time>2026-03-23T22:56:00.000Z</time></trkpt>
        <trkpt lat="29.25761" lon="105.541063"><ele>466.81476</ele><time>2026-03-23T22:56:05.000Z</time></trkpt>
        <trkpt lat="29.257565" lon="105.541097"><ele>467.08368</ele><time>2026-03-23T22:56:11.000Z</time></trkpt>
        <trkpt lat="29.257518" lon="105.54112"><ele>467.87552</ele><time>2026-03-23T22:56:18.000Z</time></trkpt>
        <trkpt lat="29.257469" lon="105.541133"><ele>469.22723</ele><time>2026-03-23T22:56:25.000Z</time></trkpt>
        <trkpt lat="29.257424" lon="105.541145"><ele>470.3168</ele><time>2026-03-23T22:56:31.000Z</time></trkpt>
        <trkpt lat="29.257381" lon="105.541159"><ele>470.8942</ele><time>2026-03-23T22:56:36.000Z</time></trkpt>
        <trkpt lat="29.257334" lon="105.541171"><ele>471.01093</ele><time>2026-03-23T22:56:41.000Z</time></trkpt>
        <trkpt lat="29.257292" lon="105.541195"><ele>471.5093</ele><time>2026-03-23T22:56:46.000Z</time></trkpt>
        <trkpt lat="29.257245" lon="105.541221"><ele>472.4953</ele><time>2026-03-23T22:56:52.000Z</time></trkpt>
        <trkpt lat="29.257195" lon="105.541239"><ele>473.61014</ele><time>2026-03-23T22:56:58.000Z</time></trkpt>
        <trkpt lat="29.257143" lon="105.541248"><ele>473.40845</ele><time>2026-03-23T22:57:03.000Z</time></trkpt>
        <trkpt lat="29.257089" lon="105.541254"><ele>473.35962</ele><time>2026-03-23T22:57:08.000Z</time></trkpt>
        <trkpt lat="29.257036" lon="105.541262"><ele>473.73306</ele><time>2026-03-23T22:57:13.000Z</time></trkpt>
        <trkpt lat="29.256987" lon="105.541263"><ele>474.3869</ele><time>2026-03-23T22:57:18.000Z</time></trkpt>
        <trkpt lat="29.256936" lon="105.541273"><ele>475.32437</ele><time>2026-03-23T22:57:24.000Z</time></trkpt>
        <trkpt lat="29.25689" lon="105.54128"><ele>475.43127</ele><time>2026-03-23T22:57:31.000Z</time></trkpt>
        <trkpt lat="29.25685" lon="105.541298"><ele>475.1041</ele><time>2026-03-23T22:57:36.000Z</time></trkpt>
        <trkpt lat="29.256805" lon="105.541309"><ele>474.79443</ele><time>2026-03-23T22:57:41.000Z</time></trkpt>
        <trkpt lat="29.256763" lon="105.541335"><ele>475.13403</ele><time>2026-03-23T22:57:46.000Z</time></trkpt>
        <trkpt lat="29.256733" lon="105.541384"><ele>475.5929</ele><time>2026-03-23T22:58:40.000Z</time></trkpt>
        <trkpt lat="29.256718" lon="105.541423"><ele>475.26517</ele><time>2026-03-23T22:58:47.000Z</time></trkpt>
        <trkpt lat="29.256687" lon="105.541485"><ele>474.9196</ele><time>2026-03-23T22:58:57.000Z</time></trkpt>
        <trkpt lat="29.256672" lon="105.541534"><ele>474.8957</ele><time>2026-03-23T22:59:03.000Z</time></trkpt>
        <trkpt lat="29.256653" lon="105.541582"><ele>474.48022</ele><time>2026-03-23T22:59:08.000Z</time></trkpt>
        <trkpt lat="29.256634" lon="105.541634"><ele>474.16553</ele><time>2026-03-23T22:59:13.000Z</time></trkpt>
        <trkpt lat="29.256603" lon="105.541678"><ele>473.95065</ele><time>2026-03-23T22:59:18.000Z</time></trkpt>
        <trkpt lat="29.256571" lon="105.541722"><ele>473.90176</ele><time>2026-03-23T22:59:23.000Z</time></trkpt>
        <trkpt lat="29.256529" lon="105.541758"><ele>473.8361</ele><time>2026-03-23T22:59:28.000Z</time></trkpt>
        <trkpt lat="29.256484" lon="105.541789"><ele>473.95865</ele><time>2026-03-23T22:59:33.000Z</time></trkpt>
        <trkpt lat="29.256438" lon="105.541825"><ele>473.96988</ele><time>2026-03-23T22:59:38.000Z</time></trkpt>
        <trkpt lat="29.256395" lon="105.541862"><ele>473.86948</ele><time>2026-03-23T22:59:43.000Z</time></trkpt>
        <trkpt lat="29.256361" lon="105.541908"><ele>474.17905</ele><time>2026-03-23T22:59:48.000Z</time></trkpt>
        <trkpt lat="29.25633" lon="105.541957"><ele>474.5307</ele><time>2026-03-23T22:59:53.000Z</time></trkpt>
        <trkpt lat="29.256304" lon="105.542012"><ele>474.7078</ele><time>2026-03-23T22:59:59.000Z</time></trkpt>
        <trkpt lat="29.256288" lon="105.542064"><ele>474.20538</ele><time>2026-03-23T23:00:04.000Z</time></trkpt>
        <trkpt lat="29.256272" lon="105.542116"><ele>473.52048</ele><time>2026-03-23T23:00:09.000Z</time></trkpt>
        <trkpt lat="29.256257" lon="105.542168"><ele>473.153</ele><time>2026-03-23T23:00:14.000Z</time></trkpt>
        <trkpt lat="29.256239" lon="105.542215"><ele>472.53705</ele><time>2026-03-23T23:00:19.000Z</time></trkpt>
        <trkpt lat="29.25621" lon="105.542268"><ele>471.96808</ele><time>2026-03-23T23:00:24.000Z</time></trkpt>
        <trkpt lat="29.256183" lon="105.54231"><ele>471.8844</ele><time>2026-03-23T23:00:28.000Z</time></trkpt>
        <trkpt lat="29.256154" lon="105.542352"><ele>471.9296</ele><time>2026-03-23T23:00:32.000Z</time></trkpt>
        <trkpt lat="29.256113" lon="105.542395"><ele>471.8</ele><time>2026-03-23T23:00:37.000Z</time></trkpt>
        <trkpt lat="29.256067" lon="105.54243"><ele>471.792</ele><time>2026-03-23T23:00:42.000Z</time></trkpt>
        <trkpt lat="29.25602" lon="105.542459"><ele>471.62296</ele><time>2026-03-23T23:00:47.000Z</time></trkpt>
        <trkpt lat="29.255971" lon="105.542476"><ele>471.45267</ele><time>2026-03-23T23:00:52.000Z</time></trkpt>
        <trkpt lat="29.255919" lon="105.542484"><ele>471.28348</ele><time>2026-03-23T23:00:57.000Z</time></trkpt>
        <trkpt lat="29.255866" lon="105.542482"><ele>471.17584</ele><time>2026-03-23T23:01:02.000Z</time></trkpt>
        <trkpt lat="29.255815" lon="105.542468"><ele>471.6658</ele><time>2026-03-23T23:01:07.000Z</time></trkpt>
        <trkpt lat="29.255767" lon="105.542448"><ele>471.53827</ele><time>2026-03-23T23:01:12.000Z</time></trkpt>
        <trkpt lat="29.25572" lon="105.542424"><ele>471.43713</ele><time>2026-03-23T23:01:17.000Z</time></trkpt>
        <trkpt lat="29.255682" lon="105.542401"><ele>471.4536</ele><time>2026-03-23T23:01:21.000Z</time></trkpt>
        <trkpt lat="29.255634" lon="105.542368"><ele>470.77502</ele><time>2026-03-23T23:01:26.000Z</time></trkpt>
        <trkpt lat="29.255595" lon="105.542324"><ele>470.18726</ele><time>2026-03-23T23:01:31.000Z</time></trkpt>
        <trkpt lat="29.255563" lon="105.542273"><ele>470.00107</ele><time>2026-03-23T23:01:36.000Z</time></trkpt>
        <trkpt lat="29.255545" lon="105.542225"><ele>469.85516</ele><time>2026-03-23T23:01:40.000Z</time></trkpt>
        <trkpt lat="29.255531" lon="105.542175"><ele>469.66068</ele><time>2026-03-23T23:01:44.000Z</time></trkpt>
        <trkpt lat="29.255515" lon="105.542112"><ele>469.1365</ele><time>2026-03-23T23:01:49.000Z</time></trkpt>
        <trkpt lat="29.255499" lon="105.542061"><ele>468.7086</ele><time>2026-03-23T23:01:53.000Z</time></trkpt>
        <trkpt lat="29.255477" lon="105.542013"><ele>468.53116</ele><time>2026-03-23T23:01:57.000Z</time></trkpt>
        <trkpt lat="29.255447" lon="105.541958"><ele>468.43484</ele><time>2026-03-23T23:02:02.000Z</time></trkpt>
        <trkpt lat="29.255418" lon="105.541917"><ele>468.39078</ele><time>2026-03-23T23:02:06.000Z</time></trkpt>
        <trkpt lat="29.255385" lon="105.541868"><ele>468.22775</ele><time>2026-03-23T23:02:11.000Z</time></trkpt>
        <trkpt lat="29.255356" lon="105.541829"><ele>467.93945</ele><time>2026-03-23T23:02:15.000Z</time></trkpt>
        <trkpt lat="29.255308" lon="105.541825"><ele>467.71445</ele><time>2026-03-23T23:02:21.000Z</time></trkpt>
        <trkpt lat="29.255257" lon="105.541838"><ele>465.51294</ele><time>2026-03-23T23:02:28.000Z</time></trkpt>
        <trkpt lat="29.255214" lon="105.541848"><ele>464.44922</ele><time>2026-03-23T23:02:32.000Z</time></trkpt>
        <trkpt lat="29.255166" lon="105.541835"><ele>464.14722</ele><time>2026-03-23T23:02:37.000Z</time></trkpt>
        <trkpt lat="29.255118" lon="105.541821"><ele>463.1169</ele><time>2026-03-23T23:02:43.000Z</time></trkpt>
        <trkpt lat="29.255083" lon="105.541795"><ele>462.41867</ele><time>2026-03-23T23:02:47.000Z</time></trkpt>
        <trkpt lat="29.255038" lon="105.541773"><ele>461.52435</ele><time>2026-03-23T23:02:52.000Z</time></trkpt>
        <trkpt lat="29.254981" lon="105.541755"><ele>460.43497</ele><time>2026-03-23T23:02:59.000Z</time></trkpt>
        <trkpt lat="29.254935" lon="105.541754"><ele>460.2744</ele><time>2026-03-23T23:03:03.000Z</time></trkpt>
        <trkpt lat="29.254912" lon="105.541712"><ele>460.034</ele><time>2026-03-23T23:03:07.000Z</time></trkpt>
        <trkpt lat="29.254872" lon="105.541669"><ele>460.56717</ele><time>2026-03-23T23:03:13.000Z</time></trkpt>
        <trkpt lat="29.254826" lon="105.541649"><ele>460.09964</ele><time>2026-03-23T23:03:18.000Z</time></trkpt>
        <trkpt lat="29.254787" lon="105.541681"><ele>459.44705</ele><time>2026-03-23T23:03:23.000Z</time></trkpt>
        <trkpt lat="29.254757" lon="105.541733"><ele>459.0203</ele><time>2026-03-23T23:03:28.000Z</time></trkpt>
        <trkpt lat="29.254713" lon="105.541765"><ele>457.78815</ele><time>2026-03-23T23:03:35.000Z</time></trkpt>
        <trkpt lat="29.254668" lon="105.541791"><ele>456.43774</ele><time>2026-03-23T23:03:42.000Z</time></trkpt>
        <trkpt lat="29.254621" lon="105.541801"><ele>455.5742</ele><time>2026-03-23T23:03:47.000Z</time></trkpt>
        <trkpt lat="29.25457" lon="105.541802"><ele>455.85382</ele><time>2026-03-23T23:03:52.000Z</time></trkpt>
        <trkpt lat="29.254512" lon="105.541798"><ele>455.93716</ele><time>2026-03-23T23:03:58.000Z</time></trkpt>
        <trkpt lat="29.25446" lon="105.541787"><ele>456.07858</ele><time>2026-03-23T23:04:04.000Z</time></trkpt>
        <trkpt lat="29.254417" lon="105.541769"><ele>456.19244</ele><time>2026-03-23T23:04:09.000Z</time></trkpt>
        <trkpt lat="29.254363" lon="105.541772"><ele>455.80444</ele><time>2026-03-23T23:04:15.000Z</time></trkpt>
        <trkpt lat="29.254322" lon="105.541752"><ele>455.87192</ele><time>2026-03-23T23:04:20.000Z</time></trkpt>
        <trkpt lat="29.254278" lon="105.541725"><ele>455.14114</ele><time>2026-03-23T23:04:26.000Z</time></trkpt>
        <trkpt lat="29.254234" lon="105.541705"><ele>454.24005</ele><time>2026-03-23T23:04:31.000Z</time></trkpt>
        <trkpt lat="29.254184" lon="105.541685"><ele>451.93417</ele><time>2026-03-23T23:04:39.000Z</time></trkpt>
        <trkpt lat="29.254138" lon="105.541688"><ele>450.1912</ele><time>2026-03-23T23:04:46.000Z</time></trkpt>
        <trkpt lat="29.254095" lon="105.541664"><ele>448.32013</ele><time>2026-03-23T23:04:54.000Z</time></trkpt>
        <trkpt lat="29.254057" lon="105.541628"><ele>447.1945</ele><time>2026-03-23T23:05:00.000Z</time></trkpt>
        <trkpt lat="29.254028" lon="105.541654"><ele>446.0353</ele><time>2026-03-23T23:05:06.000Z</time></trkpt>
        <trkpt lat="29.254004" lon="105.541706"><ele>444.831</ele><time>2026-03-23T23:05:11.000Z</time></trkpt>
        <trkpt lat="29.253985" lon="105.541761"><ele>444.1043</ele><time>2026-03-23T23:05:16.000Z</time></trkpt>
        <trkpt lat="29.253957" lon="105.541812"><ele>443.90787</ele><time>2026-03-23T23:05:21.000Z</time></trkpt>
        <trkpt lat="29.253928" lon="105.541859"><ele>442.99814</ele><time>2026-03-23T23:05:27.000Z</time></trkpt>
        <trkpt lat="29.253888" lon="105.541868"><ele>442.442</ele><time>2026-03-23T23:05:32.000Z</time></trkpt>
        <trkpt lat="29.253844" lon="105.541889"><ele>441.4625</ele><time>2026-03-23T23:05:39.000Z</time></trkpt>
        <trkpt lat="29.25381" lon="105.54192"><ele>440.3579</ele><time>2026-03-23T23:05:44.000Z</time></trkpt>
        <trkpt lat="29.253779" lon="105.541968"><ele>438.80417</ele><time>2026-03-23T23:05:50.000Z</time></trkpt>
        <trkpt lat="29.253761" lon="105.542024"><ele>437.6802</ele><time>2026-03-23T23:05:56.000Z</time></trkpt>
        <trkpt lat="29.253754" lon="105.542076"><ele>437.71896</ele><time>2026-03-23T23:06:01.000Z</time></trkpt>
        <trkpt lat="29.253758" lon="105.542135"><ele>436.95148</ele><time>2026-03-23T23:06:06.000Z</time></trkpt>
        <trkpt lat="29.253762" lon="105.542199"><ele>436.3713</ele><time>2026-03-23T23:06:11.000Z</time></trkpt>
        <trkpt lat="29.253763" lon="105.542255"><ele>435.81726</ele><time>2026-03-23T23:06:15.000Z</time></trkpt>
        <trkpt lat="29.253739" lon="105.542302"><ele>435.2309</ele><time>2026-03-23T23:06:19.000Z</time></trkpt>
        <trkpt lat="29.253698" lon="105.542302"><ele>434.5128</ele><time>2026-03-23T23:06:23.000Z</time></trkpt>
        <trkpt lat="29.253637" lon="105.542281"><ele>433.93668</ele><time>2026-03-23T23:06:29.000Z</time></trkpt>
        <trkpt lat="29.253592" lon="105.542256"><ele>433.8954</ele><time>2026-03-23T23:06:33.000Z</time></trkpt>
        <trkpt lat="29.253545" lon="105.542248"><ele>433.49112</ele><time>2026-03-23T23:06:37.000Z</time></trkpt>
        <trkpt lat="29.253504" lon="105.542218"><ele>432.8689</ele><time>2026-03-23T23:06:42.000Z</time></trkpt>
        <trkpt lat="29.25348" lon="105.54217"><ele>431.532</ele><time>2026-03-23T23:06:47.000Z</time></trkpt>
        <trkpt lat="29.253439" lon="105.542166"><ele>430.15033</ele><time>2026-03-23T23:07:01.000Z</time></trkpt>
        <trkpt lat="29.253405" lon="105.542205"><ele>429.11536</ele><time>2026-03-23T23:07:07.000Z</time></trkpt>
        <trkpt lat="29.253366" lon="105.542252"><ele>427.73724</ele><time>2026-03-23T23:07:13.000Z</time></trkpt>
        <trkpt lat="29.253334" lon="105.542303"><ele>426.5139</ele><time>2026-03-23T23:07:19.000Z</time></trkpt>
        <trkpt lat="29.253308" lon="105.542345"><ele>425.724</ele><time>2026-03-23T23:07:24.000Z</time></trkpt>
        <trkpt lat="29.253272" lon="105.542385"><ele>424.57095</ele><time>2026-03-23T23:07:29.000Z</time></trkpt>
        <trkpt lat="29.253234" lon="105.542411"><ele>423.81232</ele><time>2026-03-23T23:07:33.000Z</time></trkpt>
        <trkpt lat="29.253182" lon="105.542433"><ele>422.66943</ele><time>2026-03-23T23:07:38.000Z</time></trkpt>
        <trkpt lat="29.253132" lon="105.542455"><ele>422.35287</ele><time>2026-03-23T23:07:43.000Z</time></trkpt>
        <trkpt lat="29.253091" lon="105.542477"><ele>421.8211</ele><time>2026-03-23T23:07:47.000Z</time></trkpt>
        <trkpt lat="29.25305" lon="105.542503"><ele>421.38312</ele><time>2026-03-23T23:07:51.000Z</time></trkpt>
        <trkpt lat="29.252999" lon="105.542533"><ele>420.89502</ele><time>2026-03-23T23:07:56.000Z</time></trkpt>
        <trkpt lat="29.252954" lon="105.542555"><ele>419.9769</ele><time>2026-03-23T23:08:01.000Z</time></trkpt>
        <trkpt lat="29.252903" lon="105.542571"><ele>418.82513</ele><time>2026-03-23T23:08:06.000Z</time></trkpt>
        <trkpt lat="29.252857" lon="105.542589"><ele>417.82065</ele><time>2026-03-23T23:08:11.000Z</time></trkpt>
        <trkpt lat="29.252809" lon="105.542606"><ele>416.40616</ele><time>2026-03-23T23:08:17.000Z</time></trkpt>
        <trkpt lat="29.252762" lon="105.542622"><ele>415.5171</ele><time>2026-03-23T23:08:26.000Z</time></trkpt>
        <trkpt lat="29.252722" lon="105.542634"><ele>414.2722</ele><time>2026-03-23T23:08:32.000Z</time></trkpt>
        <trkpt lat="29.252669" lon="105.542641"><ele>411.67023</ele><time>2026-03-23T23:08:43.000Z</time></trkpt>
        <trkpt lat="29.252624" lon="105.54266"><ele>411.43777</ele><time>2026-03-23T23:08:53.000Z</time></trkpt>
        <trkpt lat="29.25258" lon="105.542671"><ele>410.42484</ele><time>2026-03-23T23:09:01.000Z</time></trkpt>
        <trkpt lat="29.252534" lon="105.542684"><ele>410.64618</ele><time>2026-03-23T23:09:09.000Z</time></trkpt>
        <trkpt lat="29.252496" lon="105.542714"><ele>410.0808</ele><time>2026-03-23T23:09:18.000Z</time></trkpt>
        <trkpt lat="29.252449" lon="105.54274"><ele>408.7533</ele><time>2026-03-23T23:09:26.000Z</time></trkpt>
        <trkpt lat="29.252422" lon="105.542776"><ele>407.63882</ele><time>2026-03-23T23:09:30.000Z</time></trkpt>
        <trkpt lat="29.25239" lon="105.542822"><ele>406.09326</ele><time>2026-03-23T23:09:34.000Z</time></trkpt>
        <trkpt lat="29.252353" lon="105.542866"><ele>404.8286</ele><time>2026-03-23T23:09:39.000Z</time></trkpt>
        <trkpt lat="29.252313" lon="105.542895"><ele>403.77307</ele><time>2026-03-23T23:09:43.000Z</time></trkpt>
        <trkpt lat="29.252271" lon="105.542919"><ele>403.07675</ele><time>2026-03-23T23:09:47.000Z</time></trkpt>
        <trkpt lat="29.252232" lon="105.542958"><ele>402.2476</ele><time>2026-03-23T23:09:52.000Z</time></trkpt>
        <trkpt lat="29.252207" lon="105.543002"><ele>401.6036</ele><time>2026-03-23T23:09:57.000Z</time></trkpt>
        <trkpt lat="29.25218" lon="105.543052"><ele>401.3954</ele><time>2026-03-23T23:10:02.000Z</time></trkpt>
        <trkpt lat="29.252141" lon="105.543092"><ele>401.6883</ele><time>2026-03-23T23:10:10.000Z</time></trkpt>
        <trkpt lat="29.252094" lon="105.543107"><ele>400.33945</ele><time>2026-03-23T23:10:53.000Z</time></trkpt>
        <trkpt lat="29.252061" lon="105.543111"><ele>399.3512</ele><time>2026-03-23T23:10:59.000Z</time></trkpt>
        <trkpt lat="29.252007" lon="105.543133"><ele>398.0906</ele><time>2026-03-23T23:11:06.000Z</time></trkpt>
        <trkpt lat="29.251965" lon="105.543157"><ele>397.0239</ele><time>2026-03-23T23:11:11.000Z</time></trkpt>
        <trkpt lat="29.25191" lon="105.543174"><ele>395.15005</ele><time>2026-03-23T23:11:19.000Z</time></trkpt>
        <trkpt lat="29.251868" lon="105.543178"><ele>393.84497</ele><time>2026-03-23T23:11:24.000Z</time></trkpt>
        <trkpt lat="29.251812" lon="105.543191"><ele>391.69275</ele><time>2026-03-23T23:11:36.000Z</time></trkpt>
        <trkpt lat="29.251775" lon="105.543201"><ele>391.10303</ele><time>2026-03-23T23:11:41.000Z</time></trkpt>
        <trkpt lat="29.251722" lon="105.54322"><ele>390.33807</ele><time>2026-03-23T23:11:51.000Z</time></trkpt>
        <trkpt lat="29.251678" lon="105.543236"><ele>389.3666</ele><time>2026-03-23T23:11:59.000Z</time></trkpt>
        <trkpt lat="29.251633" lon="105.543258"><ele>387.86658</ele><time>2026-03-23T23:12:05.000Z</time></trkpt>
        <trkpt lat="29.251589" lon="105.543274"><ele>386.83853</ele><time>2026-03-23T23:12:10.000Z</time></trkpt>
        <trkpt lat="29.251539" lon="105.543284"><ele>385.13504</ele><time>2026-03-23T23:12:16.000Z</time></trkpt>
        <trkpt lat="29.251483" lon="105.543275"><ele>383.69022</ele><time>2026-03-23T23:12:26.000Z</time></trkpt>
        <trkpt lat="29.251435" lon="105.543273"><ele>381.4259</ele><time>2026-03-23T23:13:30.000Z</time></trkpt>
        <trkpt lat="29.25139" lon="105.543295"><ele>379.07172</ele><time>2026-03-23T23:16:21.000Z</time></trkpt>
        <trkpt lat="29.251354" lon="105.543333"><ele>380.97183</ele><time>2026-03-23T23:16:53.000Z</time></trkpt>
        <trkpt lat="29.251313" lon="105.543359"><ele>380.94272</ele><time>2026-03-23T23:17:09.000Z</time></trkpt>
        <trkpt lat="29.251274" lon="105.543387"><ele>378.84473</ele><time>2026-03-23T23:17:17.000Z</time></trkpt>
        <trkpt lat="29.251237" lon="105.543429"><ele>376.87</ele><time>2026-03-23T23:17:24.000Z</time></trkpt>
        <trkpt lat="29.251198" lon="105.54346"><ele>376.56906</ele><time>2026-03-23T23:17:29.000Z</time></trkpt>
        <trkpt lat="29.25115" lon="105.543487"><ele>376.5459</ele><time>2026-03-23T23:17:38.000Z</time></trkpt>
        <trkpt lat="29.251105" lon="105.54351"><ele>376.5198</ele><time>2026-03-23T23:17:47.000Z</time></trkpt>
        <trkpt lat="29.251068" lon="105.543546"><ele>375.2387</ele><time>2026-03-23T23:17:53.000Z</time></trkpt>
        <trkpt lat="29.251031" lon="105.543581"><ele>373.98236</ele><time>2026-03-23T23:17:59.000Z</time></trkpt>
        <trkpt lat="29.250996" lon="105.543617"><ele>373.61224</ele><time>2026-03-23T23:18:05.000Z</time></trkpt>
        <trkpt lat="29.250962" lon="105.543649"><ele>373.2527</ele><time>2026-03-23T23:18:10.000Z</time></trkpt>
        <trkpt lat="29.250926" lon="105.54369"><ele>372.85028</ele><time>2026-03-23T23:18:17.000Z</time></trkpt>
        <trkpt lat="29.250908" lon="105.543743"><ele>372.08066</ele><time>2026-03-23T23:18:26.000Z</time></trkpt>
        <trkpt lat="29.250896" lon="105.543794"><ele>370.1309</ele><time>2026-03-23T23:18:37.000Z</time></trkpt>
        <trkpt lat="29.250863" lon="105.543825"><ele>369.73724</ele><time>2026-03-23T23:18:45.000Z</time></trkpt>
        <trkpt lat="29.25082" lon="105.543852"><ele>370.42062</ele><time>2026-03-23T23:18:53.000Z</time></trkpt>
        <trkpt lat="29.250789" lon="105.543813"><ele>370.14334</ele><time>2026-03-23T23:19:00.000Z</time></trkpt>
        <trkpt lat="29.250736" lon="105.543809"><ele>371.47336</ele><time>2026-03-23T23:19:08.000Z</time></trkpt>
        <trkpt lat="29.250697" lon="105.54384"><ele>369.98273</ele><time>2026-03-23T23:19:15.000Z</time></trkpt>
        <trkpt lat="29.250664" lon="105.543875"><ele>369.41245</ele><time>2026-03-23T23:19:20.000Z</time></trkpt>
        <trkpt lat="29.25062" lon="105.543909"><ele>369.0945</ele><time>2026-03-23T23:19:26.000Z</time></trkpt>
        <trkpt lat="29.250572" lon="105.543929"><ele>368.86752</ele><time>2026-03-23T23:19:32.000Z</time></trkpt>
        <trkpt lat="29.250527" lon="105.54393"><ele>368.40588</ele><time>2026-03-23T23:19:37.000Z</time></trkpt>
        <trkpt lat="29.250483" lon="105.543917"><ele>368.27444</ele><time>2026-03-23T23:19:41.000Z</time></trkpt>
        <trkpt lat="29.250429" lon="105.543892"><ele>368.60635</ele><time>2026-03-23T23:19:47.000Z</time></trkpt>
        <trkpt lat="29.250384" lon="105.54387"><ele>368.49725</ele><time>2026-03-23T23:19:53.000Z</time></trkpt>
        <trkpt lat="29.250339" lon="105.543853"><ele>368.36737</ele><time>2026-03-23T23:19:59.000Z</time></trkpt>
        <trkpt lat="29.250289" lon="105.543846"><ele>368.20047</ele><time>2026-03-23T23:20:08.000Z</time></trkpt>
        <trkpt lat="29.250254" lon="105.543814"><ele>367.99203</ele><time>2026-03-23T23:20:16.000Z</time></trkpt>
        <trkpt lat="29.250221" lon="105.543774"><ele>369.90433</ele><time>2026-03-23T23:20:23.000Z</time></trkpt>
        <trkpt lat="29.250177" lon="105.543751"><ele>372.69214</ele><time>2026-03-23T23:20:30.000Z</time></trkpt>
        <trkpt lat="29.250157" lon="105.543707"><ele>374.21487</ele><time>2026-03-23T23:20:38.000Z</time></trkpt>
        <trkpt lat="29.250158" lon="105.543649"><ele>378.11334</ele><time>2026-03-23T23:20:48.000Z</time></trkpt>
        <trkpt lat="29.250148" lon="105.543591"><ele>380.5231</ele><time>2026-03-23T23:20:57.000Z</time></trkpt>
        <trkpt lat="29.250155" lon="105.543536"><ele>383.12976</ele><time>2026-03-23T23:21:06.000Z</time></trkpt>
        <trkpt lat="29.250179" lon="105.54349"><ele>386.37323</ele><time>2026-03-23T23:21:16.000Z</time></trkpt>
        <trkpt lat="29.250197" lon="105.543437"><ele>389.1226</ele><time>2026-03-23T23:21:27.000Z</time></trkpt>
        <trkpt lat="29.250216" lon="105.543387"><ele>389.92377</ele><time>2026-03-23T23:21:37.000Z</time></trkpt>
        <trkpt lat="29.250235" lon="105.543336"><ele>393.57996</ele><time>2026-03-23T23:21:50.000Z</time></trkpt>
        <trkpt lat="29.250259" lon="105.54329"><ele>393.62103</ele><time>2026-03-23T23:22:11.000Z</time></trkpt>
        <trkpt lat="29.250275" lon="105.543244"><ele>395.6594</ele><time>2026-03-23T23:22:20.000Z</time></trkpt>
        <trkpt lat="29.250316" lon="105.543225"><ele>395.9284</ele><time>2026-03-23T23:22:28.000Z</time></trkpt>
        <trkpt lat="29.250365" lon="105.543228"><ele>395.6915</ele><time>2026-03-23T23:22:35.000Z</time></trkpt>
        <trkpt lat="29.250392" lon="105.543186"><ele>396.96545</ele><time>2026-03-23T23:22:46.000Z</time></trkpt>
        <trkpt lat="29.250366" lon="105.543145"><ele>398.0736</ele><time>2026-03-23T23:22:54.000Z</time></trkpt>
        <trkpt lat="29.250369" lon="105.543095"><ele>399.27545</ele><time>2026-03-23T23:23:01.000Z</time></trkpt>
        <trkpt lat="29.250384" lon="105.543039"><ele>401.0495</ele><time>2026-03-23T23:23:08.000Z</time></trkpt>
        <trkpt lat="29.250404" lon="105.542987"><ele>402.00342</ele><time>2026-03-23T23:23:15.000Z</time></trkpt>
        <trkpt lat="29.250421" lon="105.542938"><ele>403.87836</ele><time>2026-03-23T23:23:21.000Z</time></trkpt>
        <trkpt lat="29.250444" lon="105.542885"><ele>405.9804</ele><time>2026-03-23T23:23:30.000Z</time></trkpt>
        <trkpt lat="29.250473" lon="105.542835"><ele>407.54758</ele><time>2026-03-23T23:23:41.000Z</time></trkpt>
        <trkpt lat="29.250494" lon="105.542786"><ele>408.51727</ele><time>2026-03-23T23:23:51.000Z</time></trkpt>
        <trkpt lat="29.250455" lon="105.542756"><ele>409.1334</ele><time>2026-03-23T23:24:20.000Z</time></trkpt>
        <trkpt lat="29.25049" lon="105.542719"><ele>410.57343</ele><time>2026-03-23T23:24:40.000Z</time></trkpt>
        <trkpt lat="29.250517" lon="105.542676"><ele>411.49692</ele><time>2026-03-23T23:24:46.000Z</time></trkpt>
        <trkpt lat="29.250512" lon="105.542619"><ele>412.8393</ele><time>2026-03-23T23:24:55.000Z</time></trkpt>
        <trkpt lat="29.250492" lon="105.542573"><ele>414.05045</ele><time>2026-03-23T23:25:02.000Z</time></trkpt>
        <trkpt lat="29.250499" lon="105.542517"><ele>416.52112</ele><time>2026-03-23T23:25:12.000Z</time></trkpt>
        <trkpt lat="29.250504" lon="105.542463"><ele>417.7075</ele><time>2026-03-23T23:25:22.000Z</time></trkpt>
        <trkpt lat="29.25048" lon="105.542419"><ele>418.839</ele><time>2026-03-23T23:25:30.000Z</time></trkpt>
        <trkpt lat="29.250467" lon="105.542365"><ele>421.48996</ele><time>2026-03-23T23:25:39.000Z</time></trkpt>
        <trkpt lat="29.250491" lon="105.542325"><ele>422.57016</ele><time>2026-03-23T23:25:46.000Z</time></trkpt>
        <trkpt lat="29.250545" lon="105.542302"><ele>422.20627</ele><time>2026-03-23T23:26:08.000Z</time></trkpt>
        <trkpt lat="29.250561" lon="105.542264"><ele>421.75034</ele><time>2026-03-23T23:26:15.000Z</time></trkpt>
        <trkpt lat="29.250555" lon="105.542212"><ele>422.49402</ele><time>2026-03-23T23:26:20.000Z</time></trkpt>
        <trkpt lat="29.25056" lon="105.542157"><ele>424.42102</ele><time>2026-03-23T23:26:25.000Z</time></trkpt>
        <trkpt lat="29.250587" lon="105.542107"><ele>425.4459</ele><time>2026-03-23T23:26:30.000Z</time></trkpt>
        <trkpt lat="29.250618" lon="105.542054"><ele>426.69455</ele><time>2026-03-23T23:26:35.000Z</time></trkpt>
        <trkpt lat="29.250647" lon="105.542007"><ele>428.0583</ele><time>2026-03-23T23:26:40.000Z</time></trkpt>
        <trkpt lat="29.250675" lon="105.541961"><ele>428.25665</ele><time>2026-03-23T23:26:45.000Z</time></trkpt>
        <trkpt lat="29.250697" lon="105.541909"><ele>429.2363</ele><time>2026-03-23T23:26:51.000Z</time></trkpt>
        <trkpt lat="29.250716" lon="105.541861"><ele>429.00845</ele><time>2026-03-23T23:26:57.000Z</time></trkpt>
        <trkpt lat="29.250722" lon="105.541808"><ele>429.44623</ele><time>2026-03-23T23:27:03.000Z</time></trkpt>
        <trkpt lat="29.250709" lon="105.541759"><ele>430.46548</ele><time>2026-03-23T23:27:08.000Z</time></trkpt>
        <trkpt lat="29.250684" lon="105.541703"><ele>432.18704</ele><time>2026-03-23T23:27:15.000Z</time></trkpt>
        <trkpt lat="29.250664" lon="105.541658"><ele>433.12216</ele><time>2026-03-23T23:27:20.000Z</time></trkpt>
        <trkpt lat="29.250651" lon="105.541602"><ele>433.6988</ele><time>2026-03-23T23:27:26.000Z</time></trkpt>
        <trkpt lat="29.250654" lon="105.541545"><ele>434.46127</ele><time>2026-03-23T23:27:32.000Z</time></trkpt>
        <trkpt lat="29.250651" lon="105.541494"><ele>434.89233</ele><time>2026-03-23T23:27:37.000Z</time></trkpt>
        <trkpt lat="29.25066" lon="105.541434"><ele>435.85184</ele><time>2026-03-23T23:27:43.000Z</time></trkpt>
        <trkpt lat="29.25067" lon="105.541376"><ele>435.45917</ele><time>2026-03-23T23:27:50.000Z</time></trkpt>
        <trkpt lat="29.250669" lon="105.541326"><ele>436.718</ele><time>2026-03-23T23:27:56.000Z</time></trkpt>
        <trkpt lat="29.250632" lon="105.541284"><ele>437.59448</ele><time>2026-03-23T23:28:10.000Z</time></trkpt>
        <trkpt lat="29.2506" lon="105.541261"><ele>437.99008</ele><time>2026-03-23T23:28:15.000Z</time></trkpt>
        <trkpt lat="29.250567" lon="105.541224"><ele>438.76453</ele><time>2026-03-23T23:28:20.000Z</time></trkpt>
        <trkpt lat="29.25053" lon="105.541194"><ele>438.75098</ele><time>2026-03-23T23:28:24.000Z</time></trkpt>
        <trkpt lat="29.250482" lon="105.54117"><ele>438.83688</ele><time>2026-03-23T23:28:29.000Z</time></trkpt>
        <trkpt lat="29.250432" lon="105.541152"><ele>439.5941</ele><time>2026-03-23T23:28:34.000Z</time></trkpt>
        <trkpt lat="29.250393" lon="105.541131"><ele>439.6589</ele><time>2026-03-23T23:28:38.000Z</time></trkpt>
        <trkpt lat="29.250362" lon="105.54107"><ele>437.94882</ele><time>2026-03-23T23:28:58.000Z</time></trkpt>
        <trkpt lat="29.250354" lon="105.54103"><ele>438.01874</ele><time>2026-03-23T23:29:03.000Z</time></trkpt>
        <trkpt lat="29.250333" lon="105.540978"><ele>438.58557</ele><time>2026-03-23T23:29:08.000Z</time></trkpt>
        <trkpt lat="29.250314" lon="105.540921"><ele>439.03336</ele><time>2026-03-23T23:29:13.000Z</time></trkpt>
        <trkpt lat="29.250301" lon="105.540865"><ele>439.69852</ele><time>2026-03-23T23:29:18.000Z</time></trkpt>
        <trkpt lat="29.25029" lon="105.54081"><ele>440.1755</ele><time>2026-03-23T23:29:23.000Z</time></trkpt>
        <trkpt lat="29.250278" lon="105.540756"><ele>440.2084</ele><time>2026-03-23T23:29:28.000Z</time></trkpt>
        <trkpt lat="29.250267" lon="105.540705"><ele>440.32437</ele><time>2026-03-23T23:29:33.000Z</time></trkpt>
        <trkpt lat="29.250254" lon="105.540648"><ele>439.9838</ele><time>2026-03-23T23:29:39.000Z</time></trkpt>
        <trkpt lat="29.250237" lon="105.540601"><ele>439.55783</ele><time>2026-03-23T23:29:44.000Z</time></trkpt>
        <trkpt lat="29.250196" lon="105.540551"><ele>439.68832</ele><time>2026-03-23T23:29:59.000Z</time></trkpt>
        <trkpt lat="29.250165" lon="105.540524"><ele>439.97925</ele><time>2026-03-23T23:30:04.000Z</time></trkpt>
        <trkpt lat="29.250126" lon="105.540496"><ele>440.3283</ele><time>2026-03-23T23:30:08.000Z</time></trkpt>
        <trkpt lat="29.250076" lon="105.540477"><ele>440.95462</ele><time>2026-03-23T23:30:13.000Z</time></trkpt>
        <trkpt lat="29.250025" lon="105.540467"><ele>441.5245</ele><time>2026-03-23T23:30:18.000Z</time></trkpt>
        <trkpt lat="29.249975" lon="105.540455"><ele>442.18427</ele><time>2026-03-23T23:30:23.000Z</time></trkpt>
        <trkpt lat="29.249929" lon="105.540435"><ele>442.8789</ele><time>2026-03-23T23:30:28.000Z</time></trkpt>
        <trkpt lat="29.249889" lon="105.540402"><ele>442.6414</ele><time>2026-03-23T23:30:33.000Z</time></trkpt>
        <trkpt lat="29.249847" lon="105.540366"><ele>442.8053</ele><time>2026-03-23T23:30:38.000Z</time></trkpt>
        <trkpt lat="29.249807" lon="105.540326"><ele>443.0859</ele><time>2026-03-23T23:30:43.000Z</time></trkpt>
        <trkpt lat="29.24977" lon="105.540282"><ele>443.16193</ele><time>2026-03-23T23:30:48.000Z</time></trkpt>
        <trkpt lat="29.249738" lon="105.540232"><ele>443.18283</ele><time>2026-03-23T23:30:53.000Z</time></trkpt>
        <trkpt lat="29.249716" lon="105.540188"><ele>443.1894</ele><time>2026-03-23T23:30:57.000Z</time></trkpt>
        <trkpt lat="29.2497" lon="105.540123"><ele>443.2977</ele><time>2026-03-23T23:31:02.000Z</time></trkpt>
        <trkpt lat="29.249698" lon="105.540061"><ele>443.21494</ele><time>2026-03-23T23:31:07.000Z</time></trkpt>
        <trkpt lat="29.249719" lon="105.540003"><ele>442.92105</ele><time>2026-03-23T23:31:12.000Z</time></trkpt>
        <trkpt lat="29.249752" lon="105.539954"><ele>442.26324</ele><time>2026-03-23T23:31:17.000Z</time></trkpt>
        <trkpt lat="29.249796" lon="105.53992"><ele>441.75305</ele><time>2026-03-23T23:31:22.000Z</time></trkpt>
        <trkpt lat="29.24984" lon="105.539882"><ele>442.30804</ele><time>2026-03-23T23:31:27.000Z</time></trkpt>
        <trkpt lat="29.249853" lon="105.539823"><ele>442.52457</ele><time>2026-03-23T23:31:54.000Z</time></trkpt>
        <trkpt lat="29.249877" lon="105.539791"><ele>441.55655</ele><time>2026-03-23T23:32:00.000Z</time></trkpt>
        <trkpt lat="29.249901" lon="105.539737"><ele>440.28345</ele><time>2026-03-23T23:32:06.000Z</time></trkpt>
        <trkpt lat="29.24991" lon="105.539673"><ele>439.01566</ele><time>2026-03-23T23:32:12.000Z</time></trkpt>
        <trkpt lat="29.249906" lon="105.539615"><ele>437.47488</ele><time>2026-03-23T23:32:17.000Z</time></trkpt>
        <trkpt lat="29.249899" lon="105.53956"><ele>437.38412</ele><time>2026-03-23T23:32:22.000Z</time></trkpt>
        <trkpt lat="29.249886" lon="105.539502"><ele>437.29953</ele><time>2026-03-23T23:32:31.000Z</time></trkpt>
        <trkpt lat="29.24989" lon="105.539453"><ele>436.9576</ele><time>2026-03-23T23:32:36.000Z</time></trkpt>
        <trkpt lat="29.249898" lon="105.539393"><ele>434.88065</ele><time>2026-03-23T23:32:47.000Z</time></trkpt>
        <trkpt lat="29.249884" lon="105.539343"><ele>432.37262</ele><time>2026-03-23T23:32:55.000Z</time></trkpt>
        <trkpt lat="29.249878" lon="105.539291"><ele>431.5863</ele><time>2026-03-23T23:33:00.000Z</time></trkpt>
        <trkpt lat="29.249846" lon="105.53925"><ele>430.38934</ele><time>2026-03-23T23:33:06.000Z</time></trkpt>
        <trkpt lat="29.249807" lon="105.539221"><ele>429.9528</ele><time>2026-03-23T23:33:11.000Z</time></trkpt>
        <trkpt lat="29.24978" lon="105.539173"><ele>428.26694</ele><time>2026-03-23T23:33:20.000Z</time></trkpt>
        <trkpt lat="29.249739" lon="105.539169"><ele>426.86273</ele><time>2026-03-23T23:33:27.000Z</time></trkpt>
        <trkpt lat="29.249689" lon="105.53915"><ele>424.4232</ele><time>2026-03-23T23:33:50.000Z</time></trkpt>
        <trkpt lat="29.249677" lon="105.539099"><ele>423.6664</ele><time>2026-03-23T23:33:58.000Z</time></trkpt>
        <trkpt lat="29.24968" lon="105.539041"><ele>423.4876</ele><time>2026-03-23T23:34:03.000Z</time></trkpt>
        <trkpt lat="29.249678" lon="105.538987"><ele>423.50565</ele><time>2026-03-23T23:34:07.000Z</time></trkpt>
        <trkpt lat="29.249672" lon="105.538924"><ele>423.31622</ele><time>2026-03-23T23:34:12.000Z</time></trkpt>
        <trkpt lat="29.249657" lon="105.538863"><ele>422.68826</ele><time>2026-03-23T23:34:17.000Z</time></trkpt>
        <trkpt lat="29.249633" lon="105.538803"><ele>422.49515</ele><time>2026-03-23T23:34:22.000Z</time></trkpt>
        <trkpt lat="29.249627" lon="105.538739"><ele>422.08072</ele><time>2026-03-23T23:34:29.000Z</time></trkpt>
        <trkpt lat="29.249627" lon="105.538681"><ele>421.21616</ele><time>2026-03-23T23:34:38.000Z</time></trkpt>
        <trkpt lat="29.249636" lon="105.538633"><ele>420.51385</ele><time>2026-03-23T23:34:44.000Z</time></trkpt>
        <trkpt lat="29.249643" lon="105.538578"><ele>419.7087</ele><time>2026-03-23T23:34:50.000Z</time></trkpt>
        <trkpt lat="29.249632" lon="105.538522"><ele>419.9176</ele><time>2026-03-23T23:34:56.000Z</time></trkpt>
        <trkpt lat="29.249599" lon="105.538484"><ele>419.1543</ele><time>2026-03-23T23:35:01.000Z</time></trkpt>
        <trkpt lat="29.249579" lon="105.538441"><ele>418.821</ele><time>2026-03-23T23:35:05.000Z</time></trkpt>
        <trkpt lat="29.249604" lon="105.538392"><ele>419.62695</ele><time>2026-03-23T23:35:16.000Z</time></trkpt>
        <trkpt lat="29.249652" lon="105.538399"><ele>420.0396</ele><time>2026-03-23T23:35:22.000Z</time></trkpt>
        <trkpt lat="29.249696" lon="105.53839"><ele>420.9702</ele><time>2026-03-23T23:35:27.000Z</time></trkpt>
        <trkpt lat="29.249735" lon="105.538346"><ele>422.69702</ele><time>2026-03-23T23:35:33.000Z</time></trkpt>
        <trkpt lat="29.249756" lon="105.53829"><ele>424.04807</ele><time>2026-03-23T23:35:39.000Z</time></trkpt>
        <trkpt lat="29.249776" lon="105.538234"><ele>424.6576</ele><time>2026-03-23T23:35:45.000Z</time></trkpt>
        <trkpt lat="29.249802" lon="105.538177"><ele>424.21613</ele><time>2026-03-23T23:35:57.000Z</time></trkpt>
        <trkpt lat="29.24981" lon="105.538135"><ele>424.56857</ele><time>2026-03-23T23:36:02.000Z</time></trkpt>
        <trkpt lat="29.249815" lon="105.538079"><ele>425.48203</ele><time>2026-03-23T23:36:07.000Z</time></trkpt>
        <trkpt lat="29.249825" lon="105.538019"><ele>426.73648</ele><time>2026-03-23T23:36:13.000Z</time></trkpt>
        <trkpt lat="29.249827" lon="105.537958"><ele>427.55783</ele><time>2026-03-23T23:36:19.000Z</time></trkpt>
        <trkpt lat="29.249821" lon="105.537904"><ele>427.90082</ele><time>2026-03-23T23:36:24.000Z</time></trkpt>
        <trkpt lat="29.249819" lon="105.537848"><ele>428.388</ele><time>2026-03-23T23:36:29.000Z</time></trkpt>
        <trkpt lat="29.249825" lon="105.537787"><ele>428.7728</ele><time>2026-03-23T23:36:34.000Z</time></trkpt>
        <trkpt lat="29.249835" lon="105.537725"><ele>428.70523</ele><time>2026-03-23T23:36:39.000Z</time></trkpt>
        <trkpt lat="29.249829" lon="105.537675"><ele>428.61972</ele><time>2026-03-23T23:36:43.000Z</time></trkpt>
        <trkpt lat="29.24981" lon="105.537611"><ele>428.2063</ele><time>2026-03-23T23:36:53.000Z</time></trkpt>
        <trkpt lat="29.249769" lon="105.537592"><ele>426.75748</ele><time>2026-03-23T23:36:58.000Z</time></trkpt>
        <trkpt lat="29.249727" lon="105.537557"><ele>425.30643</ele><time>2026-03-23T23:37:03.000Z</time></trkpt>
        <trkpt lat="29.24968" lon="105.537518"><ele>424.57196</ele><time>2026-03-23T23:37:08.000Z</time></trkpt>
        <trkpt lat="29.249641" lon="105.537485"><ele>424.08115</ele><time>2026-03-23T23:37:12.000Z</time></trkpt>
        <trkpt lat="29.249609" lon="105.537455"><ele>423.65826</ele><time>2026-03-23T23:37:15.000Z</time></trkpt>
        <trkpt lat="29.249553" lon="105.537438"><ele>420.17236</ele><time>2026-03-23T23:37:37.000Z</time></trkpt>
        <trkpt lat="29.249515" lon="105.537457"><ele>419.19296</ele><time>2026-03-23T23:37:45.000Z</time></trkpt>
        <trkpt lat="29.249469" lon="105.537508"><ele>418.15982</ele><time>2026-03-23T23:38:05.000Z</time></trkpt>
        <trkpt lat="29.249457" lon="105.537557"><ele>417.67792</ele><time>2026-03-23T23:38:12.000Z</time></trkpt>
        <trkpt lat="29.24944" lon="105.537608"><ele>416.3259</ele><time>2026-03-23T23:38:18.000Z</time></trkpt>
        <trkpt lat="29.249394" lon="105.537634"><ele>414.0205</ele><time>2026-03-23T23:38:29.000Z</time></trkpt>
        <trkpt lat="29.249378" lon="105.53759"><ele>413.13666</ele><time>2026-03-23T23:38:34.000Z</time></trkpt>
        <trkpt lat="29.249348" lon="105.537543"><ele>412.5684</ele><time>2026-03-23T23:38:39.000Z</time></trkpt>
        <trkpt lat="29.249304" lon="105.537505"><ele>411.8826</ele><time>2026-03-23T23:38:46.000Z</time></trkpt>
        <trkpt lat="29.249265" lon="105.537466"><ele>409.695</ele><time>2026-03-23T23:38:52.000Z</time></trkpt>
        <trkpt lat="29.249215" lon="105.537453"><ele>408.01498</ele><time>2026-03-23T23:38:59.000Z</time></trkpt>
        <trkpt lat="29.249175" lon="105.537487"><ele>405.74506</ele><time>2026-03-23T23:39:06.000Z</time></trkpt>
        <trkpt lat="29.249139" lon="105.53753"><ele>404.18784</ele><time>2026-03-23T23:39:12.000Z</time></trkpt>
        <trkpt lat="29.24909" lon="105.537533"><ele>401.95422</ele><time>2026-03-23T23:39:19.000Z</time></trkpt>
        <trkpt lat="29.24904" lon="105.537532"><ele>399.4843</ele><time>2026-03-23T23:39:27.000Z</time></trkpt>
        <trkpt lat="29.248996" lon="105.537546"><ele>398.52753</ele><time>2026-03-23T23:39:33.000Z</time></trkpt>
        <trkpt lat="29.248969" lon="105.537585"><ele>397.78928</ele><time>2026-03-23T23:39:38.000Z</time></trkpt>
        <trkpt lat="29.248938" lon="105.53764"><ele>395.89993</ele><time>2026-03-23T23:39:45.000Z</time></trkpt>
        <trkpt lat="29.248929" lon="105.537696"><ele>394.80447</ele><time>2026-03-23T23:39:52.000Z</time></trkpt>
        <trkpt lat="29.248898" lon="105.537713"><ele>395.0342</ele><time>2026-03-23T23:39:55.000Z</time></trkpt>
        <trkpt lat="29.248866" lon="105.537661"><ele>395.61136</ele><time>2026-03-23T23:40:13.000Z</time></trkpt>
        <trkpt lat="29.248859" lon="105.537611"><ele>394.77017</ele><time>2026-03-23T23:40:18.000Z</time></trkpt>
        <trkpt lat="29.248867" lon="105.537659"><ele>394.56403</ele><time>2026-03-23T23:40:33.000Z</time></trkpt>
        <trkpt lat="29.248868" lon="105.537713"><ele>394.55872</ele><time>2026-03-23T23:40:38.000Z</time></trkpt>
        <trkpt lat="29.248849" lon="105.53777"><ele>393.3059</ele><time>2026-03-23T23:40:44.000Z</time></trkpt>
        <trkpt lat="29.248831" lon="105.537821"><ele>392.6806</ele><time>2026-03-23T23:40:49.000Z</time></trkpt>
        <trkpt lat="29.248815" lon="105.537878"><ele>392.38513</ele><time>2026-03-23T23:40:54.000Z</time></trkpt>
        <trkpt lat="29.248801" lon="105.537931"><ele>391.67242</ele><time>2026-03-23T23:40:59.000Z</time></trkpt>
        <trkpt lat="29.248783" lon="105.537984"><ele>391.11673</ele><time>2026-03-23T23:41:04.000Z</time></trkpt>
        <trkpt lat="29.248758" lon="105.538041"><ele>389.65485</ele><time>2026-03-23T23:41:11.000Z</time></trkpt>
        <trkpt lat="29.248737" lon="105.538084"><ele>388.80844</ele><time>2026-03-23T23:41:16.000Z</time></trkpt>
        <trkpt lat="29.248716" lon="105.538139"><ele>388.2582</ele><time>2026-03-23T23:41:21.000Z</time></trkpt>
        <trkpt lat="29.248692" lon="105.538184"><ele>388.31262</ele><time>2026-03-23T23:41:25.000Z</time></trkpt>
        <trkpt lat="29.248645" lon="105.538208"><ele>387.15176</ele><time>2026-03-23T23:41:33.000Z</time></trkpt>
        <trkpt lat="29.248604" lon="105.538201"><ele>385.93484</ele><time>2026-03-23T23:41:37.000Z</time></trkpt>
        <trkpt lat="29.248559" lon="105.53818"><ele>383.78568</ele><time>2026-03-23T23:41:41.000Z</time></trkpt>
        <trkpt lat="29.248516" lon="105.538139"><ele>382.0728</ele><time>2026-03-23T23:41:47.000Z</time></trkpt>
        <trkpt lat="29.248491" lon="105.538092"><ele>380.53638</ele><time>2026-03-23T23:41:53.000Z</time></trkpt>
        <trkpt lat="29.248505" lon="105.53804"><ele>380.46622</ele><time>2026-03-23T23:41:57.000Z</time></trkpt>
        <trkpt lat="29.248494" lon="105.537981"><ele>382.41766</ele><time>2026-03-23T23:42:10.000Z</time></trkpt>
        <trkpt lat="29.248454" lon="105.537957"><ele>381.6954</ele><time>2026-03-23T23:42:27.000Z</time></trkpt>
        <trkpt lat="29.248418" lon="105.537924"><ele>379.16248</ele><time>2026-03-23T23:44:42.000Z</time></trkpt>
        <trkpt lat="29.248391" lon="105.537905"><ele>379.38345</ele><time>2026-03-23T23:44:47.000Z</time></trkpt>
        <trkpt lat="29.248341" lon="105.537868"><ele>378.7598</ele><time>2026-03-23T23:44:54.000Z</time></trkpt>
        <trkpt lat="29.248306" lon="105.537835"><ele>378.77264</ele><time>2026-03-23T23:44:58.000Z</time></trkpt>
        <trkpt lat="29.248266" lon="105.537793"><ele>378.85443</ele><time>2026-03-23T23:45:04.000Z</time></trkpt>
        <trkpt lat="29.248226" lon="105.537758"><ele>378.2353</ele><time>2026-03-23T23:45:09.000Z</time></trkpt>
        <trkpt lat="29.248184" lon="105.537725"><ele>377.8876</ele><time>2026-03-23T23:45:13.000Z</time></trkpt>
        <trkpt lat="29.248145" lon="105.53769"><ele>378.0748</ele><time>2026-03-23T23:45:17.000Z</time></trkpt>
        <trkpt lat="29.248106" lon="105.53766"><ele>377.50287</ele><time>2026-03-23T23:45:21.000Z</time></trkpt>
        <trkpt lat="29.248063" lon="105.537621"><ele>377.75</ele><time>2026-03-23T23:45:26.000Z</time></trkpt>
        <trkpt lat="29.248026" lon="105.537585"><ele>380.27658</ele><time>2026-03-23T23:46:17.000Z</time></trkpt>
        <trkpt lat="29.247993" lon="105.537549"><ele>381.09732</ele><time>2026-03-23T23:49:51.000Z</time></trkpt>
        <trkpt lat="29.247976" lon="105.537501"><ele>381.00317</ele><time>2026-03-23T23:51:15.000Z</time></trkpt>
        <trkpt lat="29.247978" lon="105.537449"><ele>384.06686</ele><time>2026-03-23T23:51:42.000Z</time></trkpt>
        <trkpt lat="29.247989" lon="105.537394"><ele>384.48886</ele><time>2026-03-23T23:51:53.000Z</time></trkpt>
        <trkpt lat="29.247953" lon="105.537374"><ele>386.2816</ele><time>2026-03-23T23:52:07.000Z</time></trkpt>
        <trkpt lat="29.247911" lon="105.537384"><ele>387.6764</ele><time>2026-03-23T23:52:13.000Z</time></trkpt>
        <trkpt lat="29.247864" lon="105.537375"><ele>388.13647</ele><time>2026-03-23T23:52:19.000Z</time></trkpt>
        <trkpt lat="29.247813" lon="105.537361"><ele>388.0416</ele><time>2026-03-23T23:52:24.000Z</time></trkpt>
        <trkpt lat="29.247761" lon="105.537348"><ele>388.22025</ele><time>2026-03-23T23:52:29.000Z</time></trkpt>
        <trkpt lat="29.247713" lon="105.537335"><ele>388.87595</ele><time>2026-03-23T23:52:34.000Z</time></trkpt>
        <trkpt lat="29.247659" lon="105.537323"><ele>390.2205</ele><time>2026-03-23T23:52:40.000Z</time></trkpt>
        <trkpt lat="29.247613" lon="105.537314"><ele>391.37424</ele><time>2026-03-23T23:52:45.000Z</time></trkpt>
        <trkpt lat="29.247566" lon="105.537289"><ele>392.37567</ele><time>2026-03-23T23:52:50.000Z</time></trkpt>
        <trkpt lat="29.247527" lon="105.537252"><ele>393.021</ele><time>2026-03-23T23:52:55.000Z</time></trkpt>
        <trkpt lat="29.247507" lon="105.537192"><ele>394.42828</ele><time>2026-03-23T23:53:00.000Z</time></trkpt>
        <trkpt lat="29.247538" lon="105.537143"><ele>396.14743</ele><time>2026-03-23T23:53:06.000Z</time></trkpt>
        <trkpt lat="29.247586" lon="105.537124"><ele>397.52045</ele><time>2026-03-23T23:53:11.000Z</time></trkpt>
        <trkpt lat="29.247628" lon="105.537096"><ele>397.4012</ele><time>2026-03-23T23:53:16.000Z</time></trkpt>
        <trkpt lat="29.247675" lon="105.537065"><ele>396.96988</ele><time>2026-03-23T23:53:22.000Z</time></trkpt>
        <trkpt lat="29.247723" lon="105.537055"><ele>397.84302</ele><time>2026-03-23T23:53:28.000Z</time></trkpt>
        <trkpt lat="29.247766" lon="105.53704"><ele>398.10526</ele><time>2026-03-23T23:53:33.000Z</time></trkpt>
        <trkpt lat="29.247809" lon="105.537011"><ele>398.5642</ele><time>2026-03-23T23:53:38.000Z</time></trkpt>
        <trkpt lat="29.247854" lon="105.536971"><ele>398.5664</ele><time>2026-03-23T23:53:44.000Z</time></trkpt>
        <trkpt lat="29.247891" lon="105.53693"><ele>399.72766</ele><time>2026-03-23T23:53:50.000Z</time></trkpt>
        <trkpt lat="29.247919" lon="105.536889"><ele>401.16306</ele><time>2026-03-23T23:53:55.000Z</time></trkpt>
        <trkpt lat="29.247955" lon="105.536847"><ele>402.47626</ele><time>2026-03-23T23:54:01.000Z</time></trkpt>
        <trkpt lat="29.247991" lon="105.536813"><ele>403.2648</ele><time>2026-03-23T23:54:06.000Z</time></trkpt>
        <trkpt lat="29.24803" lon="105.536796"><ele>403.93896</ele><time>2026-03-23T23:54:10.000Z</time></trkpt>
        <trkpt lat="29.248081" lon="105.536786"><ele>404.15082</ele><time>2026-03-23T23:54:15.000Z</time></trkpt>
        <trkpt lat="29.248133" lon="105.536795"><ele>404.19962</ele><time>2026-03-23T23:54:22.000Z</time></trkpt>
        <trkpt lat="29.248179" lon="105.536803"><ele>404.188</ele><time>2026-03-23T23:54:27.000Z</time></trkpt>
        <trkpt lat="29.248226" lon="105.536797"><ele>404.3723</ele><time>2026-03-23T23:54:32.000Z</time></trkpt>
        <trkpt lat="29.248275" lon="105.53677"><ele>404.76517</ele><time>2026-03-23T23:54:37.000Z</time></trkpt>
        <trkpt lat="29.248313" lon="105.536737"><ele>404.94073</ele><time>2026-03-23T23:54:42.000Z</time></trkpt>
        <trkpt lat="29.248355" lon="105.536703"><ele>404.85876</ele><time>2026-03-23T23:54:48.000Z</time></trkpt>
        <trkpt lat="29.248399" lon="105.536685"><ele>404.6806</ele><time>2026-03-23T23:54:54.000Z</time></trkpt>
        <trkpt lat="29.248446" lon="105.536676"><ele>404.4823</ele><time>2026-03-23T23:55:00.000Z</time></trkpt>
        <trkpt lat="29.248497" lon="105.536688"><ele>403.96484</ele><time>2026-03-23T23:55:07.000Z</time></trkpt>
        <trkpt lat="29.24854" lon="105.536697"><ele>403.03198</ele><time>2026-03-23T23:55:13.000Z</time></trkpt>
        <trkpt lat="29.24859" lon="105.536699"><ele>402.29807</ele><time>2026-03-23T23:55:18.000Z</time></trkpt>
        <trkpt lat="29.248643" lon="105.536681"><ele>403.0925</ele><time>2026-03-23T23:55:34.000Z</time></trkpt>
        <trkpt lat="29.248684" lon="105.53668"><ele>403.87878</ele><time>2026-03-23T23:55:40.000Z</time></trkpt>
        <trkpt lat="29.248737" lon="105.536662"><ele>404.26187</ele><time>2026-03-23T23:55:51.000Z</time></trkpt>
        <trkpt lat="29.24878" lon="105.536661"><ele>404.05817</ele><time>2026-03-23T23:55:56.000Z</time></trkpt>
        <trkpt lat="29.248831" lon="105.536653"><ele>403.86618</ele><time>2026-03-23T23:56:01.000Z</time></trkpt>
        <trkpt lat="29.248879" lon="105.536644"><ele>403.9543</ele><time>2026-03-23T23:56:05.000Z</time></trkpt>
        <trkpt lat="29.248932" lon="105.536634"><ele>404.14062</ele><time>2026-03-23T23:56:10.000Z</time></trkpt>
        <trkpt lat="29.248988" lon="105.536622"><ele>404.25528</ele><time>2026-03-23T23:56:15.000Z</time></trkpt>
        <trkpt lat="29.249033" lon="105.53661"><ele>405.65747</ele><time>2026-03-23T23:56:19.000Z</time></trkpt>
        <trkpt lat="29.249085" lon="105.536597"><ele>406.7041</ele><time>2026-03-23T23:56:25.000Z</time></trkpt>
        <trkpt lat="29.249129" lon="105.536575"><ele>407.6579</ele><time>2026-03-23T23:56:30.000Z</time></trkpt>
        <trkpt lat="29.249177" lon="105.536549"><ele>408.44135</ele><time>2026-03-23T23:56:36.000Z</time></trkpt>
        <trkpt lat="29.249212" lon="105.536522"><ele>409.06137</ele><time>2026-03-23T23:56:39.000Z</time></trkpt>
        <trkpt lat="29.249265" lon="105.5365"><ele>410.99463</ele><time>2026-03-23T23:56:48.000Z</time></trkpt>
        <trkpt lat="29.249306" lon="105.536492"><ele>412.0958</ele><time>2026-03-23T23:56:54.000Z</time></trkpt>
        <trkpt lat="29.249347" lon="105.536476"><ele>412.76663</ele><time>2026-03-23T23:56:58.000Z</time></trkpt>
        <trkpt lat="29.249392" lon="105.536439"><ele>413.67114</ele><time>2026-03-23T23:57:07.000Z</time></trkpt>
        <trkpt lat="29.24944" lon="105.536419"><ele>416.85217</ele><time>2026-03-23T23:57:29.000Z</time></trkpt>
        <trkpt lat="29.24948" lon="105.536436"><ele>418.17596</ele><time>2026-03-23T23:57:34.000Z</time></trkpt>
        <trkpt lat="29.249529" lon="105.536449"><ele>418.45435</ele><time>2026-03-23T23:57:39.000Z</time></trkpt>
        <trkpt lat="29.249583" lon="105.53647"><ele>418.00073</ele><time>2026-03-23T23:57:46.000Z</time></trkpt>
        <trkpt lat="29.24962" lon="105.536479"><ele>417.77182</ele><time>2026-03-23T23:57:49.000Z</time></trkpt>
        <trkpt lat="29.249678" lon="105.53647"><ele>418.9432</ele><time>2026-03-23T23:57:56.000Z</time></trkpt>
        <trkpt lat="29.249712" lon="105.53645"><ele>419.41574</ele><time>2026-03-23T23:57:59.000Z</time></trkpt>
        <trkpt lat="29.249762" lon="105.536415"><ele>419.821</ele><time>2026-03-23T23:58:04.000Z</time></trkpt>
        <trkpt lat="29.249805" lon="105.536371"><ele>420.13934</ele><time>2026-03-23T23:58:09.000Z</time></trkpt>
        <trkpt lat="29.249845" lon="105.536334"><ele>420.9449</ele><time>2026-03-23T23:58:14.000Z</time></trkpt>
        <trkpt lat="29.249881" lon="105.536306"><ele>421.8767</ele><time>2026-03-23T23:58:18.000Z</time></trkpt>
        <trkpt lat="29.24992" lon="105.53627"><ele>421.9209</ele><time>2026-03-23T23:58:22.000Z</time></trkpt>
        <trkpt lat="29.249961" lon="105.536231"><ele>422.08383</ele><time>2026-03-23T23:58:27.000Z</time></trkpt>
        <trkpt lat="29.249997" lon="105.536194"><ele>421.99896</ele><time>2026-03-23T23:58:32.000Z</time></trkpt>
        <trkpt lat="29.250031" lon="105.536165"><ele>421.75775</ele><time>2026-03-23T23:58:36.000Z</time></trkpt>
        <trkpt lat="29.250067" lon="105.536135"><ele>422.2049</ele><time>2026-03-23T23:58:40.000Z</time></trkpt>
        <trkpt lat="29.250105" lon="105.536089"><ele>423.42377</ele><time>2026-03-23T23:58:49.000Z</time></trkpt>
        <trkpt lat="29.2501" lon="105.536051"><ele>424.23068</ele><time>2026-03-23T23:58:52.000Z</time></trkpt>
        <trkpt lat="29.250133" lon="105.53602"><ele>425.57114</ele><time>2026-03-23T23:58:58.000Z</time></trkpt>
        <trkpt lat="29.250186" lon="105.536004"><ele>425.86334</ele><time>2026-03-23T23:59:03.000Z</time></trkpt>
        <trkpt lat="29.250245" lon="105.535991"><ele>426.27173</ele><time>2026-03-23T23:59:11.000Z</time></trkpt>
        <trkpt lat="29.250291" lon="105.535977"><ele>427.32074</ele><time>2026-03-23T23:59:17.000Z</time></trkpt>
        <trkpt lat="29.250342" lon="105.535963"><ele>427.3065</ele><time>2026-03-23T23:59:22.000Z</time></trkpt>
        <trkpt lat="29.250391" lon="105.53596"><ele>427.4542</ele><time>2026-03-23T23:59:26.000Z</time></trkpt>
        <trkpt lat="29.250444" lon="105.535953"><ele>427.27975</ele><time>2026-03-23T23:59:31.000Z</time></trkpt>
        <trkpt lat="29.250492" lon="105.53593"><ele>427.66232</ele><time>2026-03-23T23:59:37.000Z</time></trkpt>
        <trkpt lat="29.250529" lon="105.535919"><ele>428.16864</ele><time>2026-03-23T23:59:40.000Z</time></trkpt>
        <trkpt lat="29.250583" lon="105.535898"><ele>428.32523</ele><time>2026-03-23T23:59:45.000Z</time></trkpt>
        <trkpt lat="29.250637" lon="105.535871"><ele>428.88965</ele><time>2026-03-23T23:59:51.000Z</time></trkpt>
        <trkpt lat="29.25068" lon="105.535838"><ele>429.48337</ele><time>2026-03-23T23:59:58.000Z</time></trkpt>
        <trkpt lat="29.250699" lon="105.535793"><ele>429.48047</ele><time>2026-03-24T00:00:03.000Z</time></trkpt>
        <trkpt lat="29.250703" lon="105.535738"><ele>430.95203</ele><time>2026-03-24T00:00:09.000Z</time></trkpt>
        <trkpt lat="29.250679" lon="105.535685"><ele>432.50055</ele><time>2026-03-24T00:00:15.000Z</time></trkpt>
        <trkpt lat="29.250706" lon="105.535663"><ele>432.88953</ele><time>2026-03-24T00:00:20.000Z</time></trkpt>
        <trkpt lat="29.250745" lon="105.535652"><ele>433.20334</ele><time>2026-03-24T00:00:23.000Z</time></trkpt>
        <trkpt lat="29.250792" lon="105.53563"><ele>433.46613</ele><time>2026-03-24T00:00:27.000Z</time></trkpt>
        <trkpt lat="29.250842" lon="105.535603"><ele>434.00598</ele><time>2026-03-24T00:00:31.000Z</time></trkpt>
        <trkpt lat="29.250887" lon="105.535583"><ele>434.20825</ele><time>2026-03-24T00:00:34.000Z</time></trkpt>
        <trkpt lat="29.250936" lon="105.535554"><ele>433.87598</ele><time>2026-03-24T00:00:38.000Z</time></trkpt>
        <trkpt lat="29.250985" lon="105.535523"><ele>433.61777</ele><time>2026-03-24T00:00:43.000Z</time></trkpt>
        <trkpt lat="29.251033" lon="105.535494"><ele>433.44894</ele><time>2026-03-24T00:00:49.000Z</time></trkpt>
        <trkpt lat="29.25108" lon="105.535484"><ele>433.09683</ele><time>2026-03-24T00:00:54.000Z</time></trkpt>
        <trkpt lat="29.25112" lon="105.535468"><ele>431.9297</ele><time>2026-03-24T00:00:58.000Z</time></trkpt>
        <trkpt lat="29.251157" lon="105.535431"><ele>432.31958</ele><time>2026-03-24T00:01:02.000Z</time></trkpt>
        <trkpt lat="29.251181" lon="105.535376"><ele>434.77908</ele><time>2026-03-24T00:01:08.000Z</time></trkpt>
        <trkpt lat="29.251185" lon="105.535317"><ele>436.8556</ele><time>2026-03-24T00:01:14.000Z</time></trkpt>
        <trkpt lat="29.251221" lon="105.535279"><ele>439.09665</ele><time>2026-03-24T00:01:21.000Z</time></trkpt>
        <trkpt lat="29.251252" lon="105.535248"><ele>439.96408</ele><time>2026-03-24T00:01:25.000Z</time></trkpt>
        <trkpt lat="29.251285" lon="105.535195"><ele>440.76404</ele><time>2026-03-24T00:01:37.000Z</time></trkpt>
        <trkpt lat="29.251318" lon="105.535168"><ele>440.99896</ele><time>2026-03-24T00:01:43.000Z</time></trkpt>
        <trkpt lat="29.25136" lon="105.53516"><ele>440.89886</ele><time>2026-03-24T00:01:47.000Z</time></trkpt>
        <trkpt lat="29.251414" lon="105.535148"><ele>439.88098</ele><time>2026-03-24T00:01:52.000Z</time></trkpt>
        <trkpt lat="29.251456" lon="105.53512"><ele>439.93326</ele><time>2026-03-24T00:01:56.000Z</time></trkpt>
        <trkpt lat="29.251497" lon="105.535091"><ele>439.56445</ele><time>2026-03-24T00:02:00.000Z</time></trkpt>
        <trkpt lat="29.251521" lon="105.535043"><ele>439.76428</ele><time>2026-03-24T00:02:05.000Z</time></trkpt>
        <trkpt lat="29.251547" lon="105.534992"><ele>440.2408</ele><time>2026-03-24T00:02:11.000Z</time></trkpt>
        <trkpt lat="29.251556" lon="105.534943"><ele>440.4867</ele><time>2026-03-24T00:02:15.000Z</time></trkpt>
        <trkpt lat="29.251586" lon="105.534886"><ele>441.30783</ele><time>2026-03-24T00:02:20.000Z</time></trkpt>
        <trkpt lat="29.251619" lon="105.534844"><ele>442.09796</ele><time>2026-03-24T00:02:24.000Z</time></trkpt>
        <trkpt lat="29.251661" lon="105.534806"><ele>442.44202</ele><time>2026-03-24T00:02:28.000Z</time></trkpt>
        <trkpt lat="29.251706" lon="105.534771"><ele>443.04077</ele><time>2026-03-24T00:02:32.000Z</time></trkpt>
        <trkpt lat="29.25175" lon="105.534733"><ele>443.02518</ele><time>2026-03-24T00:02:37.000Z</time></trkpt>
        <trkpt lat="29.251799" lon="105.534709"><ele>443.08075</ele><time>2026-03-24T00:02:47.000Z</time></trkpt>
        <trkpt lat="29.251837" lon="105.534684"><ele>442.9207</ele><time>2026-03-24T00:02:53.000Z</time></trkpt>
        <trkpt lat="29.251871" lon="105.534642"><ele>442.61606</ele><time>2026-03-24T00:02:59.000Z</time></trkpt>
        <trkpt lat="29.251914" lon="105.534606"><ele>442.43713</ele><time>2026-03-24T00:03:03.000Z</time></trkpt>
        <trkpt lat="29.251965" lon="105.534571"><ele>442.47333</ele><time>2026-03-24T00:03:08.000Z</time></trkpt>
        <trkpt lat="29.252008" lon="105.534548"><ele>442.77448</ele><time>2026-03-24T00:03:12.000Z</time></trkpt>
        <trkpt lat="29.252045" lon="105.534496"><ele>444.00497</ele><time>2026-03-24T00:03:20.000Z</time></trkpt>
        <trkpt lat="29.252083" lon="105.534451"><ele>444.03986</ele><time>2026-03-24T00:03:28.000Z</time></trkpt>
        <trkpt lat="29.252119" lon="105.534408"><ele>443.73022</ele><time>2026-03-24T00:03:33.000Z</time></trkpt>
        <trkpt lat="29.252139" lon="105.534346"><ele>443.939</ele><time>2026-03-24T00:03:39.000Z</time></trkpt>
        <trkpt lat="29.252174" lon="105.534298"><ele>444.6835</ele><time>2026-03-24T00:03:44.000Z</time></trkpt>
        <trkpt lat="29.2522" lon="105.534261"><ele>445.16956</ele><time>2026-03-24T00:03:47.000Z</time></trkpt>
        <trkpt lat="29.252256" lon="105.534212"><ele>446.34692</ele><time>2026-03-24T00:03:59.000Z</time></trkpt>
        <trkpt lat="29.252254" lon="105.534171"><ele>447.1661</ele><time>2026-03-24T00:04:05.000Z</time></trkpt>
        <trkpt lat="29.252277" lon="105.534133"><ele>447.40427</ele><time>2026-03-24T00:04:09.000Z</time></trkpt>
        <trkpt lat="29.252319" lon="105.53409"><ele>447.7715</ele><time>2026-03-24T00:04:14.000Z</time></trkpt>
        <trkpt lat="29.25237" lon="105.534057"><ele>448.97443</ele><time>2026-03-24T00:04:21.000Z</time></trkpt>
        <trkpt lat="29.252415" lon="105.534039"><ele>448.88205</ele><time>2026-03-24T00:04:25.000Z</time></trkpt>
        <trkpt lat="29.252468" lon="105.534006"><ele>448.58536</ele><time>2026-03-24T00:04:31.000Z</time></trkpt>
        <trkpt lat="29.25251" lon="105.533962"><ele>448.50485</ele><time>2026-03-24T00:04:36.000Z</time></trkpt>
        <trkpt lat="29.252556" lon="105.533926"><ele>448.72894</ele><time>2026-03-24T00:04:42.000Z</time></trkpt>
        <trkpt lat="29.252601" lon="105.533898"><ele>449.42053</ele><time>2026-03-24T00:04:47.000Z</time></trkpt>
        <trkpt lat="29.252652" lon="105.533888"><ele>450.12967</ele><time>2026-03-24T00:04:55.000Z</time></trkpt>
        <trkpt lat="29.252701" lon="105.533879"><ele>449.53217</ele><time>2026-03-24T00:05:06.000Z</time></trkpt>
        <trkpt lat="29.252747" lon="105.533879"><ele>448.8103</ele><time>2026-03-24T00:05:13.000Z</time></trkpt>
        <trkpt lat="29.2528" lon="105.53387"><ele>448.91638</ele><time>2026-03-24T00:05:23.000Z</time></trkpt>
        <trkpt lat="29.252844" lon="105.533878"><ele>449.0449</ele><time>2026-03-24T00:05:28.000Z</time></trkpt>
        <trkpt lat="29.252892" lon="105.533889"><ele>448.5376</ele><time>2026-03-24T00:05:33.000Z</time></trkpt>
        <trkpt lat="29.252929" lon="105.533923"><ele>447.68326</ele><time>2026-03-24T00:05:38.000Z</time></trkpt>
        <trkpt lat="29.25297" lon="105.533959"><ele>447.30148</ele><time>2026-03-24T00:05:43.000Z</time></trkpt>
        <trkpt lat="29.253015" lon="105.533984"><ele>446.90826</ele><time>2026-03-24T00:05:48.000Z</time></trkpt>
        <trkpt lat="29.25306" lon="105.533997"><ele>446.62045</ele><time>2026-03-24T00:05:53.000Z</time></trkpt>
        <trkpt lat="29.253112" lon="105.534001"><ele>446.26495</ele><time>2026-03-24T00:06:01.000Z</time></trkpt>
        <trkpt lat="29.253156" lon="105.53398"><ele>446.97275</ele><time>2026-03-24T00:06:07.000Z</time></trkpt>
        <trkpt lat="29.253202" lon="105.533955"><ele>447.27625</ele><time>2026-03-24T00:06:12.000Z</time></trkpt>
        <trkpt lat="29.253242" lon="105.533909"><ele>446.39984</ele><time>2026-03-24T00:06:20.000Z</time></trkpt>
        <trkpt lat="29.253281" lon="105.533867"><ele>446.0815</ele><time>2026-03-24T00:06:30.000Z</time></trkpt>
        <trkpt lat="29.253315" lon="105.533835"><ele>445.6315</ele><time>2026-03-24T00:06:37.000Z</time></trkpt>
        <trkpt lat="29.253344" lon="105.533795"><ele>445.1799</ele><time>2026-03-24T00:06:43.000Z</time></trkpt>
        <trkpt lat="29.25338" lon="105.533754"><ele>444.2287</ele><time>2026-03-24T00:06:49.000Z</time></trkpt>
        <trkpt lat="29.253421" lon="105.533733"><ele>443.35577</ele><time>2026-03-24T00:06:54.000Z</time></trkpt>
        <trkpt lat="29.253467" lon="105.533702"><ele>441.9667</ele><time>2026-03-24T00:07:00.000Z</time></trkpt>
        <trkpt lat="29.253504" lon="105.533683"><ele>441.786</ele><time>2026-03-24T00:07:03.000Z</time></trkpt>
        <trkpt lat="29.253548" lon="105.533645"><ele>440.6306</ele><time>2026-03-24T00:07:08.000Z</time></trkpt>
        <trkpt lat="29.253572" lon="105.533601"><ele>440.00717</ele><time>2026-03-24T00:07:12.000Z</time></trkpt>
        <trkpt lat="29.253581" lon="105.533532"><ele>438.97263</ele><time>2026-03-24T00:07:20.000Z</time></trkpt>
        <trkpt lat="29.253591" lon="105.533479"><ele>439.74625</ele><time>2026-03-24T00:07:26.000Z</time></trkpt>
        <trkpt lat="29.253608" lon="105.533422"><ele>439.69418</ele><time>2026-03-24T00:07:35.000Z</time></trkpt>
        <trkpt lat="29.253608" lon="105.533369"><ele>439.85654</ele><time>2026-03-24T00:07:43.000Z</time></trkpt>
        <trkpt lat="29.25361" lon="105.533308"><ele>437.84744</ele><time>2026-03-24T00:07:56.000Z</time></trkpt>
        <trkpt lat="29.253593" lon="105.533256"><ele>436.55646</ele><time>2026-03-24T00:08:04.000Z</time></trkpt>
        <trkpt lat="29.253582" lon="105.533211"><ele>435.6177</ele><time>2026-03-24T00:08:08.000Z</time></trkpt>
        <trkpt lat="29.253561" lon="105.533165"><ele>435.80884</ele><time>2026-03-24T00:08:12.000Z</time></trkpt>
        <trkpt lat="29.253524" lon="105.533131"><ele>436.14233</ele><time>2026-03-24T00:08:16.000Z</time></trkpt>
        <trkpt lat="29.253479" lon="105.53309"><ele>437.1751</ele><time>2026-03-24T00:08:21.000Z</time></trkpt>
        <trkpt lat="29.253437" lon="105.533045"><ele>438.188</ele><time>2026-03-24T00:08:27.000Z</time></trkpt>
        <trkpt lat="29.253397" lon="105.533018"><ele>440.119</ele><time>2026-03-24T00:08:32.000Z</time></trkpt>
        <trkpt lat="29.253356" lon="105.532982"><ele>441.46158</ele><time>2026-03-24T00:08:37.000Z</time></trkpt>
        <trkpt lat="29.25333" lon="105.532937"><ele>443.5932</ele><time>2026-03-24T00:08:41.000Z</time></trkpt>
        <trkpt lat="29.253321" lon="105.532876"><ele>446.53027</ele><time>2026-03-24T00:08:47.000Z</time></trkpt>
        <trkpt lat="29.253329" lon="105.532819"><ele>447.11676</ele><time>2026-03-24T00:08:52.000Z</time></trkpt>
        <trkpt lat="29.253339" lon="105.532757"><ele>448.09106</ele><time>2026-03-24T00:08:58.000Z</time></trkpt>
        <trkpt lat="29.253353" lon="105.532707"><ele>448.39014</ele><time>2026-03-24T00:09:03.000Z</time></trkpt>
        <trkpt lat="29.253368" lon="105.532649"><ele>446.85843</ele><time>2026-03-24T00:09:09.000Z</time></trkpt>
        <trkpt lat="29.253355" lon="105.532594"><ele>446.7807</ele><time>2026-03-24T00:09:14.000Z</time></trkpt>
        <trkpt lat="29.25333" lon="105.532543"><ele>446.52115</ele><time>2026-03-24T00:09:19.000Z</time></trkpt>
        <trkpt lat="29.253298" lon="105.5325"><ele>445.66858</ele><time>2026-03-24T00:09:24.000Z</time></trkpt>
        <trkpt lat="29.253267" lon="105.532461"><ele>444.43378</ele><time>2026-03-24T00:09:28.000Z</time></trkpt>
        <trkpt lat="29.253237" lon="105.532402"><ele>442.42804</ele><time>2026-03-24T00:09:33.000Z</time></trkpt>
        <trkpt lat="29.25322" lon="105.53235"><ele>439.90582</ele><time>2026-03-24T00:09:37.000Z</time></trkpt>
        <trkpt lat="29.253213" lon="105.532293"><ele>438.40686</ele><time>2026-03-24T00:09:41.000Z</time></trkpt>
        <trkpt lat="29.253201" lon="105.532237"><ele>436.6793</ele><time>2026-03-24T00:09:46.000Z</time></trkpt>
        <trkpt lat="29.253188" lon="105.532189"><ele>434.05975</ele><time>2026-03-24T00:09:50.000Z</time></trkpt>
        <trkpt lat="29.253197" lon="105.532136"><ele>430.68942</ele><time>2026-03-24T00:09:55.000Z</time></trkpt>
        <trkpt lat="29.253208" lon="105.532075"><ele>429.59586</ele><time>2026-03-24T00:10:00.000Z</time></trkpt>
        <trkpt lat="29.253226" lon="105.532015"><ele>429.5871</ele><time>2026-03-24T00:10:06.000Z</time></trkpt>
        <trkpt lat="29.253252" lon="105.531968"><ele>429.34128</ele><time>2026-03-24T00:10:10.000Z</time></trkpt>
        <trkpt lat="29.253288" lon="105.531914"><ele>428.11044</ele><time>2026-03-24T00:10:16.000Z</time></trkpt>
        <trkpt lat="29.253328" lon="105.531888"><ele>426.49216</ele><time>2026-03-24T00:10:20.000Z</time></trkpt>
        <trkpt lat="29.253362" lon="105.531847"><ele>427.16336</ele><time>2026-03-24T00:10:24.000Z</time></trkpt>
        <trkpt lat="29.253399" lon="105.531802"><ele>428.39243</ele><time>2026-03-24T00:10:29.000Z</time></trkpt>
        <trkpt lat="29.253428" lon="105.531763"><ele>429.64545</ele><time>2026-03-24T00:10:33.000Z</time></trkpt>
        <trkpt lat="29.253453" lon="105.531718"><ele>431.44543</ele><time>2026-03-24T00:10:37.000Z</time></trkpt>
        <trkpt lat="29.25347" lon="105.53166"><ele>433.10944</ele><time>2026-03-24T00:10:42.000Z</time></trkpt>
        <trkpt lat="29.253483" lon="105.531597"><ele>434.3409</ele><time>2026-03-24T00:10:48.000Z</time></trkpt>
        <trkpt lat="29.253499" lon="105.531542"><ele>435.55472</ele><time>2026-03-24T00:10:53.000Z</time></trkpt>
        <trkpt lat="29.253519" lon="105.531478"><ele>436.9034</ele><time>2026-03-24T00:10:59.000Z</time></trkpt>
        <trkpt lat="29.253538" lon="105.53142"><ele>437.32675</ele><time>2026-03-24T00:11:04.000Z</time></trkpt>
        <trkpt lat="29.253565" lon="105.531365"><ele>437.72858</ele><time>2026-03-24T00:11:11.000Z</time></trkpt>
        <trkpt lat="29.253595" lon="105.531319"><ele>438.43387</ele><time>2026-03-24T00:11:17.000Z</time></trkpt>
        <trkpt lat="29.253648" lon="105.531308"><ele>440.02225</ele><time>2026-03-24T00:11:23.000Z</time></trkpt>
        <trkpt lat="29.253707" lon="105.531313"><ele>440.7851</ele><time>2026-03-24T00:11:32.000Z</time></trkpt>
        <trkpt lat="29.25375" lon="105.531298"><ele>440.8406</ele><time>2026-03-24T00:11:39.000Z</time></trkpt>
        <trkpt lat="29.253793" lon="105.531296"><ele>440.64957</ele><time>2026-03-24T00:11:44.000Z</time></trkpt>
        <trkpt lat="29.25383" lon="105.53127"><ele>440.62125</ele><time>2026-03-24T00:11:49.000Z</time></trkpt>
        <trkpt lat="29.253881" lon="105.531217"><ele>441.34155</ele><time>2026-03-24T00:11:58.000Z</time></trkpt>
        <trkpt lat="29.253909" lon="105.531166"><ele>442.42764</ele><time>2026-03-24T00:12:03.000Z</time></trkpt>
        <trkpt lat="29.253933" lon="105.531107"><ele>442.52295</ele><time>2026-03-24T00:12:07.000Z</time></trkpt>
        <trkpt lat="29.253953" lon="105.531038"><ele>442.7374</ele><time>2026-03-24T00:12:13.000Z</time></trkpt>
        <trkpt lat="29.253967" lon="105.530984"><ele>443.1838</ele><time>2026-03-24T00:12:20.000Z</time></trkpt>
        <trkpt lat="29.253981" lon="105.530935"><ele>444.4147</ele><time>2026-03-24T00:12:33.000Z</time></trkpt>
        <trkpt lat="29.253973" lon="105.530885"><ele>444.88828</ele><time>2026-03-24T00:12:41.000Z</time></trkpt>
        <trkpt lat="29.254001" lon="105.530839"><ele>445.27277</ele><time>2026-03-24T00:12:48.000Z</time></trkpt>
        <trkpt lat="29.254034" lon="105.530798"><ele>446.5509</ele><time>2026-03-24T00:12:55.000Z</time></trkpt>
        <trkpt lat="29.254056" lon="105.530745"><ele>446.5777</ele><time>2026-03-24T00:13:04.000Z</time></trkpt>
        <trkpt lat="29.254076" lon="105.530705"><ele>446.96594</ele><time>2026-03-24T00:13:09.000Z</time></trkpt>
        <trkpt lat="29.254105" lon="105.530658"><ele>447.96735</ele><time>2026-03-24T00:13:15.000Z</time></trkpt>
        <trkpt lat="29.254127" lon="105.530606"><ele>449.54987</ele><time>2026-03-24T00:13:22.000Z</time></trkpt>
        <trkpt lat="29.25413" lon="105.53055"><ele>450.61676</ele><time>2026-03-24T00:13:28.000Z</time></trkpt>
        <trkpt lat="29.254125" lon="105.530491"><ele>452.89957</ele><time>2026-03-24T00:13:35.000Z</time></trkpt>
        <trkpt lat="29.254124" lon="105.530435"><ele>455.62814</ele><time>2026-03-24T00:13:41.000Z</time></trkpt>
        <trkpt lat="29.254136" lon="105.530382"><ele>457.41278</ele><time>2026-03-24T00:13:47.000Z</time></trkpt>
        <trkpt lat="29.254163" lon="105.530336"><ele>458.43893</ele><time>2026-03-24T00:13:53.000Z</time></trkpt>
        <trkpt lat="29.254196" lon="105.530293"><ele>459.08444</ele><time>2026-03-24T00:13:59.000Z</time></trkpt>
        <trkpt lat="29.254224" lon="105.530243"><ele>458.72794</ele><time>2026-03-24T00:14:04.000Z</time></trkpt>
        <trkpt lat="29.254253" lon="105.530193"><ele>458.73856</ele><time>2026-03-24T00:14:08.000Z</time></trkpt>
        <trkpt lat="29.254274" lon="105.530128"><ele>458.38586</ele><time>2026-03-24T00:14:13.000Z</time></trkpt>
        <trkpt lat="29.254286" lon="105.53007"><ele>458.4902</ele><time>2026-03-24T00:14:18.000Z</time></trkpt>
        <trkpt lat="29.25429" lon="105.530004"><ele>460.07794</ele><time>2026-03-24T00:14:24.000Z</time></trkpt>
        <trkpt lat="29.254261" lon="105.529954"><ele>462.05286</ele><time>2026-03-24T00:14:36.000Z</time></trkpt>
        <trkpt lat="29.254219" lon="105.529932"><ele>464.77744</ele><time>2026-03-24T00:14:46.000Z</time></trkpt>
        <trkpt lat="29.254206" lon="105.529875"><ele>464.9612</ele><time>2026-03-24T00:14:58.000Z</time></trkpt>
        <trkpt lat="29.254186" lon="105.529832"><ele>465.961</ele><time>2026-03-24T00:15:05.000Z</time></trkpt>
        <trkpt lat="29.254167" lon="105.529782"><ele>466.5053</ele><time>2026-03-24T00:15:10.000Z</time></trkpt>
        <trkpt lat="29.254142" lon="105.529733"><ele>466.85748</ele><time>2026-03-24T00:15:15.000Z</time></trkpt>
        <trkpt lat="29.2541" lon="105.529704"><ele>466.6914</ele><time>2026-03-24T00:15:22.000Z</time></trkpt>
        <trkpt lat="29.25405" lon="105.529691"><ele>465.82727</ele><time>2026-03-24T00:15:29.000Z</time></trkpt>
        <trkpt lat="29.254003" lon="105.529707"><ele>465.96954</ele><time>2026-03-24T00:15:35.000Z</time></trkpt>
        <trkpt lat="29.253955" lon="105.529719"><ele>466.87604</ele><time>2026-03-24T00:15:42.000Z</time></trkpt>
        <trkpt lat="29.253907" lon="105.529732"><ele>467.87988</ele><time>2026-03-24T00:15:50.000Z</time></trkpt>
        <trkpt lat="29.253856" lon="105.529731"><ele>467.47748</ele><time>2026-03-24T00:16:01.000Z</time></trkpt>
        <trkpt lat="29.253806" lon="105.529731"><ele>469.09344</ele><time>2026-03-24T00:16:13.000Z</time></trkpt>
        <trkpt lat="29.253845" lon="105.529702"><ele>470.25665</ele><time>2026-03-24T00:16:25.000Z</time></trkpt>
        <trkpt lat="29.253895" lon="105.529682"><ele>470.30643</ele><time>2026-03-24T00:16:32.000Z</time></trkpt>
        <trkpt lat="29.253945" lon="105.529663"><ele>469.81415</ele><time>2026-03-24T00:16:51.000Z</time></trkpt>
        <trkpt lat="29.253981" lon="105.529649"><ele>469.8891</ele><time>2026-03-24T00:16:58.000Z</time></trkpt>
        <trkpt lat="29.254028" lon="105.529634"><ele>469.85468</ele><time>2026-03-24T00:17:04.000Z</time></trkpt>
        <trkpt lat="29.254074" lon="105.529621"><ele>469.4194</ele><time>2026-03-24T00:17:10.000Z</time></trkpt>
        <trkpt lat="29.254127" lon="105.529611"><ele>468.61813</ele><time>2026-03-24T00:18:01.000Z</time></trkpt>
        <trkpt lat="29.254173" lon="105.529594"><ele>469.13312</ele><time>2026-03-24T00:18:20.000Z</time></trkpt>
        <trkpt lat="29.254223" lon="105.52959"><ele>468.5738</ele><time>2026-03-24T00:19:09.000Z</time></trkpt>
        <trkpt lat="29.254256" lon="105.529574"><ele>468.32233</ele><time>2026-03-24T00:19:16.000Z</time></trkpt>
        <trkpt lat="29.25431" lon="105.529553"><ele>468.69458</ele><time>2026-03-24T00:19:22.000Z</time></trkpt>
        <trkpt lat="29.254365" lon="105.529536"><ele>468.36783</ele><time>2026-03-24T00:19:29.000Z</time></trkpt>
        <trkpt lat="29.254418" lon="105.529518"><ele>468.2526</ele><time>2026-03-24T00:19:42.000Z</time></trkpt>
        <trkpt lat="29.254458" lon="105.529502"><ele>468.22705</ele><time>2026-03-24T00:19:48.000Z</time></trkpt>
        <trkpt lat="29.254506" lon="105.529486"><ele>468.80923</ele><time>2026-03-24T00:19:53.000Z</time></trkpt>
        <trkpt lat="29.254556" lon="105.529469"><ele>469.13666</ele><time>2026-03-24T00:19:58.000Z</time></trkpt>
        <trkpt lat="29.254607" lon="105.529452"><ele>469.4135</ele><time>2026-03-24T00:20:03.000Z</time></trkpt>
        <trkpt lat="29.254658" lon="105.529436"><ele>470.18323</ele><time>2026-03-24T00:20:08.000Z</time></trkpt>
        <trkpt lat="29.254674" lon="105.529377"><ele>470.3843</ele><time>2026-03-24T00:20:19.000Z</time></trkpt>
        <trkpt lat="29.254646" lon="105.529333"><ele>470.09363</ele><time>2026-03-24T00:20:24.000Z</time></trkpt>
        <trkpt lat="29.25463" lon="105.529275"><ele>470.795</ele><time>2026-03-24T00:20:32.000Z</time></trkpt>
        <trkpt lat="29.25466" lon="105.529234"><ele>471.3415</ele><time>2026-03-24T00:20:38.000Z</time></trkpt>
        <trkpt lat="29.254693" lon="105.529186"><ele>471.07376</ele><time>2026-03-24T00:20:43.000Z</time></trkpt>
        <trkpt lat="29.254737" lon="105.529152"><ele>471.69852</ele><time>2026-03-24T00:20:49.000Z</time></trkpt>
        <trkpt lat="29.254792" lon="105.529137"><ele>472.70105</ele><time>2026-03-24T00:20:55.000Z</time></trkpt>
        <trkpt lat="29.254832" lon="105.529114"><ele>472.76285</ele><time>2026-03-24T00:20:59.000Z</time></trkpt>
        <trkpt lat="29.254875" lon="105.52909"><ele>472.8324</ele><time>2026-03-24T00:21:03.000Z</time></trkpt>
        <trkpt lat="29.254923" lon="105.529064"><ele>473.57462</ele><time>2026-03-24T00:21:08.000Z</time></trkpt>
        <trkpt lat="29.254974" lon="105.529046"><ele>474.7713</ele><time>2026-03-24T00:21:15.000Z</time></trkpt>
        <trkpt lat="29.255015" lon="105.529048"><ele>475.73428</ele><time>2026-03-24T00:21:20.000Z</time></trkpt>
        <trkpt lat="29.255062" lon="105.529057"><ele>476.46732</ele><time>2026-03-24T00:21:26.000Z</time></trkpt>
        <trkpt lat="29.255115" lon="105.529051"><ele>476.28293</ele><time>2026-03-24T00:21:33.000Z</time></trkpt>
        <trkpt lat="29.255165" lon="105.52903"><ele>475.10355</ele><time>2026-03-24T00:21:40.000Z</time></trkpt>
        <trkpt lat="29.255204" lon="105.529016"><ele>474.63602</ele><time>2026-03-24T00:21:44.000Z</time></trkpt>
        <trkpt lat="29.255255" lon="105.52899"><ele>473.6583</ele><time>2026-03-24T00:21:50.000Z</time></trkpt>
        <trkpt lat="29.255297" lon="105.528967"><ele>473.49026</ele><time>2026-03-24T00:21:54.000Z</time></trkpt>
        <trkpt lat="29.25534" lon="105.528961"><ele>474.04938</ele><time>2026-03-24T00:21:59.000Z</time></trkpt>
        <trkpt lat="29.255391" lon="105.528967"><ele>474.5224</ele><time>2026-03-24T00:22:04.000Z</time></trkpt>
        <trkpt lat="29.255445" lon="105.52896"><ele>475.21255</ele><time>2026-03-24T00:22:09.000Z</time></trkpt>
        <trkpt lat="29.255499" lon="105.528952"><ele>475.8341</ele><time>2026-03-24T00:22:14.000Z</time></trkpt>
        <trkpt lat="29.255545" lon="105.528966"><ele>475.3904</ele><time>2026-03-24T00:22:18.000Z</time></trkpt>
        <trkpt lat="29.255596" lon="105.528967"><ele>475.50128</ele><time>2026-03-24T00:22:23.000Z</time></trkpt>
        <trkpt lat="29.255653" lon="105.528955"><ele>476.61606</ele><time>2026-03-24T00:22:28.000Z</time></trkpt>
        <trkpt lat="29.255706" lon="105.528948"><ele>476.43845</ele><time>2026-03-24T00:22:33.000Z</time></trkpt>
        <trkpt lat="29.255756" lon="105.528942"><ele>475.95557</ele><time>2026-03-24T00:22:38.000Z</time></trkpt>
        <trkpt lat="29.255802" lon="105.528939"><ele>474.82114</ele><time>2026-03-24T00:22:42.000Z</time></trkpt>
        <trkpt lat="29.255848" lon="105.528947"><ele>474.0865</ele><time>2026-03-24T00:22:46.000Z</time></trkpt>
        <trkpt lat="29.255887" lon="105.528973"><ele>473.56073</ele><time>2026-03-24T00:22:50.000Z</time></trkpt>
        <trkpt lat="29.255927" lon="105.529006"><ele>473.6834</ele><time>2026-03-24T00:22:54.000Z</time></trkpt>
        <trkpt lat="29.25598" lon="105.529039"><ele>474.27957</ele><time>2026-03-24T00:22:59.000Z</time></trkpt>
        <trkpt lat="29.256017" lon="105.529092"><ele>474.44833</ele><time>2026-03-24T00:23:06.000Z</time></trkpt>
        <trkpt lat="29.256057" lon="105.529113"><ele>474.9008</ele><time>2026-03-24T00:23:11.000Z</time></trkpt>
        <trkpt lat="29.256106" lon="105.529106"><ele>474.1693</ele><time>2026-03-24T00:23:18.000Z</time></trkpt>
        <trkpt lat="29.256152" lon="105.529108"><ele>475.46463</ele><time>2026-03-24T00:23:23.000Z</time></trkpt>
        <trkpt lat="29.256192" lon="105.529109"><ele>476.29565</ele><time>2026-03-24T00:23:26.000Z</time></trkpt>
        <trkpt lat="29.256244" lon="105.529093"><ele>476.1312</ele><time>2026-03-24T00:23:30.000Z</time></trkpt>
        <trkpt lat="29.256291" lon="105.529066"><ele>475.81216</ele><time>2026-03-24T00:23:34.000Z</time></trkpt>
        <trkpt lat="29.256336" lon="105.529047"><ele>475.13</ele><time>2026-03-24T00:23:38.000Z</time></trkpt>
        <trkpt lat="29.256389" lon="105.529034"><ele>477.39355</ele><time>2026-03-24T00:23:51.000Z</time></trkpt>
        <trkpt lat="29.256436" lon="105.529038"><ele>477.91403</ele><time>2026-03-24T00:23:57.000Z</time></trkpt>
        <trkpt lat="29.256481" lon="105.529046"><ele>476.732</ele><time>2026-03-24T00:24:01.000Z</time></trkpt>
        <trkpt lat="29.256531" lon="105.529043"><ele>476.95212</ele><time>2026-03-24T00:24:05.000Z</time></trkpt>
        <trkpt lat="29.256587" lon="105.529041"><ele>476.00726</ele><time>2026-03-24T00:24:09.000Z</time></trkpt>
        <trkpt lat="29.25663" lon="105.529064"><ele>475.02118</ele><time>2026-03-24T00:24:13.000Z</time></trkpt>
        <trkpt lat="29.256686" lon="105.529087"><ele>475.31766</ele><time>2026-03-24T00:24:20.000Z</time></trkpt>
        <trkpt lat="29.25672" lon="105.529127"><ele>476.5303</ele><time>2026-03-24T00:24:27.000Z</time></trkpt>
        <trkpt lat="29.256741" lon="105.529175"><ele>477.52603</ele><time>2026-03-24T00:24:33.000Z</time></trkpt>
        <trkpt lat="29.256791" lon="105.529201"><ele>478.21283</ele><time>2026-03-24T00:24:39.000Z</time></trkpt>
        <trkpt lat="29.25685" lon="105.529191"><ele>480.37497</ele><time>2026-03-24T00:24:47.000Z</time></trkpt>
        <trkpt lat="29.256901" lon="105.52917"><ele>478.6663</ele><time>2026-03-24T00:24:54.000Z</time></trkpt>
        <trkpt lat="29.256927" lon="105.529139"><ele>478.66412</ele><time>2026-03-24T00:24:57.000Z</time></trkpt>
        <trkpt lat="29.256958" lon="105.529095"><ele>478.77786</ele><time>2026-03-24T00:25:00.000Z</time></trkpt>
        <trkpt lat="29.256972" lon="105.529025"><ele>479.797</ele><time>2026-03-24T00:25:07.000Z</time></trkpt>
        <trkpt lat="29.256969" lon="105.528969"><ele>479.49225</ele><time>2026-03-24T00:25:11.000Z</time></trkpt>
        <trkpt lat="29.256949" lon="105.528907"><ele>477.5155</ele><time>2026-03-24T00:25:18.000Z</time></trkpt>
        <trkpt lat="29.256928" lon="105.528864"><ele>475.39462</ele><time>2026-03-24T00:25:23.000Z</time></trkpt>
        <trkpt lat="29.256905" lon="105.528828"><ele>474.84082</ele><time>2026-03-24T00:25:26.000Z</time></trkpt>
        <trkpt lat="29.256875" lon="105.528776"><ele>474.19073</ele><time>2026-03-24T00:25:30.000Z</time></trkpt>
        <trkpt lat="29.256889" lon="105.528724"><ele>473.0866</ele><time>2026-03-24T00:25:35.000Z</time></trkpt>
        <trkpt lat="29.256931" lon="105.528688"><ele>472.65616</ele><time>2026-03-24T00:25:40.000Z</time></trkpt>
        <trkpt lat="29.256984" lon="105.528676"><ele>472.67184</ele><time>2026-03-24T00:25:45.000Z</time></trkpt>
        <trkpt lat="29.257035" lon="105.528668"><ele>473.0192</ele><time>2026-03-24T00:25:49.000Z</time></trkpt>
        <trkpt lat="29.257084" lon="105.528656"><ele>472.74573</ele><time>2026-03-24T00:25:53.000Z</time></trkpt>
        <trkpt lat="29.257143" lon="105.528647"><ele>471.4056</ele><time>2026-03-24T00:26:00.000Z</time></trkpt>
        <trkpt lat="29.257193" lon="105.52865"><ele>470.628</ele><time>2026-03-24T00:26:06.000Z</time></trkpt>
        <trkpt lat="29.257235" lon="105.528657"><ele>470.92786</ele><time>2026-03-24T00:26:10.000Z</time></trkpt>
        <trkpt lat="29.257287" lon="105.528654"><ele>472.33435</ele><time>2026-03-24T00:26:14.000Z</time></trkpt>
        <trkpt lat="29.257337" lon="105.528621"><ele>474.4586</ele><time>2026-03-24T00:26:19.000Z</time></trkpt>
        <trkpt lat="29.25734" lon="105.528565"><ele>475.55295</ele><time>2026-03-24T00:26:24.000Z</time></trkpt>
        <trkpt lat="29.257294" lon="105.528511"><ele>474.94434</ele><time>2026-03-24T00:26:34.000Z</time></trkpt>
        <trkpt lat="29.257254" lon="105.528482"><ele>474.86703</ele><time>2026-03-24T00:26:38.000Z</time></trkpt>
        <trkpt lat="29.257203" lon="105.528449"><ele>473.9347</ele><time>2026-03-24T00:26:45.000Z</time></trkpt>
        <trkpt lat="29.257166" lon="105.52842"><ele>474.06577</ele><time>2026-03-24T00:26:50.000Z</time></trkpt>
        <trkpt lat="29.25713" lon="105.528381"><ele>473.0982</ele><time>2026-03-24T00:26:57.000Z</time></trkpt>
        <trkpt lat="29.257104" lon="105.528341"><ele>472.48724</ele><time>2026-03-24T00:27:02.000Z</time></trkpt>
        <trkpt lat="29.257089" lon="105.528286"><ele>471.848</ele><time>2026-03-24T00:27:08.000Z</time></trkpt>
        <trkpt lat="29.257096" lon="105.528226"><ele>471.2587</ele><time>2026-03-24T00:27:15.000Z</time></trkpt>
        <trkpt lat="29.257127" lon="105.528176"><ele>470.69873</ele><time>2026-03-24T00:27:21.000Z</time></trkpt>
        <trkpt lat="29.257154" lon="105.528116"><ele>470.58002</ele><time>2026-03-24T00:27:27.000Z</time></trkpt>
        <trkpt lat="29.257187" lon="105.528069"><ele>471.10797</ele><time>2026-03-24T00:27:34.000Z</time></trkpt>
        <trkpt lat="29.257189" lon="105.528067"><ele>471.32886</ele><time>2026-03-24T00:27:35.000Z</time></trkpt>
        <trkpt lat="29.257193" lon="105.528065"><ele>471.45734</ele><time>2026-03-24T00:27:36.000Z</time></trkpt>
        <trkpt lat="29.257195" lon="105.528064"><ele>471.4969</ele><time>2026-03-24T00:27:37.000Z</time></trkpt>
        <trkpt lat="29.257198" lon="105.528065"><ele>471.56033</ele><time>2026-03-24T00:27:38.000Z</time></trkpt>
        <trkpt lat="29.257207" lon="105.528068"><ele>471.6502</ele><time>2026-03-24T00:27:40.000Z</time></trkpt>
        <trkpt lat="29.257258" lon="105.528091"><ele>474.37076</ele><time>2026-03-24T00:27:49.000Z</time></trkpt>
        <trkpt lat="29.257305" lon="105.528093"><ele>475.1222</ele><time>2026-03-24T00:27:56.000Z</time></trkpt>
        <trkpt lat="29.257341" lon="105.528075"><ele>475.81277</ele><time>2026-03-24T00:28:00.000Z</time></trkpt>
        <trkpt lat="29.257382" lon="105.528035"><ele>476.48758</ele><time>2026-03-24T00:28:05.000Z</time></trkpt>
        <trkpt lat="29.257427" lon="105.528019"><ele>476.83676</ele><time>2026-03-24T00:28:09.000Z</time></trkpt>
        <trkpt lat="29.257479" lon="105.527999"><ele>477.31046</ele><time>2026-03-24T00:28:14.000Z</time></trkpt>
        <trkpt lat="29.257525" lon="105.527979"><ele>476.61435</ele><time>2026-03-24T00:28:18.000Z</time></trkpt>
        <trkpt lat="29.257581" lon="105.527961"><ele>476.66064</ele><time>2026-03-24T00:28:23.000Z</time></trkpt>
        <trkpt lat="29.257633" lon="105.527951"><ele>476.64944</ele><time>2026-03-24T00:28:27.000Z</time></trkpt>
        <trkpt lat="29.257686" lon="105.52794"><ele>475.93558</ele><time>2026-03-24T00:28:32.000Z</time></trkpt>
        <trkpt lat="29.257731" lon="105.52792"><ele>475.98883</ele><time>2026-03-24T00:28:36.000Z</time></trkpt>
        <trkpt lat="29.257789" lon="105.527907"><ele>475.71542</ele><time>2026-03-24T00:28:41.000Z</time></trkpt>
        <trkpt lat="29.257831" lon="105.527888"><ele>475.05588</ele><time>2026-03-24T00:28:45.000Z</time></trkpt>
        <trkpt lat="29.257876" lon="105.527867"><ele>474.47952</ele><time>2026-03-24T00:28:49.000Z</time></trkpt>
        <trkpt lat="29.25793" lon="105.527842"><ele>474.3792</ele><time>2026-03-24T00:28:54.000Z</time></trkpt>
        <trkpt lat="29.257979" lon="105.527822"><ele>474.43906</ele><time>2026-03-24T00:28:58.000Z</time></trkpt>
        <trkpt lat="29.258032" lon="105.527791"><ele>472.81165</ele><time>2026-03-24T00:29:04.000Z</time></trkpt>
        <trkpt lat="29.258075" lon="105.527774"><ele>471.92328</ele><time>2026-03-24T00:29:08.000Z</time></trkpt>
        <trkpt lat="29.258131" lon="105.527761"><ele>473.7128</ele><time>2026-03-24T00:29:13.000Z</time></trkpt>
        <trkpt lat="29.258186" lon="105.52775"><ele>474.75656</ele><time>2026-03-24T00:29:18.000Z</time></trkpt>
        <trkpt lat="29.258229" lon="105.527727"><ele>475.34537</ele><time>2026-03-24T00:29:23.000Z</time></trkpt>
        <trkpt lat="29.258284" lon="105.527717"><ele>474.32605</ele><time>2026-03-24T00:29:31.000Z</time></trkpt>
        <trkpt lat="29.25832" lon="105.527719"><ele>474.84384</ele><time>2026-03-24T00:29:34.000Z</time></trkpt>
        <trkpt lat="29.258363" lon="105.527727"><ele>475.85126</ele><time>2026-03-24T00:29:37.000Z</time></trkpt>
        <trkpt lat="29.258423" lon="105.527743"><ele>476.928</ele><time>2026-03-24T00:29:42.000Z</time></trkpt>
        <trkpt lat="29.258477" lon="105.527759"><ele>478.40906</ele><time>2026-03-24T00:29:46.000Z</time></trkpt>
        <trkpt lat="29.258532" lon="105.527777"><ele>479.94873</ele><time>2026-03-24T00:29:51.000Z</time></trkpt>
        <trkpt lat="29.258575" lon="105.527797"><ele>481.32953</ele><time>2026-03-24T00:29:55.000Z</time></trkpt>
        <trkpt lat="29.25862" lon="105.527822"><ele>483.38538</ele><time>2026-03-24T00:29:59.000Z</time></trkpt>
        <trkpt lat="29.258663" lon="105.527852"><ele>485.75638</ele><time>2026-03-24T00:30:03.000Z</time></trkpt>
        <trkpt lat="29.258708" lon="105.527893"><ele>488.109</ele><time>2026-03-24T00:30:09.000Z</time></trkpt>
        <trkpt lat="29.258741" lon="105.527924"><ele>489.37323</ele><time>2026-03-24T00:30:13.000Z</time></trkpt>
        <trkpt lat="29.258779" lon="105.527958"><ele>490.85986</ele><time>2026-03-24T00:30:17.000Z</time></trkpt>
        <trkpt lat="29.258816" lon="105.52798"><ele>491.9748</ele><time>2026-03-24T00:30:20.000Z</time></trkpt>
        <trkpt lat="29.258864" lon="105.528007"><ele>493.1191</ele><time>2026-03-24T00:30:24.000Z</time></trkpt>
        <trkpt lat="29.258914" lon="105.528028"><ele>495.242</ele><time>2026-03-24T00:30:29.000Z</time></trkpt>
        <trkpt lat="29.258962" lon="105.528038"><ele>496.1338</ele><time>2026-03-24T00:30:33.000Z</time></trkpt>
        <trkpt lat="29.259022" lon="105.528046"><ele>497.74023</ele><time>2026-03-24T00:30:38.000Z</time></trkpt>
        <trkpt lat="29.259079" lon="105.528069"><ele>499.73566</ele><time>2026-03-24T00:30:44.000Z</time></trkpt>
        <trkpt lat="29.259123" lon="105.528059"><ele>500.74957</ele><time>2026-03-24T00:30:48.000Z</time></trkpt>
        <trkpt lat="29.259154" lon="105.528027"><ele>501.1628</ele><time>2026-03-24T00:30:51.000Z</time></trkpt>
        <trkpt lat="29.259167" lon="105.527954"><ele>502.0432</ele><time>2026-03-24T00:31:01.000Z</time></trkpt>
        <trkpt lat="29.259154" lon="105.527904"><ele>501.26416</ele><time>2026-03-24T00:31:06.000Z</time></trkpt>
        <trkpt lat="29.259116" lon="105.527856"><ele>499.76166</ele><time>2026-03-24T00:31:12.000Z</time></trkpt>
        <trkpt lat="29.259076" lon="105.527821"><ele>498.5939</ele><time>2026-03-24T00:31:19.000Z</time></trkpt>
        <trkpt lat="29.259047" lon="105.52778"><ele>496.80157</ele><time>2026-03-24T00:31:27.000Z</time></trkpt>
        <trkpt lat="29.259035" lon="105.52773"><ele>495.08258</ele><time>2026-03-24T00:31:33.000Z</time></trkpt>
        <trkpt lat="29.259024" lon="105.527676"><ele>494.71304</ele><time>2026-03-24T00:31:37.000Z</time></trkpt>
        <trkpt lat="29.259031" lon="105.527623"><ele>493.77213</ele><time>2026-03-24T00:31:41.000Z</time></trkpt>
        <trkpt lat="29.259038" lon="105.527568"><ele>492.74097</ele><time>2026-03-24T00:31:45.000Z</time></trkpt>
        <trkpt lat="29.259062" lon="105.527511"><ele>491.70978</ele><time>2026-03-24T00:31:50.000Z</time></trkpt>
        <trkpt lat="29.259055" lon="105.52747"><ele>491.52853</ele><time>2026-03-24T00:31:53.000Z</time></trkpt>
        <trkpt lat="29.259041" lon="105.527423"><ele>491.20966</ele><time>2026-03-24T00:31:56.000Z</time></trkpt>
        <trkpt lat="29.259027" lon="105.527348"><ele>490.57916</ele><time>2026-03-24T00:32:01.000Z</time></trkpt>
        <trkpt lat="29.259016" lon="105.527292"><ele>490.2746</ele><time>2026-03-24T00:32:04.000Z</time></trkpt>
        <trkpt lat="29.259021" lon="105.527239"><ele>490.61594</ele><time>2026-03-24T00:32:07.000Z</time></trkpt>
        <trkpt lat="29.259027" lon="105.527169"><ele>490.4891</ele><time>2026-03-24T00:32:11.000Z</time></trkpt>
        <trkpt lat="29.259073" lon="105.527122"><ele>490.4572</ele><time>2026-03-24T00:32:17.000Z</time></trkpt>
        <trkpt lat="29.259112" lon="105.527091"><ele>490.44818</ele><time>2026-03-24T00:32:22.000Z</time></trkpt>
        <trkpt lat="29.259147" lon="105.527045"><ele>490.936</ele><time>2026-03-24T00:32:28.000Z</time></trkpt>
        <trkpt lat="29.25915" lon="105.527007"><ele>491.14066</ele><time>2026-03-24T00:32:30.000Z</time></trkpt>
        <trkpt lat="29.259158" lon="105.52694"><ele>491.2809</ele><time>2026-03-24T00:32:34.000Z</time></trkpt>
        <trkpt lat="29.259178" lon="105.52688"><ele>490.4322</ele><time>2026-03-24T00:32:39.000Z</time></trkpt>
        <trkpt lat="29.259199" lon="105.526835"><ele>489.72433</ele><time>2026-03-24T00:32:43.000Z</time></trkpt>
        <trkpt lat="29.259218" lon="105.526781"><ele>489.65598</ele><time>2026-03-24T00:32:48.000Z</time></trkpt>
        <trkpt lat="29.259222" lon="105.526732"><ele>489.7293</ele><time>2026-03-24T00:32:52.000Z</time></trkpt>
        <trkpt lat="29.25923" lon="105.526666"><ele>490.13898</ele><time>2026-03-24T00:32:57.000Z</time></trkpt>
        <trkpt lat="29.259231" lon="105.526602"><ele>491.03598</ele><time>2026-03-24T00:33:02.000Z</time></trkpt>
        <trkpt lat="29.259232" lon="105.526542"><ele>491.63498</ele><time>2026-03-24T00:33:06.000Z</time></trkpt>
        <trkpt lat="29.259231" lon="105.526482"><ele>491.83917</ele><time>2026-03-24T00:33:11.000Z</time></trkpt>
        <trkpt lat="29.259219" lon="105.526429"><ele>492.46515</ele><time>2026-03-24T00:33:16.000Z</time></trkpt>
        <trkpt lat="29.259211" lon="105.526369"><ele>494.17612</ele><time>2026-03-24T00:33:22.000Z</time></trkpt>
        <trkpt lat="29.259211" lon="105.526305"><ele>495.77722</ele><time>2026-03-24T00:33:30.000Z</time></trkpt>
        <trkpt lat="29.259232" lon="105.526261"><ele>495.10284</ele><time>2026-03-24T00:33:35.000Z</time></trkpt>
        <trkpt lat="29.259261" lon="105.526215"><ele>494.70322</ele><time>2026-03-24T00:33:40.000Z</time></trkpt>
        <trkpt lat="29.2593" lon="105.526177"><ele>494.55685</ele><time>2026-03-24T00:33:45.000Z</time></trkpt>
        <trkpt lat="29.259337" lon="105.526139"><ele>494.72504</ele><time>2026-03-24T00:33:49.000Z</time></trkpt>
        <trkpt lat="29.259368" lon="105.526095"><ele>495.54593</ele><time>2026-03-24T00:33:53.000Z</time></trkpt>
        <trkpt lat="29.259386" lon="105.526038"><ele>496.42877</ele><time>2026-03-24T00:33:57.000Z</time></trkpt>
        <trkpt lat="29.259388" lon="105.525977"><ele>497.4142</ele><time>2026-03-24T00:34:01.000Z</time></trkpt>
        <trkpt lat="29.259404" lon="105.525921"><ele>498.2783</ele><time>2026-03-24T00:34:05.000Z</time></trkpt>
        <trkpt lat="29.259422" lon="105.525863"><ele>498.8639</ele><time>2026-03-24T00:34:10.000Z</time></trkpt>
        <trkpt lat="29.259445" lon="105.525813"><ele>500.12256</ele><time>2026-03-24T00:34:16.000Z</time></trkpt>
        <trkpt lat="29.259411" lon="105.52579"><ele>503.49686</ele><time>2026-03-24T00:34:26.000Z</time></trkpt>
        <trkpt lat="29.259375" lon="105.52575"><ele>506.5369</ele><time>2026-03-24T00:34:34.000Z</time></trkpt>
        <trkpt lat="29.259383" lon="105.525695"><ele>509.49167</ele><time>2026-03-24T00:34:42.000Z</time></trkpt>
        <trkpt lat="29.259411" lon="105.525651"><ele>511.10934</ele><time>2026-03-24T00:34:48.000Z</time></trkpt>
        <trkpt lat="29.259433" lon="105.525598"><ele>510.59546</ele><time>2026-03-24T00:34:55.000Z</time></trkpt>
        <trkpt lat="29.259465" lon="105.525564"><ele>510.11124</ele><time>2026-03-24T00:35:00.000Z</time></trkpt>
        <trkpt lat="29.259514" lon="105.52554"><ele>509.01276</ele><time>2026-03-24T00:35:06.000Z</time></trkpt>
        <trkpt lat="29.259555" lon="105.525516"><ele>508.53925</ele><time>2026-03-24T00:35:11.000Z</time></trkpt>
        <trkpt lat="29.259602" lon="105.525494"><ele>507.99606</ele><time>2026-03-24T00:35:17.000Z</time></trkpt>
        <trkpt lat="29.259648" lon="105.525488"><ele>506.61975</ele><time>2026-03-24T00:35:22.000Z</time></trkpt>
        <trkpt lat="29.259693" lon="105.525479"><ele>506.00867</ele><time>2026-03-24T00:35:26.000Z</time></trkpt>
        <trkpt lat="29.25974" lon="105.525456"><ele>505.5982</ele><time>2026-03-24T00:35:31.000Z</time></trkpt>
        <trkpt lat="29.259781" lon="105.525427"><ele>505.15387</ele><time>2026-03-24T00:35:35.000Z</time></trkpt>
        <trkpt lat="29.259826" lon="105.525402"><ele>505.01453</ele><time>2026-03-24T00:35:39.000Z</time></trkpt>
        <trkpt lat="29.259876" lon="105.525368"><ele>504.65576</ele><time>2026-03-24T00:35:44.000Z</time></trkpt>
        <trkpt lat="29.259911" lon="105.525325"><ele>503.60394</ele><time>2026-03-24T00:35:49.000Z</time></trkpt>
        <trkpt lat="29.259938" lon="105.525294"><ele>503.38757</ele><time>2026-03-24T00:35:52.000Z</time></trkpt>
        <trkpt lat="29.259976" lon="105.525255"><ele>503.49292</ele><time>2026-03-24T00:35:56.000Z</time></trkpt>
        <trkpt lat="29.26001" lon="105.525209"><ele>502.87457</ele><time>2026-03-24T00:36:00.000Z</time></trkpt>
        <trkpt lat="29.260037" lon="105.52516"><ele>503.1022</ele><time>2026-03-24T00:36:04.000Z</time></trkpt>
        <trkpt lat="29.260064" lon="105.525106"><ele>504.1381</ele><time>2026-03-24T00:36:10.000Z</time></trkpt>
        <trkpt lat="29.260087" lon="105.525058"><ele>505.1333</ele><time>2026-03-24T00:36:15.000Z</time></trkpt>
        <trkpt lat="29.260118" lon="105.525033"><ele>505.43774</ele><time>2026-03-24T00:36:18.000Z</time></trkpt>
        <trkpt lat="29.260163" lon="105.524997"><ele>505.37973</ele><time>2026-03-24T00:36:23.000Z</time></trkpt>
        <trkpt lat="29.260207" lon="105.52495"><ele>505.97205</ele><time>2026-03-24T00:36:31.000Z</time></trkpt>
        <trkpt lat="29.260237" lon="105.524919"><ele>506.01294</ele><time>2026-03-24T00:36:34.000Z</time></trkpt>
        <trkpt lat="29.260274" lon="105.524878"><ele>506.11816</ele><time>2026-03-24T00:36:40.000Z</time></trkpt>
        <trkpt lat="29.260307" lon="105.524829"><ele>506.7057</ele><time>2026-03-24T00:36:46.000Z</time></trkpt>
        <trkpt lat="29.260359" lon="105.524817"><ele>506.8581</ele><time>2026-03-24T00:36:54.000Z</time></trkpt>
        <trkpt lat="29.260403" lon="105.524803"><ele>506.8828</ele><time>2026-03-24T00:37:01.000Z</time></trkpt>
        <trkpt lat="29.260438" lon="105.524772"><ele>506.37555</ele><time>2026-03-24T00:37:06.000Z</time></trkpt>
        <trkpt lat="29.260469" lon="105.524721"><ele>506.11642</ele><time>2026-03-24T00:37:13.000Z</time></trkpt>
        <trkpt lat="29.260486" lon="105.52467"><ele>506.06702</ele><time>2026-03-24T00:37:20.000Z</time></trkpt>
        <trkpt lat="29.260512" lon="105.524622"><ele>506.80386</ele><time>2026-03-24T00:37:28.000Z</time></trkpt>
        <trkpt lat="29.260529" lon="105.524582"><ele>508.06815</ele><time>2026-03-24T00:37:32.000Z</time></trkpt>
        <trkpt lat="29.260555" lon="105.524548"><ele>507.6571</ele><time>2026-03-24T00:37:35.000Z</time></trkpt>
        <trkpt lat="29.260591" lon="105.524497"><ele>508.70618</ele><time>2026-03-24T00:37:40.000Z</time></trkpt>
        <trkpt lat="29.260624" lon="105.524446"><ele>510.1547</ele><time>2026-03-24T00:37:44.000Z</time></trkpt>
        <trkpt lat="29.260651" lon="105.524396"><ele>511.9914</ele><time>2026-03-24T00:37:48.000Z</time></trkpt>
        <trkpt lat="29.260669" lon="105.524335"><ele>513.0936</ele><time>2026-03-24T00:37:53.000Z</time></trkpt>
        <trkpt lat="29.260687" lon="105.524282"><ele>513.58936</ele><time>2026-03-24T00:37:57.000Z</time></trkpt>
        <trkpt lat="29.260709" lon="105.524233"><ele>513.13214</ele><time>2026-03-24T00:38:01.000Z</time></trkpt>
        <trkpt lat="29.260746" lon="105.524189"><ele>511.54736</ele><time>2026-03-24T00:38:07.000Z</time></trkpt>
        <trkpt lat="29.260778" lon="105.524149"><ele>509.67227</ele><time>2026-03-24T00:38:13.000Z</time></trkpt>
        <trkpt lat="29.260807" lon="105.524096"><ele>508.45132</ele><time>2026-03-24T00:38:20.000Z</time></trkpt>
        <trkpt lat="29.260844" lon="105.52404"><ele>508.62314</ele><time>2026-03-24T00:38:30.000Z</time></trkpt>
        <trkpt lat="29.260876" lon="105.524004"><ele>509.3838</ele><time>2026-03-24T00:38:36.000Z</time></trkpt>
        <trkpt lat="29.260912" lon="105.523971"><ele>510.145</ele><time>2026-03-24T00:38:41.000Z</time></trkpt>
        <trkpt lat="29.260952" lon="105.523925"><ele>509.54755</ele><time>2026-03-24T00:38:49.000Z</time></trkpt>
        <trkpt lat="29.260971" lon="105.523869"><ele>510.8188</ele><time>2026-03-24T00:38:56.000Z</time></trkpt>
        <trkpt lat="29.26098" lon="105.523823"><ele>510.85553</ele><time>2026-03-24T00:39:00.000Z</time></trkpt>
        <trkpt lat="29.260985" lon="105.523761"><ele>511.47183</ele><time>2026-03-24T00:39:05.000Z</time></trkpt>
        <trkpt lat="29.260997" lon="105.523711"><ele>511.9861</ele><time>2026-03-24T00:39:09.000Z</time></trkpt>
        <trkpt lat="29.261024" lon="105.52367"><ele>511.48462</ele><time>2026-03-24T00:39:13.000Z</time></trkpt>
        <trkpt lat="29.26106" lon="105.523622"><ele>511.4134</ele><time>2026-03-24T00:39:18.000Z</time></trkpt>
        <trkpt lat="29.261094" lon="105.523582"><ele>511.04474</ele><time>2026-03-24T00:39:22.000Z</time></trkpt>
        <trkpt lat="29.26113" lon="105.523539"><ele>509.06018</ele><time>2026-03-24T00:39:26.000Z</time></trkpt>
        <trkpt lat="29.261154" lon="105.523485"><ele>507.23215</ele><time>2026-03-24T00:39:30.000Z</time></trkpt>
        <trkpt lat="29.261178" lon="105.523422"><ele>506.7983</ele><time>2026-03-24T00:39:35.000Z</time></trkpt>
        <trkpt lat="29.261207" lon="105.523372"><ele>506.60983</ele><time>2026-03-24T00:39:39.000Z</time></trkpt>
        <trkpt lat="29.261243" lon="105.523326"><ele>505.94424</ele><time>2026-03-24T00:39:43.000Z</time></trkpt>
        <trkpt lat="29.26127" lon="105.523274"><ele>506.13452</ele><time>2026-03-24T00:39:47.000Z</time></trkpt>
        <trkpt lat="29.261277" lon="105.523216"><ele>508.02432</ele><time>2026-03-24T00:39:52.000Z</time></trkpt>
        <trkpt lat="29.261278" lon="105.52316"><ele>508.51932</ele><time>2026-03-24T00:39:58.000Z</time></trkpt>
        <trkpt lat="29.261288" lon="105.523114"><ele>508.75253</ele><time>2026-03-24T00:40:02.000Z</time></trkpt>
        <trkpt lat="29.261315" lon="105.523061"><ele>508.22528</ele><time>2026-03-24T00:40:09.000Z</time></trkpt>
        <trkpt lat="29.261349" lon="105.523017"><ele>508.08038</ele><time>2026-03-24T00:40:15.000Z</time></trkpt>
        <trkpt lat="29.261381" lon="105.522981"><ele>508.9309</ele><time>2026-03-24T00:40:19.000Z</time></trkpt>
        <trkpt lat="29.261428" lon="105.522934"><ele>509.56458</ele><time>2026-03-24T00:40:25.000Z</time></trkpt>
        <trkpt lat="29.261451" lon="105.522885"><ele>510.29752</ele><time>2026-03-24T00:40:29.000Z</time></trkpt>
        <trkpt lat="29.26147" lon="105.522822"><ele>511.8898</ele><time>2026-03-24T00:40:36.000Z</time></trkpt>
        <trkpt lat="29.261488" lon="105.522781"><ele>512.8799</ele><time>2026-03-24T00:40:40.000Z</time></trkpt>
        <trkpt lat="29.261502" lon="105.522722"><ele>513.10864</ele><time>2026-03-24T00:40:45.000Z</time></trkpt>
        <trkpt lat="29.261515" lon="105.522665"><ele>513.94495</ele><time>2026-03-24T00:40:51.000Z</time></trkpt>
        <trkpt lat="29.261523" lon="105.522603"><ele>515.771</ele><time>2026-03-24T00:41:01.000Z</time></trkpt>
        <trkpt lat="29.261514" lon="105.522562"><ele>516.45154</ele><time>2026-03-24T00:41:05.000Z</time></trkpt>
        <trkpt lat="29.261499" lon="105.522503"><ele>516.92444</ele><time>2026-03-24T00:41:10.000Z</time></trkpt>
        <trkpt lat="29.261467" lon="105.522467"><ele>517.9543</ele><time>2026-03-24T00:41:14.000Z</time></trkpt>
        <trkpt lat="29.261446" lon="105.522422"><ele>518.5884</ele><time>2026-03-24T00:41:18.000Z</time></trkpt>
        <trkpt lat="29.261455" lon="105.522362"><ele>519.814</ele><time>2026-03-24T00:41:25.000Z</time></trkpt>
        <trkpt lat="29.261512" lon="105.522364"><ele>520.8998</ele><time>2026-03-24T00:41:39.000Z</time></trkpt>
        <trkpt lat="29.261544" lon="105.522337"><ele>520.2925</ele><time>2026-03-24T00:41:44.000Z</time></trkpt>
        <trkpt lat="29.261576" lon="105.522296"><ele>519.44</ele><time>2026-03-24T00:41:49.000Z</time></trkpt>
        <trkpt lat="29.261608" lon="105.522258"><ele>518.899</ele><time>2026-03-24T00:41:53.000Z</time></trkpt>
        <trkpt lat="29.261657" lon="105.522235"><ele>519.627</ele><time>2026-03-24T00:42:00.000Z</time></trkpt>
        <trkpt lat="29.261696" lon="105.522203"><ele>519.39984</ele><time>2026-03-24T00:42:07.000Z</time></trkpt>
        <trkpt lat="29.26174" lon="105.522167"><ele>519.3764</ele><time>2026-03-24T00:42:14.000Z</time></trkpt>
        <trkpt lat="29.261781" lon="105.522136"><ele>519.953</ele><time>2026-03-24T00:42:24.000Z</time></trkpt>
        <trkpt lat="29.261817" lon="105.522101"><ele>521.1942</ele><time>2026-03-24T00:42:32.000Z</time></trkpt>
        <trkpt lat="29.261838" lon="105.522055"><ele>521.3846</ele><time>2026-03-24T00:42:37.000Z</time></trkpt>
        <trkpt lat="29.261873" lon="105.522008"><ele>521.6659</ele><time>2026-03-24T00:42:42.000Z</time></trkpt>
        <trkpt lat="29.261912" lon="105.521963"><ele>521.86456</ele><time>2026-03-24T00:42:47.000Z</time></trkpt>
        <trkpt lat="29.26194" lon="105.521908"><ele>522.46185</ele><time>2026-03-24T00:42:52.000Z</time></trkpt>
        <trkpt lat="29.261973" lon="105.521857"><ele>522.90765</ele><time>2026-03-24T00:42:57.000Z</time></trkpt>
        <trkpt lat="29.261995" lon="105.521803"><ele>524.25806</ele><time>2026-03-24T00:43:02.000Z</time></trkpt>
        <trkpt lat="29.262008" lon="105.521753"><ele>525.1779</ele><time>2026-03-24T00:43:06.000Z</time></trkpt>
        <trkpt lat="29.262026" lon="105.521699"><ele>525.63153</ele><time>2026-03-24T00:43:11.000Z</time></trkpt>
        <trkpt lat="29.262032" lon="105.521644"><ele>526.94556</ele><time>2026-03-24T00:43:16.000Z</time></trkpt>
        <trkpt lat="29.262041" lon="105.521591"><ele>526.26276</ele><time>2026-03-24T00:43:21.000Z</time></trkpt>
        <trkpt lat="29.262049" lon="105.521536"><ele>526.6942</ele><time>2026-03-24T00:43:26.000Z</time></trkpt>
        <trkpt lat="29.262067" lon="105.52149"><ele>527.58765</ele><time>2026-03-24T00:43:30.000Z</time></trkpt>
        <trkpt lat="29.262093" lon="105.52144"><ele>527.8157</ele><time>2026-03-24T00:43:35.000Z</time></trkpt>
        <trkpt lat="29.26214" lon="105.521421"><ele>528.978</ele><time>2026-03-24T00:43:41.000Z</time></trkpt>
        <trkpt lat="29.262185" lon="105.521412"><ele>529.1044</ele><time>2026-03-24T00:43:45.000Z</time></trkpt>
        <trkpt lat="29.262241" lon="105.521395"><ele>529.8976</ele><time>2026-03-24T00:43:50.000Z</time></trkpt>
        <trkpt lat="29.262281" lon="105.521364"><ele>528.4048</ele><time>2026-03-24T00:43:54.000Z</time></trkpt>
        <trkpt lat="29.262315" lon="105.521314"><ele>527.4742</ele><time>2026-03-24T00:43:59.000Z</time></trkpt>
        <trkpt lat="29.262328" lon="105.521268"><ele>527.2814</ele><time>2026-03-24T00:44:02.000Z</time></trkpt>
        <trkpt lat="29.262348" lon="105.521212"><ele>527.14417</ele><time>2026-03-24T00:44:06.000Z</time></trkpt>
        <trkpt lat="29.262371" lon="105.521161"><ele>527.64636</ele><time>2026-03-24T00:44:10.000Z</time></trkpt>
        <trkpt lat="29.262388" lon="105.521111"><ele>527.6009</ele><time>2026-03-24T00:44:14.000Z</time></trkpt>
        <trkpt lat="29.262403" lon="105.521067"><ele>526.8217</ele><time>2026-03-24T00:44:17.000Z</time></trkpt>
        <trkpt lat="29.26244" lon="105.521008"><ele>525.751</ele><time>2026-03-24T00:44:22.000Z</time></trkpt>
        <trkpt lat="29.262489" lon="105.520974"><ele>526.04767</ele><time>2026-03-24T00:44:26.000Z</time></trkpt>
        <trkpt lat="29.262533" lon="105.520938"><ele>529.10443</ele><time>2026-03-24T00:44:31.000Z</time></trkpt>
        <trkpt lat="29.26256" lon="105.520897"><ele>532.24304</ele><time>2026-03-24T00:44:36.000Z</time></trkpt>
        <trkpt lat="29.262588" lon="105.520864"><ele>534.1254</ele><time>2026-03-24T00:44:40.000Z</time></trkpt>
        <trkpt lat="29.262611" lon="105.520816"><ele>534.8466</ele><time>2026-03-24T00:44:45.000Z</time></trkpt>
        <trkpt lat="29.262612" lon="105.520752"><ele>536.17725</ele><time>2026-03-24T00:44:56.000Z</time></trkpt>
        <trkpt lat="29.262636" lon="105.520714"><ele>537.97644</ele><time>2026-03-24T00:45:02.000Z</time></trkpt>
        <trkpt lat="29.262643" lon="105.520656"><ele>539.6966</ele><time>2026-03-24T00:45:10.000Z</time></trkpt>
        <trkpt lat="29.262653" lon="105.520603"><ele>540.0211</ele><time>2026-03-24T00:45:15.000Z</time></trkpt>
        <trkpt lat="29.262677" lon="105.520547"><ele>540.3034</ele><time>2026-03-24T00:45:21.000Z</time></trkpt>
        <trkpt lat="29.262699" lon="105.520501"><ele>538.9421</ele><time>2026-03-24T00:45:25.000Z</time></trkpt>
        <trkpt lat="29.262713" lon="105.520447"><ele>538.4646</ele><time>2026-03-24T00:45:29.000Z</time></trkpt>
        <trkpt lat="29.262719" lon="105.520372"><ele>543.16254</ele><time>2026-03-24T00:45:39.000Z</time></trkpt>
        <trkpt lat="29.262728" lon="105.520318"><ele>545.74304</ele><time>2026-03-24T00:45:47.000Z</time></trkpt>
        <trkpt lat="29.262774" lon="105.520278"><ele>547.82715</ele><time>2026-03-24T00:45:54.000Z</time></trkpt>
        <trkpt lat="29.262802" lon="105.520227"><ele>548.73596</ele><time>2026-03-24T00:46:00.000Z</time></trkpt>
        <trkpt lat="29.262824" lon="105.520173"><ele>550.0243</ele><time>2026-03-24T00:46:06.000Z</time></trkpt>
        <trkpt lat="29.26286" lon="105.520125"><ele>552.1529</ele><time>2026-03-24T00:46:14.000Z</time></trkpt>
        <trkpt lat="29.262892" lon="105.520079"><ele>553.7382</ele><time>2026-03-24T00:46:20.000Z</time></trkpt>
        <trkpt lat="29.262928" lon="105.520026"><ele>554.8944</ele><time>2026-03-24T00:46:27.000Z</time></trkpt>
        <trkpt lat="29.262954" lon="105.51998"><ele>554.47485</ele><time>2026-03-24T00:46:33.000Z</time></trkpt>
        <trkpt lat="29.262978" lon="105.51993"><ele>555.22766</ele><time>2026-03-24T00:46:38.000Z</time></trkpt>
        <trkpt lat="29.262983" lon="105.519876"><ele>556.2043</ele><time>2026-03-24T00:46:43.000Z</time></trkpt>
        <trkpt lat="29.262987" lon="105.519815"><ele>557.063</ele><time>2026-03-24T00:46:50.000Z</time></trkpt>
        <trkpt lat="29.262993" lon="105.51976"><ele>558.64734</ele><time>2026-03-24T00:46:56.000Z</time></trkpt>
        <trkpt lat="29.263027" lon="105.519715"><ele>561.309</ele><time>2026-03-24T00:47:10.000Z</time></trkpt>
        <trkpt lat="29.263062" lon="105.519669"><ele>563.2196</ele><time>2026-03-24T00:47:18.000Z</time></trkpt>
        <trkpt lat="29.263094" lon="105.519623"><ele>565.50903</ele><time>2026-03-24T00:47:25.000Z</time></trkpt>
        <trkpt lat="29.263127" lon="105.51966"><ele>563.87836</ele><time>2026-03-24T00:48:27.000Z</time></trkpt>
        <trkpt lat="29.263115" lon="105.51961"><ele>559.27905</ele><time>2026-03-24T00:49:49.000Z</time></trkpt>
        <trkpt lat="29.263152" lon="105.519593"><ele>559.94147</ele><time>2026-03-24T00:49:55.000Z</time></trkpt>
        <trkpt lat="29.263177" lon="105.519562"><ele>559.6101</ele><time>2026-03-24T00:49:59.000Z</time></trkpt>
        <trkpt lat="29.263202" lon="105.519508"><ele>562.17566</ele><time>2026-03-24T00:50:08.000Z</time></trkpt>
        <trkpt lat="29.263221" lon="105.519454"><ele>565.05524</ele><time>2026-03-24T00:50:17.000Z</time></trkpt>
        <trkpt lat="29.263225" lon="105.519401"><ele>566.1106</ele><time>2026-03-24T00:50:26.000Z</time></trkpt>
        <trkpt lat="29.263194" lon="105.519366"><ele>565.6391</ele><time>2026-03-24T00:50:34.000Z</time></trkpt>
        <trkpt lat="29.263154" lon="105.519391"><ele>566.3997</ele><time>2026-03-24T00:50:41.000Z</time></trkpt>
        <trkpt lat="29.26312" lon="105.519438"><ele>568.99786</ele><time>2026-03-24T00:50:50.000Z</time></trkpt>
        <trkpt lat="29.26312" lon="105.519382"><ele>571.4965</ele><time>2026-03-24T00:51:08.000Z</time></trkpt>
        <trkpt lat="29.263143" lon="105.519336"><ele>570.344</ele><time>2026-03-24T00:51:14.000Z</time></trkpt>
        <trkpt lat="29.263159" lon="105.519276"><ele>572.3799</ele><time>2026-03-24T00:51:22.000Z</time></trkpt>
        <trkpt lat="29.263137" lon="105.519231"><ele>573.9015</ele><time>2026-03-24T00:51:29.000Z</time></trkpt>
        <trkpt lat="29.263092" lon="105.51927"><ele>576.23083</ele><time>2026-03-24T00:51:49.000Z</time></trkpt>
        <trkpt lat="29.263078" lon="105.519222"><ele>579.1481</ele><time>2026-03-24T00:52:07.000Z</time></trkpt>
        <trkpt lat="29.263071" lon="105.519164"><ele>578.64154</ele><time>2026-03-24T00:52:14.000Z</time></trkpt>
        <trkpt lat="29.26306" lon="105.519114"><ele>578.7293</ele><time>2026-03-24T00:52:19.000Z</time></trkpt>
        <trkpt lat="29.263066" lon="105.519055"><ele>579.4083</ele><time>2026-03-24T00:52:25.000Z</time></trkpt>
        <trkpt lat="29.263073" lon="105.518998"><ele>580.4435</ele><time>2026-03-24T00:52:29.000Z</time></trkpt>
        <trkpt lat="29.263081" lon="105.518932"><ele>581.2466</ele><time>2026-03-24T00:52:35.000Z</time></trkpt>
        <trkpt lat="29.263091" lon="105.518877"><ele>581.249</ele><time>2026-03-24T00:52:41.000Z</time></trkpt>
        <trkpt lat="29.263108" lon="105.518831"><ele>581.7535</ele><time>2026-03-24T00:52:46.000Z</time></trkpt>
        <trkpt lat="29.263145" lon="105.518785"><ele>582.3881</ele><time>2026-03-24T00:52:52.000Z</time></trkpt>
        <trkpt lat="29.263191" lon="105.518763"><ele>582.79315</ele><time>2026-03-24T00:52:56.000Z</time></trkpt>
        <trkpt lat="29.263235" lon="105.518732"><ele>583.9666</ele><time>2026-03-24T00:53:01.000Z</time></trkpt>
        <trkpt lat="29.263275" lon="105.518696"><ele>584.4345</ele><time>2026-03-24T00:53:07.000Z</time></trkpt>
        <trkpt lat="29.263317" lon="105.518664"><ele>584.38806</ele><time>2026-03-24T00:53:13.000Z</time></trkpt>
        <trkpt lat="29.263348" lon="105.518627"><ele>584.613</ele><time>2026-03-24T00:53:18.000Z</time></trkpt>
        <trkpt lat="29.263384" lon="105.51859"><ele>585.3083</ele><time>2026-03-24T00:53:22.000Z</time></trkpt>
        <trkpt lat="29.263415" lon="105.518532"><ele>584.51306</ele><time>2026-03-24T00:53:28.000Z</time></trkpt>
        <trkpt lat="29.263438" lon="105.518485"><ele>583.89386</ele><time>2026-03-24T00:53:32.000Z</time></trkpt>
        <trkpt lat="29.263467" lon="105.51843"><ele>583.3918</ele><time>2026-03-24T00:53:38.000Z</time></trkpt>
        <trkpt lat="29.263484" lon="105.518375"><ele>583.1217</ele><time>2026-03-24T00:53:43.000Z</time></trkpt>
        <trkpt lat="29.263495" lon="105.518317"><ele>582.8314</ele><time>2026-03-24T00:53:48.000Z</time></trkpt>
        <trkpt lat="29.263508" lon="105.518267"><ele>582.5279</ele><time>2026-03-24T00:53:52.000Z</time></trkpt>
        <trkpt lat="29.263526" lon="105.518209"><ele>582.802</ele><time>2026-03-24T00:53:58.000Z</time></trkpt>
        <trkpt lat="29.263545" lon="105.518162"><ele>584.62085</ele><time>2026-03-24T00:54:04.000Z</time></trkpt>
        <trkpt lat="29.263587" lon="105.518147"><ele>586.00397</ele><time>2026-03-24T00:54:09.000Z</time></trkpt>
        <trkpt lat="29.263634" lon="105.51815"><ele>586.81964</ele><time>2026-03-24T00:54:13.000Z</time></trkpt>
        <trkpt lat="29.263678" lon="105.518154"><ele>586.75037</ele><time>2026-03-24T00:54:16.000Z</time></trkpt>
        <trkpt lat="29.263725" lon="105.518158"><ele>586.9096</ele><time>2026-03-24T00:54:19.000Z</time></trkpt>
        <trkpt lat="29.263783" lon="105.518158"><ele>587.10236</ele><time>2026-03-24T00:54:23.000Z</time></trkpt>
        <trkpt lat="29.263833" lon="105.51817"><ele>586.5066</ele><time>2026-03-24T00:54:27.000Z</time></trkpt>
        <trkpt lat="29.263867" lon="105.518215"><ele>586.3971</ele><time>2026-03-24T00:54:32.000Z</time></trkpt>
        <trkpt lat="29.263871" lon="105.518275"><ele>585.4097</ele><time>2026-03-24T00:54:37.000Z</time></trkpt>
        <trkpt lat="29.26388" lon="105.518326"><ele>584.9566</ele><time>2026-03-24T00:54:41.000Z</time></trkpt>
        <trkpt lat="29.263896" lon="105.518387"><ele>584.68414</ele><time>2026-03-24T00:54:46.000Z</time></trkpt>
        <trkpt lat="29.263933" lon="105.518436"><ele>584.90125</ele><time>2026-03-24T00:54:52.000Z</time></trkpt>
        <trkpt lat="29.263979" lon="105.518462"><ele>584.9476</ele><time>2026-03-24T00:54:57.000Z</time></trkpt>
        <trkpt lat="29.26402" lon="105.518492"><ele>585.5533</ele><time>2026-03-24T00:55:01.000Z</time></trkpt>
        <trkpt lat="29.26406" lon="105.518529"><ele>587.06244</ele><time>2026-03-24T00:55:06.000Z</time></trkpt>
        <trkpt lat="29.264099" lon="105.518561"><ele>587.3812</ele><time>2026-03-24T00:55:10.000Z</time></trkpt>
        <trkpt lat="29.264148" lon="105.518594"><ele>588.2726</ele><time>2026-03-24T00:55:15.000Z</time></trkpt>
        <trkpt lat="29.264188" lon="105.518628"><ele>590.1896</ele><time>2026-03-24T00:55:20.000Z</time></trkpt>
        <trkpt lat="29.264231" lon="105.518642"><ele>590.494</ele><time>2026-03-24T00:55:24.000Z</time></trkpt>
        <trkpt lat="29.264272" lon="105.518624"><ele>590.07086</ele><time>2026-03-24T00:55:28.000Z</time></trkpt>
        <trkpt lat="29.264314" lon="105.518578"><ele>588.0543</ele><time>2026-03-24T00:55:34.000Z</time></trkpt>
        <trkpt lat="29.264332" lon="105.518524"><ele>587.65466</ele><time>2026-03-24T00:55:38.000Z</time></trkpt>
        <trkpt lat="29.264349" lon="105.518465"><ele>587.15814</ele><time>2026-03-24T00:55:43.000Z</time></trkpt>
        <trkpt lat="29.264364" lon="105.51841"><ele>587.28754</ele><time>2026-03-24T00:55:47.000Z</time></trkpt>
        <trkpt lat="29.264387" lon="105.518358"><ele>588.5176</ele><time>2026-03-24T00:55:52.000Z</time></trkpt>
        <trkpt lat="29.264418" lon="105.518324"><ele>588.21564</ele><time>2026-03-24T00:55:56.000Z</time></trkpt>
        <trkpt lat="29.26446" lon="105.518304"><ele>588.6971</ele><time>2026-03-24T00:56:00.000Z</time></trkpt>
        <trkpt lat="29.264514" lon="105.518298"><ele>589.7333</ele><time>2026-03-24T00:56:05.000Z</time></trkpt>
        <trkpt lat="29.264566" lon="105.518309"><ele>590.7502</ele><time>2026-03-24T00:56:10.000Z</time></trkpt>
        <trkpt lat="29.264614" lon="105.518337"><ele>590.6651</ele><time>2026-03-24T00:56:15.000Z</time></trkpt>
        <trkpt lat="29.264654" lon="105.518361"><ele>590.78656</ele><time>2026-03-24T00:56:19.000Z</time></trkpt>
        <trkpt lat="29.264707" lon="105.518371"><ele>590.3871</ele><time>2026-03-24T00:56:24.000Z</time></trkpt>
        <trkpt lat="29.26476" lon="105.518368"><ele>590.72064</ele><time>2026-03-24T00:56:30.000Z</time></trkpt>
        <trkpt lat="29.264803" lon="105.518404"><ele>591.32825</ele><time>2026-03-24T00:56:40.000Z</time></trkpt>
        <trkpt lat="29.264831" lon="105.518447"><ele>591.6399</ele><time>2026-03-24T00:56:47.000Z</time></trkpt>
        <trkpt lat="29.264869" lon="105.518483"><ele>592.9795</ele><time>2026-03-24T00:56:53.000Z</time></trkpt>
        <trkpt lat="29.264918" lon="105.518504"><ele>594.51086</ele><time>2026-03-24T00:57:00.000Z</time></trkpt>
        <trkpt lat="29.264965" lon="105.518517"><ele>595.08704</ele><time>2026-03-24T00:57:06.000Z</time></trkpt>
        <trkpt lat="29.265015" lon="105.5185"><ele>597.23517</ele><time>2026-03-24T00:57:14.000Z</time></trkpt>
        <trkpt lat="29.265061" lon="105.518484"><ele>598.89484</ele><time>2026-03-24T00:57:21.000Z</time></trkpt>
        <trkpt lat="29.265108" lon="105.518458"><ele>599.8905</ele><time>2026-03-24T00:57:29.000Z</time></trkpt>
        <trkpt lat="29.265145" lon="105.518423"><ele>602.53125</ele><time>2026-03-24T00:57:36.000Z</time></trkpt>
        <trkpt lat="29.265182" lon="105.518377"><ele>605.5082</ele><time>2026-03-24T00:57:43.000Z</time></trkpt>
        <trkpt lat="29.265206" lon="105.518328"><ele>607.23737</ele><time>2026-03-24T00:57:50.000Z</time></trkpt>
        <trkpt lat="29.265212" lon="105.518276"><ele>608.711</ele><time>2026-03-24T00:57:56.000Z</time></trkpt>
        <trkpt lat="29.265221" lon="105.518226"><ele>609.4485</ele><time>2026-03-24T00:58:01.000Z</time></trkpt>
        <trkpt lat="29.265202" lon="105.518174"><ele>610.23444</ele><time>2026-03-24T00:58:12.000Z</time></trkpt>
        <trkpt lat="29.265185" lon="105.518121"><ele>610.2827</ele><time>2026-03-24T00:58:19.000Z</time></trkpt>
        <trkpt lat="29.265172" lon="105.518064"><ele>610.9958</ele><time>2026-03-24T00:58:26.000Z</time></trkpt>
        <trkpt lat="29.265164" lon="105.518011"><ele>611.01086</ele><time>2026-03-24T00:58:31.000Z</time></trkpt>
        <trkpt lat="29.265138" lon="105.517958"><ele>611.261</ele><time>2026-03-24T00:58:37.000Z</time></trkpt>
        <trkpt lat="29.265114" lon="105.517908"><ele>611.7391</ele><time>2026-03-24T00:58:43.000Z</time></trkpt>
        <trkpt lat="29.26508" lon="105.517864"><ele>611.78796</ele><time>2026-03-24T00:58:49.000Z</time></trkpt>
        <trkpt lat="29.265053" lon="105.517815"><ele>611.0452</ele><time>2026-03-24T00:58:55.000Z</time></trkpt>
        <trkpt lat="29.265025" lon="105.517776"><ele>610.9175</ele><time>2026-03-24T00:59:00.000Z</time></trkpt>
        <trkpt lat="29.265017" lon="105.517725"><ele>611.8209</ele><time>2026-03-24T00:59:06.000Z</time></trkpt>
        <trkpt lat="29.264997" lon="105.517677"><ele>613.33014</ele><time>2026-03-24T00:59:12.000Z</time></trkpt>
        <trkpt lat="29.264966" lon="105.51763"><ele>615.0635</ele><time>2026-03-24T00:59:19.000Z</time></trkpt>
        <trkpt lat="29.26494" lon="105.517578"><ele>616.58563</ele><time>2026-03-24T00:59:26.000Z</time></trkpt>
        <trkpt lat="29.264921" lon="105.517528"><ele>617.8183</ele><time>2026-03-24T00:59:32.000Z</time></trkpt>
        <trkpt lat="29.264902" lon="105.517477"><ele>620.0491</ele><time>2026-03-24T00:59:39.000Z</time></trkpt>
        <trkpt lat="29.26487" lon="105.517436"><ele>622.1408</ele><time>2026-03-24T00:59:45.000Z</time></trkpt>
        <trkpt lat="29.264852" lon="105.517383"><ele>622.7694</ele><time>2026-03-24T00:59:51.000Z</time></trkpt>
        <trkpt lat="29.264835" lon="105.517326"><ele>623.9305</ele><time>2026-03-24T00:59:57.000Z</time></trkpt>
        <trkpt lat="29.264815" lon="105.517274"><ele>625.02155</ele><time>2026-03-24T01:00:03.000Z</time></trkpt>
        <trkpt lat="29.264805" lon="105.517223"><ele>626.1584</ele><time>2026-03-24T01:00:09.000Z</time></trkpt>
        <trkpt lat="29.264794" lon="105.517171"><ele>627.1881</ele><time>2026-03-24T01:00:16.000Z</time></trkpt>
        <trkpt lat="29.264785" lon="105.517113"><ele>626.13116</ele><time>2026-03-24T01:00:21.000Z</time></trkpt>
        <trkpt lat="29.264767" lon="105.517058"><ele>624.9956</ele><time>2026-03-24T01:00:25.000Z</time></trkpt>
        <trkpt lat="29.264747" lon="105.516991"><ele>624.94965</ele><time>2026-03-24T01:00:30.000Z</time></trkpt>
        <trkpt lat="29.264734" lon="105.516935"><ele>626.9427</ele><time>2026-03-24T01:00:35.000Z</time></trkpt>
        <trkpt lat="29.264726" lon="105.516883"><ele>628.611</ele><time>2026-03-24T01:00:39.000Z</time></trkpt>
        <trkpt lat="29.264714" lon="105.516836"><ele>629.458</ele><time>2026-03-24T01:00:42.000Z</time></trkpt>
        <trkpt lat="29.264704" lon="105.51677"><ele>630.3709</ele><time>2026-03-24T01:00:46.000Z</time></trkpt>
        <trkpt lat="29.264687" lon="105.516714"><ele>630.9417</ele><time>2026-03-24T01:00:50.000Z</time></trkpt>
        <trkpt lat="29.264655" lon="105.516655"><ele>632.67834</ele><time>2026-03-24T01:00:57.000Z</time></trkpt>
        <trkpt lat="29.264648" lon="105.516608"><ele>633.16315</ele><time>2026-03-24T01:01:03.000Z</time></trkpt>
        <trkpt lat="29.264642" lon="105.516554"><ele>634.2462</ele><time>2026-03-24T01:01:09.000Z</time></trkpt>
        <trkpt lat="29.26461" lon="105.51652"><ele>635.2389</ele><time>2026-03-24T01:01:14.000Z</time></trkpt>
        <trkpt lat="29.264581" lon="105.516478"><ele>636.61237</ele><time>2026-03-24T01:01:18.000Z</time></trkpt>
        <trkpt lat="29.26455" lon="105.516427"><ele>638.4898</ele><time>2026-03-24T01:01:22.000Z</time></trkpt>
        <trkpt lat="29.264512" lon="105.516375"><ele>639.83765</ele><time>2026-03-24T01:01:27.000Z</time></trkpt>
        <trkpt lat="29.264489" lon="105.516325"><ele>640.09784</ele><time>2026-03-24T01:01:31.000Z</time></trkpt>
        <trkpt lat="29.264459" lon="105.516274"><ele>639.64075</ele><time>2026-03-24T01:01:36.000Z</time></trkpt>
        <trkpt lat="29.264426" lon="105.516236"><ele>639.4093</ele><time>2026-03-24T01:01:41.000Z</time></trkpt>
        <trkpt lat="29.264398" lon="105.516192"><ele>638.4676</ele><time>2026-03-24T01:01:46.000Z</time></trkpt>
        <trkpt lat="29.264373" lon="105.516143"><ele>638.4842</ele><time>2026-03-24T01:01:51.000Z</time></trkpt>
        <trkpt lat="29.264361" lon="105.516094"><ele>638.3351</ele><time>2026-03-24T01:01:55.000Z</time></trkpt>
        <trkpt lat="29.264346" lon="105.516044"><ele>637.70844</ele><time>2026-03-24T01:01:59.000Z</time></trkpt>
        <trkpt lat="29.264331" lon="105.515975"><ele>635.49084</ele><time>2026-03-24T01:02:05.000Z</time></trkpt>
        <trkpt lat="29.264343" lon="105.515928"><ele>633.588</ele><time>2026-03-24T01:02:09.000Z</time></trkpt>
        <trkpt lat="29.264381" lon="105.51591"><ele>631.53046</ele><time>2026-03-24T01:02:13.000Z</time></trkpt>
        <trkpt lat="29.264431" lon="105.515911"><ele>630.29535</ele><time>2026-03-24T01:02:17.000Z</time></trkpt>
        <trkpt lat="29.264497" lon="105.515924"><ele>628.6435</ele><time>2026-03-24T01:02:23.000Z</time></trkpt>
        <trkpt lat="29.264551" lon="105.515937"><ele>628.36993</ele><time>2026-03-24T01:02:28.000Z</time></trkpt>
        <trkpt lat="29.264602" lon="105.515949"><ele>628.16736</ele><time>2026-03-24T01:02:33.000Z</time></trkpt>
        <trkpt lat="29.264654" lon="105.515952"><ele>628.76166</ele><time>2026-03-24T01:02:38.000Z</time></trkpt>
        <trkpt lat="29.264702" lon="105.515952"><ele>628.5213</ele><time>2026-03-24T01:02:42.000Z</time></trkpt>
        <trkpt lat="29.264757" lon="105.51596"><ele>628.29114</ele><time>2026-03-24T01:02:46.000Z</time></trkpt>
        <trkpt lat="29.264812" lon="105.515951"><ele>628.7718</ele><time>2026-03-24T01:02:51.000Z</time></trkpt>
        <trkpt lat="29.264847" lon="105.515916"><ele>629.24884</ele><time>2026-03-24T01:02:55.000Z</time></trkpt>
        <trkpt lat="29.26487" lon="105.515876"><ele>629.48444</ele><time>2026-03-24T01:02:58.000Z</time></trkpt>
        <trkpt lat="29.264899" lon="105.515819"><ele>629.37604</ele><time>2026-03-24T01:03:02.000Z</time></trkpt>
        <trkpt lat="29.264927" lon="105.515759"><ele>628.3017</ele><time>2026-03-24T01:03:07.000Z</time></trkpt>
        <trkpt lat="29.264962" lon="105.515712"><ele>626.15234</ele><time>2026-03-24T01:03:12.000Z</time></trkpt>
        <trkpt lat="29.264998" lon="105.51568"><ele>625.7766</ele><time>2026-03-24T01:03:16.000Z</time></trkpt>
        <trkpt lat="29.265042" lon="105.515667"><ele>625.2775</ele><time>2026-03-24T01:03:20.000Z</time></trkpt>
        <trkpt lat="29.265101" lon="105.515679"><ele>623.9449</ele><time>2026-03-24T01:03:26.000Z</time></trkpt>
        <trkpt lat="29.265156" lon="105.5157"><ele>623.84076</ele><time>2026-03-24T01:03:31.000Z</time></trkpt>
        <trkpt lat="29.265203" lon="105.515724"><ele>623.57556</ele><time>2026-03-24T01:03:35.000Z</time></trkpt>
        <trkpt lat="29.265259" lon="105.515754"><ele>623.3389</ele><time>2026-03-24T01:03:40.000Z</time></trkpt>
        <trkpt lat="29.265315" lon="105.515785"><ele>623.49146</ele><time>2026-03-24T01:03:45.000Z</time></trkpt>
        <trkpt lat="29.265364" lon="105.515809"><ele>624.4331</ele><time>2026-03-24T01:03:50.000Z</time></trkpt>
        <trkpt lat="29.265404" lon="105.515826"><ele>625.8027</ele><time>2026-03-24T01:03:54.000Z</time></trkpt>
        <trkpt lat="29.265462" lon="105.515826"><ele>627.6443</ele><time>2026-03-24T01:04:00.000Z</time></trkpt>
        <trkpt lat="29.265514" lon="105.515824"><ele>628.40405</ele><time>2026-03-24T01:04:05.000Z</time></trkpt>
        <trkpt lat="29.265563" lon="105.515824"><ele>629.00366</ele><time>2026-03-24T01:04:09.000Z</time></trkpt>
        <trkpt lat="29.265618" lon="105.515824"><ele>629.8604</ele><time>2026-03-24T01:04:14.000Z</time></trkpt>
        <trkpt lat="29.265678" lon="105.51583"><ele>628.51324</ele><time>2026-03-24T01:04:21.000Z</time></trkpt>
        <trkpt lat="29.265725" lon="105.515831"><ele>627.8297</ele><time>2026-03-24T01:04:26.000Z</time></trkpt>
        <trkpt lat="29.265771" lon="105.515836"><ele>627.0333</ele><time>2026-03-24T01:04:30.000Z</time></trkpt>
        <trkpt lat="29.265826" lon="105.51584"><ele>625.5307</ele><time>2026-03-24T01:04:35.000Z</time></trkpt>
        <trkpt lat="29.265878" lon="105.515836"><ele>624.33344</ele><time>2026-03-24T01:04:39.000Z</time></trkpt>
        <trkpt lat="29.265927" lon="105.515814"><ele>623.7291</ele><time>2026-03-24T01:04:44.000Z</time></trkpt>
        <trkpt lat="29.265968" lon="105.515795"><ele>623.39655</ele><time>2026-03-24T01:04:48.000Z</time></trkpt>
        <trkpt lat="29.266032" lon="105.51579"><ele>623.31274</ele><time>2026-03-24T01:04:54.000Z</time></trkpt>
        <trkpt lat="29.266082" lon="105.515806"><ele>623.3414</ele><time>2026-03-24T01:04:59.000Z</time></trkpt>
        <trkpt lat="29.266131" lon="105.515816"><ele>623.3258</ele><time>2026-03-24T01:05:04.000Z</time></trkpt>
        <trkpt lat="29.26617" lon="105.515853"><ele>623.4597</ele><time>2026-03-24T01:06:37.000Z</time></trkpt>
        <trkpt lat="29.26615" lon="105.515806"><ele>623.5428</ele><time>2026-03-24T01:07:31.000Z</time></trkpt>
        <trkpt lat="29.266126" lon="105.515759"><ele>625.53406</ele><time>2026-03-24T01:08:52.000Z</time></trkpt>
        <trkpt lat="29.266148" lon="105.51581"><ele>623.52167</ele><time>2026-03-24T01:09:10.000Z</time></trkpt>
        <trkpt lat="29.266133" lon="105.515761"><ele>625.48596</ele><time>2026-03-24T01:09:45.000Z</time></trkpt>
        <trkpt lat="29.266153" lon="105.515803"><ele>625.16833</ele><time>2026-03-24T01:09:55.000Z</time></trkpt>
      </trkseg>
  </trk>
</gpx>